<?xml version="1.0" encoding="UTF-8" standalone="no" ?>
<gpx xmlns="http://www.topografix.com/GPX/1/1" xmlns:xsi="http://www.w3.org/2001/XMLSchema-instance" xsi:schemaLocation="http://www.topografix.com/GPX/1/1 http://www.topografix.com/GPX/1/1/gpx.xsd" version="1.1" creator="VisuGPX - https://www.visugpx.com">
  <metadata>
    <name>82 Kms 30 04 12</name>
    <desc><![CDATA[Sortie individuel]]></desc>
  </metadata>
  <trk>
    <name><![CDATA[82 Kms 30 04 12_1]]></name>
    <trkseg>
      <trkpt lat="47.02123" lon="-1.0589">
        <ele>125</ele>
        <time>2012-04-30T11:49:18Z</time>
      </trkpt>
      <trkpt lat="47.02124" lon="-1.05936">
        <ele>124</ele>
        <time>2012-04-30T11:53:27Z</time>
      </trkpt>
      <trkpt lat="47.02118" lon="-1.05949">
        <ele>124</ele>
        <time>2012-04-30T11:53:31Z</time>
      </trkpt>
      <trkpt lat="47.0211" lon="-1.05961">
        <ele>123</ele>
        <time>2012-04-30T11:53:31Z</time>
      </trkpt>
      <trkpt lat="47.02105" lon="-1.05965">
        <ele>122</ele>
        <time>2012-04-30T11:53:33Z</time>
      </trkpt>
      <trkpt lat="47.021" lon="-1.05969">
        <ele>121</ele>
        <time>2012-04-30T11:53:34Z</time>
      </trkpt>
      <trkpt lat="47.02095" lon="-1.05979">
        <ele>121</ele>
        <time>2012-04-30T11:53:37Z</time>
      </trkpt>
      <trkpt lat="47.02095" lon="-1.05992">
        <ele>120</ele>
        <time>2012-04-30T11:53:38Z</time>
      </trkpt>
      <trkpt lat="47.02095" lon="-1.05999">
        <ele>120</ele>
        <time>2012-04-30T11:53:39Z</time>
      </trkpt>
      <trkpt lat="47.02096" lon="-1.06008">
        <ele>120</ele>
        <time>2012-04-30T11:53:40Z</time>
      </trkpt>
      <trkpt lat="47.02094" lon="-1.06045">
        <ele>120</ele>
        <time>2012-04-30T11:53:43Z</time>
      </trkpt>
      <trkpt lat="47.02092" lon="-1.06054">
        <ele>119</ele>
        <time>2012-04-30T11:53:45Z</time>
      </trkpt>
      <trkpt lat="47.0209" lon="-1.06062">
        <ele>119</ele>
        <time>2012-04-30T11:53:46Z</time>
      </trkpt>
      <trkpt lat="47.02087" lon="-1.0608">
        <ele>118</ele>
        <time>2012-04-30T11:53:49Z</time>
      </trkpt>
      <trkpt lat="47.02086" lon="-1.06097">
        <ele>117</ele>
        <time>2012-04-30T11:53:49Z</time>
      </trkpt>
      <trkpt lat="47.02087" lon="-1.06106">
        <ele>116</ele>
        <time>2012-04-30T11:53:51Z</time>
      </trkpt>
      <trkpt lat="47.02087" lon="-1.06114">
        <ele>116</ele>
        <time>2012-04-30T11:53:52Z</time>
      </trkpt>
      <trkpt lat="47.02085" lon="-1.06134">
        <ele>115</ele>
        <time>2012-04-30T11:53:55Z</time>
      </trkpt>
      <trkpt lat="47.02082" lon="-1.06137">
        <ele>115</ele>
        <time>2012-04-30T11:53:56Z</time>
      </trkpt>
      <trkpt lat="47.02079" lon="-1.0614">
        <ele>114</ele>
        <time>2012-04-30T11:53:57Z</time>
      </trkpt>
      <trkpt lat="47.0207" lon="-1.06142">
        <ele>114</ele>
        <time>2012-04-30T11:54:02Z</time>
      </trkpt>
      <trkpt lat="47.02054" lon="-1.06145">
        <ele>113</ele>
        <time>2012-04-30T11:54:02Z</time>
      </trkpt>
      <trkpt lat="47.02049" lon="-1.06146">
        <ele>112</ele>
        <time>2012-04-30T11:54:03Z</time>
      </trkpt>
      <trkpt lat="47.02037" lon="-1.06148">
        <ele>112</ele>
        <time>2012-04-30T11:54:07Z</time>
      </trkpt>
      <trkpt lat="47.02026" lon="-1.0615">
        <ele>112</ele>
        <time>2012-04-30T11:54:07Z</time>
      </trkpt>
      <trkpt lat="47.0202" lon="-1.06151">
        <ele>112</ele>
        <time>2012-04-30T11:54:08Z</time>
      </trkpt>
      <trkpt lat="47.02008" lon="-1.06153">
        <ele>112</ele>
        <time>2012-04-30T11:54:13Z</time>
      </trkpt>
      <trkpt lat="47.01989" lon="-1.06161">
        <ele>112</ele>
        <time>2012-04-30T11:54:13Z</time>
      </trkpt>
      <trkpt lat="47.01983" lon="-1.06163">
        <ele>112</ele>
        <time>2012-04-30T11:54:14Z</time>
      </trkpt>
      <trkpt lat="47.0196" lon="-1.06174">
        <ele>112</ele>
        <time>2012-04-30T11:54:19Z</time>
      </trkpt>
      <trkpt lat="47.01955" lon="-1.06177">
        <ele>112</ele>
        <time>2012-04-30T11:54:19Z</time>
      </trkpt>
      <trkpt lat="47.01949" lon="-1.06179">
        <ele>112</ele>
        <time>2012-04-30T11:54:20Z</time>
      </trkpt>
      <trkpt lat="47.01925" lon="-1.06179">
        <ele>112</ele>
        <time>2012-04-30T11:54:24Z</time>
      </trkpt>
      <trkpt lat="47.0192" lon="-1.06176">
        <ele>112</ele>
        <time>2012-04-30T11:54:26Z</time>
      </trkpt>
      <trkpt lat="47.01914" lon="-1.06174">
        <ele>112</ele>
        <time>2012-04-30T11:54:27Z</time>
      </trkpt>
      <trkpt lat="47.01904" lon="-1.06167">
        <ele>112</ele>
        <time>2012-04-30T11:54:31Z</time>
      </trkpt>
      <trkpt lat="47.01889" lon="-1.06153">
        <ele>112</ele>
        <time>2012-04-30T11:54:31Z</time>
      </trkpt>
      <trkpt lat="47.01884" lon="-1.06147">
        <ele>111</ele>
        <time>2012-04-30T11:54:32Z</time>
      </trkpt>
      <trkpt lat="47.01877" lon="-1.06133">
        <ele>111</ele>
        <time>2012-04-30T11:54:38Z</time>
      </trkpt>
      <trkpt lat="47.01865" lon="-1.06103">
        <ele>111</ele>
        <time>2012-04-30T11:54:38Z</time>
      </trkpt>
      <trkpt lat="47.01862" lon="-1.06096">
        <ele>111</ele>
        <time>2012-04-30T11:54:40Z</time>
      </trkpt>
      <trkpt lat="47.01858" lon="-1.06083">
        <ele>111</ele>
        <time>2012-04-30T11:54:44Z</time>
      </trkpt>
      <trkpt lat="47.01846" lon="-1.06079">
        <ele>111</ele>
        <time>2012-04-30T11:54:44Z</time>
      </trkpt>
      <trkpt lat="47.01841" lon="-1.06083">
        <ele>111</ele>
        <time>2012-04-30T11:54:45Z</time>
      </trkpt>
      <trkpt lat="47.01836" lon="-1.06087">
        <ele>111</ele>
        <time>2012-04-30T11:54:47Z</time>
      </trkpt>
      <trkpt lat="47.01825" lon="-1.06094">
        <ele>111</ele>
        <time>2012-04-30T11:54:51Z</time>
      </trkpt>
      <trkpt lat="47.01809" lon="-1.06102">
        <ele>111</ele>
        <time>2012-04-30T11:54:51Z</time>
      </trkpt>
      <trkpt lat="47.01804" lon="-1.06106">
        <ele>111</ele>
        <time>2012-04-30T11:54:52Z</time>
      </trkpt>
      <trkpt lat="47.01791" lon="-1.06116">
        <ele>110</ele>
        <time>2012-04-30T11:54:57Z</time>
      </trkpt>
      <trkpt lat="47.01768" lon="-1.06131">
        <ele>109</ele>
        <time>2012-04-30T11:54:58Z</time>
      </trkpt>
      <trkpt lat="47.01763" lon="-1.06136">
        <ele>109</ele>
        <time>2012-04-30T11:54:59Z</time>
      </trkpt>
      <trkpt lat="47.01752" lon="-1.06142">
        <ele>109</ele>
        <time>2012-04-30T11:55:04Z</time>
      </trkpt>
      <trkpt lat="47.01741" lon="-1.06157">
        <ele>109</ele>
        <time>2012-04-30T11:55:04Z</time>
      </trkpt>
      <trkpt lat="47.01743" lon="-1.06168">
        <ele>109</ele>
        <time>2012-04-30T11:55:06Z</time>
      </trkpt>
      <trkpt lat="47.01746" lon="-1.06179">
        <ele>109</ele>
        <time>2012-04-30T11:55:07Z</time>
      </trkpt>
      <trkpt lat="47.01749" lon="-1.06188">
        <ele>109</ele>
        <time>2012-04-30T11:55:08Z</time>
      </trkpt>
      <trkpt lat="47.0176" lon="-1.06232">
        <ele>109</ele>
        <time>2012-04-30T11:55:13Z</time>
      </trkpt>
      <trkpt lat="47.01762" lon="-1.06241">
        <ele>109</ele>
        <time>2012-04-30T11:55:13Z</time>
      </trkpt>
      <trkpt lat="47.01767" lon="-1.06259">
        <ele>109</ele>
        <time>2012-04-30T11:55:19Z</time>
      </trkpt>
      <trkpt lat="47.01771" lon="-1.06295">
        <ele>109</ele>
        <time>2012-04-30T11:55:19Z</time>
      </trkpt>
      <trkpt lat="47.01769" lon="-1.06304">
        <ele>109</ele>
        <time>2012-04-30T11:55:21Z</time>
      </trkpt>
      <trkpt lat="47.01767" lon="-1.06312">
        <ele>109</ele>
        <time>2012-04-30T11:55:22Z</time>
      </trkpt>
      <trkpt lat="47.01761" lon="-1.06328">
        <ele>109</ele>
        <time>2012-04-30T11:55:27Z</time>
      </trkpt>
      <trkpt lat="47.01749" lon="-1.06365">
        <ele>108</ele>
        <time>2012-04-30T11:55:27Z</time>
      </trkpt>
      <trkpt lat="47.01746" lon="-1.06374">
        <ele>108</ele>
        <time>2012-04-30T11:55:28Z</time>
      </trkpt>
      <trkpt lat="47.01732" lon="-1.06421">
        <ele>108</ele>
        <time>2012-04-30T11:55:34Z</time>
      </trkpt>
      <trkpt lat="47.01729" lon="-1.0643">
        <ele>108</ele>
        <time>2012-04-30T11:55:34Z</time>
      </trkpt>
      <trkpt lat="47.01726" lon="-1.06439">
        <ele>107</ele>
        <time>2012-04-30T11:55:35Z</time>
      </trkpt>
      <trkpt lat="47.01713" lon="-1.06484">
        <ele>107</ele>
        <time>2012-04-30T11:55:40Z</time>
      </trkpt>
      <trkpt lat="47.01711" lon="-1.06494">
        <ele>107</ele>
        <time>2012-04-30T11:55:41Z</time>
      </trkpt>
      <trkpt lat="47.01708" lon="-1.06503">
        <ele>107</ele>
        <time>2012-04-30T11:55:42Z</time>
      </trkpt>
      <trkpt lat="47.01694" lon="-1.06548">
        <ele>107</ele>
        <time>2012-04-30T11:55:47Z</time>
      </trkpt>
      <trkpt lat="47.01691" lon="-1.06557">
        <ele>107</ele>
        <time>2012-04-30T11:55:48Z</time>
      </trkpt>
      <trkpt lat="47.01686" lon="-1.06575">
        <ele>107</ele>
        <time>2012-04-30T11:55:54Z</time>
      </trkpt>
      <trkpt lat="47.01675" lon="-1.06611">
        <ele>107</ele>
        <time>2012-04-30T11:55:54Z</time>
      </trkpt>
      <trkpt lat="47.01672" lon="-1.0662">
        <ele>107</ele>
        <time>2012-04-30T11:55:55Z</time>
      </trkpt>
      <trkpt lat="47.01667" lon="-1.06637">
        <ele>107</ele>
        <time>2012-04-30T11:56:01Z</time>
      </trkpt>
      <trkpt lat="47.01658" lon="-1.06671">
        <ele>107</ele>
        <time>2012-04-30T11:56:01Z</time>
      </trkpt>
      <trkpt lat="47.01656" lon="-1.06679">
        <ele>107</ele>
        <time>2012-04-30T11:56:02Z</time>
      </trkpt>
      <trkpt lat="47.01652" lon="-1.06699">
        <ele>107</ele>
        <time>2012-04-30T11:56:08Z</time>
      </trkpt>
      <trkpt lat="47.01646" lon="-1.06735">
        <ele>107</ele>
        <time>2012-04-30T11:56:08Z</time>
      </trkpt>
      <trkpt lat="47.01644" lon="-1.06744">
        <ele>107</ele>
        <time>2012-04-30T11:56:09Z</time>
      </trkpt>
      <trkpt lat="47.01641" lon="-1.06763">
        <ele>107</ele>
        <time>2012-04-30T11:56:15Z</time>
      </trkpt>
      <trkpt lat="47.01637" lon="-1.06802">
        <ele>107</ele>
        <time>2012-04-30T11:56:15Z</time>
      </trkpt>
      <trkpt lat="47.01636" lon="-1.06812">
        <ele>106</ele>
        <time>2012-04-30T11:56:16Z</time>
      </trkpt>
      <trkpt lat="47.01627" lon="-1.06875">
        <ele>105</ele>
        <time>2012-04-30T11:56:22Z</time>
      </trkpt>
      <trkpt lat="47.01625" lon="-1.06886">
        <ele>104</ele>
        <time>2012-04-30T11:56:23Z</time>
      </trkpt>
      <trkpt lat="47.0162" lon="-1.06906">
        <ele>103</ele>
        <time>2012-04-30T11:56:29Z</time>
      </trkpt>
      <trkpt lat="47.01603" lon="-1.06958">
        <ele>102</ele>
        <time>2012-04-30T11:56:30Z</time>
      </trkpt>
      <trkpt lat="47.016" lon="-1.06968">
        <ele>101</ele>
        <time>2012-04-30T11:56:31Z</time>
      </trkpt>
      <trkpt lat="47.01594" lon="-1.06988">
        <ele>100</ele>
        <time>2012-04-30T11:56:37Z</time>
      </trkpt>
      <trkpt lat="47.0158" lon="-1.07029">
        <ele>99</ele>
        <time>2012-04-30T11:56:37Z</time>
      </trkpt>
      <trkpt lat="47.01577" lon="-1.0704">
        <ele>98</ele>
        <time>2012-04-30T11:56:38Z</time>
      </trkpt>
      <trkpt lat="47.01569" lon="-1.07061">
        <ele>97</ele>
        <time>2012-04-30T11:56:44Z</time>
      </trkpt>
      <trkpt lat="47.01553" lon="-1.07103">
        <ele>96</ele>
        <time>2012-04-30T11:56:45Z</time>
      </trkpt>
      <trkpt lat="47.01548" lon="-1.07114">
        <ele>95</ele>
        <time>2012-04-30T11:56:45Z</time>
      </trkpt>
      <trkpt lat="47.01541" lon="-1.07135">
        <ele>94</ele>
        <time>2012-04-30T11:56:52Z</time>
      </trkpt>
      <trkpt lat="47.01537" lon="-1.07186">
        <ele>93</ele>
        <time>2012-04-30T11:56:52Z</time>
      </trkpt>
      <trkpt lat="47.01536" lon="-1.07195">
        <ele>92</ele>
        <time>2012-04-30T11:56:53Z</time>
      </trkpt>
      <trkpt lat="47.01534" lon="-1.07204">
        <ele>91</ele>
        <time>2012-04-30T11:56:55Z</time>
      </trkpt>
      <trkpt lat="47.0153" lon="-1.07209">
        <ele>90</ele>
        <time>2012-04-30T11:56:56Z</time>
      </trkpt>
      <trkpt lat="47.01518" lon="-1.07209">
        <ele>89</ele>
        <time>2012-04-30T11:57:02Z</time>
      </trkpt>
      <trkpt lat="47.01485" lon="-1.07213">
        <ele>89</ele>
        <time>2012-04-30T11:57:03Z</time>
      </trkpt>
      <trkpt lat="47.01479" lon="-1.07216">
        <ele>89</ele>
        <time>2012-04-30T11:57:04Z</time>
      </trkpt>
      <trkpt lat="47.01466" lon="-1.07222">
        <ele>89</ele>
        <time>2012-04-30T11:57:10Z</time>
      </trkpt>
      <trkpt lat="47.01431" lon="-1.07239">
        <ele>89</ele>
        <time>2012-04-30T11:57:10Z</time>
      </trkpt>
      <trkpt lat="47.01423" lon="-1.07243">
        <ele>89</ele>
        <time>2012-04-30T11:57:11Z</time>
      </trkpt>
      <trkpt lat="47.01376" lon="-1.07251">
        <ele>88</ele>
        <time>2012-04-30T11:57:18Z</time>
      </trkpt>
      <trkpt lat="47.01368" lon="-1.07249">
        <ele>87</ele>
        <time>2012-04-30T11:57:19Z</time>
      </trkpt>
      <trkpt lat="47.0136" lon="-1.07248">
        <ele>86</ele>
        <time>2012-04-30T11:57:20Z</time>
      </trkpt>
      <trkpt lat="47.01323" lon="-1.0728">
        <ele>85</ele>
        <time>2012-04-30T11:57:24Z</time>
      </trkpt>
      <trkpt lat="47.01317" lon="-1.07291">
        <ele>84</ele>
        <time>2012-04-30T11:57:26Z</time>
      </trkpt>
      <trkpt lat="47.01312" lon="-1.07303">
        <ele>83</ele>
        <time>2012-04-30T11:57:27Z</time>
      </trkpt>
      <trkpt lat="47.01303" lon="-1.07327">
        <ele>82</ele>
        <time>2012-04-30T11:57:32Z</time>
      </trkpt>
      <trkpt lat="47.01284" lon="-1.07376">
        <ele>81</ele>
        <time>2012-04-30T11:57:32Z</time>
      </trkpt>
      <trkpt lat="47.01279" lon="-1.07387">
        <ele>80</ele>
        <time>2012-04-30T11:57:33Z</time>
      </trkpt>
      <trkpt lat="47.01242" lon="-1.07427">
        <ele>79</ele>
        <time>2012-04-30T11:57:39Z</time>
      </trkpt>
      <trkpt lat="47.01233" lon="-1.07432">
        <ele>78</ele>
        <time>2012-04-30T11:57:40Z</time>
      </trkpt>
      <trkpt lat="47.01225" lon="-1.07436">
        <ele>77</ele>
        <time>2012-04-30T11:57:41Z</time>
      </trkpt>
      <trkpt lat="47.01208" lon="-1.07445">
        <ele>76</ele>
        <time>2012-04-30T11:57:46Z</time>
      </trkpt>
      <trkpt lat="47.01181" lon="-1.07477">
        <ele>75</ele>
        <time>2012-04-30T11:57:46Z</time>
      </trkpt>
      <trkpt lat="47.01176" lon="-1.07485">
        <ele>74</ele>
        <time>2012-04-30T11:57:47Z</time>
      </trkpt>
      <trkpt lat="47.01171" lon="-1.07493">
        <ele>73</ele>
        <time>2012-04-30T11:57:49Z</time>
      </trkpt>
      <trkpt lat="47.0116" lon="-1.07503">
        <ele>72</ele>
        <time>2012-04-30T11:57:54Z</time>
      </trkpt>
      <trkpt lat="47.01133" lon="-1.07477">
        <ele>71</ele>
        <time>2012-04-30T11:57:55Z</time>
      </trkpt>
      <trkpt lat="47.0113" lon="-1.07465">
        <ele>70</ele>
        <time>2012-04-30T11:57:55Z</time>
      </trkpt>
      <trkpt lat="47.01128" lon="-1.07451">
        <ele>69</ele>
        <time>2012-04-30T11:57:57Z</time>
      </trkpt>
      <trkpt lat="47.01123" lon="-1.07425">
        <ele>67</ele>
        <time>2012-04-30T11:58:02Z</time>
      </trkpt>
      <trkpt lat="47.01111" lon="-1.0737">
        <ele>65</ele>
        <time>2012-04-30T11:58:02Z</time>
      </trkpt>
      <trkpt lat="47.01108" lon="-1.07356">
        <ele>64</ele>
        <time>2012-04-30T11:58:03Z</time>
      </trkpt>
      <trkpt lat="47.01102" lon="-1.07327">
        <ele>63</ele>
        <time>2012-04-30T11:58:09Z</time>
      </trkpt>
      <trkpt lat="47.01091" lon="-1.07267">
        <ele>62</ele>
        <time>2012-04-30T11:58:09Z</time>
      </trkpt>
      <trkpt lat="47.01088" lon="-1.07251">
        <ele>61</ele>
        <time>2012-04-30T11:58:10Z</time>
      </trkpt>
      <trkpt lat="47.01083" lon="-1.0722">
        <ele>60</ele>
        <time>2012-04-30T11:58:16Z</time>
      </trkpt>
      <trkpt lat="47.01074" lon="-1.0716">
        <ele>59</ele>
        <time>2012-04-30T11:58:16Z</time>
      </trkpt>
      <trkpt lat="47.01072" lon="-1.07146">
        <ele>58</ele>
        <time>2012-04-30T11:58:17Z</time>
      </trkpt>
      <trkpt lat="47.01067" lon="-1.07119">
        <ele>57</ele>
        <time>2012-04-30T11:58:23Z</time>
      </trkpt>
      <trkpt lat="47.01058" lon="-1.07068">
        <ele>56</ele>
        <time>2012-04-30T11:58:23Z</time>
      </trkpt>
      <trkpt lat="47.01056" lon="-1.07056">
        <ele>55</ele>
        <time>2012-04-30T11:58:24Z</time>
      </trkpt>
      <trkpt lat="47.01044" lon="-1.06993">
        <ele>54</ele>
        <time>2012-04-30T11:58:31Z</time>
      </trkpt>
      <trkpt lat="47.01042" lon="-1.06985">
        <ele>53</ele>
        <time>2012-04-30T11:58:31Z</time>
      </trkpt>
      <trkpt lat="47.01041" lon="-1.06977">
        <ele>52</ele>
        <time>2012-04-30T11:58:32Z</time>
      </trkpt>
      <trkpt lat="47.01038" lon="-1.06961">
        <ele>52</ele>
        <time>2012-04-30T11:58:38Z</time>
      </trkpt>
      <trkpt lat="47.01033" lon="-1.06931">
        <ele>52</ele>
        <time>2012-04-30T11:58:38Z</time>
      </trkpt>
      <trkpt lat="47.01032" lon="-1.06924">
        <ele>53</ele>
        <time>2012-04-30T11:58:39Z</time>
      </trkpt>
      <trkpt lat="47.0103" lon="-1.0691">
        <ele>54</ele>
        <time>2012-04-30T11:58:45Z</time>
      </trkpt>
      <trkpt lat="47.01028" lon="-1.06883">
        <ele>55</ele>
        <time>2012-04-30T11:58:45Z</time>
      </trkpt>
      <trkpt lat="47.01028" lon="-1.06877">
        <ele>56</ele>
        <time>2012-04-30T11:58:46Z</time>
      </trkpt>
      <trkpt lat="47.01028" lon="-1.06864">
        <ele>57</ele>
        <time>2012-04-30T11:58:53Z</time>
      </trkpt>
      <trkpt lat="47.01026" lon="-1.06831">
        <ele>58</ele>
        <time>2012-04-30T11:58:53Z</time>
      </trkpt>
      <trkpt lat="47.01026" lon="-1.06824">
        <ele>59</ele>
        <time>2012-04-30T11:58:54Z</time>
      </trkpt>
      <trkpt lat="47.01022" lon="-1.06782">
        <ele>60</ele>
        <time>2012-04-30T11:59:00Z</time>
      </trkpt>
      <trkpt lat="47.01022" lon="-1.06775">
        <ele>61</ele>
        <time>2012-04-30T11:59:01Z</time>
      </trkpt>
      <trkpt lat="47.01021" lon="-1.06769">
        <ele>62</ele>
        <time>2012-04-30T11:59:02Z</time>
      </trkpt>
      <trkpt lat="47.0102" lon="-1.06754">
        <ele>63</ele>
        <time>2012-04-30T11:59:08Z</time>
      </trkpt>
      <trkpt lat="47.01017" lon="-1.06726">
        <ele>64</ele>
        <time>2012-04-30T11:59:08Z</time>
      </trkpt>
      <trkpt lat="47.01017" lon="-1.06719">
        <ele>65</ele>
        <time>2012-04-30T11:59:09Z</time>
      </trkpt>
      <trkpt lat="47.01016" lon="-1.06705">
        <ele>66</ele>
        <time>2012-04-30T11:59:16Z</time>
      </trkpt>
      <trkpt lat="47.01011" lon="-1.06676">
        <ele>67</ele>
        <time>2012-04-30T11:59:17Z</time>
      </trkpt>
      <trkpt lat="47.01009" lon="-1.0667">
        <ele>68</ele>
        <time>2012-04-30T11:59:17Z</time>
      </trkpt>
      <trkpt lat="47.01007" lon="-1.06665">
        <ele>69</ele>
        <time>2012-04-30T11:59:19Z</time>
      </trkpt>
      <trkpt lat="47.01002" lon="-1.06654">
        <ele>70</ele>
        <time>2012-04-30T11:59:23Z</time>
      </trkpt>
      <trkpt lat="47.00991" lon="-1.06633">
        <ele>71</ele>
        <time>2012-04-30T11:59:24Z</time>
      </trkpt>
      <trkpt lat="47.00988" lon="-1.06628">
        <ele>72</ele>
        <time>2012-04-30T11:59:25Z</time>
      </trkpt>
      <trkpt lat="47.00984" lon="-1.06623">
        <ele>73</ele>
        <time>2012-04-30T11:59:26Z</time>
      </trkpt>
      <trkpt lat="47.00978" lon="-1.06614">
        <ele>74</ele>
        <time>2012-04-30T11:59:31Z</time>
      </trkpt>
      <trkpt lat="47.00967" lon="-1.06602">
        <ele>75</ele>
        <time>2012-04-30T11:59:31Z</time>
      </trkpt>
      <trkpt lat="47.00963" lon="-1.06598">
        <ele>75</ele>
        <time>2012-04-30T11:59:32Z</time>
      </trkpt>
      <trkpt lat="47.00955" lon="-1.06591">
        <ele>75</ele>
        <time>2012-04-30T11:59:38Z</time>
      </trkpt>
      <trkpt lat="47.00939" lon="-1.06578">
        <ele>75</ele>
        <time>2012-04-30T11:59:38Z</time>
      </trkpt>
      <trkpt lat="47.00935" lon="-1.06575">
        <ele>75</ele>
        <time>2012-04-30T11:59:39Z</time>
      </trkpt>
      <trkpt lat="47.00916" lon="-1.06563">
        <ele>75</ele>
        <time>2012-04-30T11:59:45Z</time>
      </trkpt>
      <trkpt lat="47.00912" lon="-1.06561">
        <ele>75</ele>
        <time>2012-04-30T11:59:45Z</time>
      </trkpt>
      <trkpt lat="47.00908" lon="-1.06559">
        <ele>75</ele>
        <time>2012-04-30T11:59:46Z</time>
      </trkpt>
      <trkpt lat="47.0089" lon="-1.06552">
        <ele>75</ele>
        <time>2012-04-30T11:59:51Z</time>
      </trkpt>
      <trkpt lat="47.00886" lon="-1.06551">
        <ele>75</ele>
        <time>2012-04-30T11:59:52Z</time>
      </trkpt>
      <trkpt lat="47.00882" lon="-1.0655">
        <ele>75</ele>
        <time>2012-04-30T11:59:53Z</time>
      </trkpt>
      <trkpt lat="47.00863" lon="-1.06547">
        <ele>76</ele>
        <time>2012-04-30T11:59:58Z</time>
      </trkpt>
      <trkpt lat="47.00859" lon="-1.06547">
        <ele>77</ele>
        <time>2012-04-30T11:59:59Z</time>
      </trkpt>
      <trkpt lat="47.00854" lon="-1.06547">
        <ele>78</ele>
        <time>2012-04-30T12:00:00Z</time>
      </trkpt>
      <trkpt lat="47.00846" lon="-1.06548">
        <ele>78</ele>
        <time>2012-04-30T12:00:06Z</time>
      </trkpt>
      <trkpt lat="47.00829" lon="-1.0655">
        <ele>79</ele>
        <time>2012-04-30T12:00:06Z</time>
      </trkpt>
      <trkpt lat="47.00825" lon="-1.06551">
        <ele>80</ele>
        <time>2012-04-30T12:00:07Z</time>
      </trkpt>
      <trkpt lat="47.00805" lon="-1.06558">
        <ele>80</ele>
        <time>2012-04-30T12:00:12Z</time>
      </trkpt>
      <trkpt lat="47.00801" lon="-1.06559">
        <ele>81</ele>
        <time>2012-04-30T12:00:13Z</time>
      </trkpt>
      <trkpt lat="47.00797" lon="-1.06561">
        <ele>81</ele>
        <time>2012-04-30T12:00:14Z</time>
      </trkpt>
      <trkpt lat="47.00778" lon="-1.06569">
        <ele>82</ele>
        <time>2012-04-30T12:00:20Z</time>
      </trkpt>
      <trkpt lat="47.00774" lon="-1.06571">
        <ele>83</ele>
        <time>2012-04-30T12:00:20Z</time>
      </trkpt>
      <trkpt lat="47.00751" lon="-1.06582">
        <ele>83</ele>
        <time>2012-04-30T12:00:26Z</time>
      </trkpt>
      <trkpt lat="47.00748" lon="-1.06583">
        <ele>84</ele>
        <time>2012-04-30T12:00:27Z</time>
      </trkpt>
      <trkpt lat="47.00739" lon="-1.06587">
        <ele>85</ele>
        <time>2012-04-30T12:00:33Z</time>
      </trkpt>
      <trkpt lat="47.00722" lon="-1.06595">
        <ele>86</ele>
        <time>2012-04-30T12:00:33Z</time>
      </trkpt>
      <trkpt lat="47.00718" lon="-1.06597">
        <ele>86</ele>
        <time>2012-04-30T12:00:34Z</time>
      </trkpt>
      <trkpt lat="47.00689" lon="-1.06609">
        <ele>86</ele>
        <time>2012-04-30T12:00:40Z</time>
      </trkpt>
      <trkpt lat="47.00684" lon="-1.06612">
        <ele>86</ele>
        <time>2012-04-30T12:00:41Z</time>
      </trkpt>
      <trkpt lat="47.00675" lon="-1.06616">
        <ele>86</ele>
        <time>2012-04-30T12:00:47Z</time>
      </trkpt>
      <trkpt lat="47.00655" lon="-1.06625">
        <ele>86</ele>
        <time>2012-04-30T12:00:47Z</time>
      </trkpt>
      <trkpt lat="47.0065" lon="-1.06628">
        <ele>86</ele>
        <time>2012-04-30T12:00:48Z</time>
      </trkpt>
      <trkpt lat="47.0062" lon="-1.06641">
        <ele>86</ele>
        <time>2012-04-30T12:00:54Z</time>
      </trkpt>
      <trkpt lat="47.00615" lon="-1.06644">
        <ele>86</ele>
        <time>2012-04-30T12:00:55Z</time>
      </trkpt>
      <trkpt lat="47.00586" lon="-1.06657">
        <ele>86</ele>
        <time>2012-04-30T12:01:01Z</time>
      </trkpt>
      <trkpt lat="47.00582" lon="-1.06659">
        <ele>86</ele>
        <time>2012-04-30T12:01:02Z</time>
      </trkpt>
      <trkpt lat="47.00555" lon="-1.06663">
        <ele>86</ele>
        <time>2012-04-30T12:01:08Z</time>
      </trkpt>
      <trkpt lat="47.00551" lon="-1.06662">
        <ele>86</ele>
        <time>2012-04-30T12:01:10Z</time>
      </trkpt>
      <trkpt lat="47.00546" lon="-1.0666">
        <ele>86</ele>
        <time>2012-04-30T12:01:11Z</time>
      </trkpt>
      <trkpt lat="47.00537" lon="-1.06655">
        <ele>86</ele>
        <time>2012-04-30T12:01:16Z</time>
      </trkpt>
      <trkpt lat="47.00518" lon="-1.06642">
        <ele>86</ele>
        <time>2012-04-30T12:01:16Z</time>
      </trkpt>
      <trkpt lat="47.00513" lon="-1.06638">
        <ele>86</ele>
        <time>2012-04-30T12:01:17Z</time>
      </trkpt>
      <trkpt lat="47.00502" lon="-1.0663">
        <ele>86</ele>
        <time>2012-04-30T12:01:23Z</time>
      </trkpt>
      <trkpt lat="47.00482" lon="-1.06614">
        <ele>86</ele>
        <time>2012-04-30T12:01:23Z</time>
      </trkpt>
      <trkpt lat="47.00477" lon="-1.06609">
        <ele>86</ele>
        <time>2012-04-30T12:01:24Z</time>
      </trkpt>
      <trkpt lat="47.00446" lon="-1.06585">
        <ele>87</ele>
        <time>2012-04-30T12:01:30Z</time>
      </trkpt>
      <trkpt lat="47.00441" lon="-1.06581">
        <ele>87</ele>
        <time>2012-04-30T12:01:31Z</time>
      </trkpt>
      <trkpt lat="47.00436" lon="-1.06577">
        <ele>87</ele>
        <time>2012-04-30T12:01:32Z</time>
      </trkpt>
      <trkpt lat="47.00426" lon="-1.06569">
        <ele>87</ele>
        <time>2012-04-30T12:01:38Z</time>
      </trkpt>
      <trkpt lat="47.00406" lon="-1.06552">
        <ele>87</ele>
        <time>2012-04-30T12:01:38Z</time>
      </trkpt>
      <trkpt lat="47.00401" lon="-1.06548">
        <ele>87</ele>
        <time>2012-04-30T12:01:39Z</time>
      </trkpt>
      <trkpt lat="47.00389" lon="-1.06539">
        <ele>87</ele>
        <time>2012-04-30T12:01:45Z</time>
      </trkpt>
      <trkpt lat="47.00367" lon="-1.06522">
        <ele>87</ele>
        <time>2012-04-30T12:01:45Z</time>
      </trkpt>
      <trkpt lat="47.00362" lon="-1.06518">
        <ele>87</ele>
        <time>2012-04-30T12:01:46Z</time>
      </trkpt>
      <trkpt lat="47.00352" lon="-1.0651">
        <ele>87</ele>
        <time>2012-04-30T12:01:52Z</time>
      </trkpt>
      <trkpt lat="47.00327" lon="-1.06492">
        <ele>87</ele>
        <time>2012-04-30T12:01:53Z</time>
      </trkpt>
      <trkpt lat="47.00322" lon="-1.06489">
        <ele>87</ele>
        <time>2012-04-30T12:01:54Z</time>
      </trkpt>
      <trkpt lat="47.00312" lon="-1.06482">
        <ele>87</ele>
        <time>2012-04-30T12:02:00Z</time>
      </trkpt>
      <trkpt lat="47.00292" lon="-1.06469">
        <ele>87</ele>
        <time>2012-04-30T12:02:00Z</time>
      </trkpt>
      <trkpt lat="47.00287" lon="-1.06466">
        <ele>87</ele>
        <time>2012-04-30T12:02:01Z</time>
      </trkpt>
      <trkpt lat="47.00277" lon="-1.06459">
        <ele>87</ele>
        <time>2012-04-30T12:02:08Z</time>
      </trkpt>
      <trkpt lat="47.00251" lon="-1.06442">
        <ele>87</ele>
        <time>2012-04-30T12:02:08Z</time>
      </trkpt>
      <trkpt lat="47.00246" lon="-1.06439">
        <ele>87</ele>
        <time>2012-04-30T12:02:09Z</time>
      </trkpt>
      <trkpt lat="47.00235" lon="-1.06433">
        <ele>87</ele>
        <time>2012-04-30T12:02:15Z</time>
      </trkpt>
      <trkpt lat="47.00214" lon="-1.06422">
        <ele>87</ele>
        <time>2012-04-30T12:02:15Z</time>
      </trkpt>
      <trkpt lat="47.00209" lon="-1.06419">
        <ele>87</ele>
        <time>2012-04-30T12:02:16Z</time>
      </trkpt>
      <trkpt lat="47.00198" lon="-1.06414">
        <ele>87</ele>
        <time>2012-04-30T12:02:23Z</time>
      </trkpt>
      <trkpt lat="47.0017" lon="-1.06403">
        <ele>87</ele>
        <time>2012-04-30T12:02:23Z</time>
      </trkpt>
      <trkpt lat="47.00164" lon="-1.06401">
        <ele>87</ele>
        <time>2012-04-30T12:02:24Z</time>
      </trkpt>
      <trkpt lat="47.00129" lon="-1.06385">
        <ele>87</ele>
        <time>2012-04-30T12:02:30Z</time>
      </trkpt>
      <trkpt lat="47.00122" lon="-1.06383">
        <ele>88</ele>
        <time>2012-04-30T12:02:31Z</time>
      </trkpt>
      <trkpt lat="47.0011" lon="-1.06379">
        <ele>88</ele>
        <time>2012-04-30T12:02:38Z</time>
      </trkpt>
      <trkpt lat="47.00079" lon="-1.06378">
        <ele>88</ele>
        <time>2012-04-30T12:02:38Z</time>
      </trkpt>
      <trkpt lat="47.00072" lon="-1.06382">
        <ele>88</ele>
        <time>2012-04-30T12:02:39Z</time>
      </trkpt>
      <trkpt lat="47.00067" lon="-1.06386">
        <ele>88</ele>
        <time>2012-04-30T12:02:41Z</time>
      </trkpt>
      <trkpt lat="47.00061" lon="-1.0639">
        <ele>88</ele>
        <time>2012-04-30T12:02:42Z</time>
      </trkpt>
      <trkpt lat="47.00034" lon="-1.06414">
        <ele>88</ele>
        <time>2012-04-30T12:02:46Z</time>
      </trkpt>
      <trkpt lat="47.00028" lon="-1.06419">
        <ele>88</ele>
        <time>2012-04-30T12:02:47Z</time>
      </trkpt>
      <trkpt lat="47.00017" lon="-1.06429">
        <ele>88</ele>
        <time>2012-04-30T12:02:53Z</time>
      </trkpt>
      <trkpt lat="46.99993" lon="-1.06442">
        <ele>88</ele>
        <time>2012-04-30T12:02:53Z</time>
      </trkpt>
      <trkpt lat="46.99987" lon="-1.06444">
        <ele>88</ele>
        <time>2012-04-30T12:02:55Z</time>
      </trkpt>
      <trkpt lat="46.99981" lon="-1.06445">
        <ele>88</ele>
        <time>2012-04-30T12:02:55Z</time>
      </trkpt>
      <trkpt lat="46.99968" lon="-1.06445">
        <ele>88</ele>
        <time>2012-04-30T12:03:00Z</time>
      </trkpt>
      <trkpt lat="46.99949" lon="-1.06442">
        <ele>88</ele>
        <time>2012-04-30T12:03:00Z</time>
      </trkpt>
      <trkpt lat="46.99942" lon="-1.0644">
        <ele>88</ele>
        <time>2012-04-30T12:03:01Z</time>
      </trkpt>
      <trkpt lat="46.9993" lon="-1.06438">
        <ele>88</ele>
        <time>2012-04-30T12:03:07Z</time>
      </trkpt>
      <trkpt lat="46.99906" lon="-1.06433">
        <ele>88</ele>
        <time>2012-04-30T12:03:07Z</time>
      </trkpt>
      <trkpt lat="46.999" lon="-1.06432">
        <ele>88</ele>
        <time>2012-04-30T12:03:08Z</time>
      </trkpt>
      <trkpt lat="46.99888" lon="-1.06429">
        <ele>88</ele>
        <time>2012-04-30T12:03:13Z</time>
      </trkpt>
      <trkpt lat="46.99866" lon="-1.06426">
        <ele>88</ele>
        <time>2012-04-30T12:03:14Z</time>
      </trkpt>
      <trkpt lat="46.9986" lon="-1.06425">
        <ele>88</ele>
        <time>2012-04-30T12:03:15Z</time>
      </trkpt>
      <trkpt lat="46.99834" lon="-1.0643">
        <ele>89</ele>
        <time>2012-04-30T12:03:20Z</time>
      </trkpt>
      <trkpt lat="46.99829" lon="-1.06432">
        <ele>89</ele>
        <time>2012-04-30T12:03:22Z</time>
      </trkpt>
      <trkpt lat="46.99823" lon="-1.06433">
        <ele>90</ele>
        <time>2012-04-30T12:03:22Z</time>
      </trkpt>
      <trkpt lat="46.99797" lon="-1.06441">
        <ele>91</ele>
        <time>2012-04-30T12:03:28Z</time>
      </trkpt>
      <trkpt lat="46.99791" lon="-1.06443">
        <ele>91</ele>
        <time>2012-04-30T12:03:28Z</time>
      </trkpt>
      <trkpt lat="46.99786" lon="-1.06444">
        <ele>91</ele>
        <time>2012-04-30T12:03:29Z</time>
      </trkpt>
      <trkpt lat="46.99775" lon="-1.06448">
        <ele>92</ele>
        <time>2012-04-30T12:03:34Z</time>
      </trkpt>
      <trkpt lat="46.99752" lon="-1.06456">
        <ele>92</ele>
        <time>2012-04-30T12:03:35Z</time>
      </trkpt>
      <trkpt lat="46.99747" lon="-1.06459">
        <ele>92</ele>
        <time>2012-04-30T12:03:36Z</time>
      </trkpt>
      <trkpt lat="46.99738" lon="-1.06463">
        <ele>92</ele>
        <time>2012-04-30T12:03:41Z</time>
      </trkpt>
      <trkpt lat="46.99724" lon="-1.06467">
        <ele>92</ele>
        <time>2012-04-30T12:03:42Z</time>
      </trkpt>
      <trkpt lat="46.99721" lon="-1.06465">
        <ele>92</ele>
        <time>2012-04-30T12:03:44Z</time>
      </trkpt>
      <trkpt lat="46.99718" lon="-1.06462">
        <ele>92</ele>
        <time>2012-04-30T12:03:45Z</time>
      </trkpt>
      <trkpt lat="46.99705" lon="-1.06426">
        <ele>92</ele>
        <time>2012-04-30T12:03:50Z</time>
      </trkpt>
      <trkpt lat="46.99703" lon="-1.06419">
        <ele>92</ele>
        <time>2012-04-30T12:03:51Z</time>
      </trkpt>
      <trkpt lat="46.99702" lon="-1.06412">
        <ele>92</ele>
        <time>2012-04-30T12:03:53Z</time>
      </trkpt>
      <trkpt lat="46.99699" lon="-1.06398">
        <ele>92</ele>
        <time>2012-04-30T12:03:58Z</time>
      </trkpt>
      <trkpt lat="46.99691" lon="-1.06371">
        <ele>92</ele>
        <time>2012-04-30T12:03:58Z</time>
      </trkpt>
      <trkpt lat="46.99689" lon="-1.06364">
        <ele>92</ele>
        <time>2012-04-30T12:03:59Z</time>
      </trkpt>
      <trkpt lat="46.99685" lon="-1.0635">
        <ele>92</ele>
        <time>2012-04-30T12:04:05Z</time>
      </trkpt>
      <trkpt lat="46.99678" lon="-1.06324">
        <ele>93</ele>
        <time>2012-04-30T12:04:05Z</time>
      </trkpt>
      <trkpt lat="46.99677" lon="-1.06318">
        <ele>93</ele>
        <time>2012-04-30T12:04:06Z</time>
      </trkpt>
      <trkpt lat="46.99673" lon="-1.06306">
        <ele>94</ele>
        <time>2012-04-30T12:04:12Z</time>
      </trkpt>
      <trkpt lat="46.99666" lon="-1.06282">
        <ele>95</ele>
        <time>2012-04-30T12:04:12Z</time>
      </trkpt>
      <trkpt lat="46.99664" lon="-1.06277">
        <ele>96</ele>
        <time>2012-04-30T12:04:13Z</time>
      </trkpt>
      <trkpt lat="46.9966" lon="-1.06266">
        <ele>97</ele>
        <time>2012-04-30T12:04:19Z</time>
      </trkpt>
      <trkpt lat="46.99652" lon="-1.06245">
        <ele>98</ele>
        <time>2012-04-30T12:04:19Z</time>
      </trkpt>
      <trkpt lat="46.99649" lon="-1.0624">
        <ele>99</ele>
        <time>2012-04-30T12:04:20Z</time>
      </trkpt>
      <trkpt lat="46.99645" lon="-1.06229">
        <ele>100</ele>
        <time>2012-04-30T12:04:26Z</time>
      </trkpt>
      <trkpt lat="46.99634" lon="-1.06209">
        <ele>101</ele>
        <time>2012-04-30T12:04:26Z</time>
      </trkpt>
      <trkpt lat="46.99631" lon="-1.06203">
        <ele>102</ele>
        <time>2012-04-30T12:04:27Z</time>
      </trkpt>
      <trkpt lat="46.99625" lon="-1.06192">
        <ele>103</ele>
        <time>2012-04-30T12:04:33Z</time>
      </trkpt>
      <trkpt lat="46.99613" lon="-1.0617">
        <ele>104</ele>
        <time>2012-04-30T12:04:33Z</time>
      </trkpt>
      <trkpt lat="46.99609" lon="-1.06164">
        <ele>104</ele>
        <time>2012-04-30T12:04:34Z</time>
      </trkpt>
      <trkpt lat="46.99603" lon="-1.06153">
        <ele>104</ele>
        <time>2012-04-30T12:04:40Z</time>
      </trkpt>
      <trkpt lat="46.9959" lon="-1.06132">
        <ele>104</ele>
        <time>2012-04-30T12:04:40Z</time>
      </trkpt>
      <trkpt lat="46.99586" lon="-1.06127">
        <ele>104</ele>
        <time>2012-04-30T12:04:41Z</time>
      </trkpt>
      <trkpt lat="46.99579" lon="-1.06116">
        <ele>104</ele>
        <time>2012-04-30T12:04:47Z</time>
      </trkpt>
      <trkpt lat="46.99564" lon="-1.06096">
        <ele>104</ele>
        <time>2012-04-30T12:04:47Z</time>
      </trkpt>
      <trkpt lat="46.99561" lon="-1.0609">
        <ele>104</ele>
        <time>2012-04-30T12:04:48Z</time>
      </trkpt>
      <trkpt lat="46.9954" lon="-1.06056">
        <ele>104</ele>
        <time>2012-04-30T12:04:54Z</time>
      </trkpt>
      <trkpt lat="46.99536" lon="-1.0605">
        <ele>104</ele>
        <time>2012-04-30T12:04:55Z</time>
      </trkpt>
      <trkpt lat="46.99515" lon="-1.06014">
        <ele>104</ele>
        <time>2012-04-30T12:05:01Z</time>
      </trkpt>
      <trkpt lat="46.99511" lon="-1.06008">
        <ele>104</ele>
        <time>2012-04-30T12:05:02Z</time>
      </trkpt>
      <trkpt lat="46.99508" lon="-1.06001">
        <ele>104</ele>
        <time>2012-04-30T12:05:03Z</time>
      </trkpt>
      <trkpt lat="46.995" lon="-1.05989">
        <ele>104</ele>
        <time>2012-04-30T12:05:09Z</time>
      </trkpt>
      <trkpt lat="46.99482" lon="-1.05967">
        <ele>104</ele>
        <time>2012-04-30T12:05:09Z</time>
      </trkpt>
      <trkpt lat="46.99478" lon="-1.05962">
        <ele>104</ele>
        <time>2012-04-30T12:05:10Z</time>
      </trkpt>
      <trkpt lat="46.99468" lon="-1.05951">
        <ele>104</ele>
        <time>2012-04-30T12:05:16Z</time>
      </trkpt>
      <trkpt lat="46.99451" lon="-1.05931">
        <ele>104</ele>
        <time>2012-04-30T12:05:16Z</time>
      </trkpt>
      <trkpt lat="46.99446" lon="-1.05926">
        <ele>104</ele>
        <time>2012-04-30T12:05:17Z</time>
      </trkpt>
      <trkpt lat="46.99437" lon="-1.05916">
        <ele>104</ele>
        <time>2012-04-30T12:05:23Z</time>
      </trkpt>
      <trkpt lat="46.99421" lon="-1.05894">
        <ele>104</ele>
        <time>2012-04-30T12:05:23Z</time>
      </trkpt>
      <trkpt lat="46.99417" lon="-1.05888">
        <ele>104</ele>
        <time>2012-04-30T12:05:24Z</time>
      </trkpt>
      <trkpt lat="46.99409" lon="-1.05878">
        <ele>104</ele>
        <time>2012-04-30T12:05:30Z</time>
      </trkpt>
      <trkpt lat="46.9939" lon="-1.05852">
        <ele>104</ele>
        <time>2012-04-30T12:05:31Z</time>
      </trkpt>
      <trkpt lat="46.99386" lon="-1.05848">
        <ele>104</ele>
        <time>2012-04-30T12:05:32Z</time>
      </trkpt>
      <trkpt lat="46.99379" lon="-1.05838">
        <ele>104</ele>
        <time>2012-04-30T12:05:38Z</time>
      </trkpt>
      <trkpt lat="46.99365" lon="-1.05813">
        <ele>104</ele>
        <time>2012-04-30T12:05:38Z</time>
      </trkpt>
      <trkpt lat="46.99361" lon="-1.05806">
        <ele>104</ele>
        <time>2012-04-30T12:05:39Z</time>
      </trkpt>
      <trkpt lat="46.99353" lon="-1.0579">
        <ele>104</ele>
        <time>2012-04-30T12:05:45Z</time>
      </trkpt>
      <trkpt lat="46.99334" lon="-1.05755">
        <ele>104</ele>
        <time>2012-04-30T12:05:45Z</time>
      </trkpt>
      <trkpt lat="46.9933" lon="-1.05746">
        <ele>104</ele>
        <time>2012-04-30T12:05:46Z</time>
      </trkpt>
      <trkpt lat="46.9932" lon="-1.05727">
        <ele>104</ele>
        <time>2012-04-30T12:05:53Z</time>
      </trkpt>
      <trkpt lat="46.99296" lon="-1.05678">
        <ele>104</ele>
        <time>2012-04-30T12:05:53Z</time>
      </trkpt>
      <trkpt lat="46.99291" lon="-1.05669">
        <ele>104</ele>
        <time>2012-04-30T12:05:54Z</time>
      </trkpt>
      <trkpt lat="46.99282" lon="-1.05649">
        <ele>104</ele>
        <time>2012-04-30T12:06:00Z</time>
      </trkpt>
      <trkpt lat="46.99264" lon="-1.0561">
        <ele>104</ele>
        <time>2012-04-30T12:06:00Z</time>
      </trkpt>
      <trkpt lat="46.9926" lon="-1.056">
        <ele>104</ele>
        <time>2012-04-30T12:06:01Z</time>
      </trkpt>
      <trkpt lat="46.99243" lon="-1.05532">
        <ele>104</ele>
        <time>2012-04-30T12:06:07Z</time>
      </trkpt>
      <trkpt lat="46.99242" lon="-1.05519">
        <ele>104</ele>
        <time>2012-04-30T12:06:09Z</time>
      </trkpt>
      <trkpt lat="46.9924" lon="-1.05507">
        <ele>104</ele>
        <time>2012-04-30T12:06:10Z</time>
      </trkpt>
      <trkpt lat="46.99238" lon="-1.05484">
        <ele>104</ele>
        <time>2012-04-30T12:06:16Z</time>
      </trkpt>
      <trkpt lat="46.99233" lon="-1.0543">
        <ele>103</ele>
        <time>2012-04-30T12:06:16Z</time>
      </trkpt>
      <trkpt lat="46.99232" lon="-1.0542">
        <ele>102</ele>
        <time>2012-04-30T12:06:17Z</time>
      </trkpt>
      <trkpt lat="46.99231" lon="-1.054">
        <ele>101</ele>
        <time>2012-04-30T12:06:23Z</time>
      </trkpt>
      <trkpt lat="46.99228" lon="-1.05363">
        <ele>101</ele>
        <time>2012-04-30T12:06:23Z</time>
      </trkpt>
      <trkpt lat="46.99227" lon="-1.05354">
        <ele>101</ele>
        <time>2012-04-30T12:06:24Z</time>
      </trkpt>
      <trkpt lat="46.99226" lon="-1.05337">
        <ele>101</ele>
        <time>2012-04-30T12:06:31Z</time>
      </trkpt>
      <trkpt lat="46.99224" lon="-1.05294">
        <ele>101</ele>
        <time>2012-04-30T12:06:31Z</time>
      </trkpt>
      <trkpt lat="46.99224" lon="-1.05286">
        <ele>101</ele>
        <time>2012-04-30T12:06:32Z</time>
      </trkpt>
      <trkpt lat="46.99223" lon="-1.0527">
        <ele>101</ele>
        <time>2012-04-30T12:06:38Z</time>
      </trkpt>
      <trkpt lat="46.99224" lon="-1.05237">
        <ele>101</ele>
        <time>2012-04-30T12:06:38Z</time>
      </trkpt>
      <trkpt lat="46.99224" lon="-1.05229">
        <ele>101</ele>
        <time>2012-04-30T12:06:39Z</time>
      </trkpt>
      <trkpt lat="46.99224" lon="-1.05214">
        <ele>101</ele>
        <time>2012-04-30T12:06:46Z</time>
      </trkpt>
      <trkpt lat="46.99223" lon="-1.05177">
        <ele>101</ele>
        <time>2012-04-30T12:06:46Z</time>
      </trkpt>
      <trkpt lat="46.99223" lon="-1.05169">
        <ele>101</ele>
        <time>2012-04-30T12:06:47Z</time>
      </trkpt>
      <trkpt lat="46.99223" lon="-1.05155">
        <ele>101</ele>
        <time>2012-04-30T12:06:54Z</time>
      </trkpt>
      <trkpt lat="46.99223" lon="-1.05122">
        <ele>101</ele>
        <time>2012-04-30T12:06:54Z</time>
      </trkpt>
      <trkpt lat="46.99223" lon="-1.05115">
        <ele>101</ele>
        <time>2012-04-30T12:06:55Z</time>
      </trkpt>
      <trkpt lat="46.99225" lon="-1.05074">
        <ele>101</ele>
        <time>2012-04-30T12:07:01Z</time>
      </trkpt>
      <trkpt lat="46.99225" lon="-1.05067">
        <ele>101</ele>
        <time>2012-04-30T12:07:02Z</time>
      </trkpt>
      <trkpt lat="46.99226" lon="-1.05061">
        <ele>101</ele>
        <time>2012-04-30T12:07:03Z</time>
      </trkpt>
      <trkpt lat="46.99233" lon="-1.05026">
        <ele>101</ele>
        <time>2012-04-30T12:07:10Z</time>
      </trkpt>
      <trkpt lat="46.99235" lon="-1.05021">
        <ele>101</ele>
        <time>2012-04-30T12:07:11Z</time>
      </trkpt>
      <trkpt lat="46.99237" lon="-1.05016">
        <ele>102</ele>
        <time>2012-04-30T12:07:12Z</time>
      </trkpt>
      <trkpt lat="46.99246" lon="-1.04989">
        <ele>103</ele>
        <time>2012-04-30T12:07:16Z</time>
      </trkpt>
      <trkpt lat="46.99248" lon="-1.04984">
        <ele>104</ele>
        <time>2012-04-30T12:07:17Z</time>
      </trkpt>
      <trkpt lat="46.9925" lon="-1.04979">
        <ele>105</ele>
        <time>2012-04-30T12:07:18Z</time>
      </trkpt>
      <trkpt lat="46.99253" lon="-1.04967">
        <ele>106</ele>
        <time>2012-04-30T12:07:23Z</time>
      </trkpt>
      <trkpt lat="46.99255" lon="-1.0495">
        <ele>107</ele>
        <time>2012-04-30T12:07:23Z</time>
      </trkpt>
      <trkpt lat="46.99255" lon="-1.04944">
        <ele>108</ele>
        <time>2012-04-30T12:07:25Z</time>
      </trkpt>
      <trkpt lat="46.99255" lon="-1.04932">
        <ele>109</ele>
        <time>2012-04-30T12:07:30Z</time>
      </trkpt>
      <trkpt lat="46.99258" lon="-1.04908">
        <ele>110</ele>
        <time>2012-04-30T12:07:30Z</time>
      </trkpt>
      <trkpt lat="46.99259" lon="-1.04902">
        <ele>111</ele>
        <time>2012-04-30T12:07:31Z</time>
      </trkpt>
      <trkpt lat="46.99259" lon="-1.0489">
        <ele>112</ele>
        <time>2012-04-30T12:07:36Z</time>
      </trkpt>
      <trkpt lat="46.99259" lon="-1.04873">
        <ele>113</ele>
        <time>2012-04-30T12:07:36Z</time>
      </trkpt>
      <trkpt lat="46.99259" lon="-1.04867">
        <ele>114</ele>
        <time>2012-04-30T12:07:37Z</time>
      </trkpt>
      <trkpt lat="46.9926" lon="-1.04855">
        <ele>115</ele>
        <time>2012-04-30T12:07:43Z</time>
      </trkpt>
      <trkpt lat="46.99261" lon="-1.04831">
        <ele>116</ele>
        <time>2012-04-30T12:07:43Z</time>
      </trkpt>
      <trkpt lat="46.99261" lon="-1.04824">
        <ele>117</ele>
        <time>2012-04-30T12:07:44Z</time>
      </trkpt>
      <trkpt lat="46.99261" lon="-1.04794">
        <ele>118</ele>
        <time>2012-04-30T12:07:49Z</time>
      </trkpt>
      <trkpt lat="46.99261" lon="-1.04788">
        <ele>119</ele>
        <time>2012-04-30T12:07:50Z</time>
      </trkpt>
      <trkpt lat="46.99261" lon="-1.04776">
        <ele>120</ele>
        <time>2012-04-30T12:07:56Z</time>
      </trkpt>
      <trkpt lat="46.99261" lon="-1.04751">
        <ele>120</ele>
        <time>2012-04-30T12:07:56Z</time>
      </trkpt>
      <trkpt lat="46.99262" lon="-1.04745">
        <ele>120</ele>
        <time>2012-04-30T12:07:57Z</time>
      </trkpt>
      <trkpt lat="46.99263" lon="-1.04734">
        <ele>121</ele>
        <time>2012-04-30T12:08:02Z</time>
      </trkpt>
      <trkpt lat="46.99264" lon="-1.0471">
        <ele>121</ele>
        <time>2012-04-30T12:08:03Z</time>
      </trkpt>
      <trkpt lat="46.99264" lon="-1.04704">
        <ele>122</ele>
        <time>2012-04-30T12:08:04Z</time>
      </trkpt>
      <trkpt lat="46.99265" lon="-1.04691">
        <ele>122</ele>
        <time>2012-04-30T12:08:09Z</time>
      </trkpt>
      <trkpt lat="46.99265" lon="-1.04673">
        <ele>122</ele>
        <time>2012-04-30T12:08:09Z</time>
      </trkpt>
      <trkpt lat="46.99265" lon="-1.04667">
        <ele>122</ele>
        <time>2012-04-30T12:08:10Z</time>
      </trkpt>
      <trkpt lat="46.99266" lon="-1.04655">
        <ele>123</ele>
        <time>2012-04-30T12:08:16Z</time>
      </trkpt>
      <trkpt lat="46.99264" lon="-1.04631">
        <ele>124</ele>
        <time>2012-04-30T12:08:16Z</time>
      </trkpt>
      <trkpt lat="46.99263" lon="-1.04625">
        <ele>125</ele>
        <time>2012-04-30T12:08:17Z</time>
      </trkpt>
      <trkpt lat="46.99263" lon="-1.04612">
        <ele>126</ele>
        <time>2012-04-30T12:08:22Z</time>
      </trkpt>
      <trkpt lat="46.99257" lon="-1.04589">
        <ele>127</ele>
        <time>2012-04-30T12:08:23Z</time>
      </trkpt>
      <trkpt lat="46.99255" lon="-1.04584">
        <ele>128</ele>
        <time>2012-04-30T12:08:25Z</time>
      </trkpt>
      <trkpt lat="46.99252" lon="-1.04579">
        <ele>128</ele>
        <time>2012-04-30T12:08:26Z</time>
      </trkpt>
      <trkpt lat="46.99245" lon="-1.04571">
        <ele>129</ele>
        <time>2012-04-30T12:08:31Z</time>
      </trkpt>
      <trkpt lat="46.99228" lon="-1.04562">
        <ele>129</ele>
        <time>2012-04-30T12:08:31Z</time>
      </trkpt>
      <trkpt lat="46.99224" lon="-1.04561">
        <ele>130</ele>
        <time>2012-04-30T12:08:33Z</time>
      </trkpt>
      <trkpt lat="46.99219" lon="-1.0456">
        <ele>131</ele>
        <time>2012-04-30T12:08:33Z</time>
      </trkpt>
      <trkpt lat="46.99194" lon="-1.04571">
        <ele>132</ele>
        <time>2012-04-30T12:08:39Z</time>
      </trkpt>
      <trkpt lat="46.99189" lon="-1.04572">
        <ele>133</ele>
        <time>2012-04-30T12:08:40Z</time>
      </trkpt>
      <trkpt lat="46.9918" lon="-1.04573">
        <ele>133</ele>
        <time>2012-04-30T12:08:46Z</time>
      </trkpt>
      <trkpt lat="46.99166" lon="-1.04567">
        <ele>134</ele>
        <time>2012-04-30T12:08:46Z</time>
      </trkpt>
      <trkpt lat="46.99164" lon="-1.04563">
        <ele>134</ele>
        <time>2012-04-30T12:08:47Z</time>
      </trkpt>
      <trkpt lat="46.99164" lon="-1.04558">
        <ele>134</ele>
        <time>2012-04-30T12:08:49Z</time>
      </trkpt>
      <trkpt lat="46.99165" lon="-1.04546">
        <ele>134</ele>
        <time>2012-04-30T12:08:54Z</time>
      </trkpt>
      <trkpt lat="46.99169" lon="-1.04515">
        <ele>135</ele>
        <time>2012-04-30T12:08:56Z</time>
      </trkpt>
      <trkpt lat="46.9917" lon="-1.045">
        <ele>135</ele>
        <time>2012-04-30T12:09:01Z</time>
      </trkpt>
      <trkpt lat="46.99172" lon="-1.04472">
        <ele>135</ele>
        <time>2012-04-30T12:09:01Z</time>
      </trkpt>
      <trkpt lat="46.99172" lon="-1.04467">
        <ele>135</ele>
        <time>2012-04-30T12:09:02Z</time>
      </trkpt>
      <trkpt lat="46.99172" lon="-1.0446">
        <ele>135</ele>
        <time>2012-04-30T12:09:08Z</time>
      </trkpt>
      <trkpt lat="46.99171" lon="-1.04447">
        <ele>135</ele>
        <time>2012-04-30T12:09:08Z</time>
      </trkpt>
      <trkpt lat="46.99169" lon="-1.04442">
        <ele>135</ele>
        <time>2012-04-30T12:09:10Z</time>
      </trkpt>
      <trkpt lat="46.99168" lon="-1.04437">
        <ele>135</ele>
        <time>2012-04-30T12:09:10Z</time>
      </trkpt>
      <trkpt lat="46.99157" lon="-1.04401">
        <ele>135</ele>
        <time>2012-04-30T12:09:15Z</time>
      </trkpt>
      <trkpt lat="46.99155" lon="-1.04392">
        <ele>135</ele>
        <time>2012-04-30T12:09:16Z</time>
      </trkpt>
      <trkpt lat="46.99153" lon="-1.04384">
        <ele>135</ele>
        <time>2012-04-30T12:09:17Z</time>
      </trkpt>
      <trkpt lat="46.99144" lon="-1.04337">
        <ele>135</ele>
        <time>2012-04-30T12:09:23Z</time>
      </trkpt>
      <trkpt lat="46.99143" lon="-1.04328">
        <ele>135</ele>
        <time>2012-04-30T12:09:23Z</time>
      </trkpt>
      <trkpt lat="46.99142" lon="-1.04318">
        <ele>135</ele>
        <time>2012-04-30T12:09:24Z</time>
      </trkpt>
      <trkpt lat="46.99141" lon="-1.04298">
        <ele>135</ele>
        <time>2012-04-30T12:09:29Z</time>
      </trkpt>
      <trkpt lat="46.99136" lon="-1.04258">
        <ele>135</ele>
        <time>2012-04-30T12:09:30Z</time>
      </trkpt>
      <trkpt lat="46.99134" lon="-1.04248">
        <ele>135</ele>
        <time>2012-04-30T12:09:31Z</time>
      </trkpt>
      <trkpt lat="46.9913" lon="-1.04229">
        <ele>135</ele>
        <time>2012-04-30T12:09:36Z</time>
      </trkpt>
      <trkpt lat="46.99124" lon="-1.04194">
        <ele>134</ele>
        <time>2012-04-30T12:09:37Z</time>
      </trkpt>
      <trkpt lat="46.99123" lon="-1.04186">
        <ele>133</ele>
        <time>2012-04-30T12:09:38Z</time>
      </trkpt>
      <trkpt lat="46.99121" lon="-1.04169">
        <ele>132</ele>
        <time>2012-04-30T12:09:44Z</time>
      </trkpt>
      <trkpt lat="46.99119" lon="-1.04136">
        <ele>131</ele>
        <time>2012-04-30T12:09:44Z</time>
      </trkpt>
      <trkpt lat="46.99119" lon="-1.04128">
        <ele>131</ele>
        <time>2012-04-30T12:09:45Z</time>
      </trkpt>
      <trkpt lat="46.99118" lon="-1.04111">
        <ele>130</ele>
        <time>2012-04-30T12:09:50Z</time>
      </trkpt>
      <trkpt lat="46.99116" lon="-1.04077">
        <ele>130</ele>
        <time>2012-04-30T12:09:51Z</time>
      </trkpt>
      <trkpt lat="46.99116" lon="-1.04068">
        <ele>130</ele>
        <time>2012-04-30T12:09:52Z</time>
      </trkpt>
      <trkpt lat="46.99114" lon="-1.0405">
        <ele>129</ele>
        <time>2012-04-30T12:09:57Z</time>
      </trkpt>
      <trkpt lat="46.99109" lon="-1.04016">
        <ele>129</ele>
        <time>2012-04-30T12:09:58Z</time>
      </trkpt>
      <trkpt lat="46.99108" lon="-1.04007">
        <ele>129</ele>
        <time>2012-04-30T12:09:59Z</time>
      </trkpt>
      <trkpt lat="46.99104" lon="-1.03991">
        <ele>129</ele>
        <time>2012-04-30T12:10:05Z</time>
      </trkpt>
      <trkpt lat="46.99095" lon="-1.03961">
        <ele>129</ele>
        <time>2012-04-30T12:10:05Z</time>
      </trkpt>
      <trkpt lat="46.99092" lon="-1.03954">
        <ele>129</ele>
        <time>2012-04-30T12:10:06Z</time>
      </trkpt>
      <trkpt lat="46.99087" lon="-1.03939">
        <ele>129</ele>
        <time>2012-04-30T12:10:12Z</time>
      </trkpt>
      <trkpt lat="46.99076" lon="-1.03909">
        <ele>129</ele>
        <time>2012-04-30T12:10:12Z</time>
      </trkpt>
      <trkpt lat="46.99073" lon="-1.03901">
        <ele>129</ele>
        <time>2012-04-30T12:10:13Z</time>
      </trkpt>
      <trkpt lat="46.99068" lon="-1.03885">
        <ele>129</ele>
        <time>2012-04-30T12:10:19Z</time>
      </trkpt>
      <trkpt lat="46.99053" lon="-1.03855">
        <ele>129</ele>
        <time>2012-04-30T12:10:19Z</time>
      </trkpt>
      <trkpt lat="46.9905" lon="-1.03847">
        <ele>129</ele>
        <time>2012-04-30T12:10:20Z</time>
      </trkpt>
      <trkpt lat="46.99043" lon="-1.0383">
        <ele>129</ele>
        <time>2012-04-30T12:10:26Z</time>
      </trkpt>
      <trkpt lat="46.9903" lon="-1.03795">
        <ele>129</ele>
        <time>2012-04-30T12:10:26Z</time>
      </trkpt>
      <trkpt lat="46.99026" lon="-1.03787">
        <ele>129</ele>
        <time>2012-04-30T12:10:27Z</time>
      </trkpt>
      <trkpt lat="46.99017" lon="-1.0377">
        <ele>129</ele>
        <time>2012-04-30T12:10:33Z</time>
      </trkpt>
      <trkpt lat="46.98999" lon="-1.03738">
        <ele>129</ele>
        <time>2012-04-30T12:10:33Z</time>
      </trkpt>
      <trkpt lat="46.98993" lon="-1.03731">
        <ele>129</ele>
        <time>2012-04-30T12:10:34Z</time>
      </trkpt>
      <trkpt lat="46.98983" lon="-1.03717">
        <ele>129</ele>
        <time>2012-04-30T12:10:40Z</time>
      </trkpt>
      <trkpt lat="46.98964" lon="-1.03687">
        <ele>129</ele>
        <time>2012-04-30T12:10:40Z</time>
      </trkpt>
      <trkpt lat="46.9896" lon="-1.03679">
        <ele>129</ele>
        <time>2012-04-30T12:10:41Z</time>
      </trkpt>
      <trkpt lat="46.98951" lon="-1.03665">
        <ele>129</ele>
        <time>2012-04-30T12:10:47Z</time>
      </trkpt>
      <trkpt lat="46.98933" lon="-1.03638">
        <ele>129</ele>
        <time>2012-04-30T12:10:47Z</time>
      </trkpt>
      <trkpt lat="46.98929" lon="-1.03631">
        <ele>129</ele>
        <time>2012-04-30T12:10:48Z</time>
      </trkpt>
      <trkpt lat="46.9892" lon="-1.03619">
        <ele>129</ele>
        <time>2012-04-30T12:10:54Z</time>
      </trkpt>
      <trkpt lat="46.98901" lon="-1.03597">
        <ele>129</ele>
        <time>2012-04-30T12:10:54Z</time>
      </trkpt>
      <trkpt lat="46.98896" lon="-1.03592">
        <ele>129</ele>
        <time>2012-04-30T12:10:55Z</time>
      </trkpt>
      <trkpt lat="46.98887" lon="-1.03581">
        <ele>129</ele>
        <time>2012-04-30T12:11:01Z</time>
      </trkpt>
      <trkpt lat="46.98867" lon="-1.03561">
        <ele>129</ele>
        <time>2012-04-30T12:11:01Z</time>
      </trkpt>
      <trkpt lat="46.98862" lon="-1.03557">
        <ele>129</ele>
        <time>2012-04-30T12:11:02Z</time>
      </trkpt>
      <trkpt lat="46.98852" lon="-1.03547">
        <ele>129</ele>
        <time>2012-04-30T12:11:08Z</time>
      </trkpt>
      <trkpt lat="46.98832" lon="-1.03527">
        <ele>129</ele>
        <time>2012-04-30T12:11:08Z</time>
      </trkpt>
      <trkpt lat="46.98827" lon="-1.03523">
        <ele>129</ele>
        <time>2012-04-30T12:11:09Z</time>
      </trkpt>
      <trkpt lat="46.98797" lon="-1.03496">
        <ele>129</ele>
        <time>2012-04-30T12:11:15Z</time>
      </trkpt>
      <trkpt lat="46.98793" lon="-1.03492">
        <ele>129</ele>
        <time>2012-04-30T12:11:16Z</time>
      </trkpt>
      <trkpt lat="46.98783" lon="-1.03484">
        <ele>129</ele>
        <time>2012-04-30T12:11:23Z</time>
      </trkpt>
      <trkpt lat="46.98759" lon="-1.03464">
        <ele>130</ele>
        <time>2012-04-30T12:11:23Z</time>
      </trkpt>
      <trkpt lat="46.98754" lon="-1.03459">
        <ele>130</ele>
        <time>2012-04-30T12:11:24Z</time>
      </trkpt>
      <trkpt lat="46.98744" lon="-1.03451">
        <ele>130</ele>
        <time>2012-04-30T12:11:30Z</time>
      </trkpt>
      <trkpt lat="46.98724" lon="-1.03433">
        <ele>131</ele>
        <time>2012-04-30T12:11:30Z</time>
      </trkpt>
      <trkpt lat="46.98719" lon="-1.03428">
        <ele>131</ele>
        <time>2012-04-30T12:11:31Z</time>
      </trkpt>
      <trkpt lat="46.98708" lon="-1.03419">
        <ele>131</ele>
        <time>2012-04-30T12:11:37Z</time>
      </trkpt>
      <trkpt lat="46.98687" lon="-1.03399">
        <ele>131</ele>
        <time>2012-04-30T12:11:37Z</time>
      </trkpt>
      <trkpt lat="46.98682" lon="-1.03393">
        <ele>132</ele>
        <time>2012-04-30T12:11:38Z</time>
      </trkpt>
      <trkpt lat="46.98671" lon="-1.03383">
        <ele>132</ele>
        <time>2012-04-30T12:11:44Z</time>
      </trkpt>
      <trkpt lat="46.98645" lon="-1.03357">
        <ele>132</ele>
        <time>2012-04-30T12:11:45Z</time>
      </trkpt>
      <trkpt lat="46.98639" lon="-1.03352">
        <ele>132</ele>
        <time>2012-04-30T12:11:46Z</time>
      </trkpt>
      <trkpt lat="46.98629" lon="-1.03341">
        <ele>132</ele>
        <time>2012-04-30T12:11:52Z</time>
      </trkpt>
      <trkpt lat="46.98607" lon="-1.0332">
        <ele>132</ele>
        <time>2012-04-30T12:11:52Z</time>
      </trkpt>
      <trkpt lat="46.98602" lon="-1.03314">
        <ele>132</ele>
        <time>2012-04-30T12:11:53Z</time>
      </trkpt>
      <trkpt lat="46.98591" lon="-1.03304">
        <ele>132</ele>
        <time>2012-04-30T12:11:59Z</time>
      </trkpt>
      <trkpt lat="46.9857" lon="-1.03284">
        <ele>132</ele>
        <time>2012-04-30T12:11:59Z</time>
      </trkpt>
      <trkpt lat="46.98565" lon="-1.03279">
        <ele>132</ele>
        <time>2012-04-30T12:12:00Z</time>
      </trkpt>
      <trkpt lat="46.98554" lon="-1.03269">
        <ele>132</ele>
        <time>2012-04-30T12:12:07Z</time>
      </trkpt>
      <trkpt lat="46.98526" lon="-1.03251">
        <ele>132</ele>
        <time>2012-04-30T12:12:07Z</time>
      </trkpt>
      <trkpt lat="46.9852" lon="-1.03247">
        <ele>132</ele>
        <time>2012-04-30T12:12:08Z</time>
      </trkpt>
      <trkpt lat="46.98508" lon="-1.03241">
        <ele>132</ele>
        <time>2012-04-30T12:12:14Z</time>
      </trkpt>
      <trkpt lat="46.98485" lon="-1.03228">
        <ele>132</ele>
        <time>2012-04-30T12:12:14Z</time>
      </trkpt>
      <trkpt lat="46.98479" lon="-1.03226">
        <ele>132</ele>
        <time>2012-04-30T12:12:15Z</time>
      </trkpt>
      <trkpt lat="46.98444" lon="-1.03208">
        <ele>132</ele>
        <time>2012-04-30T12:12:21Z</time>
      </trkpt>
      <trkpt lat="46.98439" lon="-1.03204">
        <ele>132</ele>
        <time>2012-04-30T12:12:22Z</time>
      </trkpt>
      <trkpt lat="46.98433" lon="-1.03201">
        <ele>132</ele>
        <time>2012-04-30T12:12:23Z</time>
      </trkpt>
      <trkpt lat="46.98422" lon="-1.03195">
        <ele>132</ele>
        <time>2012-04-30T12:12:29Z</time>
      </trkpt>
      <trkpt lat="46.98399" lon="-1.03183">
        <ele>132</ele>
        <time>2012-04-30T12:12:29Z</time>
      </trkpt>
      <trkpt lat="46.98393" lon="-1.0318">
        <ele>132</ele>
        <time>2012-04-30T12:12:30Z</time>
      </trkpt>
      <trkpt lat="46.98359" lon="-1.03161">
        <ele>132</ele>
        <time>2012-04-30T12:12:36Z</time>
      </trkpt>
      <trkpt lat="46.98353" lon="-1.03158">
        <ele>132</ele>
        <time>2012-04-30T12:12:37Z</time>
      </trkpt>
      <trkpt lat="46.98347" lon="-1.03155">
        <ele>132</ele>
        <time>2012-04-30T12:12:38Z</time>
      </trkpt>
      <trkpt lat="46.98336" lon="-1.03149">
        <ele>132</ele>
        <time>2012-04-30T12:12:44Z</time>
      </trkpt>
      <trkpt lat="46.98312" lon="-1.03136">
        <ele>132</ele>
        <time>2012-04-30T12:12:44Z</time>
      </trkpt>
      <trkpt lat="46.98307" lon="-1.03133">
        <ele>132</ele>
        <time>2012-04-30T12:12:45Z</time>
      </trkpt>
      <trkpt lat="46.98295" lon="-1.03127">
        <ele>132</ele>
        <time>2012-04-30T12:12:52Z</time>
      </trkpt>
      <trkpt lat="46.98265" lon="-1.03111">
        <ele>132</ele>
        <time>2012-04-30T12:12:52Z</time>
      </trkpt>
      <trkpt lat="46.9826" lon="-1.03108">
        <ele>132</ele>
        <time>2012-04-30T12:12:53Z</time>
      </trkpt>
      <trkpt lat="46.98225" lon="-1.03089">
        <ele>132</ele>
        <time>2012-04-30T12:12:59Z</time>
      </trkpt>
      <trkpt lat="46.98219" lon="-1.03085">
        <ele>133</ele>
        <time>2012-04-30T12:13:00Z</time>
      </trkpt>
      <trkpt lat="46.98208" lon="-1.03079">
        <ele>133</ele>
        <time>2012-04-30T12:13:07Z</time>
      </trkpt>
      <trkpt lat="46.98179" lon="-1.03064">
        <ele>133</ele>
        <time>2012-04-30T12:13:07Z</time>
      </trkpt>
      <trkpt lat="46.98174" lon="-1.03061">
        <ele>133</ele>
        <time>2012-04-30T12:13:08Z</time>
      </trkpt>
      <trkpt lat="46.9814" lon="-1.03043">
        <ele>133</ele>
        <time>2012-04-30T12:13:14Z</time>
      </trkpt>
      <trkpt lat="46.98135" lon="-1.0304">
        <ele>133</ele>
        <time>2012-04-30T12:13:15Z</time>
      </trkpt>
      <trkpt lat="46.98129" lon="-1.03037">
        <ele>133</ele>
        <time>2012-04-30T12:13:16Z</time>
      </trkpt>
      <trkpt lat="46.98118" lon="-1.03031">
        <ele>133</ele>
        <time>2012-04-30T12:13:22Z</time>
      </trkpt>
      <trkpt lat="46.98095" lon="-1.03019">
        <ele>133</ele>
        <time>2012-04-30T12:13:22Z</time>
      </trkpt>
      <trkpt lat="46.98089" lon="-1.03016">
        <ele>133</ele>
        <time>2012-04-30T12:13:23Z</time>
      </trkpt>
      <trkpt lat="46.98077" lon="-1.03009">
        <ele>134</ele>
        <time>2012-04-30T12:13:30Z</time>
      </trkpt>
      <trkpt lat="46.98048" lon="-1.02993">
        <ele>134</ele>
        <time>2012-04-30T12:13:30Z</time>
      </trkpt>
      <trkpt lat="46.98042" lon="-1.0299">
        <ele>134</ele>
        <time>2012-04-30T12:13:31Z</time>
      </trkpt>
      <trkpt lat="46.9803" lon="-1.02982">
        <ele>134</ele>
        <time>2012-04-30T12:13:38Z</time>
      </trkpt>
      <trkpt lat="46.98002" lon="-1.02958">
        <ele>134</ele>
        <time>2012-04-30T12:13:38Z</time>
      </trkpt>
      <trkpt lat="46.97996" lon="-1.02953">
        <ele>134</ele>
        <time>2012-04-30T12:13:39Z</time>
      </trkpt>
      <trkpt lat="46.97966" lon="-1.02917">
        <ele>134</ele>
        <time>2012-04-30T12:13:45Z</time>
      </trkpt>
      <trkpt lat="46.97961" lon="-1.02911">
        <ele>134</ele>
        <time>2012-04-30T12:13:46Z</time>
      </trkpt>
      <trkpt lat="46.97952" lon="-1.02899">
        <ele>134</ele>
        <time>2012-04-30T12:13:53Z</time>
      </trkpt>
      <trkpt lat="46.97927" lon="-1.02869">
        <ele>134</ele>
        <time>2012-04-30T12:13:54Z</time>
      </trkpt>
      <trkpt lat="46.97922" lon="-1.02863">
        <ele>134</ele>
        <time>2012-04-30T12:13:54Z</time>
      </trkpt>
      <trkpt lat="46.97898" lon="-1.02834">
        <ele>134</ele>
        <time>2012-04-30T12:13:59Z</time>
      </trkpt>
      <trkpt lat="46.97893" lon="-1.02828">
        <ele>134</ele>
        <time>2012-04-30T12:14:00Z</time>
      </trkpt>
      <trkpt lat="46.97888" lon="-1.02822">
        <ele>134</ele>
        <time>2012-04-30T12:14:01Z</time>
      </trkpt>
      <trkpt lat="46.97878" lon="-1.0281">
        <ele>134</ele>
        <time>2012-04-30T12:14:06Z</time>
      </trkpt>
      <trkpt lat="46.97864" lon="-1.02792">
        <ele>134</ele>
        <time>2012-04-30T12:14:06Z</time>
      </trkpt>
      <trkpt lat="46.97859" lon="-1.02786">
        <ele>134</ele>
        <time>2012-04-30T12:14:07Z</time>
      </trkpt>
      <trkpt lat="46.97834" lon="-1.02756">
        <ele>134</ele>
        <time>2012-04-30T12:14:12Z</time>
      </trkpt>
      <trkpt lat="46.97829" lon="-1.0275">
        <ele>134</ele>
        <time>2012-04-30T12:14:13Z</time>
      </trkpt>
      <trkpt lat="46.97824" lon="-1.02743">
        <ele>135</ele>
        <time>2012-04-30T12:14:14Z</time>
      </trkpt>
      <trkpt lat="46.97814" lon="-1.02732">
        <ele>135</ele>
        <time>2012-04-30T12:14:19Z</time>
      </trkpt>
      <trkpt lat="46.97799" lon="-1.02715">
        <ele>135</ele>
        <time>2012-04-30T12:14:19Z</time>
      </trkpt>
      <trkpt lat="46.97794" lon="-1.02709">
        <ele>135</ele>
        <time>2012-04-30T12:14:20Z</time>
      </trkpt>
      <trkpt lat="46.97784" lon="-1.02697">
        <ele>135</ele>
        <time>2012-04-30T12:14:26Z</time>
      </trkpt>
      <trkpt lat="46.97765" lon="-1.02673">
        <ele>135</ele>
        <time>2012-04-30T12:14:26Z</time>
      </trkpt>
      <trkpt lat="46.9776" lon="-1.02667">
        <ele>135</ele>
        <time>2012-04-30T12:14:27Z</time>
      </trkpt>
      <trkpt lat="46.97735" lon="-1.02637">
        <ele>135</ele>
        <time>2012-04-30T12:14:32Z</time>
      </trkpt>
      <trkpt lat="46.9773" lon="-1.02631">
        <ele>135</ele>
        <time>2012-04-30T12:14:33Z</time>
      </trkpt>
      <trkpt lat="46.9772" lon="-1.0262">
        <ele>135</ele>
        <time>2012-04-30T12:14:39Z</time>
      </trkpt>
      <trkpt lat="46.97701" lon="-1.02596">
        <ele>135</ele>
        <time>2012-04-30T12:14:39Z</time>
      </trkpt>
      <trkpt lat="46.97696" lon="-1.0259">
        <ele>135</ele>
        <time>2012-04-30T12:14:40Z</time>
      </trkpt>
      <trkpt lat="46.97671" lon="-1.0256">
        <ele>135</ele>
        <time>2012-04-30T12:14:45Z</time>
      </trkpt>
      <trkpt lat="46.97666" lon="-1.02554">
        <ele>135</ele>
        <time>2012-04-30T12:14:46Z</time>
      </trkpt>
      <trkpt lat="46.97656" lon="-1.02542">
        <ele>135</ele>
        <time>2012-04-30T12:14:52Z</time>
      </trkpt>
      <trkpt lat="46.97636" lon="-1.02517">
        <ele>135</ele>
        <time>2012-04-30T12:14:52Z</time>
      </trkpt>
      <trkpt lat="46.9763" lon="-1.0251">
        <ele>135</ele>
        <time>2012-04-30T12:14:53Z</time>
      </trkpt>
      <trkpt lat="46.97605" lon="-1.0248">
        <ele>135</ele>
        <time>2012-04-30T12:14:59Z</time>
      </trkpt>
      <trkpt lat="46.97599" lon="-1.02475">
        <ele>135</ele>
        <time>2012-04-30T12:14:59Z</time>
      </trkpt>
      <trkpt lat="46.97594" lon="-1.02469">
        <ele>135</ele>
        <time>2012-04-30T12:15:00Z</time>
      </trkpt>
      <trkpt lat="46.97568" lon="-1.02441">
        <ele>135</ele>
        <time>2012-04-30T12:15:05Z</time>
      </trkpt>
      <trkpt lat="46.97562" lon="-1.02436">
        <ele>135</ele>
        <time>2012-04-30T12:15:06Z</time>
      </trkpt>
      <trkpt lat="46.97552" lon="-1.02425">
        <ele>135</ele>
        <time>2012-04-30T12:15:12Z</time>
      </trkpt>
      <trkpt lat="46.97532" lon="-1.02404">
        <ele>135</ele>
        <time>2012-04-30T12:15:12Z</time>
      </trkpt>
      <trkpt lat="46.97527" lon="-1.02399">
        <ele>135</ele>
        <time>2012-04-30T12:15:13Z</time>
      </trkpt>
      <trkpt lat="46.97516" lon="-1.02389">
        <ele>135</ele>
        <time>2012-04-30T12:15:18Z</time>
      </trkpt>
      <trkpt lat="46.97495" lon="-1.02367">
        <ele>135</ele>
        <time>2012-04-30T12:15:19Z</time>
      </trkpt>
      <trkpt lat="46.9749" lon="-1.02362">
        <ele>135</ele>
        <time>2012-04-30T12:15:20Z</time>
      </trkpt>
      <trkpt lat="46.97464" lon="-1.02336">
        <ele>135</ele>
        <time>2012-04-30T12:15:25Z</time>
      </trkpt>
      <trkpt lat="46.97459" lon="-1.02331">
        <ele>135</ele>
        <time>2012-04-30T12:15:26Z</time>
      </trkpt>
      <trkpt lat="46.97449" lon="-1.0232">
        <ele>135</ele>
        <time>2012-04-30T12:15:32Z</time>
      </trkpt>
      <trkpt lat="46.97428" lon="-1.02298">
        <ele>135</ele>
        <time>2012-04-30T12:15:32Z</time>
      </trkpt>
      <trkpt lat="46.97422" lon="-1.02292">
        <ele>135</ele>
        <time>2012-04-30T12:15:33Z</time>
      </trkpt>
      <trkpt lat="46.97411" lon="-1.02281">
        <ele>135</ele>
        <time>2012-04-30T12:15:39Z</time>
      </trkpt>
      <trkpt lat="46.97389" lon="-1.02258">
        <ele>135</ele>
        <time>2012-04-30T12:15:39Z</time>
      </trkpt>
      <trkpt lat="46.97383" lon="-1.02252">
        <ele>134</ele>
        <time>2012-04-30T12:15:40Z</time>
      </trkpt>
      <trkpt lat="46.97353" lon="-1.02221">
        <ele>134</ele>
        <time>2012-04-30T12:15:45Z</time>
      </trkpt>
      <trkpt lat="46.97347" lon="-1.02215">
        <ele>133</ele>
        <time>2012-04-30T12:15:46Z</time>
      </trkpt>
      <trkpt lat="46.97342" lon="-1.02209">
        <ele>133</ele>
        <time>2012-04-30T12:15:47Z</time>
      </trkpt>
      <trkpt lat="46.97314" lon="-1.02179">
        <ele>133</ele>
        <time>2012-04-30T12:15:52Z</time>
      </trkpt>
      <trkpt lat="46.97308" lon="-1.02173">
        <ele>133</ele>
        <time>2012-04-30T12:15:53Z</time>
      </trkpt>
      <trkpt lat="46.97303" lon="-1.02167">
        <ele>133</ele>
        <time>2012-04-30T12:15:54Z</time>
      </trkpt>
      <trkpt lat="46.97294" lon="-1.02154">
        <ele>133</ele>
        <time>2012-04-30T12:15:59Z</time>
      </trkpt>
      <trkpt lat="46.97283" lon="-1.0213">
        <ele>133</ele>
        <time>2012-04-30T12:15:59Z</time>
      </trkpt>
      <trkpt lat="46.9728" lon="-1.02121">
        <ele>133</ele>
        <time>2012-04-30T12:16:00Z</time>
      </trkpt>
      <trkpt lat="46.97278" lon="-1.02112">
        <ele>133</ele>
        <time>2012-04-30T12:16:02Z</time>
      </trkpt>
      <trkpt lat="46.97273" lon="-1.02095">
        <ele>133</ele>
        <time>2012-04-30T12:16:07Z</time>
      </trkpt>
      <trkpt lat="46.97263" lon="-1.02061">
        <ele>133</ele>
        <time>2012-04-30T12:16:07Z</time>
      </trkpt>
      <trkpt lat="46.97261" lon="-1.02053">
        <ele>133</ele>
        <time>2012-04-30T12:16:08Z</time>
      </trkpt>
      <trkpt lat="46.97249" lon="-1.02011">
        <ele>133</ele>
        <time>2012-04-30T12:16:13Z</time>
      </trkpt>
      <trkpt lat="46.97247" lon="-1.02003">
        <ele>133</ele>
        <time>2012-04-30T12:16:14Z</time>
      </trkpt>
      <trkpt lat="46.97242" lon="-1.01986">
        <ele>133</ele>
        <time>2012-04-30T12:16:20Z</time>
      </trkpt>
      <trkpt lat="46.97233" lon="-1.01953">
        <ele>133</ele>
        <time>2012-04-30T12:16:20Z</time>
      </trkpt>
      <trkpt lat="46.97231" lon="-1.01945">
        <ele>133</ele>
        <time>2012-04-30T12:16:21Z</time>
      </trkpt>
      <trkpt lat="46.97226" lon="-1.01928">
        <ele>133</ele>
        <time>2012-04-30T12:16:27Z</time>
      </trkpt>
      <trkpt lat="46.97217" lon="-1.01895">
        <ele>133</ele>
        <time>2012-04-30T12:16:27Z</time>
      </trkpt>
      <trkpt lat="46.97215" lon="-1.01887">
        <ele>133</ele>
        <time>2012-04-30T12:16:28Z</time>
      </trkpt>
      <trkpt lat="46.9721" lon="-1.0187">
        <ele>133</ele>
        <time>2012-04-30T12:16:34Z</time>
      </trkpt>
      <trkpt lat="46.97201" lon="-1.01837">
        <ele>133</ele>
        <time>2012-04-30T12:16:34Z</time>
      </trkpt>
      <trkpt lat="46.97199" lon="-1.01829">
        <ele>133</ele>
        <time>2012-04-30T12:16:35Z</time>
      </trkpt>
      <trkpt lat="46.97194" lon="-1.01812">
        <ele>133</ele>
        <time>2012-04-30T12:16:40Z</time>
      </trkpt>
      <trkpt lat="46.97185" lon="-1.01778">
        <ele>133</ele>
        <time>2012-04-30T12:16:41Z</time>
      </trkpt>
      <trkpt lat="46.97183" lon="-1.0177">
        <ele>133</ele>
        <time>2012-04-30T12:16:42Z</time>
      </trkpt>
      <trkpt lat="46.97171" lon="-1.01728">
        <ele>133</ele>
        <time>2012-04-30T12:16:47Z</time>
      </trkpt>
      <trkpt lat="46.97168" lon="-1.01719">
        <ele>133</ele>
        <time>2012-04-30T12:16:48Z</time>
      </trkpt>
      <trkpt lat="46.97166" lon="-1.01711">
        <ele>133</ele>
        <time>2012-04-30T12:16:49Z</time>
      </trkpt>
      <trkpt lat="46.97154" lon="-1.01668">
        <ele>133</ele>
        <time>2012-04-30T12:16:54Z</time>
      </trkpt>
      <trkpt lat="46.97152" lon="-1.01659">
        <ele>133</ele>
        <time>2012-04-30T12:16:55Z</time>
      </trkpt>
      <trkpt lat="46.97137" lon="-1.01606">
        <ele>133</ele>
        <time>2012-04-30T12:17:01Z</time>
      </trkpt>
      <trkpt lat="46.97134" lon="-1.01597">
        <ele>133</ele>
        <time>2012-04-30T12:17:02Z</time>
      </trkpt>
      <trkpt lat="46.97129" lon="-1.01578">
        <ele>133</ele>
        <time>2012-04-30T12:17:08Z</time>
      </trkpt>
      <trkpt lat="46.97118" lon="-1.0154">
        <ele>133</ele>
        <time>2012-04-30T12:17:08Z</time>
      </trkpt>
      <trkpt lat="46.97115" lon="-1.01531">
        <ele>133</ele>
        <time>2012-04-30T12:17:09Z</time>
      </trkpt>
      <trkpt lat="46.9711" lon="-1.01511">
        <ele>133</ele>
        <time>2012-04-30T12:17:15Z</time>
      </trkpt>
      <trkpt lat="46.971" lon="-1.01472">
        <ele>133</ele>
        <time>2012-04-30T12:17:15Z</time>
      </trkpt>
      <trkpt lat="46.97099" lon="-1.01462">
        <ele>133</ele>
        <time>2012-04-30T12:17:16Z</time>
      </trkpt>
      <trkpt lat="46.97095" lon="-1.01441">
        <ele>133</ele>
        <time>2012-04-30T12:17:22Z</time>
      </trkpt>
      <trkpt lat="46.97091" lon="-1.01399">
        <ele>132</ele>
        <time>2012-04-30T12:17:22Z</time>
      </trkpt>
      <trkpt lat="46.97089" lon="-1.01388">
        <ele>132</ele>
        <time>2012-04-30T12:17:23Z</time>
      </trkpt>
      <trkpt lat="46.97086" lon="-1.01367">
        <ele>132</ele>
        <time>2012-04-30T12:17:29Z</time>
      </trkpt>
      <trkpt lat="46.97079" lon="-1.01325">
        <ele>132</ele>
        <time>2012-04-30T12:17:29Z</time>
      </trkpt>
      <trkpt lat="46.97078" lon="-1.01314">
        <ele>132</ele>
        <time>2012-04-30T12:17:30Z</time>
      </trkpt>
      <trkpt lat="46.97075" lon="-1.01292">
        <ele>132</ele>
        <time>2012-04-30T12:17:36Z</time>
      </trkpt>
      <trkpt lat="46.97068" lon="-1.01248">
        <ele>132</ele>
        <time>2012-04-30T12:17:36Z</time>
      </trkpt>
      <trkpt lat="46.97066" lon="-1.01237">
        <ele>132</ele>
        <time>2012-04-30T12:17:37Z</time>
      </trkpt>
      <trkpt lat="46.97064" lon="-1.01214">
        <ele>132</ele>
        <time>2012-04-30T12:17:43Z</time>
      </trkpt>
      <trkpt lat="46.97057" lon="-1.01167">
        <ele>131</ele>
        <time>2012-04-30T12:17:43Z</time>
      </trkpt>
      <trkpt lat="46.97055" lon="-1.01155">
        <ele>131</ele>
        <time>2012-04-30T12:17:44Z</time>
      </trkpt>
      <trkpt lat="46.97052" lon="-1.01131">
        <ele>131</ele>
        <time>2012-04-30T12:17:50Z</time>
      </trkpt>
      <trkpt lat="46.97046" lon="-1.01082">
        <ele>131</ele>
        <time>2012-04-30T12:17:50Z</time>
      </trkpt>
      <trkpt lat="46.97045" lon="-1.0107">
        <ele>130</ele>
        <time>2012-04-30T12:17:51Z</time>
      </trkpt>
      <trkpt lat="46.97041" lon="-1.01046">
        <ele>130</ele>
        <time>2012-04-30T12:17:57Z</time>
      </trkpt>
      <trkpt lat="46.97023" lon="-1.01006">
        <ele>130</ele>
        <time>2012-04-30T12:17:57Z</time>
      </trkpt>
      <trkpt lat="46.97017" lon="-1.00999">
        <ele>130</ele>
        <time>2012-04-30T12:17:59Z</time>
      </trkpt>
      <trkpt lat="46.97011" lon="-1.00993">
        <ele>130</ele>
        <time>2012-04-30T12:18:00Z</time>
      </trkpt>
      <trkpt lat="46.97005" lon="-1.00988">
        <ele>130</ele>
        <time>2012-04-30T12:18:05Z</time>
      </trkpt>
      <trkpt lat="46.96974" lon="-1.00958">
        <ele>130</ele>
        <time>2012-04-30T12:18:06Z</time>
      </trkpt>
      <trkpt lat="46.96965" lon="-1.00949">
        <ele>130</ele>
        <time>2012-04-30T12:18:12Z</time>
      </trkpt>
      <trkpt lat="46.96943" lon="-1.00927">
        <ele>130</ele>
        <time>2012-04-30T12:18:13Z</time>
      </trkpt>
      <trkpt lat="46.96939" lon="-1.00923">
        <ele>130</ele>
        <time>2012-04-30T12:18:14Z</time>
      </trkpt>
      <trkpt lat="46.96931" lon="-1.00915">
        <ele>130</ele>
        <time>2012-04-30T12:18:20Z</time>
      </trkpt>
      <trkpt lat="46.96914" lon="-1.00898">
        <ele>131</ele>
        <time>2012-04-30T12:18:20Z</time>
      </trkpt>
      <trkpt lat="46.9691" lon="-1.00894">
        <ele>132</ele>
        <time>2012-04-30T12:18:21Z</time>
      </trkpt>
      <trkpt lat="46.96901" lon="-1.00886">
        <ele>132</ele>
        <time>2012-04-30T12:18:27Z</time>
      </trkpt>
      <trkpt lat="46.96885" lon="-1.00871">
        <ele>133</ele>
        <time>2012-04-30T12:18:27Z</time>
      </trkpt>
      <trkpt lat="46.9688" lon="-1.00866">
        <ele>134</ele>
        <time>2012-04-30T12:18:28Z</time>
      </trkpt>
      <trkpt lat="46.96872" lon="-1.00858">
        <ele>135</ele>
        <time>2012-04-30T12:18:34Z</time>
      </trkpt>
      <trkpt lat="46.96854" lon="-1.00842">
        <ele>135</ele>
        <time>2012-04-30T12:18:34Z</time>
      </trkpt>
      <trkpt lat="46.9685" lon="-1.00837">
        <ele>136</ele>
        <time>2012-04-30T12:18:35Z</time>
      </trkpt>
      <trkpt lat="46.96842" lon="-1.00828">
        <ele>136</ele>
        <time>2012-04-30T12:18:41Z</time>
      </trkpt>
      <trkpt lat="46.9683" lon="-1.00805">
        <ele>136</ele>
        <time>2012-04-30T12:18:41Z</time>
      </trkpt>
      <trkpt lat="46.96828" lon="-1.00798">
        <ele>136</ele>
        <time>2012-04-30T12:18:42Z</time>
      </trkpt>
      <trkpt lat="46.96827" lon="-1.00791">
        <ele>136</ele>
        <time>2012-04-30T12:18:44Z</time>
      </trkpt>
      <trkpt lat="46.96825" lon="-1.00777">
        <ele>137</ele>
        <time>2012-04-30T12:18:49Z</time>
      </trkpt>
      <trkpt lat="46.96825" lon="-1.00747">
        <ele>137</ele>
        <time>2012-04-30T12:18:49Z</time>
      </trkpt>
      <trkpt lat="46.96825" lon="-1.00739">
        <ele>138</ele>
        <time>2012-04-30T12:18:51Z</time>
      </trkpt>
      <trkpt lat="46.96826" lon="-1.00731">
        <ele>138</ele>
        <time>2012-04-30T12:18:52Z</time>
      </trkpt>
      <trkpt lat="46.96826" lon="-1.00724">
        <ele>139</ele>
        <time>2012-04-30T12:18:52Z</time>
      </trkpt>
      <trkpt lat="46.96827" lon="-1.0071">
        <ele>140</ele>
        <time>2012-04-30T12:18:58Z</time>
      </trkpt>
      <trkpt lat="46.9683" lon="-1.00682">
        <ele>140</ele>
        <time>2012-04-30T12:18:58Z</time>
      </trkpt>
      <trkpt lat="46.9683" lon="-1.00675">
        <ele>141</ele>
        <time>2012-04-30T12:18:59Z</time>
      </trkpt>
      <trkpt lat="46.96832" lon="-1.0066">
        <ele>141</ele>
        <time>2012-04-30T12:19:05Z</time>
      </trkpt>
      <trkpt lat="46.96834" lon="-1.00628">
        <ele>142</ele>
        <time>2012-04-30T12:19:05Z</time>
      </trkpt>
      <trkpt lat="46.96834" lon="-1.00619">
        <ele>143</ele>
        <time>2012-04-30T12:19:06Z</time>
      </trkpt>
      <trkpt lat="46.96833" lon="-1.00604">
        <ele>144</ele>
        <time>2012-04-30T12:19:12Z</time>
      </trkpt>
      <trkpt lat="46.96823" lon="-1.00576">
        <ele>144</ele>
        <time>2012-04-30T12:19:12Z</time>
      </trkpt>
      <trkpt lat="46.9682" lon="-1.0057">
        <ele>144</ele>
        <time>2012-04-30T12:19:13Z</time>
      </trkpt>
      <trkpt lat="46.96816" lon="-1.00565">
        <ele>144</ele>
        <time>2012-04-30T12:19:15Z</time>
      </trkpt>
      <trkpt lat="46.96806" lon="-1.00558">
        <ele>144</ele>
        <time>2012-04-30T12:19:21Z</time>
      </trkpt>
      <trkpt lat="46.96782" lon="-1.00556">
        <ele>144</ele>
        <time>2012-04-30T12:19:21Z</time>
      </trkpt>
      <trkpt lat="46.96777" lon="-1.00557">
        <ele>145</ele>
        <time>2012-04-30T12:19:22Z</time>
      </trkpt>
      <trkpt lat="46.96773" lon="-1.00558">
        <ele>145</ele>
        <time>2012-04-30T12:19:23Z</time>
      </trkpt>
      <trkpt lat="46.96764" lon="-1.0056">
        <ele>145</ele>
        <time>2012-04-30T12:19:29Z</time>
      </trkpt>
      <trkpt lat="46.96747" lon="-1.00558">
        <ele>146</ele>
        <time>2012-04-30T12:19:29Z</time>
      </trkpt>
      <trkpt lat="46.96743" lon="-1.00555">
        <ele>146</ele>
        <time>2012-04-30T12:19:31Z</time>
      </trkpt>
      <trkpt lat="46.96739" lon="-1.00551">
        <ele>146</ele>
        <time>2012-04-30T12:19:31Z</time>
      </trkpt>
      <trkpt lat="46.96736" lon="-1.00547">
        <ele>146</ele>
        <time>2012-04-30T12:19:32Z</time>
      </trkpt>
      <trkpt lat="46.9673" lon="-1.00539">
        <ele>146</ele>
        <time>2012-04-30T12:19:38Z</time>
      </trkpt>
      <trkpt lat="46.96719" lon="-1.0052">
        <ele>147</ele>
        <time>2012-04-30T12:19:38Z</time>
      </trkpt>
      <trkpt lat="46.96716" lon="-1.00515">
        <ele>147</ele>
        <time>2012-04-30T12:19:39Z</time>
      </trkpt>
      <trkpt lat="46.9671" lon="-1.00507">
        <ele>148</ele>
        <time>2012-04-30T12:19:45Z</time>
      </trkpt>
      <trkpt lat="46.96695" lon="-1.00498">
        <ele>149</ele>
        <time>2012-04-30T12:19:45Z</time>
      </trkpt>
      <trkpt lat="46.96691" lon="-1.00497">
        <ele>150</ele>
        <time>2012-04-30T12:19:47Z</time>
      </trkpt>
      <trkpt lat="46.96687" lon="-1.00497">
        <ele>150</ele>
        <time>2012-04-30T12:19:48Z</time>
      </trkpt>
      <trkpt lat="46.96683" lon="-1.00497">
        <ele>151</ele>
        <time>2012-04-30T12:19:49Z</time>
      </trkpt>
      <trkpt lat="46.96655" lon="-1.00506">
        <ele>151</ele>
        <time>2012-04-30T12:19:55Z</time>
      </trkpt>
      <trkpt lat="46.9665" lon="-1.00506">
        <ele>151</ele>
        <time>2012-04-30T12:19:56Z</time>
      </trkpt>
      <trkpt lat="46.96642" lon="-1.00505">
        <ele>152</ele>
        <time>2012-04-30T12:20:02Z</time>
      </trkpt>
      <trkpt lat="46.96626" lon="-1.00496">
        <ele>153</ele>
        <time>2012-04-30T12:20:02Z</time>
      </trkpt>
      <trkpt lat="46.96623" lon="-1.00491">
        <ele>153</ele>
        <time>2012-04-30T12:20:03Z</time>
      </trkpt>
      <trkpt lat="46.9662" lon="-1.00487">
        <ele>154</ele>
        <time>2012-04-30T12:20:05Z</time>
      </trkpt>
      <trkpt lat="46.96615" lon="-1.00478">
        <ele>154</ele>
        <time>2012-04-30T12:20:10Z</time>
      </trkpt>
      <trkpt lat="46.96611" lon="-1.00455">
        <ele>155</ele>
        <time>2012-04-30T12:20:10Z</time>
      </trkpt>
      <trkpt lat="46.96611" lon="-1.00449">
        <ele>155</ele>
        <time>2012-04-30T12:20:12Z</time>
      </trkpt>
      <trkpt lat="46.96611" lon="-1.00443">
        <ele>155</ele>
        <time>2012-04-30T12:20:13Z</time>
      </trkpt>
      <trkpt lat="46.96613" lon="-1.00431">
        <ele>155</ele>
        <time>2012-04-30T12:20:18Z</time>
      </trkpt>
      <trkpt lat="46.9662" lon="-1.00407">
        <ele>155</ele>
        <time>2012-04-30T12:20:18Z</time>
      </trkpt>
      <trkpt lat="46.96621" lon="-1.00401">
        <ele>155</ele>
        <time>2012-04-30T12:20:19Z</time>
      </trkpt>
      <trkpt lat="46.96625" lon="-1.00388">
        <ele>155</ele>
        <time>2012-04-30T12:20:25Z</time>
      </trkpt>
      <trkpt lat="46.96635" lon="-1.00354">
        <ele>155</ele>
        <time>2012-04-30T12:20:28Z</time>
      </trkpt>
      <trkpt lat="46.96644" lon="-1.00319">
        <ele>155</ele>
        <time>2012-04-30T12:20:31Z</time>
      </trkpt>
      <trkpt lat="46.9665" lon="-1.00296">
        <ele>155</ele>
        <time>2012-04-30T12:20:34Z</time>
      </trkpt>
      <trkpt lat="46.96655" lon="-1.00281">
        <ele>155</ele>
        <time>2012-04-30T12:20:37Z</time>
      </trkpt>
      <trkpt lat="46.96658" lon="-1.00256">
        <ele>155</ele>
        <time>2012-04-30T12:20:40Z</time>
      </trkpt>
      <trkpt lat="46.96655" lon="-1.0023">
        <ele>155</ele>
        <time>2012-04-30T12:20:43Z</time>
      </trkpt>
      <trkpt lat="46.96634" lon="-1.00196">
        <ele>155</ele>
        <time>2012-04-30T12:20:47Z</time>
      </trkpt>
      <trkpt lat="46.96625" lon="-1.00184">
        <ele>155</ele>
        <time>2012-04-30T12:20:54Z</time>
      </trkpt>
      <trkpt lat="46.96601" lon="-1.00156">
        <ele>155</ele>
        <time>2012-04-30T12:20:55Z</time>
      </trkpt>
      <trkpt lat="46.96574" lon="-1.00124">
        <ele>155</ele>
        <time>2012-04-30T12:21:00Z</time>
      </trkpt>
      <trkpt lat="46.96569" lon="-1.00119">
        <ele>155</ele>
        <time>2012-04-30T12:21:01Z</time>
      </trkpt>
      <trkpt lat="46.96564" lon="-1.00114">
        <ele>155</ele>
        <time>2012-04-30T12:21:02Z</time>
      </trkpt>
      <trkpt lat="46.96555" lon="-1.00104">
        <ele>155</ele>
        <time>2012-04-30T12:21:08Z</time>
      </trkpt>
      <trkpt lat="46.96537" lon="-1.00083">
        <ele>156</ele>
        <time>2012-04-30T12:21:08Z</time>
      </trkpt>
      <trkpt lat="46.96532" lon="-1.00078">
        <ele>156</ele>
        <time>2012-04-30T12:21:09Z</time>
      </trkpt>
      <trkpt lat="46.96523" lon="-1.00068">
        <ele>156</ele>
        <time>2012-04-30T12:21:15Z</time>
      </trkpt>
      <trkpt lat="46.96504" lon="-1.00051">
        <ele>157</ele>
        <time>2012-04-30T12:21:15Z</time>
      </trkpt>
      <trkpt lat="46.965" lon="-1.00048">
        <ele>157</ele>
        <time>2012-04-30T12:21:16Z</time>
      </trkpt>
      <trkpt lat="46.96492" lon="-1.00041">
        <ele>157</ele>
        <time>2012-04-30T12:21:23Z</time>
      </trkpt>
      <trkpt lat="46.96468" lon="-1.00048">
        <ele>158</ele>
        <time>2012-04-30T12:21:23Z</time>
      </trkpt>
      <trkpt lat="46.96463" lon="-1.00051">
        <ele>158</ele>
        <time>2012-04-30T12:21:25Z</time>
      </trkpt>
      <trkpt lat="46.96452" lon="-1.00059">
        <ele>158</ele>
        <time>2012-04-30T12:21:26Z</time>
      </trkpt>
      <trkpt lat="46.96442" lon="-1.00067">
        <ele>158</ele>
        <time>2012-04-30T12:21:32Z</time>
      </trkpt>
      <trkpt lat="46.96423" lon="-1.00086">
        <ele>158</ele>
        <time>2012-04-30T12:21:32Z</time>
      </trkpt>
      <trkpt lat="46.96418" lon="-1.0009">
        <ele>158</ele>
        <time>2012-04-30T12:21:33Z</time>
      </trkpt>
      <trkpt lat="46.96387" lon="-1.00119">
        <ele>158</ele>
        <time>2012-04-30T12:21:39Z</time>
      </trkpt>
      <trkpt lat="46.96382" lon="-1.00123">
        <ele>158</ele>
        <time>2012-04-30T12:21:40Z</time>
      </trkpt>
      <trkpt lat="46.96372" lon="-1.00132">
        <ele>158</ele>
        <time>2012-04-30T12:21:47Z</time>
      </trkpt>
      <trkpt lat="46.96348" lon="-1.00156">
        <ele>158</ele>
        <time>2012-04-30T12:21:47Z</time>
      </trkpt>
      <trkpt lat="46.96343" lon="-1.0016">
        <ele>158</ele>
        <time>2012-04-30T12:21:48Z</time>
      </trkpt>
      <trkpt lat="46.96333" lon="-1.0017">
        <ele>158</ele>
        <time>2012-04-30T12:21:54Z</time>
      </trkpt>
      <trkpt lat="46.96313" lon="-1.00188">
        <ele>158</ele>
        <time>2012-04-30T12:21:54Z</time>
      </trkpt>
      <trkpt lat="46.96308" lon="-1.00192">
        <ele>158</ele>
        <time>2012-04-30T12:21:55Z</time>
      </trkpt>
      <trkpt lat="46.96278" lon="-1.00215">
        <ele>158</ele>
        <time>2012-04-30T12:22:01Z</time>
      </trkpt>
      <trkpt lat="46.96273" lon="-1.00218">
        <ele>159</ele>
        <time>2012-04-30T12:22:02Z</time>
      </trkpt>
      <trkpt lat="46.96268" lon="-1.00222">
        <ele>159</ele>
        <time>2012-04-30T12:22:03Z</time>
      </trkpt>
      <trkpt lat="46.96257" lon="-1.00228">
        <ele>160</ele>
        <time>2012-04-30T12:22:09Z</time>
      </trkpt>
      <trkpt lat="46.96237" lon="-1.0024">
        <ele>161</ele>
        <time>2012-04-30T12:22:09Z</time>
      </trkpt>
      <trkpt lat="46.96232" lon="-1.00243">
        <ele>161</ele>
        <time>2012-04-30T12:22:10Z</time>
      </trkpt>
      <trkpt lat="46.96222" lon="-1.00248">
        <ele>161</ele>
        <time>2012-04-30T12:22:16Z</time>
      </trkpt>
      <trkpt lat="46.96196" lon="-1.00262">
        <ele>161</ele>
        <time>2012-04-30T12:22:17Z</time>
      </trkpt>
      <trkpt lat="46.96191" lon="-1.00265">
        <ele>161</ele>
        <time>2012-04-30T12:22:18Z</time>
      </trkpt>
      <trkpt lat="46.96181" lon="-1.0027">
        <ele>161</ele>
        <time>2012-04-30T12:22:24Z</time>
      </trkpt>
      <trkpt lat="46.96162" lon="-1.0028">
        <ele>161</ele>
        <time>2012-04-30T12:22:24Z</time>
      </trkpt>
      <trkpt lat="46.96157" lon="-1.00282">
        <ele>161</ele>
        <time>2012-04-30T12:22:25Z</time>
      </trkpt>
      <trkpt lat="46.96127" lon="-1.00286">
        <ele>161</ele>
        <time>2012-04-30T12:22:31Z</time>
      </trkpt>
      <trkpt lat="46.96122" lon="-1.00286">
        <ele>161</ele>
        <time>2012-04-30T12:22:32Z</time>
      </trkpt>
      <trkpt lat="46.96117" lon="-1.00287">
        <ele>161</ele>
        <time>2012-04-30T12:22:33Z</time>
      </trkpt>
      <trkpt lat="46.96108" lon="-1.00288">
        <ele>161</ele>
        <time>2012-04-30T12:22:39Z</time>
      </trkpt>
      <trkpt lat="46.96089" lon="-1.00294">
        <ele>161</ele>
        <time>2012-04-30T12:22:39Z</time>
      </trkpt>
      <trkpt lat="46.96085" lon="-1.00295">
        <ele>161</ele>
        <time>2012-04-30T12:22:40Z</time>
      </trkpt>
      <trkpt lat="46.96057" lon="-1.00307">
        <ele>161</ele>
        <time>2012-04-30T12:22:46Z</time>
      </trkpt>
      <trkpt lat="46.96053" lon="-1.00309">
        <ele>162</ele>
        <time>2012-04-30T12:22:47Z</time>
      </trkpt>
      <trkpt lat="46.96048" lon="-1.00312">
        <ele>162</ele>
        <time>2012-04-30T12:22:48Z</time>
      </trkpt>
      <trkpt lat="46.9604" lon="-1.00318">
        <ele>162</ele>
        <time>2012-04-30T12:22:54Z</time>
      </trkpt>
      <trkpt lat="46.96022" lon="-1.0033">
        <ele>162</ele>
        <time>2012-04-30T12:22:54Z</time>
      </trkpt>
      <trkpt lat="46.96017" lon="-1.00332">
        <ele>163</ele>
        <time>2012-04-30T12:22:55Z</time>
      </trkpt>
      <trkpt lat="46.96008" lon="-1.00337">
        <ele>163</ele>
        <time>2012-04-30T12:23:02Z</time>
      </trkpt>
      <trkpt lat="46.95983" lon="-1.00341">
        <ele>163</ele>
        <time>2012-04-30T12:23:02Z</time>
      </trkpt>
      <trkpt lat="46.95979" lon="-1.00342">
        <ele>163</ele>
        <time>2012-04-30T12:23:03Z</time>
      </trkpt>
      <trkpt lat="46.95969" lon="-1.00343">
        <ele>163</ele>
        <time>2012-04-30T12:23:09Z</time>
      </trkpt>
      <trkpt lat="46.95949" lon="-1.00346">
        <ele>164</ele>
        <time>2012-04-30T12:23:09Z</time>
      </trkpt>
      <trkpt lat="46.95944" lon="-1.00347">
        <ele>164</ele>
        <time>2012-04-30T12:23:10Z</time>
      </trkpt>
      <trkpt lat="46.95934" lon="-1.00349">
        <ele>164</ele>
        <time>2012-04-30T12:23:17Z</time>
      </trkpt>
      <trkpt lat="46.95909" lon="-1.00352">
        <ele>165</ele>
        <time>2012-04-30T12:23:17Z</time>
      </trkpt>
      <trkpt lat="46.95904" lon="-1.00352">
        <ele>165</ele>
        <time>2012-04-30T12:23:18Z</time>
      </trkpt>
      <trkpt lat="46.95894" lon="-1.00351">
        <ele>165</ele>
        <time>2012-04-30T12:23:24Z</time>
      </trkpt>
      <trkpt lat="46.95875" lon="-1.00347">
        <ele>166</ele>
        <time>2012-04-30T12:23:24Z</time>
      </trkpt>
      <trkpt lat="46.9587" lon="-1.00345">
        <ele>166</ele>
        <time>2012-04-30T12:23:25Z</time>
      </trkpt>
      <trkpt lat="46.95861" lon="-1.00342">
        <ele>167</ele>
        <time>2012-04-30T12:23:32Z</time>
      </trkpt>
      <trkpt lat="46.9584" lon="-1.00328">
        <ele>167</ele>
        <time>2012-04-30T12:23:32Z</time>
      </trkpt>
      <trkpt lat="46.95836" lon="-1.00323">
        <ele>168</ele>
        <time>2012-04-30T12:23:34Z</time>
      </trkpt>
      <trkpt lat="46.95832" lon="-1.00319">
        <ele>168</ele>
        <time>2012-04-30T12:23:35Z</time>
      </trkpt>
      <trkpt lat="46.95825" lon="-1.00309">
        <ele>169</ele>
        <time>2012-04-30T12:23:40Z</time>
      </trkpt>
      <trkpt lat="46.95807" lon="-1.00284">
        <ele>169</ele>
        <time>2012-04-30T12:23:41Z</time>
      </trkpt>
      <trkpt lat="46.95803" lon="-1.00279">
        <ele>169</ele>
        <time>2012-04-30T12:23:42Z</time>
      </trkpt>
      <trkpt lat="46.95797" lon="-1.00268">
        <ele>170</ele>
        <time>2012-04-30T12:23:48Z</time>
      </trkpt>
      <trkpt lat="46.95784" lon="-1.00246">
        <ele>170</ele>
        <time>2012-04-30T12:23:48Z</time>
      </trkpt>
      <trkpt lat="46.9578" lon="-1.0024">
        <ele>170</ele>
        <time>2012-04-30T12:23:49Z</time>
      </trkpt>
      <trkpt lat="46.95773" lon="-1.00229">
        <ele>170</ele>
        <time>2012-04-30T12:23:56Z</time>
      </trkpt>
      <trkpt lat="46.95756" lon="-1.00201">
        <ele>171</ele>
        <time>2012-04-30T12:23:56Z</time>
      </trkpt>
      <trkpt lat="46.95752" lon="-1.00196">
        <ele>171</ele>
        <time>2012-04-30T12:23:57Z</time>
      </trkpt>
      <trkpt lat="46.95734" lon="-1.00169">
        <ele>172</ele>
        <time>2012-04-30T12:24:03Z</time>
      </trkpt>
      <trkpt lat="46.95732" lon="-1.00166">
        <ele>172</ele>
        <time>2012-04-30T12:24:04Z</time>
      </trkpt>
      <trkpt lat="46.95729" lon="-1.00164">
        <ele>173</ele>
        <time>2012-04-30T12:24:05Z</time>
      </trkpt>
      <trkpt lat="46.95724" lon="-1.00164">
        <ele>174</ele>
        <time>2012-04-30T12:24:13Z</time>
      </trkpt>
      <trkpt lat="46.95704" lon="-1.00181">
        <ele>174</ele>
        <time>2012-04-30T12:24:13Z</time>
      </trkpt>
      <trkpt lat="46.957" lon="-1.00185">
        <ele>175</ele>
        <time>2012-04-30T12:24:15Z</time>
      </trkpt>
      <trkpt lat="46.9567" lon="-1.00206">
        <ele>175</ele>
        <time>2012-04-30T12:24:21Z</time>
      </trkpt>
      <trkpt lat="46.95666" lon="-1.0021">
        <ele>175</ele>
        <time>2012-04-30T12:24:22Z</time>
      </trkpt>
      <trkpt lat="46.9564" lon="-1.00231">
        <ele>175</ele>
        <time>2012-04-30T12:24:28Z</time>
      </trkpt>
      <trkpt lat="46.95636" lon="-1.00235">
        <ele>175</ele>
        <time>2012-04-30T12:24:29Z</time>
      </trkpt>
      <trkpt lat="46.95628" lon="-1.00242">
        <ele>175</ele>
        <time>2012-04-30T12:24:36Z</time>
      </trkpt>
      <trkpt lat="46.95607" lon="-1.00259">
        <ele>175</ele>
        <time>2012-04-30T12:24:36Z</time>
      </trkpt>
      <trkpt lat="46.95603" lon="-1.00262">
        <ele>175</ele>
        <time>2012-04-30T12:24:37Z</time>
      </trkpt>
      <trkpt lat="46.95595" lon="-1.00269">
        <ele>175</ele>
        <time>2012-04-30T12:24:44Z</time>
      </trkpt>
      <trkpt lat="46.95574" lon="-1.00286">
        <ele>175</ele>
        <time>2012-04-30T12:24:44Z</time>
      </trkpt>
      <trkpt lat="46.9557" lon="-1.0029">
        <ele>175</ele>
        <time>2012-04-30T12:24:45Z</time>
      </trkpt>
      <trkpt lat="46.95545" lon="-1.00317">
        <ele>175</ele>
        <time>2012-04-30T12:24:51Z</time>
      </trkpt>
      <trkpt lat="46.9554" lon="-1.00322">
        <ele>175</ele>
        <time>2012-04-30T12:24:52Z</time>
      </trkpt>
      <trkpt lat="46.95532" lon="-1.00333">
        <ele>175</ele>
        <time>2012-04-30T12:24:59Z</time>
      </trkpt>
      <trkpt lat="46.95511" lon="-1.0036">
        <ele>175</ele>
        <time>2012-04-30T12:24:59Z</time>
      </trkpt>
      <trkpt lat="46.95507" lon="-1.00365">
        <ele>175</ele>
        <time>2012-04-30T12:25:00Z</time>
      </trkpt>
      <trkpt lat="46.95498" lon="-1.00377">
        <ele>175</ele>
        <time>2012-04-30T12:25:07Z</time>
      </trkpt>
      <trkpt lat="46.95479" lon="-1.00408">
        <ele>175</ele>
        <time>2012-04-30T12:25:07Z</time>
      </trkpt>
      <trkpt lat="46.95475" lon="-1.00415">
        <ele>175</ele>
        <time>2012-04-30T12:25:08Z</time>
      </trkpt>
      <trkpt lat="46.95455" lon="-1.00457">
        <ele>175</ele>
        <time>2012-04-30T12:25:14Z</time>
      </trkpt>
      <trkpt lat="46.95452" lon="-1.00464">
        <ele>175</ele>
        <time>2012-04-30T12:25:15Z</time>
      </trkpt>
      <trkpt lat="46.95449" lon="-1.0047">
        <ele>175</ele>
        <time>2012-04-30T12:25:16Z</time>
      </trkpt>
      <trkpt lat="46.95443" lon="-1.00485">
        <ele>175</ele>
        <time>2012-04-30T12:25:22Z</time>
      </trkpt>
      <trkpt lat="46.9543" lon="-1.00512">
        <ele>175</ele>
        <time>2012-04-30T12:25:22Z</time>
      </trkpt>
      <trkpt lat="46.95427" lon="-1.00519">
        <ele>175</ele>
        <time>2012-04-30T12:25:23Z</time>
      </trkpt>
      <trkpt lat="46.95421" lon="-1.00533">
        <ele>175</ele>
        <time>2012-04-30T12:25:30Z</time>
      </trkpt>
      <trkpt lat="46.95408" lon="-1.00569">
        <ele>175</ele>
        <time>2012-04-30T12:25:30Z</time>
      </trkpt>
      <trkpt lat="46.95406" lon="-1.00577">
        <ele>175</ele>
        <time>2012-04-30T12:25:31Z</time>
      </trkpt>
      <trkpt lat="46.95401" lon="-1.00592">
        <ele>175</ele>
        <time>2012-04-30T12:25:38Z</time>
      </trkpt>
      <trkpt lat="46.95389" lon="-1.00629">
        <ele>175</ele>
        <time>2012-04-30T12:25:38Z</time>
      </trkpt>
      <trkpt lat="46.95386" lon="-1.00636">
        <ele>175</ele>
        <time>2012-04-30T12:25:39Z</time>
      </trkpt>
      <trkpt lat="46.95382" lon="-1.00651">
        <ele>175</ele>
        <time>2012-04-30T12:25:46Z</time>
      </trkpt>
      <trkpt lat="46.95371" lon="-1.00685">
        <ele>175</ele>
        <time>2012-04-30T12:25:46Z</time>
      </trkpt>
      <trkpt lat="46.95369" lon="-1.00692">
        <ele>176</ele>
        <time>2012-04-30T12:25:47Z</time>
      </trkpt>
      <trkpt lat="46.95364" lon="-1.00706">
        <ele>176</ele>
        <time>2012-04-30T12:25:52Z</time>
      </trkpt>
      <trkpt lat="46.95358" lon="-1.00726">
        <ele>177</ele>
        <time>2012-04-30T12:25:52Z</time>
      </trkpt>
      <trkpt lat="46.95356" lon="-1.00733">
        <ele>178</ele>
        <time>2012-04-30T12:25:53Z</time>
      </trkpt>
      <trkpt lat="46.95352" lon="-1.00745">
        <ele>178</ele>
        <time>2012-04-30T12:25:58Z</time>
      </trkpt>
      <trkpt lat="46.9534" lon="-1.00769">
        <ele>179</ele>
        <time>2012-04-30T12:25:59Z</time>
      </trkpt>
      <trkpt lat="46.95337" lon="-1.00774">
        <ele>180</ele>
        <time>2012-04-30T12:26:00Z</time>
      </trkpt>
      <trkpt lat="46.95318" lon="-1.00806">
        <ele>180</ele>
        <time>2012-04-30T12:26:06Z</time>
      </trkpt>
      <trkpt lat="46.95315" lon="-1.00811">
        <ele>181</ele>
        <time>2012-04-30T12:26:07Z</time>
      </trkpt>
      <trkpt lat="46.95309" lon="-1.0082">
        <ele>182</ele>
        <time>2012-04-30T12:26:12Z</time>
      </trkpt>
      <trkpt lat="46.95299" lon="-1.00833">
        <ele>182</ele>
        <time>2012-04-30T12:26:12Z</time>
      </trkpt>
      <trkpt lat="46.95296" lon="-1.00838">
        <ele>183</ele>
        <time>2012-04-30T12:26:13Z</time>
      </trkpt>
      <trkpt lat="46.95288" lon="-1.00845">
        <ele>184</ele>
        <time>2012-04-30T12:26:19Z</time>
      </trkpt>
      <trkpt lat="46.95273" lon="-1.00859">
        <ele>184</ele>
        <time>2012-04-30T12:26:19Z</time>
      </trkpt>
      <trkpt lat="46.95269" lon="-1.00862">
        <ele>185</ele>
        <time>2012-04-30T12:26:20Z</time>
      </trkpt>
      <trkpt lat="46.95261" lon="-1.00868">
        <ele>186</ele>
        <time>2012-04-30T12:26:25Z</time>
      </trkpt>
      <trkpt lat="46.95247" lon="-1.00877">
        <ele>187</ele>
        <time>2012-04-30T12:26:25Z</time>
      </trkpt>
      <trkpt lat="46.95243" lon="-1.0088">
        <ele>188</ele>
        <time>2012-04-30T12:26:26Z</time>
      </trkpt>
      <trkpt lat="46.95234" lon="-1.00886">
        <ele>189</ele>
        <time>2012-04-30T12:26:32Z</time>
      </trkpt>
      <trkpt lat="46.9522" lon="-1.00906">
        <ele>190</ele>
        <time>2012-04-30T12:26:32Z</time>
      </trkpt>
      <trkpt lat="46.95217" lon="-1.00912">
        <ele>191</ele>
        <time>2012-04-30T12:26:33Z</time>
      </trkpt>
      <trkpt lat="46.95214" lon="-1.00917">
        <ele>191</ele>
        <time>2012-04-30T12:26:35Z</time>
      </trkpt>
      <trkpt lat="46.95193" lon="-1.00934">
        <ele>191</ele>
        <time>2012-04-30T12:26:39Z</time>
      </trkpt>
      <trkpt lat="46.95189" lon="-1.00938">
        <ele>192</ele>
        <time>2012-04-30T12:26:40Z</time>
      </trkpt>
      <trkpt lat="46.95185" lon="-1.00944">
        <ele>192</ele>
        <time>2012-04-30T12:26:41Z</time>
      </trkpt>
      <trkpt lat="46.95183" lon="-1.00952">
        <ele>192</ele>
        <time>2012-04-30T12:26:43Z</time>
      </trkpt>
      <trkpt lat="46.9518" lon="-1.00968">
        <ele>192</ele>
        <time>2012-04-30T12:26:48Z</time>
      </trkpt>
      <trkpt lat="46.95181" lon="-1.01002">
        <ele>193</ele>
        <time>2012-04-30T12:26:49Z</time>
      </trkpt>
      <trkpt lat="46.95183" lon="-1.0101">
        <ele>193</ele>
        <time>2012-04-30T12:26:50Z</time>
      </trkpt>
      <trkpt lat="46.95185" lon="-1.01018">
        <ele>193</ele>
        <time>2012-04-30T12:26:51Z</time>
      </trkpt>
      <trkpt lat="46.95193" lon="-1.01058">
        <ele>193</ele>
        <time>2012-04-30T12:26:55Z</time>
      </trkpt>
      <trkpt lat="46.95194" lon="-1.01066">
        <ele>194</ele>
        <time>2012-04-30T12:26:56Z</time>
      </trkpt>
      <trkpt lat="46.95194" lon="-1.01074">
        <ele>194</ele>
        <time>2012-04-30T12:26:58Z</time>
      </trkpt>
      <trkpt lat="46.95188" lon="-1.01116">
        <ele>194</ele>
        <time>2012-04-30T12:27:02Z</time>
      </trkpt>
      <trkpt lat="46.95187" lon="-1.01124">
        <ele>195</ele>
        <time>2012-04-30T12:27:04Z</time>
      </trkpt>
      <trkpt lat="46.95186" lon="-1.01133">
        <ele>195</ele>
        <time>2012-04-30T12:27:04Z</time>
      </trkpt>
      <trkpt lat="46.95184" lon="-1.0115">
        <ele>195</ele>
        <time>2012-04-30T12:27:10Z</time>
      </trkpt>
      <trkpt lat="46.95181" lon="-1.01184">
        <ele>196</ele>
        <time>2012-04-30T12:27:10Z</time>
      </trkpt>
      <trkpt lat="46.9518" lon="-1.01193">
        <ele>196</ele>
        <time>2012-04-30T12:27:11Z</time>
      </trkpt>
      <trkpt lat="46.95179" lon="-1.01237">
        <ele>196</ele>
        <time>2012-04-30T12:27:16Z</time>
      </trkpt>
      <trkpt lat="46.95179" lon="-1.01246">
        <ele>197</ele>
        <time>2012-04-30T12:27:17Z</time>
      </trkpt>
      <trkpt lat="46.95179" lon="-1.01264">
        <ele>197</ele>
        <time>2012-04-30T12:27:23Z</time>
      </trkpt>
      <trkpt lat="46.9518" lon="-1.01302">
        <ele>197</ele>
        <time>2012-04-30T12:27:23Z</time>
      </trkpt>
      <trkpt lat="46.95181" lon="-1.01312">
        <ele>197</ele>
        <time>2012-04-30T12:27:24Z</time>
      </trkpt>
      <trkpt lat="46.95187" lon="-1.01365">
        <ele>197</ele>
        <time>2012-04-30T12:27:29Z</time>
      </trkpt>
      <trkpt lat="46.95188" lon="-1.01376">
        <ele>197</ele>
        <time>2012-04-30T12:27:30Z</time>
      </trkpt>
      <trkpt lat="46.95191" lon="-1.01399">
        <ele>197</ele>
        <time>2012-04-30T12:27:36Z</time>
      </trkpt>
      <trkpt lat="46.95198" lon="-1.01449">
        <ele>197</ele>
        <time>2012-04-30T12:27:36Z</time>
      </trkpt>
      <trkpt lat="46.95201" lon="-1.01462">
        <ele>197</ele>
        <time>2012-04-30T12:27:37Z</time>
      </trkpt>
      <trkpt lat="46.95214" lon="-1.01532">
        <ele>196</ele>
        <time>2012-04-30T12:27:42Z</time>
      </trkpt>
      <trkpt lat="46.95216" lon="-1.01547">
        <ele>195</ele>
        <time>2012-04-30T12:27:43Z</time>
      </trkpt>
      <trkpt lat="46.95219" lon="-1.01562">
        <ele>194</ele>
        <time>2012-04-30T12:27:44Z</time>
      </trkpt>
      <trkpt lat="46.95223" lon="-1.01593">
        <ele>193</ele>
        <time>2012-04-30T12:27:49Z</time>
      </trkpt>
      <trkpt lat="46.95231" lon="-1.01643">
        <ele>192</ele>
        <time>2012-04-30T12:27:49Z</time>
      </trkpt>
      <trkpt lat="46.95233" lon="-1.0166">
        <ele>191</ele>
        <time>2012-04-30T12:27:50Z</time>
      </trkpt>
      <trkpt lat="46.95237" lon="-1.01696">
        <ele>190</ele>
        <time>2012-04-30T12:27:56Z</time>
      </trkpt>
      <trkpt lat="46.95238" lon="-1.01766">
        <ele>189</ele>
        <time>2012-04-30T12:27:56Z</time>
      </trkpt>
      <trkpt lat="46.95238" lon="-1.01784">
        <ele>187</ele>
        <time>2012-04-30T12:27:57Z</time>
      </trkpt>
      <trkpt lat="46.95237" lon="-1.01818">
        <ele>185</ele>
        <time>2012-04-30T12:28:02Z</time>
      </trkpt>
      <trkpt lat="46.95236" lon="-1.01868">
        <ele>183</ele>
        <time>2012-04-30T12:28:02Z</time>
      </trkpt>
      <trkpt lat="46.95236" lon="-1.01885">
        <ele>181</ele>
        <time>2012-04-30T12:28:03Z</time>
      </trkpt>
      <trkpt lat="46.95235" lon="-1.01918">
        <ele>179</ele>
        <time>2012-04-30T12:28:09Z</time>
      </trkpt>
      <trkpt lat="46.95233" lon="-1.01985">
        <ele>177</ele>
        <time>2012-04-30T12:28:09Z</time>
      </trkpt>
      <trkpt lat="46.95232" lon="-1.02002">
        <ele>175</ele>
        <time>2012-04-30T12:28:10Z</time>
      </trkpt>
      <trkpt lat="46.95231" lon="-1.02036">
        <ele>173</ele>
        <time>2012-04-30T12:28:15Z</time>
      </trkpt>
      <trkpt lat="46.95229" lon="-1.02105">
        <ele>171</ele>
        <time>2012-04-30T12:28:16Z</time>
      </trkpt>
      <trkpt lat="46.95227" lon="-1.02122">
        <ele>169</ele>
        <time>2012-04-30T12:28:17Z</time>
      </trkpt>
      <trkpt lat="46.95224" lon="-1.02156">
        <ele>167</ele>
        <time>2012-04-30T12:28:22Z</time>
      </trkpt>
      <trkpt lat="46.95218" lon="-1.02206">
        <ele>165</ele>
        <time>2012-04-30T12:28:22Z</time>
      </trkpt>
      <trkpt lat="46.95216" lon="-1.02222">
        <ele>163</ele>
        <time>2012-04-30T12:28:23Z</time>
      </trkpt>
      <trkpt lat="46.95211" lon="-1.02253">
        <ele>161</ele>
        <time>2012-04-30T12:28:29Z</time>
      </trkpt>
      <trkpt lat="46.952" lon="-1.02312">
        <ele>159</ele>
        <time>2012-04-30T12:28:29Z</time>
      </trkpt>
      <trkpt lat="46.95197" lon="-1.02326">
        <ele>158</ele>
        <time>2012-04-30T12:28:30Z</time>
      </trkpt>
      <trkpt lat="46.95192" lon="-1.02352">
        <ele>157</ele>
        <time>2012-04-30T12:28:35Z</time>
      </trkpt>
      <trkpt lat="46.95178" lon="-1.02406">
        <ele>156</ele>
        <time>2012-04-30T12:28:36Z</time>
      </trkpt>
      <trkpt lat="46.95174" lon="-1.02418">
        <ele>155</ele>
        <time>2012-04-30T12:28:37Z</time>
      </trkpt>
      <trkpt lat="46.95167" lon="-1.02443">
        <ele>154</ele>
        <time>2012-04-30T12:28:42Z</time>
      </trkpt>
      <trkpt lat="46.95155" lon="-1.02479">
        <ele>153</ele>
        <time>2012-04-30T12:28:42Z</time>
      </trkpt>
      <trkpt lat="46.95151" lon="-1.0249">
        <ele>152</ele>
        <time>2012-04-30T12:28:43Z</time>
      </trkpt>
      <trkpt lat="46.95143" lon="-1.02512">
        <ele>151</ele>
        <time>2012-04-30T12:28:49Z</time>
      </trkpt>
      <trkpt lat="46.95125" lon="-1.02559">
        <ele>150</ele>
        <time>2012-04-30T12:28:49Z</time>
      </trkpt>
      <trkpt lat="46.95121" lon="-1.0257">
        <ele>150</ele>
        <time>2012-04-30T12:28:50Z</time>
      </trkpt>
      <trkpt lat="46.95112" lon="-1.02593">
        <ele>150</ele>
        <time>2012-04-30T12:28:56Z</time>
      </trkpt>
      <trkpt lat="46.95094" lon="-1.02638">
        <ele>150</ele>
        <time>2012-04-30T12:28:56Z</time>
      </trkpt>
      <trkpt lat="46.9509" lon="-1.02649">
        <ele>150</ele>
        <time>2012-04-30T12:28:57Z</time>
      </trkpt>
      <trkpt lat="46.95071" lon="-1.02701">
        <ele>149</ele>
        <time>2012-04-30T12:29:02Z</time>
      </trkpt>
      <trkpt lat="46.95067" lon="-1.02711">
        <ele>149</ele>
        <time>2012-04-30T12:29:03Z</time>
      </trkpt>
      <trkpt lat="46.95064" lon="-1.02721">
        <ele>149</ele>
        <time>2012-04-30T12:29:04Z</time>
      </trkpt>
      <trkpt lat="46.95056" lon="-1.02742">
        <ele>149</ele>
        <time>2012-04-30T12:29:09Z</time>
      </trkpt>
      <trkpt lat="46.95044" lon="-1.02777">
        <ele>148</ele>
        <time>2012-04-30T12:29:09Z</time>
      </trkpt>
      <trkpt lat="46.95039" lon="-1.02788">
        <ele>148</ele>
        <time>2012-04-30T12:29:10Z</time>
      </trkpt>
      <trkpt lat="46.95031" lon="-1.02812">
        <ele>147</ele>
        <time>2012-04-30T12:29:16Z</time>
      </trkpt>
      <trkpt lat="46.95012" lon="-1.02864">
        <ele>146</ele>
        <time>2012-04-30T12:29:16Z</time>
      </trkpt>
      <trkpt lat="46.95007" lon="-1.02878">
        <ele>145</ele>
        <time>2012-04-30T12:29:17Z</time>
      </trkpt>
      <trkpt lat="46.94997" lon="-1.02905">
        <ele>145</ele>
        <time>2012-04-30T12:29:23Z</time>
      </trkpt>
      <trkpt lat="46.94977" lon="-1.02963">
        <ele>144</ele>
        <time>2012-04-30T12:29:23Z</time>
      </trkpt>
      <trkpt lat="46.94971" lon="-1.02977">
        <ele>143</ele>
        <time>2012-04-30T12:29:24Z</time>
      </trkpt>
      <trkpt lat="46.94961" lon="-1.03005">
        <ele>142</ele>
        <time>2012-04-30T12:29:29Z</time>
      </trkpt>
      <trkpt lat="46.94943" lon="-1.03058">
        <ele>141</ele>
        <time>2012-04-30T12:29:30Z</time>
      </trkpt>
      <trkpt lat="46.94938" lon="-1.0307">
        <ele>140</ele>
        <time>2012-04-30T12:29:31Z</time>
      </trkpt>
      <trkpt lat="46.94929" lon="-1.03094">
        <ele>139</ele>
        <time>2012-04-30T12:29:36Z</time>
      </trkpt>
      <trkpt lat="46.94912" lon="-1.03142">
        <ele>138</ele>
        <time>2012-04-30T12:29:37Z</time>
      </trkpt>
      <trkpt lat="46.94904" lon="-1.03165">
        <ele>137</ele>
        <time>2012-04-30T12:29:43Z</time>
      </trkpt>
      <trkpt lat="46.94888" lon="-1.0321">
        <ele>136</ele>
        <time>2012-04-30T12:29:43Z</time>
      </trkpt>
      <trkpt lat="46.94884" lon="-1.03221">
        <ele>136</ele>
        <time>2012-04-30T12:29:44Z</time>
      </trkpt>
      <trkpt lat="46.94878" lon="-1.03244">
        <ele>136</ele>
        <time>2012-04-30T12:29:50Z</time>
      </trkpt>
      <trkpt lat="46.94866" lon="-1.03289">
        <ele>135</ele>
        <time>2012-04-30T12:29:50Z</time>
      </trkpt>
      <trkpt lat="46.94864" lon="-1.03301">
        <ele>135</ele>
        <time>2012-04-30T12:29:51Z</time>
      </trkpt>
      <trkpt lat="46.94859" lon="-1.03325">
        <ele>135</ele>
        <time>2012-04-30T12:29:57Z</time>
      </trkpt>
      <trkpt lat="46.94849" lon="-1.03378">
        <ele>135</ele>
        <time>2012-04-30T12:29:57Z</time>
      </trkpt>
      <trkpt lat="46.94846" lon="-1.03392">
        <ele>135</ele>
        <time>2012-04-30T12:29:58Z</time>
      </trkpt>
      <trkpt lat="46.94841" lon="-1.03422">
        <ele>135</ele>
        <time>2012-04-30T12:30:03Z</time>
      </trkpt>
      <trkpt lat="46.9483" lon="-1.03483">
        <ele>134</ele>
        <time>2012-04-30T12:30:04Z</time>
      </trkpt>
      <trkpt lat="46.94827" lon="-1.03499">
        <ele>133</ele>
        <time>2012-04-30T12:30:05Z</time>
      </trkpt>
      <trkpt lat="46.94815" lon="-1.03577">
        <ele>132</ele>
        <time>2012-04-30T12:30:10Z</time>
      </trkpt>
      <trkpt lat="46.94812" lon="-1.03591">
        <ele>131</ele>
        <time>2012-04-30T12:30:11Z</time>
      </trkpt>
      <trkpt lat="46.94809" lon="-1.03606">
        <ele>130</ele>
        <time>2012-04-30T12:30:12Z</time>
      </trkpt>
      <trkpt lat="46.94798" lon="-1.0368">
        <ele>129</ele>
        <time>2012-04-30T12:30:17Z</time>
      </trkpt>
      <trkpt lat="46.94795" lon="-1.03693">
        <ele>128</ele>
        <time>2012-04-30T12:30:18Z</time>
      </trkpt>
      <trkpt lat="46.94791" lon="-1.0372">
        <ele>127</ele>
        <time>2012-04-30T12:30:24Z</time>
      </trkpt>
      <trkpt lat="46.94787" lon="-1.03773">
        <ele>126</ele>
        <time>2012-04-30T12:30:24Z</time>
      </trkpt>
      <trkpt lat="46.94786" lon="-1.03786">
        <ele>125</ele>
        <time>2012-04-30T12:30:25Z</time>
      </trkpt>
      <trkpt lat="46.94787" lon="-1.03811">
        <ele>125</ele>
        <time>2012-04-30T12:30:31Z</time>
      </trkpt>
      <trkpt lat="46.94789" lon="-1.03859">
        <ele>125</ele>
        <time>2012-04-30T12:30:31Z</time>
      </trkpt>
      <trkpt lat="46.94789" lon="-1.0387">
        <ele>125</ele>
        <time>2012-04-30T12:30:32Z</time>
      </trkpt>
      <trkpt lat="46.9479" lon="-1.03893">
        <ele>125</ele>
        <time>2012-04-30T12:30:38Z</time>
      </trkpt>
      <trkpt lat="46.94791" lon="-1.03934">
        <ele>125</ele>
        <time>2012-04-30T12:30:38Z</time>
      </trkpt>
      <trkpt lat="46.94791" lon="-1.03944">
        <ele>125</ele>
        <time>2012-04-30T12:30:39Z</time>
      </trkpt>
      <trkpt lat="46.94791" lon="-1.03963">
        <ele>125</ele>
        <time>2012-04-30T12:30:45Z</time>
      </trkpt>
      <trkpt lat="46.94792" lon="-1.03998">
        <ele>125</ele>
        <time>2012-04-30T12:30:45Z</time>
      </trkpt>
      <trkpt lat="46.94792" lon="-1.04006">
        <ele>125</ele>
        <time>2012-04-30T12:30:46Z</time>
      </trkpt>
      <trkpt lat="46.94792" lon="-1.04024">
        <ele>125</ele>
        <time>2012-04-30T12:30:52Z</time>
      </trkpt>
      <trkpt lat="46.94792" lon="-1.04058">
        <ele>126</ele>
        <time>2012-04-30T12:30:52Z</time>
      </trkpt>
      <trkpt lat="46.94792" lon="-1.04067">
        <ele>127</ele>
        <time>2012-04-30T12:30:53Z</time>
      </trkpt>
      <trkpt lat="46.94791" lon="-1.04084">
        <ele>128</ele>
        <time>2012-04-30T12:30:58Z</time>
      </trkpt>
      <trkpt lat="46.94792" lon="-1.04115">
        <ele>129</ele>
        <time>2012-04-30T12:30:59Z</time>
      </trkpt>
      <trkpt lat="46.94792" lon="-1.04123">
        <ele>130</ele>
        <time>2012-04-30T12:31:00Z</time>
      </trkpt>
      <trkpt lat="46.94792" lon="-1.04139">
        <ele>131</ele>
        <time>2012-04-30T12:31:05Z</time>
      </trkpt>
      <trkpt lat="46.94791" lon="-1.04169">
        <ele>132</ele>
        <time>2012-04-30T12:31:06Z</time>
      </trkpt>
      <trkpt lat="46.94791" lon="-1.04175">
        <ele>133</ele>
        <time>2012-04-30T12:31:07Z</time>
      </trkpt>
      <trkpt lat="46.9479" lon="-1.04189">
        <ele>134</ele>
        <time>2012-04-30T12:31:12Z</time>
      </trkpt>
      <trkpt lat="46.94789" lon="-1.04219">
        <ele>135</ele>
        <time>2012-04-30T12:31:13Z</time>
      </trkpt>
      <trkpt lat="46.94788" lon="-1.04227">
        <ele>136</ele>
        <time>2012-04-30T12:31:14Z</time>
      </trkpt>
      <trkpt lat="46.94787" lon="-1.0424">
        <ele>136</ele>
        <time>2012-04-30T12:31:20Z</time>
      </trkpt>
      <trkpt lat="46.94783" lon="-1.04267">
        <ele>137</ele>
        <time>2012-04-30T12:31:20Z</time>
      </trkpt>
      <trkpt lat="46.94782" lon="-1.04274">
        <ele>138</ele>
        <time>2012-04-30T12:31:21Z</time>
      </trkpt>
      <trkpt lat="46.94779" lon="-1.04287">
        <ele>138</ele>
        <time>2012-04-30T12:31:26Z</time>
      </trkpt>
      <trkpt lat="46.94773" lon="-1.04312">
        <ele>139</ele>
        <time>2012-04-30T12:31:27Z</time>
      </trkpt>
      <trkpt lat="46.94772" lon="-1.04318">
        <ele>140</ele>
        <time>2012-04-30T12:31:28Z</time>
      </trkpt>
      <trkpt lat="46.94769" lon="-1.04331">
        <ele>140</ele>
        <time>2012-04-30T12:31:33Z</time>
      </trkpt>
      <trkpt lat="46.94761" lon="-1.04354">
        <ele>140</ele>
        <time>2012-04-30T12:31:34Z</time>
      </trkpt>
      <trkpt lat="46.94759" lon="-1.0436">
        <ele>140</ele>
        <time>2012-04-30T12:31:35Z</time>
      </trkpt>
      <trkpt lat="46.94754" lon="-1.04371">
        <ele>140</ele>
        <time>2012-04-30T12:31:41Z</time>
      </trkpt>
      <trkpt lat="46.94746" lon="-1.04392">
        <ele>140</ele>
        <time>2012-04-30T12:31:41Z</time>
      </trkpt>
      <trkpt lat="46.94743" lon="-1.04397">
        <ele>140</ele>
        <time>2012-04-30T12:31:42Z</time>
      </trkpt>
      <trkpt lat="46.94739" lon="-1.04408">
        <ele>140</ele>
        <time>2012-04-30T12:31:48Z</time>
      </trkpt>
      <trkpt lat="46.94731" lon="-1.04428">
        <ele>141</ele>
        <time>2012-04-30T12:31:48Z</time>
      </trkpt>
      <trkpt lat="46.94729" lon="-1.04433">
        <ele>142</ele>
        <time>2012-04-30T12:31:49Z</time>
      </trkpt>
      <trkpt lat="46.94724" lon="-1.04443">
        <ele>142</ele>
        <time>2012-04-30T12:31:54Z</time>
      </trkpt>
      <trkpt lat="46.94715" lon="-1.04465">
        <ele>143</ele>
        <time>2012-04-30T12:31:55Z</time>
      </trkpt>
      <trkpt lat="46.94713" lon="-1.0447">
        <ele>143</ele>
        <time>2012-04-30T12:31:56Z</time>
      </trkpt>
      <trkpt lat="46.94709" lon="-1.04481">
        <ele>143</ele>
        <time>2012-04-30T12:32:02Z</time>
      </trkpt>
      <trkpt lat="46.94699" lon="-1.04502">
        <ele>144</ele>
        <time>2012-04-30T12:32:02Z</time>
      </trkpt>
      <trkpt lat="46.94697" lon="-1.04507">
        <ele>144</ele>
        <time>2012-04-30T12:32:03Z</time>
      </trkpt>
      <trkpt lat="46.94693" lon="-1.04518">
        <ele>144</ele>
        <time>2012-04-30T12:32:09Z</time>
      </trkpt>
      <trkpt lat="46.94684" lon="-1.0454">
        <ele>145</ele>
        <time>2012-04-30T12:32:09Z</time>
      </trkpt>
      <trkpt lat="46.94681" lon="-1.04545">
        <ele>145</ele>
        <time>2012-04-30T12:32:10Z</time>
      </trkpt>
      <trkpt lat="46.94677" lon="-1.04556">
        <ele>145</ele>
        <time>2012-04-30T12:32:16Z</time>
      </trkpt>
      <trkpt lat="46.94668" lon="-1.04578">
        <ele>146</ele>
        <time>2012-04-30T12:32:16Z</time>
      </trkpt>
      <trkpt lat="46.94666" lon="-1.04583">
        <ele>146</ele>
        <time>2012-04-30T12:32:17Z</time>
      </trkpt>
      <trkpt lat="46.94661" lon="-1.04594">
        <ele>146</ele>
        <time>2012-04-30T12:32:23Z</time>
      </trkpt>
      <trkpt lat="46.94651" lon="-1.04616">
        <ele>147</ele>
        <time>2012-04-30T12:32:23Z</time>
      </trkpt>
      <trkpt lat="46.94649" lon="-1.04622">
        <ele>148</ele>
        <time>2012-04-30T12:32:24Z</time>
      </trkpt>
      <trkpt lat="46.94645" lon="-1.04633">
        <ele>148</ele>
        <time>2012-04-30T12:32:30Z</time>
      </trkpt>
      <trkpt lat="46.94635" lon="-1.04654">
        <ele>149</ele>
        <time>2012-04-30T12:32:30Z</time>
      </trkpt>
      <trkpt lat="46.94633" lon="-1.0466">
        <ele>150</ele>
        <time>2012-04-30T12:32:31Z</time>
      </trkpt>
      <trkpt lat="46.94628" lon="-1.04672">
        <ele>151</ele>
        <time>2012-04-30T12:32:37Z</time>
      </trkpt>
      <trkpt lat="46.94618" lon="-1.04695">
        <ele>152</ele>
        <time>2012-04-30T12:32:37Z</time>
      </trkpt>
      <trkpt lat="46.94616" lon="-1.04701">
        <ele>153</ele>
        <time>2012-04-30T12:32:38Z</time>
      </trkpt>
      <trkpt lat="46.9461" lon="-1.04714">
        <ele>154</ele>
        <time>2012-04-30T12:32:44Z</time>
      </trkpt>
      <trkpt lat="46.94599" lon="-1.0474">
        <ele>155</ele>
        <time>2012-04-30T12:32:44Z</time>
      </trkpt>
      <trkpt lat="46.94596" lon="-1.04746">
        <ele>155</ele>
        <time>2012-04-30T12:32:45Z</time>
      </trkpt>
      <trkpt lat="46.9459" lon="-1.0476">
        <ele>156</ele>
        <time>2012-04-30T12:32:51Z</time>
      </trkpt>
      <trkpt lat="46.94579" lon="-1.04788">
        <ele>156</ele>
        <time>2012-04-30T12:32:51Z</time>
      </trkpt>
      <trkpt lat="46.94576" lon="-1.04795">
        <ele>157</ele>
        <time>2012-04-30T12:32:52Z</time>
      </trkpt>
      <trkpt lat="46.94569" lon="-1.04809">
        <ele>157</ele>
        <time>2012-04-30T12:32:58Z</time>
      </trkpt>
      <trkpt lat="46.94557" lon="-1.04838">
        <ele>158</ele>
        <time>2012-04-30T12:32:58Z</time>
      </trkpt>
      <trkpt lat="46.94554" lon="-1.04845">
        <ele>158</ele>
        <time>2012-04-30T12:32:59Z</time>
      </trkpt>
      <trkpt lat="46.94548" lon="-1.0486">
        <ele>159</ele>
        <time>2012-04-30T12:33:05Z</time>
      </trkpt>
      <trkpt lat="46.94535" lon="-1.0489">
        <ele>159</ele>
        <time>2012-04-30T12:33:05Z</time>
      </trkpt>
      <trkpt lat="46.94532" lon="-1.04897">
        <ele>159</ele>
        <time>2012-04-30T12:33:06Z</time>
      </trkpt>
      <trkpt lat="46.94525" lon="-1.04912">
        <ele>160</ele>
        <time>2012-04-30T12:33:12Z</time>
      </trkpt>
      <trkpt lat="46.94512" lon="-1.04942">
        <ele>160</ele>
        <time>2012-04-30T12:33:12Z</time>
      </trkpt>
      <trkpt lat="46.94509" lon="-1.0495">
        <ele>160</ele>
        <time>2012-04-30T12:33:13Z</time>
      </trkpt>
      <trkpt lat="46.94503" lon="-1.04966">
        <ele>160</ele>
        <time>2012-04-30T12:33:19Z</time>
      </trkpt>
      <trkpt lat="46.94492" lon="-1.04999">
        <ele>161</ele>
        <time>2012-04-30T12:33:19Z</time>
      </trkpt>
      <trkpt lat="46.94489" lon="-1.05007">
        <ele>161</ele>
        <time>2012-04-30T12:33:20Z</time>
      </trkpt>
      <trkpt lat="46.94485" lon="-1.05024">
        <ele>161</ele>
        <time>2012-04-30T12:33:26Z</time>
      </trkpt>
      <trkpt lat="46.94478" lon="-1.05059">
        <ele>161</ele>
        <time>2012-04-30T12:33:26Z</time>
      </trkpt>
      <trkpt lat="46.94476" lon="-1.05068">
        <ele>161</ele>
        <time>2012-04-30T12:33:27Z</time>
      </trkpt>
      <trkpt lat="46.94473" lon="-1.05086">
        <ele>161</ele>
        <time>2012-04-30T12:33:33Z</time>
      </trkpt>
      <trkpt lat="46.94466" lon="-1.05121">
        <ele>161</ele>
        <time>2012-04-30T12:33:33Z</time>
      </trkpt>
      <trkpt lat="46.94464" lon="-1.0513">
        <ele>161</ele>
        <time>2012-04-30T12:33:34Z</time>
      </trkpt>
      <trkpt lat="46.94461" lon="-1.05147">
        <ele>161</ele>
        <time>2012-04-30T12:33:40Z</time>
      </trkpt>
      <trkpt lat="46.94454" lon="-1.05178">
        <ele>161</ele>
        <time>2012-04-30T12:33:40Z</time>
      </trkpt>
      <trkpt lat="46.94452" lon="-1.05186">
        <ele>161</ele>
        <time>2012-04-30T12:33:41Z</time>
      </trkpt>
      <trkpt lat="46.94448" lon="-1.05201">
        <ele>161</ele>
        <time>2012-04-30T12:33:47Z</time>
      </trkpt>
      <trkpt lat="46.94439" lon="-1.05232">
        <ele>161</ele>
        <time>2012-04-30T12:33:47Z</time>
      </trkpt>
      <trkpt lat="46.94437" lon="-1.0524">
        <ele>161</ele>
        <time>2012-04-30T12:33:48Z</time>
      </trkpt>
      <trkpt lat="46.94432" lon="-1.05255">
        <ele>161</ele>
        <time>2012-04-30T12:33:54Z</time>
      </trkpt>
      <trkpt lat="46.94424" lon="-1.05287">
        <ele>161</ele>
        <time>2012-04-30T12:33:54Z</time>
      </trkpt>
      <trkpt lat="46.94422" lon="-1.05294">
        <ele>161</ele>
        <time>2012-04-30T12:33:55Z</time>
      </trkpt>
      <trkpt lat="46.94418" lon="-1.0531">
        <ele>161</ele>
        <time>2012-04-30T12:34:01Z</time>
      </trkpt>
      <trkpt lat="46.94409" lon="-1.05343">
        <ele>161</ele>
        <time>2012-04-30T12:34:01Z</time>
      </trkpt>
      <trkpt lat="46.94403" lon="-1.05359">
        <ele>161</ele>
        <time>2012-04-30T12:34:07Z</time>
      </trkpt>
      <trkpt lat="46.94395" lon="-1.05392">
        <ele>161</ele>
        <time>2012-04-30T12:34:07Z</time>
      </trkpt>
      <trkpt lat="46.94392" lon="-1.05401">
        <ele>161</ele>
        <time>2012-04-30T12:34:08Z</time>
      </trkpt>
      <trkpt lat="46.94388" lon="-1.05418">
        <ele>161</ele>
        <time>2012-04-30T12:34:14Z</time>
      </trkpt>
      <trkpt lat="46.94379" lon="-1.05458">
        <ele>160</ele>
        <time>2012-04-30T12:34:14Z</time>
      </trkpt>
      <trkpt lat="46.94376" lon="-1.05468">
        <ele>159</ele>
        <time>2012-04-30T12:34:15Z</time>
      </trkpt>
      <trkpt lat="46.94371" lon="-1.05491">
        <ele>158</ele>
        <time>2012-04-30T12:34:21Z</time>
      </trkpt>
      <trkpt lat="46.94359" lon="-1.05538">
        <ele>157</ele>
        <time>2012-04-30T12:34:21Z</time>
      </trkpt>
      <trkpt lat="46.94356" lon="-1.0555">
        <ele>156</ele>
        <time>2012-04-30T12:34:22Z</time>
      </trkpt>
      <trkpt lat="46.9435" lon="-1.05575">
        <ele>155</ele>
        <time>2012-04-30T12:34:28Z</time>
      </trkpt>
      <trkpt lat="46.94338" lon="-1.05628">
        <ele>154</ele>
        <time>2012-04-30T12:34:28Z</time>
      </trkpt>
      <trkpt lat="46.94336" lon="-1.05642">
        <ele>153</ele>
        <time>2012-04-30T12:34:29Z</time>
      </trkpt>
      <trkpt lat="46.94333" lon="-1.05671">
        <ele>152</ele>
        <time>2012-04-30T12:34:35Z</time>
      </trkpt>
      <trkpt lat="46.94332" lon="-1.05731">
        <ele>151</ele>
        <time>2012-04-30T12:34:35Z</time>
      </trkpt>
      <trkpt lat="46.94333" lon="-1.05746">
        <ele>150</ele>
        <time>2012-04-30T12:34:36Z</time>
      </trkpt>
      <trkpt lat="46.94334" lon="-1.05761">
        <ele>148</ele>
        <time>2012-04-30T12:34:38Z</time>
      </trkpt>
      <trkpt lat="46.94336" lon="-1.05791">
        <ele>146</ele>
        <time>2012-04-30T12:34:43Z</time>
      </trkpt>
      <trkpt lat="46.94345" lon="-1.05843">
        <ele>145</ele>
        <time>2012-04-30T12:34:43Z</time>
      </trkpt>
      <trkpt lat="46.94347" lon="-1.05855">
        <ele>144</ele>
        <time>2012-04-30T12:34:44Z</time>
      </trkpt>
      <trkpt lat="46.94352" lon="-1.05878">
        <ele>143</ele>
        <time>2012-04-30T12:34:50Z</time>
      </trkpt>
      <trkpt lat="46.94359" lon="-1.05923">
        <ele>142</ele>
        <time>2012-04-30T12:34:50Z</time>
      </trkpt>
      <trkpt lat="46.94361" lon="-1.05933">
        <ele>141</ele>
        <time>2012-04-30T12:34:51Z</time>
      </trkpt>
      <trkpt lat="46.94364" lon="-1.05952">
        <ele>140</ele>
        <time>2012-04-30T12:34:57Z</time>
      </trkpt>
      <trkpt lat="46.94369" lon="-1.05992">
        <ele>139</ele>
        <time>2012-04-30T12:34:57Z</time>
      </trkpt>
      <trkpt lat="46.9437" lon="-1.06002">
        <ele>138</ele>
        <time>2012-04-30T12:34:58Z</time>
      </trkpt>
      <trkpt lat="46.94372" lon="-1.06021">
        <ele>138</ele>
        <time>2012-04-30T12:35:04Z</time>
      </trkpt>
      <trkpt lat="46.9438" lon="-1.0607">
        <ele>138</ele>
        <time>2012-04-30T12:35:05Z</time>
      </trkpt>
      <trkpt lat="46.94381" lon="-1.06079">
        <ele>138</ele>
        <time>2012-04-30T12:35:06Z</time>
      </trkpt>
      <trkpt lat="46.94383" lon="-1.061">
        <ele>138</ele>
        <time>2012-04-30T12:35:12Z</time>
      </trkpt>
      <trkpt lat="46.94378" lon="-1.06143">
        <ele>138</ele>
        <time>2012-04-30T12:35:12Z</time>
      </trkpt>
      <trkpt lat="46.94375" lon="-1.06153">
        <ele>138</ele>
        <time>2012-04-30T12:35:14Z</time>
      </trkpt>
      <trkpt lat="46.94371" lon="-1.06163">
        <ele>138</ele>
        <time>2012-04-30T12:35:14Z</time>
      </trkpt>
      <trkpt lat="46.94364" lon="-1.06183">
        <ele>138</ele>
        <time>2012-04-30T12:35:20Z</time>
      </trkpt>
      <trkpt lat="46.94348" lon="-1.06223">
        <ele>137</ele>
        <time>2012-04-30T12:35:20Z</time>
      </trkpt>
      <trkpt lat="46.94344" lon="-1.06233">
        <ele>136</ele>
        <time>2012-04-30T12:35:21Z</time>
      </trkpt>
      <trkpt lat="46.94336" lon="-1.06255">
        <ele>135</ele>
        <time>2012-04-30T12:35:27Z</time>
      </trkpt>
      <trkpt lat="46.94319" lon="-1.06296">
        <ele>134</ele>
        <time>2012-04-30T12:35:27Z</time>
      </trkpt>
      <trkpt lat="46.94315" lon="-1.06307">
        <ele>133</ele>
        <time>2012-04-30T12:35:28Z</time>
      </trkpt>
      <trkpt lat="46.94293" lon="-1.06364">
        <ele>133</ele>
        <time>2012-04-30T12:35:34Z</time>
      </trkpt>
      <trkpt lat="46.94289" lon="-1.06372">
        <ele>133</ele>
        <time>2012-04-30T12:35:35Z</time>
      </trkpt>
      <trkpt lat="46.94286" lon="-1.0638">
        <ele>133</ele>
        <time>2012-04-30T12:35:36Z</time>
      </trkpt>
      <trkpt lat="46.94279" lon="-1.06394">
        <ele>133</ele>
        <time>2012-04-30T12:35:42Z</time>
      </trkpt>
      <trkpt lat="46.94265" lon="-1.06417">
        <ele>133</ele>
        <time>2012-04-30T12:35:42Z</time>
      </trkpt>
      <trkpt lat="46.94262" lon="-1.06422">
        <ele>134</ele>
        <time>2012-04-30T12:35:43Z</time>
      </trkpt>
      <trkpt lat="46.94258" lon="-1.0643">
        <ele>135</ele>
        <time>2012-04-30T12:35:49Z</time>
      </trkpt>
      <trkpt lat="46.94255" lon="-1.06438">
        <ele>136</ele>
        <time>2012-04-30T12:35:49Z</time>
      </trkpt>
      <trkpt lat="46.94255" lon="-1.0644">
        <ele>137</ele>
        <time>2012-04-30T12:35:50Z</time>
      </trkpt>
      <trkpt lat="46.94256" lon="-1.06443">
        <ele>138</ele>
        <time>2012-04-30T12:35:52Z</time>
      </trkpt>
      <trkpt lat="46.94257" lon="-1.06446">
        <ele>138</ele>
        <time>2012-04-30T12:35:53Z</time>
      </trkpt>
      <trkpt lat="46.94258" lon="-1.06455">
        <ele>139</ele>
        <time>2012-04-30T12:35:59Z</time>
      </trkpt>
      <trkpt lat="46.94266" lon="-1.06486">
        <ele>139</ele>
        <time>2012-04-30T12:35:59Z</time>
      </trkpt>
      <trkpt lat="46.94268" lon="-1.06501">
        <ele>139</ele>
        <time>2012-04-30T12:36:05Z</time>
      </trkpt>
      <trkpt lat="46.94258" lon="-1.0655">
        <ele>140</ele>
        <time>2012-04-30T12:36:06Z</time>
      </trkpt>
      <trkpt lat="46.94255" lon="-1.0656">
        <ele>140</ele>
        <time>2012-04-30T12:36:08Z</time>
      </trkpt>
      <trkpt lat="46.94252" lon="-1.06569">
        <ele>140</ele>
        <time>2012-04-30T12:36:08Z</time>
      </trkpt>
      <trkpt lat="46.94246" lon="-1.06587">
        <ele>140</ele>
        <time>2012-04-30T12:36:14Z</time>
      </trkpt>
      <trkpt lat="46.94231" lon="-1.0662">
        <ele>140</ele>
        <time>2012-04-30T12:36:14Z</time>
      </trkpt>
      <trkpt lat="46.94227" lon="-1.06629">
        <ele>140</ele>
        <time>2012-04-30T12:36:15Z</time>
      </trkpt>
      <trkpt lat="46.94218" lon="-1.06643">
        <ele>140</ele>
        <time>2012-04-30T12:36:21Z</time>
      </trkpt>
      <trkpt lat="46.94194" lon="-1.06667">
        <ele>140</ele>
        <time>2012-04-30T12:36:21Z</time>
      </trkpt>
      <trkpt lat="46.94189" lon="-1.06673">
        <ele>139</ele>
        <time>2012-04-30T12:36:23Z</time>
      </trkpt>
      <trkpt lat="46.94177" lon="-1.06684">
        <ele>139</ele>
        <time>2012-04-30T12:36:28Z</time>
      </trkpt>
      <trkpt lat="46.94148" lon="-1.06711">
        <ele>138</ele>
        <time>2012-04-30T12:36:29Z</time>
      </trkpt>
      <trkpt lat="46.94142" lon="-1.06716">
        <ele>138</ele>
        <time>2012-04-30T12:36:30Z</time>
      </trkpt>
      <trkpt lat="46.9413" lon="-1.06726">
        <ele>138</ele>
        <time>2012-04-30T12:36:36Z</time>
      </trkpt>
      <trkpt lat="46.94105" lon="-1.06749">
        <ele>137</ele>
        <time>2012-04-30T12:36:36Z</time>
      </trkpt>
      <trkpt lat="46.94099" lon="-1.06755">
        <ele>137</ele>
        <time>2012-04-30T12:36:37Z</time>
      </trkpt>
      <trkpt lat="46.94086" lon="-1.06769">
        <ele>137</ele>
        <time>2012-04-30T12:36:43Z</time>
      </trkpt>
      <trkpt lat="46.9406" lon="-1.06795">
        <ele>136</ele>
        <time>2012-04-30T12:36:43Z</time>
      </trkpt>
      <trkpt lat="46.94054" lon="-1.06801">
        <ele>135</ele>
        <time>2012-04-30T12:36:44Z</time>
      </trkpt>
      <trkpt lat="46.94013" lon="-1.06837">
        <ele>135</ele>
        <time>2012-04-30T12:36:50Z</time>
      </trkpt>
      <trkpt lat="46.94006" lon="-1.06842">
        <ele>135</ele>
        <time>2012-04-30T12:36:51Z</time>
      </trkpt>
      <trkpt lat="46.93993" lon="-1.06854">
        <ele>134</ele>
        <time>2012-04-30T12:36:57Z</time>
      </trkpt>
      <trkpt lat="46.93967" lon="-1.06899">
        <ele>134</ele>
        <time>2012-04-30T12:36:58Z</time>
      </trkpt>
      <trkpt lat="46.93964" lon="-1.06911">
        <ele>133</ele>
        <time>2012-04-30T12:36:59Z</time>
      </trkpt>
      <trkpt lat="46.93961" lon="-1.06922">
        <ele>133</ele>
        <time>2012-04-30T12:37:01Z</time>
      </trkpt>
      <trkpt lat="46.93958" lon="-1.06934">
        <ele>132</ele>
        <time>2012-04-30T12:37:01Z</time>
      </trkpt>
      <trkpt lat="46.93952" lon="-1.06957">
        <ele>131</ele>
        <time>2012-04-30T12:37:07Z</time>
      </trkpt>
      <trkpt lat="46.9394" lon="-1.07003">
        <ele>130</ele>
        <time>2012-04-30T12:37:07Z</time>
      </trkpt>
      <trkpt lat="46.93937" lon="-1.07015">
        <ele>129</ele>
        <time>2012-04-30T12:37:08Z</time>
      </trkpt>
      <trkpt lat="46.93931" lon="-1.07037">
        <ele>128</ele>
        <time>2012-04-30T12:37:14Z</time>
      </trkpt>
      <trkpt lat="46.93919" lon="-1.07079">
        <ele>127</ele>
        <time>2012-04-30T12:37:14Z</time>
      </trkpt>
      <trkpt lat="46.93916" lon="-1.0709">
        <ele>126</ele>
        <time>2012-04-30T12:37:15Z</time>
      </trkpt>
      <trkpt lat="46.9391" lon="-1.07112">
        <ele>125</ele>
        <time>2012-04-30T12:37:21Z</time>
      </trkpt>
      <trkpt lat="46.93896" lon="-1.07166">
        <ele>124</ele>
        <time>2012-04-30T12:37:22Z</time>
      </trkpt>
      <trkpt lat="46.93893" lon="-1.07177">
        <ele>123</ele>
        <time>2012-04-30T12:37:23Z</time>
      </trkpt>
      <trkpt lat="46.93887" lon="-1.07199">
        <ele>122</ele>
        <time>2012-04-30T12:37:29Z</time>
      </trkpt>
      <trkpt lat="46.93874" lon="-1.07244">
        <ele>121</ele>
        <time>2012-04-30T12:37:29Z</time>
      </trkpt>
      <trkpt lat="46.93871" lon="-1.07256">
        <ele>120</ele>
        <time>2012-04-30T12:37:30Z</time>
      </trkpt>
      <trkpt lat="46.93864" lon="-1.07279">
        <ele>119</ele>
        <time>2012-04-30T12:37:36Z</time>
      </trkpt>
      <trkpt lat="46.93851" lon="-1.07325">
        <ele>118</ele>
        <time>2012-04-30T12:37:36Z</time>
      </trkpt>
      <trkpt lat="46.93848" lon="-1.07337">
        <ele>117</ele>
        <time>2012-04-30T12:37:37Z</time>
      </trkpt>
      <trkpt lat="46.93841" lon="-1.07359">
        <ele>116</ele>
        <time>2012-04-30T12:37:43Z</time>
      </trkpt>
      <trkpt lat="46.93824" lon="-1.07413">
        <ele>115</ele>
        <time>2012-04-30T12:37:44Z</time>
      </trkpt>
      <trkpt lat="46.93821" lon="-1.07424">
        <ele>114</ele>
        <time>2012-04-30T12:37:45Z</time>
      </trkpt>
      <trkpt lat="46.93813" lon="-1.07446">
        <ele>113</ele>
        <time>2012-04-30T12:37:51Z</time>
      </trkpt>
      <trkpt lat="46.93801" lon="-1.07488">
        <ele>112</ele>
        <time>2012-04-30T12:37:51Z</time>
      </trkpt>
      <trkpt lat="46.93798" lon="-1.07498">
        <ele>112</ele>
        <time>2012-04-30T12:37:52Z</time>
      </trkpt>
      <trkpt lat="46.9378" lon="-1.07558">
        <ele>112</ele>
        <time>2012-04-30T12:37:58Z</time>
      </trkpt>
      <trkpt lat="46.93777" lon="-1.07568">
        <ele>112</ele>
        <time>2012-04-30T12:37:59Z</time>
      </trkpt>
      <trkpt lat="46.93771" lon="-1.07587">
        <ele>112</ele>
        <time>2012-04-30T12:38:06Z</time>
      </trkpt>
      <trkpt lat="46.93757" lon="-1.07635">
        <ele>112</ele>
        <time>2012-04-30T12:38:06Z</time>
      </trkpt>
      <trkpt lat="46.93754" lon="-1.07643">
        <ele>112</ele>
        <time>2012-04-30T12:38:07Z</time>
      </trkpt>
      <trkpt lat="46.93747" lon="-1.0766">
        <ele>112</ele>
        <time>2012-04-30T12:38:13Z</time>
      </trkpt>
      <trkpt lat="46.93741" lon="-1.07697">
        <ele>112</ele>
        <time>2012-04-30T12:38:13Z</time>
      </trkpt>
      <trkpt lat="46.93739" lon="-1.07705">
        <ele>112</ele>
        <time>2012-04-30T12:38:15Z</time>
      </trkpt>
      <trkpt lat="46.93735" lon="-1.07712">
        <ele>112</ele>
        <time>2012-04-30T12:38:15Z</time>
      </trkpt>
      <trkpt lat="46.93731" lon="-1.07718">
        <ele>112</ele>
        <time>2012-04-30T12:38:17Z</time>
      </trkpt>
      <trkpt lat="46.93719" lon="-1.07724">
        <ele>112</ele>
        <time>2012-04-30T12:38:23Z</time>
      </trkpt>
      <trkpt lat="46.93689" lon="-1.07712">
        <ele>112</ele>
        <time>2012-04-30T12:38:24Z</time>
      </trkpt>
      <trkpt lat="46.93684" lon="-1.07712">
        <ele>112</ele>
        <time>2012-04-30T12:38:24Z</time>
      </trkpt>
      <trkpt lat="46.93678" lon="-1.07714">
        <ele>112</ele>
        <time>2012-04-30T12:38:25Z</time>
      </trkpt>
      <trkpt lat="46.93639" lon="-1.07753">
        <ele>112</ele>
        <time>2012-04-30T12:38:32Z</time>
      </trkpt>
      <trkpt lat="46.93634" lon="-1.0776">
        <ele>112</ele>
        <time>2012-04-30T12:38:34Z</time>
      </trkpt>
      <trkpt lat="46.93628" lon="-1.07767">
        <ele>112</ele>
        <time>2012-04-30T12:38:35Z</time>
      </trkpt>
      <trkpt lat="46.93616" lon="-1.07782">
        <ele>112</ele>
        <time>2012-04-30T12:38:40Z</time>
      </trkpt>
      <trkpt lat="46.93592" lon="-1.07812">
        <ele>112</ele>
        <time>2012-04-30T12:38:40Z</time>
      </trkpt>
      <trkpt lat="46.93586" lon="-1.0782">
        <ele>112</ele>
        <time>2012-04-30T12:38:41Z</time>
      </trkpt>
      <trkpt lat="46.93575" lon="-1.07835">
        <ele>112</ele>
        <time>2012-04-30T12:38:48Z</time>
      </trkpt>
      <trkpt lat="46.93546" lon="-1.07872">
        <ele>112</ele>
        <time>2012-04-30T12:38:48Z</time>
      </trkpt>
      <trkpt lat="46.9354" lon="-1.0788">
        <ele>112</ele>
        <time>2012-04-30T12:38:49Z</time>
      </trkpt>
      <trkpt lat="46.93528" lon="-1.07895">
        <ele>112</ele>
        <time>2012-04-30T12:38:55Z</time>
      </trkpt>
      <trkpt lat="46.93505" lon="-1.07923">
        <ele>112</ele>
        <time>2012-04-30T12:38:55Z</time>
      </trkpt>
      <trkpt lat="46.935" lon="-1.07931">
        <ele>112</ele>
        <time>2012-04-30T12:38:56Z</time>
      </trkpt>
      <trkpt lat="46.93488" lon="-1.07946">
        <ele>112</ele>
        <time>2012-04-30T12:39:02Z</time>
      </trkpt>
      <trkpt lat="46.9346" lon="-1.07982">
        <ele>112</ele>
        <time>2012-04-30T12:39:03Z</time>
      </trkpt>
      <trkpt lat="46.93454" lon="-1.07989">
        <ele>112</ele>
        <time>2012-04-30T12:39:04Z</time>
      </trkpt>
      <trkpt lat="46.93442" lon="-1.08002">
        <ele>112</ele>
        <time>2012-04-30T12:39:10Z</time>
      </trkpt>
      <trkpt lat="46.93415" lon="-1.08021">
        <ele>112</ele>
        <time>2012-04-30T12:39:10Z</time>
      </trkpt>
      <trkpt lat="46.93408" lon="-1.08024">
        <ele>112</ele>
        <time>2012-04-30T12:39:11Z</time>
      </trkpt>
      <trkpt lat="46.93401" lon="-1.08027">
        <ele>112</ele>
        <time>2012-04-30T12:39:12Z</time>
      </trkpt>
      <trkpt lat="46.93386" lon="-1.08031">
        <ele>112</ele>
        <time>2012-04-30T12:39:18Z</time>
      </trkpt>
      <trkpt lat="46.93356" lon="-1.08038">
        <ele>112</ele>
        <time>2012-04-30T12:39:18Z</time>
      </trkpt>
      <trkpt lat="46.93348" lon="-1.0804">
        <ele>112</ele>
        <time>2012-04-30T12:39:19Z</time>
      </trkpt>
      <trkpt lat="46.93333" lon="-1.08045">
        <ele>112</ele>
        <time>2012-04-30T12:39:25Z</time>
      </trkpt>
      <trkpt lat="46.93295" lon="-1.08055">
        <ele>112</ele>
        <time>2012-04-30T12:39:26Z</time>
      </trkpt>
      <trkpt lat="46.93287" lon="-1.08057">
        <ele>112</ele>
        <time>2012-04-30T12:39:27Z</time>
      </trkpt>
      <trkpt lat="46.93272" lon="-1.08062">
        <ele>112</ele>
        <time>2012-04-30T12:39:33Z</time>
      </trkpt>
      <trkpt lat="46.9324" lon="-1.0807">
        <ele>112</ele>
        <time>2012-04-30T12:39:33Z</time>
      </trkpt>
      <trkpt lat="46.93233" lon="-1.08072">
        <ele>112</ele>
        <time>2012-04-30T12:39:34Z</time>
      </trkpt>
      <trkpt lat="46.93217" lon="-1.08077">
        <ele>112</ele>
        <time>2012-04-30T12:39:40Z</time>
      </trkpt>
      <trkpt lat="46.93179" lon="-1.08088">
        <ele>112</ele>
        <time>2012-04-30T12:39:41Z</time>
      </trkpt>
      <trkpt lat="46.93172" lon="-1.0809">
        <ele>112</ele>
        <time>2012-04-30T12:39:42Z</time>
      </trkpt>
      <trkpt lat="46.93157" lon="-1.08098">
        <ele>112</ele>
        <time>2012-04-30T12:39:48Z</time>
      </trkpt>
      <trkpt lat="46.93129" lon="-1.08121">
        <ele>112</ele>
        <time>2012-04-30T12:39:48Z</time>
      </trkpt>
      <trkpt lat="46.93122" lon="-1.08128">
        <ele>112</ele>
        <time>2012-04-30T12:39:49Z</time>
      </trkpt>
      <trkpt lat="46.93116" lon="-1.08136">
        <ele>112</ele>
        <time>2012-04-30T12:39:51Z</time>
      </trkpt>
      <trkpt lat="46.93102" lon="-1.08151">
        <ele>112</ele>
        <time>2012-04-30T12:39:56Z</time>
      </trkpt>
      <trkpt lat="46.93069" lon="-1.08189">
        <ele>112</ele>
        <time>2012-04-30T12:39:57Z</time>
      </trkpt>
      <trkpt lat="46.93063" lon="-1.08197">
        <ele>112</ele>
        <time>2012-04-30T12:39:58Z</time>
      </trkpt>
      <trkpt lat="46.93049" lon="-1.08212">
        <ele>112</ele>
        <time>2012-04-30T12:40:04Z</time>
      </trkpt>
      <trkpt lat="46.93021" lon="-1.08244">
        <ele>112</ele>
        <time>2012-04-30T12:40:04Z</time>
      </trkpt>
      <trkpt lat="46.93015" lon="-1.08252">
        <ele>112</ele>
        <time>2012-04-30T12:40:05Z</time>
      </trkpt>
      <trkpt lat="46.93001" lon="-1.08267">
        <ele>112</ele>
        <time>2012-04-30T12:40:12Z</time>
      </trkpt>
      <trkpt lat="46.92966" lon="-1.08307">
        <ele>111</ele>
        <time>2012-04-30T12:40:12Z</time>
      </trkpt>
      <trkpt lat="46.9296" lon="-1.08315">
        <ele>111</ele>
        <time>2012-04-30T12:40:13Z</time>
      </trkpt>
      <trkpt lat="46.92946" lon="-1.0833">
        <ele>110</ele>
        <time>2012-04-30T12:40:19Z</time>
      </trkpt>
      <trkpt lat="46.92921" lon="-1.08365">
        <ele>110</ele>
        <time>2012-04-30T12:40:19Z</time>
      </trkpt>
      <trkpt lat="46.92916" lon="-1.08375">
        <ele>109</ele>
        <time>2012-04-30T12:40:20Z</time>
      </trkpt>
      <trkpt lat="46.92911" lon="-1.08385">
        <ele>109</ele>
        <time>2012-04-30T12:40:22Z</time>
      </trkpt>
      <trkpt lat="46.92902" lon="-1.08407">
        <ele>109</ele>
        <time>2012-04-30T12:40:27Z</time>
      </trkpt>
      <trkpt lat="46.92885" lon="-1.08462">
        <ele>108</ele>
        <time>2012-04-30T12:40:28Z</time>
      </trkpt>
      <trkpt lat="46.92882" lon="-1.08473">
        <ele>108</ele>
        <time>2012-04-30T12:40:29Z</time>
      </trkpt>
      <trkpt lat="46.92875" lon="-1.08494">
        <ele>108</ele>
        <time>2012-04-30T12:40:35Z</time>
      </trkpt>
      <trkpt lat="46.92862" lon="-1.08536">
        <ele>107</ele>
        <time>2012-04-30T12:40:35Z</time>
      </trkpt>
      <trkpt lat="46.92859" lon="-1.08546">
        <ele>107</ele>
        <time>2012-04-30T12:40:36Z</time>
      </trkpt>
      <trkpt lat="46.92852" lon="-1.08567">
        <ele>107</ele>
        <time>2012-04-30T12:40:43Z</time>
      </trkpt>
      <trkpt lat="46.92821" lon="-1.08601">
        <ele>107</ele>
        <time>2012-04-30T12:40:43Z</time>
      </trkpt>
      <trkpt lat="46.92814" lon="-1.08604">
        <ele>106</ele>
        <time>2012-04-30T12:40:44Z</time>
      </trkpt>
      <trkpt lat="46.92806" lon="-1.08607">
        <ele>106</ele>
        <time>2012-04-30T12:40:45Z</time>
      </trkpt>
      <trkpt lat="46.9279" lon="-1.0861">
        <ele>106</ele>
        <time>2012-04-30T12:40:51Z</time>
      </trkpt>
      <trkpt lat="46.92759" lon="-1.08615">
        <ele>106</ele>
        <time>2012-04-30T12:40:51Z</time>
      </trkpt>
      <trkpt lat="46.92751" lon="-1.08617">
        <ele>105</ele>
        <time>2012-04-30T12:40:52Z</time>
      </trkpt>
      <trkpt lat="46.92734" lon="-1.08621">
        <ele>105</ele>
        <time>2012-04-30T12:40:59Z</time>
      </trkpt>
      <trkpt lat="46.92696" lon="-1.08636">
        <ele>104</ele>
        <time>2012-04-30T12:40:59Z</time>
      </trkpt>
      <trkpt lat="46.92689" lon="-1.08641">
        <ele>104</ele>
        <time>2012-04-30T12:41:00Z</time>
      </trkpt>
      <trkpt lat="46.92683" lon="-1.08647">
        <ele>104</ele>
        <time>2012-04-30T12:41:02Z</time>
      </trkpt>
      <trkpt lat="46.92671" lon="-1.0866">
        <ele>104</ele>
        <time>2012-04-30T12:41:08Z</time>
      </trkpt>
      <trkpt lat="46.92642" lon="-1.08694">
        <ele>104</ele>
        <time>2012-04-30T12:41:08Z</time>
      </trkpt>
      <trkpt lat="46.92636" lon="-1.08701">
        <ele>104</ele>
        <time>2012-04-30T12:41:09Z</time>
      </trkpt>
      <trkpt lat="46.92602" lon="-1.08732">
        <ele>104</ele>
        <time>2012-04-30T12:41:15Z</time>
      </trkpt>
      <trkpt lat="46.92596" lon="-1.08737">
        <ele>104</ele>
        <time>2012-04-30T12:41:17Z</time>
      </trkpt>
      <trkpt lat="46.92589" lon="-1.08739">
        <ele>104</ele>
        <time>2012-04-30T12:41:17Z</time>
      </trkpt>
      <trkpt lat="46.9255" lon="-1.08746">
        <ele>104</ele>
        <time>2012-04-30T12:41:23Z</time>
      </trkpt>
      <trkpt lat="46.92543" lon="-1.08746">
        <ele>104</ele>
        <time>2012-04-30T12:41:25Z</time>
      </trkpt>
      <trkpt lat="46.92536" lon="-1.08747">
        <ele>104</ele>
        <time>2012-04-30T12:41:25Z</time>
      </trkpt>
      <trkpt lat="46.92522" lon="-1.08747">
        <ele>104</ele>
        <time>2012-04-30T12:41:32Z</time>
      </trkpt>
      <trkpt lat="46.92487" lon="-1.08748">
        <ele>104</ele>
        <time>2012-04-30T12:41:32Z</time>
      </trkpt>
      <trkpt lat="46.9248" lon="-1.08748">
        <ele>104</ele>
        <time>2012-04-30T12:41:33Z</time>
      </trkpt>
      <trkpt lat="46.92438" lon="-1.0875">
        <ele>104</ele>
        <time>2012-04-30T12:41:39Z</time>
      </trkpt>
      <trkpt lat="46.92431" lon="-1.0875">
        <ele>104</ele>
        <time>2012-04-30T12:41:40Z</time>
      </trkpt>
      <trkpt lat="46.92424" lon="-1.0875">
        <ele>104</ele>
        <time>2012-04-30T12:41:41Z</time>
      </trkpt>
      <trkpt lat="46.92379" lon="-1.0875">
        <ele>104</ele>
        <time>2012-04-30T12:41:47Z</time>
      </trkpt>
      <trkpt lat="46.92372" lon="-1.0875">
        <ele>104</ele>
        <time>2012-04-30T12:41:48Z</time>
      </trkpt>
      <trkpt lat="46.92356" lon="-1.0875">
        <ele>104</ele>
        <time>2012-04-30T12:41:55Z</time>
      </trkpt>
      <trkpt lat="46.92318" lon="-1.08752">
        <ele>104</ele>
        <time>2012-04-30T12:41:55Z</time>
      </trkpt>
      <trkpt lat="46.9231" lon="-1.08753">
        <ele>104</ele>
        <time>2012-04-30T12:41:56Z</time>
      </trkpt>
      <trkpt lat="46.92295" lon="-1.08753">
        <ele>104</ele>
        <time>2012-04-30T12:42:03Z</time>
      </trkpt>
      <trkpt lat="46.92257" lon="-1.08749">
        <ele>104</ele>
        <time>2012-04-30T12:42:03Z</time>
      </trkpt>
      <trkpt lat="46.9225" lon="-1.08747">
        <ele>104</ele>
        <time>2012-04-30T12:42:04Z</time>
      </trkpt>
      <trkpt lat="46.92205" lon="-1.0874">
        <ele>104</ele>
        <time>2012-04-30T12:42:10Z</time>
      </trkpt>
      <trkpt lat="46.92197" lon="-1.08739">
        <ele>104</ele>
        <time>2012-04-30T12:42:11Z</time>
      </trkpt>
      <trkpt lat="46.92182" lon="-1.08736">
        <ele>104</ele>
        <time>2012-04-30T12:42:18Z</time>
      </trkpt>
      <trkpt lat="46.92145" lon="-1.08731">
        <ele>103</ele>
        <time>2012-04-30T12:42:18Z</time>
      </trkpt>
      <trkpt lat="46.92137" lon="-1.0873">
        <ele>103</ele>
        <time>2012-04-30T12:42:19Z</time>
      </trkpt>
      <trkpt lat="46.92123" lon="-1.08728">
        <ele>103</ele>
        <time>2012-04-30T12:42:26Z</time>
      </trkpt>
      <trkpt lat="46.92087" lon="-1.08722">
        <ele>102</ele>
        <time>2012-04-30T12:42:26Z</time>
      </trkpt>
      <trkpt lat="46.9208" lon="-1.08721">
        <ele>102</ele>
        <time>2012-04-30T12:42:27Z</time>
      </trkpt>
      <trkpt lat="46.92038" lon="-1.08713">
        <ele>102</ele>
        <time>2012-04-30T12:42:33Z</time>
      </trkpt>
      <trkpt lat="46.92031" lon="-1.08712">
        <ele>102</ele>
        <time>2012-04-30T12:42:34Z</time>
      </trkpt>
      <trkpt lat="46.92017" lon="-1.0871">
        <ele>101</ele>
        <time>2012-04-30T12:42:41Z</time>
      </trkpt>
      <trkpt lat="46.91984" lon="-1.08706">
        <ele>101</ele>
        <time>2012-04-30T12:42:41Z</time>
      </trkpt>
      <trkpt lat="46.91977" lon="-1.08705">
        <ele>101</ele>
        <time>2012-04-30T12:42:42Z</time>
      </trkpt>
      <trkpt lat="46.91964" lon="-1.08703">
        <ele>101</ele>
        <time>2012-04-30T12:42:49Z</time>
      </trkpt>
      <trkpt lat="46.91931" lon="-1.08698">
        <ele>101</ele>
        <time>2012-04-30T12:42:49Z</time>
      </trkpt>
      <trkpt lat="46.91925" lon="-1.08697">
        <ele>101</ele>
        <time>2012-04-30T12:42:50Z</time>
      </trkpt>
      <trkpt lat="46.91912" lon="-1.08695">
        <ele>101</ele>
        <time>2012-04-30T12:42:56Z</time>
      </trkpt>
      <trkpt lat="46.91879" lon="-1.08691">
        <ele>101</ele>
        <time>2012-04-30T12:42:57Z</time>
      </trkpt>
      <trkpt lat="46.91872" lon="-1.0869">
        <ele>101</ele>
        <time>2012-04-30T12:42:58Z</time>
      </trkpt>
      <trkpt lat="46.91833" lon="-1.08684">
        <ele>101</ele>
        <time>2012-04-30T12:43:04Z</time>
      </trkpt>
      <trkpt lat="46.91826" lon="-1.08683">
        <ele>101</ele>
        <time>2012-04-30T12:43:05Z</time>
      </trkpt>
      <trkpt lat="46.91819" lon="-1.08681">
        <ele>101</ele>
        <time>2012-04-30T12:43:06Z</time>
      </trkpt>
      <trkpt lat="46.91806" lon="-1.08679">
        <ele>101</ele>
        <time>2012-04-30T12:43:12Z</time>
      </trkpt>
      <trkpt lat="46.91772" lon="-1.08674">
        <ele>101</ele>
        <time>2012-04-30T12:43:13Z</time>
      </trkpt>
      <trkpt lat="46.91765" lon="-1.08673">
        <ele>101</ele>
        <time>2012-04-30T12:43:14Z</time>
      </trkpt>
      <trkpt lat="46.91724" lon="-1.08667">
        <ele>101</ele>
        <time>2012-04-30T12:43:20Z</time>
      </trkpt>
      <trkpt lat="46.91717" lon="-1.08666">
        <ele>101</ele>
        <time>2012-04-30T12:43:21Z</time>
      </trkpt>
      <trkpt lat="46.9171" lon="-1.08666">
        <ele>101</ele>
        <time>2012-04-30T12:43:22Z</time>
      </trkpt>
      <trkpt lat="46.91667" lon="-1.08664">
        <ele>101</ele>
        <time>2012-04-30T12:43:28Z</time>
      </trkpt>
      <trkpt lat="46.9166" lon="-1.08665">
        <ele>100</ele>
        <time>2012-04-30T12:43:29Z</time>
      </trkpt>
      <trkpt lat="46.91652" lon="-1.08665">
        <ele>100</ele>
        <time>2012-04-30T12:43:30Z</time>
      </trkpt>
      <trkpt lat="46.91608" lon="-1.08671">
        <ele>99</ele>
        <time>2012-04-30T12:43:36Z</time>
      </trkpt>
      <trkpt lat="46.91601" lon="-1.08672">
        <ele>99</ele>
        <time>2012-04-30T12:43:37Z</time>
      </trkpt>
      <trkpt lat="46.91593" lon="-1.08673">
        <ele>99</ele>
        <time>2012-04-30T12:43:39Z</time>
      </trkpt>
      <trkpt lat="46.91555" lon="-1.08679">
        <ele>98</ele>
        <time>2012-04-30T12:43:43Z</time>
      </trkpt>
      <trkpt lat="46.91548" lon="-1.0868">
        <ele>98</ele>
        <time>2012-04-30T12:43:44Z</time>
      </trkpt>
      <trkpt lat="46.9154" lon="-1.08681">
        <ele>97</ele>
        <time>2012-04-30T12:43:45Z</time>
      </trkpt>
      <trkpt lat="46.91524" lon="-1.08684">
        <ele>97</ele>
        <time>2012-04-30T12:43:50Z</time>
      </trkpt>
      <trkpt lat="46.91501" lon="-1.08687">
        <ele>97</ele>
        <time>2012-04-30T12:43:50Z</time>
      </trkpt>
      <trkpt lat="46.91493" lon="-1.08688">
        <ele>97</ele>
        <time>2012-04-30T12:43:51Z</time>
      </trkpt>
      <trkpt lat="46.91478" lon="-1.08691">
        <ele>96</ele>
        <time>2012-04-30T12:43:56Z</time>
      </trkpt>
      <trkpt lat="46.91447" lon="-1.08699">
        <ele>96</ele>
        <time>2012-04-30T12:43:57Z</time>
      </trkpt>
      <trkpt lat="46.9144" lon="-1.08703">
        <ele>95</ele>
        <time>2012-04-30T12:43:58Z</time>
      </trkpt>
      <trkpt lat="46.91426" lon="-1.08712">
        <ele>95</ele>
        <time>2012-04-30T12:44:03Z</time>
      </trkpt>
      <trkpt lat="46.91408" lon="-1.08731">
        <ele>94</ele>
        <time>2012-04-30T12:44:03Z</time>
      </trkpt>
      <trkpt lat="46.91402" lon="-1.08739">
        <ele>94</ele>
        <time>2012-04-30T12:44:05Z</time>
      </trkpt>
      <trkpt lat="46.91397" lon="-1.08747">
        <ele>94</ele>
        <time>2012-04-30T12:44:05Z</time>
      </trkpt>
      <trkpt lat="46.91388" lon="-1.08763">
        <ele>94</ele>
        <time>2012-04-30T12:44:10Z</time>
      </trkpt>
      <trkpt lat="46.91374" lon="-1.08788">
        <ele>94</ele>
        <time>2012-04-30T12:44:10Z</time>
      </trkpt>
      <trkpt lat="46.9137" lon="-1.08796">
        <ele>94</ele>
        <time>2012-04-30T12:44:11Z</time>
      </trkpt>
      <trkpt lat="46.91361" lon="-1.08812">
        <ele>94</ele>
        <time>2012-04-30T12:44:17Z</time>
      </trkpt>
      <trkpt lat="46.91343" lon="-1.08844">
        <ele>94</ele>
        <time>2012-04-30T12:44:17Z</time>
      </trkpt>
      <trkpt lat="46.91338" lon="-1.08852">
        <ele>94</ele>
        <time>2012-04-30T12:44:18Z</time>
      </trkpt>
      <trkpt lat="46.9133" lon="-1.08867">
        <ele>94</ele>
        <time>2012-04-30T12:44:23Z</time>
      </trkpt>
      <trkpt lat="46.91316" lon="-1.08888">
        <ele>94</ele>
        <time>2012-04-30T12:44:23Z</time>
      </trkpt>
      <trkpt lat="46.91311" lon="-1.08895">
        <ele>94</ele>
        <time>2012-04-30T12:44:24Z</time>
      </trkpt>
      <trkpt lat="46.91303" lon="-1.08907">
        <ele>94</ele>
        <time>2012-04-30T12:44:30Z</time>
      </trkpt>
      <trkpt lat="46.91286" lon="-1.08915">
        <ele>94</ele>
        <time>2012-04-30T12:44:30Z</time>
      </trkpt>
      <trkpt lat="46.91283" lon="-1.0891">
        <ele>94</ele>
        <time>2012-04-30T12:44:32Z</time>
      </trkpt>
      <trkpt lat="46.91279" lon="-1.08905">
        <ele>94</ele>
        <time>2012-04-30T12:44:33Z</time>
      </trkpt>
      <trkpt lat="46.91271" lon="-1.08892">
        <ele>94</ele>
        <time>2012-04-30T12:44:38Z</time>
      </trkpt>
      <trkpt lat="46.91251" lon="-1.08867">
        <ele>94</ele>
        <time>2012-04-30T12:44:38Z</time>
      </trkpt>
      <trkpt lat="46.91241" lon="-1.08853">
        <ele>94</ele>
        <time>2012-04-30T12:44:44Z</time>
      </trkpt>
      <trkpt lat="46.91219" lon="-1.08835">
        <ele>94</ele>
        <time>2012-04-30T12:44:44Z</time>
      </trkpt>
      <trkpt lat="46.91212" lon="-1.08836">
        <ele>94</ele>
        <time>2012-04-30T12:44:46Z</time>
      </trkpt>
      <trkpt lat="46.91206" lon="-1.08837">
        <ele>94</ele>
        <time>2012-04-30T12:44:47Z</time>
      </trkpt>
      <trkpt lat="46.912" lon="-1.0884">
        <ele>94</ele>
        <time>2012-04-30T12:44:48Z</time>
      </trkpt>
      <trkpt lat="46.91188" lon="-1.08844">
        <ele>94</ele>
        <time>2012-04-30T12:44:52Z</time>
      </trkpt>
      <trkpt lat="46.91161" lon="-1.08845">
        <ele>94</ele>
        <time>2012-04-30T12:44:53Z</time>
      </trkpt>
      <trkpt lat="46.91154" lon="-1.08841">
        <ele>94</ele>
        <time>2012-04-30T12:44:55Z</time>
      </trkpt>
      <trkpt lat="46.91142" lon="-1.08831">
        <ele>94</ele>
        <time>2012-04-30T12:44:56Z</time>
      </trkpt>
      <trkpt lat="46.9113" lon="-1.0882">
        <ele>93</ele>
        <time>2012-04-30T12:45:01Z</time>
      </trkpt>
      <trkpt lat="46.91114" lon="-1.08806">
        <ele>93</ele>
        <time>2012-04-30T12:45:01Z</time>
      </trkpt>
      <trkpt lat="46.91109" lon="-1.08801">
        <ele>93</ele>
        <time>2012-04-30T12:45:02Z</time>
      </trkpt>
      <trkpt lat="46.91099" lon="-1.08796">
        <ele>93</ele>
        <time>2012-04-30T12:45:08Z</time>
      </trkpt>
      <trkpt lat="46.91084" lon="-1.08803">
        <ele>92</ele>
        <time>2012-04-30T12:45:08Z</time>
      </trkpt>
      <trkpt lat="46.91083" lon="-1.08806">
        <ele>92</ele>
        <time>2012-04-30T12:45:09Z</time>
      </trkpt>
      <trkpt lat="46.91081" lon="-1.08808">
        <ele>92</ele>
        <time>2012-04-30T12:45:10Z</time>
      </trkpt>
      <trkpt lat="46.91071" lon="-1.08828">
        <ele>92</ele>
        <time>2012-04-30T12:45:15Z</time>
      </trkpt>
      <trkpt lat="46.91069" lon="-1.08834">
        <ele>92</ele>
        <time>2012-04-30T12:45:16Z</time>
      </trkpt>
      <trkpt lat="46.91067" lon="-1.08841">
        <ele>92</ele>
        <time>2012-04-30T12:45:17Z</time>
      </trkpt>
      <trkpt lat="46.91062" lon="-1.08854">
        <ele>92</ele>
        <time>2012-04-30T12:45:22Z</time>
      </trkpt>
      <trkpt lat="46.91056" lon="-1.08878">
        <ele>92</ele>
        <time>2012-04-30T12:45:22Z</time>
      </trkpt>
      <trkpt lat="46.91054" lon="-1.08886">
        <ele>91</ele>
        <time>2012-04-30T12:45:23Z</time>
      </trkpt>
      <trkpt lat="46.91049" lon="-1.08904">
        <ele>91</ele>
        <time>2012-04-30T12:45:29Z</time>
      </trkpt>
      <trkpt lat="46.91041" lon="-1.0894">
        <ele>91</ele>
        <time>2012-04-30T12:45:29Z</time>
      </trkpt>
      <trkpt lat="46.91038" lon="-1.08949">
        <ele>91</ele>
        <time>2012-04-30T12:45:30Z</time>
      </trkpt>
      <trkpt lat="46.91032" lon="-1.08967">
        <ele>91</ele>
        <time>2012-04-30T12:45:35Z</time>
      </trkpt>
      <trkpt lat="46.91024" lon="-1.08995">
        <ele>91</ele>
        <time>2012-04-30T12:45:35Z</time>
      </trkpt>
      <trkpt lat="46.91021" lon="-1.09004">
        <ele>91</ele>
        <time>2012-04-30T12:45:36Z</time>
      </trkpt>
      <trkpt lat="46.91017" lon="-1.09023">
        <ele>91</ele>
        <time>2012-04-30T12:45:42Z</time>
      </trkpt>
      <trkpt lat="46.91011" lon="-1.09054">
        <ele>91</ele>
        <time>2012-04-30T12:45:42Z</time>
      </trkpt>
      <trkpt lat="46.91009" lon="-1.0906">
        <ele>91</ele>
        <time>2012-04-30T12:45:43Z</time>
      </trkpt>
      <trkpt lat="46.91004" lon="-1.0907">
        <ele>91</ele>
        <time>2012-04-30T12:45:48Z</time>
      </trkpt>
      <trkpt lat="46.90987" lon="-1.09066">
        <ele>90</ele>
        <time>2012-04-30T12:45:49Z</time>
      </trkpt>
      <trkpt lat="46.90982" lon="-1.09062">
        <ele>89</ele>
        <time>2012-04-30T12:45:50Z</time>
      </trkpt>
      <trkpt lat="46.90977" lon="-1.09058">
        <ele>88</ele>
        <time>2012-04-30T12:45:52Z</time>
      </trkpt>
      <trkpt lat="46.90967" lon="-1.0905">
        <ele>87</ele>
        <time>2012-04-30T12:45:57Z</time>
      </trkpt>
      <trkpt lat="46.90945" lon="-1.09035">
        <ele>86</ele>
        <time>2012-04-30T12:45:57Z</time>
      </trkpt>
      <trkpt lat="46.90939" lon="-1.09033">
        <ele>86</ele>
        <time>2012-04-30T12:45:58Z</time>
      </trkpt>
      <trkpt lat="46.90906" lon="-1.09026">
        <ele>86</ele>
        <time>2012-04-30T12:46:03Z</time>
      </trkpt>
      <trkpt lat="46.909" lon="-1.09025">
        <ele>86</ele>
        <time>2012-04-30T12:46:04Z</time>
      </trkpt>
      <trkpt lat="46.90886" lon="-1.09025">
        <ele>86</ele>
        <time>2012-04-30T12:46:10Z</time>
      </trkpt>
      <trkpt lat="46.90857" lon="-1.09031">
        <ele>86</ele>
        <time>2012-04-30T12:46:10Z</time>
      </trkpt>
      <trkpt lat="46.9085" lon="-1.09034">
        <ele>86</ele>
        <time>2012-04-30T12:46:11Z</time>
      </trkpt>
      <trkpt lat="46.90814" lon="-1.0905">
        <ele>86</ele>
        <time>2012-04-30T12:46:16Z</time>
      </trkpt>
      <trkpt lat="46.90807" lon="-1.09055">
        <ele>85</ele>
        <time>2012-04-30T12:46:17Z</time>
      </trkpt>
      <trkpt lat="46.90793" lon="-1.09064">
        <ele>85</ele>
        <time>2012-04-30T12:46:23Z</time>
      </trkpt>
      <trkpt lat="46.90766" lon="-1.09085">
        <ele>85</ele>
        <time>2012-04-30T12:46:23Z</time>
      </trkpt>
      <trkpt lat="46.90759" lon="-1.0909">
        <ele>85</ele>
        <time>2012-04-30T12:46:24Z</time>
      </trkpt>
      <trkpt lat="46.90727" lon="-1.09117">
        <ele>84</ele>
        <time>2012-04-30T12:46:29Z</time>
      </trkpt>
      <trkpt lat="46.9072" lon="-1.09123">
        <ele>84</ele>
        <time>2012-04-30T12:46:30Z</time>
      </trkpt>
      <trkpt lat="46.90714" lon="-1.09129">
        <ele>84</ele>
        <time>2012-04-30T12:46:31Z</time>
      </trkpt>
      <trkpt lat="46.90701" lon="-1.0914">
        <ele>84</ele>
        <time>2012-04-30T12:46:36Z</time>
      </trkpt>
      <trkpt lat="46.90683" lon="-1.09157">
        <ele>83</ele>
        <time>2012-04-30T12:46:36Z</time>
      </trkpt>
      <trkpt lat="46.90676" lon="-1.09162">
        <ele>83</ele>
        <time>2012-04-30T12:46:37Z</time>
      </trkpt>
      <trkpt lat="46.90663" lon="-1.09172">
        <ele>82</ele>
        <time>2012-04-30T12:46:42Z</time>
      </trkpt>
      <trkpt lat="46.90638" lon="-1.09193">
        <ele>82</ele>
        <time>2012-04-30T12:46:43Z</time>
      </trkpt>
      <trkpt lat="46.90632" lon="-1.09198">
        <ele>82</ele>
        <time>2012-04-30T12:46:44Z</time>
      </trkpt>
      <trkpt lat="46.9062" lon="-1.09209">
        <ele>82</ele>
        <time>2012-04-30T12:46:49Z</time>
      </trkpt>
      <trkpt lat="46.90602" lon="-1.09224">
        <ele>82</ele>
        <time>2012-04-30T12:46:49Z</time>
      </trkpt>
      <trkpt lat="46.90596" lon="-1.0923">
        <ele>82</ele>
        <time>2012-04-30T12:46:50Z</time>
      </trkpt>
      <trkpt lat="46.90584" lon="-1.0924">
        <ele>82</ele>
        <time>2012-04-30T12:46:56Z</time>
      </trkpt>
      <trkpt lat="46.9056" lon="-1.0926">
        <ele>82</ele>
        <time>2012-04-30T12:46:56Z</time>
      </trkpt>
      <trkpt lat="46.90554" lon="-1.09265">
        <ele>82</ele>
        <time>2012-04-30T12:46:57Z</time>
      </trkpt>
      <trkpt lat="46.90525" lon="-1.09291">
        <ele>82</ele>
        <time>2012-04-30T12:47:02Z</time>
      </trkpt>
      <trkpt lat="46.90519" lon="-1.09295">
        <ele>81</ele>
        <time>2012-04-30T12:47:03Z</time>
      </trkpt>
      <trkpt lat="46.90513" lon="-1.09299">
        <ele>81</ele>
        <time>2012-04-30T12:47:04Z</time>
      </trkpt>
      <trkpt lat="46.90501" lon="-1.09307">
        <ele>81</ele>
        <time>2012-04-30T12:47:09Z</time>
      </trkpt>
      <trkpt lat="46.90482" lon="-1.09317">
        <ele>80</ele>
        <time>2012-04-30T12:47:09Z</time>
      </trkpt>
      <trkpt lat="46.90476" lon="-1.0932">
        <ele>79</ele>
        <time>2012-04-30T12:47:10Z</time>
      </trkpt>
      <trkpt lat="46.90463" lon="-1.09325">
        <ele>79</ele>
        <time>2012-04-30T12:47:16Z</time>
      </trkpt>
      <trkpt lat="46.90438" lon="-1.09335">
        <ele>79</ele>
        <time>2012-04-30T12:47:16Z</time>
      </trkpt>
      <trkpt lat="46.90432" lon="-1.09338">
        <ele>79</ele>
        <time>2012-04-30T12:47:17Z</time>
      </trkpt>
      <trkpt lat="46.90422" lon="-1.09349">
        <ele>79</ele>
        <time>2012-04-30T12:47:22Z</time>
      </trkpt>
      <trkpt lat="46.90405" lon="-1.0936">
        <ele>79</ele>
        <time>2012-04-30T12:47:22Z</time>
      </trkpt>
      <trkpt lat="46.90398" lon="-1.09359">
        <ele>79</ele>
        <time>2012-04-30T12:47:24Z</time>
      </trkpt>
      <trkpt lat="46.90392" lon="-1.09356">
        <ele>79</ele>
        <time>2012-04-30T12:47:25Z</time>
      </trkpt>
      <trkpt lat="46.90385" lon="-1.09354">
        <ele>79</ele>
        <time>2012-04-30T12:47:26Z</time>
      </trkpt>
      <trkpt lat="46.90372" lon="-1.09355">
        <ele>79</ele>
        <time>2012-04-30T12:47:31Z</time>
      </trkpt>
      <trkpt lat="46.90342" lon="-1.09362">
        <ele>79</ele>
        <time>2012-04-30T12:47:31Z</time>
      </trkpt>
      <trkpt lat="46.90334" lon="-1.09365">
        <ele>78</ele>
        <time>2012-04-30T12:47:32Z</time>
      </trkpt>
      <trkpt lat="46.90326" lon="-1.09367">
        <ele>78</ele>
        <time>2012-04-30T12:47:33Z</time>
      </trkpt>
      <trkpt lat="46.90311" lon="-1.09372">
        <ele>78</ele>
        <time>2012-04-30T12:47:38Z</time>
      </trkpt>
      <trkpt lat="46.90289" lon="-1.09379">
        <ele>78</ele>
        <time>2012-04-30T12:47:38Z</time>
      </trkpt>
      <trkpt lat="46.90281" lon="-1.09382">
        <ele>78</ele>
        <time>2012-04-30T12:47:39Z</time>
      </trkpt>
      <trkpt lat="46.90266" lon="-1.09387">
        <ele>78</ele>
        <time>2012-04-30T12:47:45Z</time>
      </trkpt>
      <trkpt lat="46.90233" lon="-1.09397">
        <ele>78</ele>
        <time>2012-04-30T12:47:45Z</time>
      </trkpt>
      <trkpt lat="46.90225" lon="-1.09399">
        <ele>78</ele>
        <time>2012-04-30T12:47:46Z</time>
      </trkpt>
      <trkpt lat="46.90186" lon="-1.09401">
        <ele>78</ele>
        <time>2012-04-30T12:47:51Z</time>
      </trkpt>
      <trkpt lat="46.90179" lon="-1.094">
        <ele>78</ele>
        <time>2012-04-30T12:47:53Z</time>
      </trkpt>
      <trkpt lat="46.90173" lon="-1.09399">
        <ele>78</ele>
        <time>2012-04-30T12:47:53Z</time>
      </trkpt>
      <trkpt lat="46.90158" lon="-1.09396">
        <ele>78</ele>
        <time>2012-04-30T12:47:59Z</time>
      </trkpt>
      <trkpt lat="46.9013" lon="-1.09391">
        <ele>78</ele>
        <time>2012-04-30T12:47:59Z</time>
      </trkpt>
      <trkpt lat="46.90123" lon="-1.0939">
        <ele>78</ele>
        <time>2012-04-30T12:48:00Z</time>
      </trkpt>
      <trkpt lat="46.9009" lon="-1.09384">
        <ele>78</ele>
        <time>2012-04-30T12:48:05Z</time>
      </trkpt>
      <trkpt lat="46.90083" lon="-1.09382">
        <ele>78</ele>
        <time>2012-04-30T12:48:06Z</time>
      </trkpt>
      <trkpt lat="46.9007" lon="-1.0938">
        <ele>78</ele>
        <time>2012-04-30T12:48:12Z</time>
      </trkpt>
      <trkpt lat="46.90045" lon="-1.09375">
        <ele>78</ele>
        <time>2012-04-30T12:48:12Z</time>
      </trkpt>
      <trkpt lat="46.90038" lon="-1.09374">
        <ele>78</ele>
        <time>2012-04-30T12:48:13Z</time>
      </trkpt>
      <trkpt lat="46.90026" lon="-1.09371">
        <ele>78</ele>
        <time>2012-04-30T12:48:18Z</time>
      </trkpt>
      <trkpt lat="46.90001" lon="-1.09366">
        <ele>78</ele>
        <time>2012-04-30T12:48:19Z</time>
      </trkpt>
      <trkpt lat="46.89995" lon="-1.09365">
        <ele>78</ele>
        <time>2012-04-30T12:48:20Z</time>
      </trkpt>
      <trkpt lat="46.89964" lon="-1.0936">
        <ele>78</ele>
        <time>2012-04-30T12:48:25Z</time>
      </trkpt>
      <trkpt lat="46.89958" lon="-1.09358">
        <ele>78</ele>
        <time>2012-04-30T12:48:26Z</time>
      </trkpt>
      <trkpt lat="46.89945" lon="-1.09356">
        <ele>78</ele>
        <time>2012-04-30T12:48:32Z</time>
      </trkpt>
      <trkpt lat="46.8992" lon="-1.09352">
        <ele>78</ele>
        <time>2012-04-30T12:48:32Z</time>
      </trkpt>
      <trkpt lat="46.89914" lon="-1.09351">
        <ele>78</ele>
        <time>2012-04-30T12:48:33Z</time>
      </trkpt>
      <trkpt lat="46.89902" lon="-1.09348">
        <ele>78</ele>
        <time>2012-04-30T12:48:38Z</time>
      </trkpt>
      <trkpt lat="46.89877" lon="-1.09343">
        <ele>78</ele>
        <time>2012-04-30T12:48:39Z</time>
      </trkpt>
      <trkpt lat="46.8987" lon="-1.09342">
        <ele>78</ele>
        <time>2012-04-30T12:48:40Z</time>
      </trkpt>
      <trkpt lat="46.89835" lon="-1.09336">
        <ele>78</ele>
        <time>2012-04-30T12:48:45Z</time>
      </trkpt>
      <trkpt lat="46.89827" lon="-1.09335">
        <ele>78</ele>
        <time>2012-04-30T12:48:46Z</time>
      </trkpt>
      <trkpt lat="46.89813" lon="-1.09332">
        <ele>78</ele>
        <time>2012-04-30T12:48:52Z</time>
      </trkpt>
      <trkpt lat="46.89783" lon="-1.09326">
        <ele>78</ele>
        <time>2012-04-30T12:48:52Z</time>
      </trkpt>
      <trkpt lat="46.89775" lon="-1.09325">
        <ele>78</ele>
        <time>2012-04-30T12:48:53Z</time>
      </trkpt>
      <trkpt lat="46.8976" lon="-1.09322">
        <ele>78</ele>
        <time>2012-04-30T12:48:58Z</time>
      </trkpt>
      <trkpt lat="46.8973" lon="-1.09317">
        <ele>78</ele>
        <time>2012-04-30T12:48:59Z</time>
      </trkpt>
      <trkpt lat="46.89722" lon="-1.09316">
        <ele>78</ele>
        <time>2012-04-30T12:49:00Z</time>
      </trkpt>
      <trkpt lat="46.89708" lon="-1.09313">
        <ele>78</ele>
        <time>2012-04-30T12:49:05Z</time>
      </trkpt>
      <trkpt lat="46.89685" lon="-1.09311">
        <ele>78</ele>
        <time>2012-04-30T12:49:05Z</time>
      </trkpt>
      <trkpt lat="46.89677" lon="-1.09311">
        <ele>78</ele>
        <time>2012-04-30T12:49:06Z</time>
      </trkpt>
      <trkpt lat="46.89662" lon="-1.09313">
        <ele>78</ele>
        <time>2012-04-30T12:49:12Z</time>
      </trkpt>
      <trkpt lat="46.89634" lon="-1.09322">
        <ele>78</ele>
        <time>2012-04-30T12:49:12Z</time>
      </trkpt>
      <trkpt lat="46.89627" lon="-1.09325">
        <ele>78</ele>
        <time>2012-04-30T12:49:13Z</time>
      </trkpt>
      <trkpt lat="46.89615" lon="-1.09331">
        <ele>78</ele>
        <time>2012-04-30T12:49:18Z</time>
      </trkpt>
      <trkpt lat="46.89591" lon="-1.09343">
        <ele>78</ele>
        <time>2012-04-30T12:49:19Z</time>
      </trkpt>
      <trkpt lat="46.89586" lon="-1.09346">
        <ele>78</ele>
        <time>2012-04-30T12:49:20Z</time>
      </trkpt>
      <trkpt lat="46.89574" lon="-1.09352">
        <ele>78</ele>
        <time>2012-04-30T12:49:25Z</time>
      </trkpt>
      <trkpt lat="46.89558" lon="-1.09361">
        <ele>78</ele>
        <time>2012-04-30T12:49:25Z</time>
      </trkpt>
      <trkpt lat="46.89553" lon="-1.09364">
        <ele>78</ele>
        <time>2012-04-30T12:49:26Z</time>
      </trkpt>
      <trkpt lat="46.89542" lon="-1.0937">
        <ele>78</ele>
        <time>2012-04-30T12:49:32Z</time>
      </trkpt>
      <trkpt lat="46.8952" lon="-1.09382">
        <ele>79</ele>
        <time>2012-04-30T12:49:32Z</time>
      </trkpt>
      <trkpt lat="46.89514" lon="-1.09385">
        <ele>79</ele>
        <time>2012-04-30T12:49:33Z</time>
      </trkpt>
      <trkpt lat="46.89503" lon="-1.09392">
        <ele>79</ele>
        <time>2012-04-30T12:49:38Z</time>
      </trkpt>
      <trkpt lat="46.89479" lon="-1.09405">
        <ele>79</ele>
        <time>2012-04-30T12:49:39Z</time>
      </trkpt>
      <trkpt lat="46.89473" lon="-1.09408">
        <ele>80</ele>
        <time>2012-04-30T12:49:40Z</time>
      </trkpt>
      <trkpt lat="46.89442" lon="-1.09426">
        <ele>80</ele>
        <time>2012-04-30T12:49:45Z</time>
      </trkpt>
      <trkpt lat="46.89436" lon="-1.0943">
        <ele>80</ele>
        <time>2012-04-30T12:49:46Z</time>
      </trkpt>
      <trkpt lat="46.89424" lon="-1.09437">
        <ele>80</ele>
        <time>2012-04-30T12:49:52Z</time>
      </trkpt>
      <trkpt lat="46.894" lon="-1.09452">
        <ele>80</ele>
        <time>2012-04-30T12:49:52Z</time>
      </trkpt>
      <trkpt lat="46.89393" lon="-1.09456">
        <ele>80</ele>
        <time>2012-04-30T12:49:53Z</time>
      </trkpt>
      <trkpt lat="46.89381" lon="-1.09463">
        <ele>80</ele>
        <time>2012-04-30T12:49:58Z</time>
      </trkpt>
      <trkpt lat="46.89354" lon="-1.09478">
        <ele>80</ele>
        <time>2012-04-30T12:49:59Z</time>
      </trkpt>
      <trkpt lat="46.89348" lon="-1.09482">
        <ele>80</ele>
        <time>2012-04-30T12:50:00Z</time>
      </trkpt>
      <trkpt lat="46.89316" lon="-1.09502">
        <ele>80</ele>
        <time>2012-04-30T12:50:05Z</time>
      </trkpt>
      <trkpt lat="46.8931" lon="-1.09507">
        <ele>80</ele>
        <time>2012-04-30T12:50:06Z</time>
      </trkpt>
      <trkpt lat="46.89299" lon="-1.09519">
        <ele>80</ele>
        <time>2012-04-30T12:50:12Z</time>
      </trkpt>
      <trkpt lat="46.89278" lon="-1.09546">
        <ele>80</ele>
        <time>2012-04-30T12:50:12Z</time>
      </trkpt>
      <trkpt lat="46.89272" lon="-1.09553">
        <ele>80</ele>
        <time>2012-04-30T12:50:13Z</time>
      </trkpt>
      <trkpt lat="46.89261" lon="-1.09566">
        <ele>80</ele>
        <time>2012-04-30T12:50:19Z</time>
      </trkpt>
      <trkpt lat="46.8924" lon="-1.09593">
        <ele>80</ele>
        <time>2012-04-30T12:50:19Z</time>
      </trkpt>
      <trkpt lat="46.89235" lon="-1.09599">
        <ele>80</ele>
        <time>2012-04-30T12:50:20Z</time>
      </trkpt>
      <trkpt lat="46.89209" lon="-1.09632">
        <ele>80</ele>
        <time>2012-04-30T12:50:25Z</time>
      </trkpt>
      <trkpt lat="46.89203" lon="-1.09638">
        <ele>81</ele>
        <time>2012-04-30T12:50:26Z</time>
      </trkpt>
      <trkpt lat="46.89198" lon="-1.09644">
        <ele>81</ele>
        <time>2012-04-30T12:50:27Z</time>
      </trkpt>
      <trkpt lat="46.89172" lon="-1.09676">
        <ele>82</ele>
        <time>2012-04-30T12:50:32Z</time>
      </trkpt>
      <trkpt lat="46.89167" lon="-1.09683">
        <ele>82</ele>
        <time>2012-04-30T12:50:33Z</time>
      </trkpt>
      <trkpt lat="46.89156" lon="-1.09696">
        <ele>83</ele>
        <time>2012-04-30T12:50:39Z</time>
      </trkpt>
      <trkpt lat="46.89135" lon="-1.09722">
        <ele>83</ele>
        <time>2012-04-30T12:50:39Z</time>
      </trkpt>
      <trkpt lat="46.8913" lon="-1.09728">
        <ele>84</ele>
        <time>2012-04-30T12:50:40Z</time>
      </trkpt>
      <trkpt lat="46.8912" lon="-1.09741">
        <ele>84</ele>
        <time>2012-04-30T12:50:46Z</time>
      </trkpt>
      <trkpt lat="46.89099" lon="-1.09765">
        <ele>84</ele>
        <time>2012-04-30T12:50:46Z</time>
      </trkpt>
      <trkpt lat="46.89094" lon="-1.09772">
        <ele>85</ele>
        <time>2012-04-30T12:50:47Z</time>
      </trkpt>
      <trkpt lat="46.89069" lon="-1.09802">
        <ele>85</ele>
        <time>2012-04-30T12:50:52Z</time>
      </trkpt>
      <trkpt lat="46.89063" lon="-1.09808">
        <ele>85</ele>
        <time>2012-04-30T12:50:53Z</time>
      </trkpt>
      <trkpt lat="46.89058" lon="-1.09813">
        <ele>86</ele>
        <time>2012-04-30T12:50:54Z</time>
      </trkpt>
      <trkpt lat="46.89033" lon="-1.09844">
        <ele>86</ele>
        <time>2012-04-30T12:50:59Z</time>
      </trkpt>
      <trkpt lat="46.89028" lon="-1.09851">
        <ele>86</ele>
        <time>2012-04-30T12:51:00Z</time>
      </trkpt>
      <trkpt lat="46.89017" lon="-1.09863">
        <ele>87</ele>
        <time>2012-04-30T12:51:06Z</time>
      </trkpt>
      <trkpt lat="46.88997" lon="-1.09888">
        <ele>87</ele>
        <time>2012-04-30T12:51:06Z</time>
      </trkpt>
      <trkpt lat="46.88991" lon="-1.09894">
        <ele>87</ele>
        <time>2012-04-30T12:51:07Z</time>
      </trkpt>
      <trkpt lat="46.88981" lon="-1.09906">
        <ele>88</ele>
        <time>2012-04-30T12:51:13Z</time>
      </trkpt>
      <trkpt lat="46.88961" lon="-1.09931">
        <ele>88</ele>
        <time>2012-04-30T12:51:13Z</time>
      </trkpt>
      <trkpt lat="46.88956" lon="-1.09937">
        <ele>88</ele>
        <time>2012-04-30T12:51:14Z</time>
      </trkpt>
      <trkpt lat="46.88931" lon="-1.09968">
        <ele>88</ele>
        <time>2012-04-30T12:51:19Z</time>
      </trkpt>
      <trkpt lat="46.88926" lon="-1.09975">
        <ele>88</ele>
        <time>2012-04-30T12:51:20Z</time>
      </trkpt>
      <trkpt lat="46.8892" lon="-1.09981">
        <ele>88</ele>
        <time>2012-04-30T12:51:21Z</time>
      </trkpt>
      <trkpt lat="46.88895" lon="-1.10013">
        <ele>88</ele>
        <time>2012-04-30T12:51:26Z</time>
      </trkpt>
      <trkpt lat="46.88889" lon="-1.1002">
        <ele>88</ele>
        <time>2012-04-30T12:51:27Z</time>
      </trkpt>
      <trkpt lat="46.88879" lon="-1.10033">
        <ele>88</ele>
        <time>2012-04-30T12:51:33Z</time>
      </trkpt>
      <trkpt lat="46.88859" lon="-1.10059">
        <ele>88</ele>
        <time>2012-04-30T12:51:33Z</time>
      </trkpt>
      <trkpt lat="46.88854" lon="-1.10065">
        <ele>88</ele>
        <time>2012-04-30T12:51:34Z</time>
      </trkpt>
      <trkpt lat="46.88844" lon="-1.10078">
        <ele>88</ele>
        <time>2012-04-30T12:51:40Z</time>
      </trkpt>
      <trkpt lat="46.88824" lon="-1.10103">
        <ele>88</ele>
        <time>2012-04-30T12:51:40Z</time>
      </trkpt>
      <trkpt lat="46.88819" lon="-1.1011">
        <ele>88</ele>
        <time>2012-04-30T12:51:41Z</time>
      </trkpt>
      <trkpt lat="46.8881" lon="-1.10123">
        <ele>88</ele>
        <time>2012-04-30T12:51:46Z</time>
      </trkpt>
      <trkpt lat="46.88792" lon="-1.10152">
        <ele>88</ele>
        <time>2012-04-30T12:51:47Z</time>
      </trkpt>
      <trkpt lat="46.88788" lon="-1.1016">
        <ele>88</ele>
        <time>2012-04-30T12:51:48Z</time>
      </trkpt>
      <trkpt lat="46.88771" lon="-1.10203">
        <ele>88</ele>
        <time>2012-04-30T12:51:53Z</time>
      </trkpt>
      <trkpt lat="46.88768" lon="-1.10211">
        <ele>88</ele>
        <time>2012-04-30T12:51:54Z</time>
      </trkpt>
      <trkpt lat="46.88765" lon="-1.1022">
        <ele>88</ele>
        <time>2012-04-30T12:51:55Z</time>
      </trkpt>
      <trkpt lat="46.88749" lon="-1.10265">
        <ele>88</ele>
        <time>2012-04-30T12:52:00Z</time>
      </trkpt>
      <trkpt lat="46.88746" lon="-1.10273">
        <ele>88</ele>
        <time>2012-04-30T12:52:01Z</time>
      </trkpt>
      <trkpt lat="46.88737" lon="-1.10288">
        <ele>88</ele>
        <time>2012-04-30T12:52:07Z</time>
      </trkpt>
      <trkpt lat="46.88718" lon="-1.10313">
        <ele>88</ele>
        <time>2012-04-30T12:52:07Z</time>
      </trkpt>
      <trkpt lat="46.88712" lon="-1.10318">
        <ele>88</ele>
        <time>2012-04-30T12:52:08Z</time>
      </trkpt>
      <trkpt lat="46.88706" lon="-1.10323">
        <ele>88</ele>
        <time>2012-04-30T12:52:09Z</time>
      </trkpt>
      <trkpt lat="46.88694" lon="-1.1033">
        <ele>88</ele>
        <time>2012-04-30T12:52:14Z</time>
      </trkpt>
      <trkpt lat="46.88667" lon="-1.10339">
        <ele>88</ele>
        <time>2012-04-30T12:52:15Z</time>
      </trkpt>
      <trkpt lat="46.8866" lon="-1.10339">
        <ele>88</ele>
        <time>2012-04-30T12:52:16Z</time>
      </trkpt>
      <trkpt lat="46.88654" lon="-1.10339">
        <ele>88</ele>
        <time>2012-04-30T12:52:17Z</time>
      </trkpt>
      <trkpt lat="46.8864" lon="-1.10337">
        <ele>88</ele>
        <time>2012-04-30T12:52:22Z</time>
      </trkpt>
      <trkpt lat="46.88615" lon="-1.10325">
        <ele>88</ele>
        <time>2012-04-30T12:52:23Z</time>
      </trkpt>
      <trkpt lat="46.88609" lon="-1.10321">
        <ele>88</ele>
        <time>2012-04-30T12:52:24Z</time>
      </trkpt>
      <trkpt lat="46.88603" lon="-1.10317">
        <ele>88</ele>
        <time>2012-04-30T12:52:25Z</time>
      </trkpt>
      <trkpt lat="46.88576" lon="-1.10293">
        <ele>88</ele>
        <time>2012-04-30T12:52:30Z</time>
      </trkpt>
      <trkpt lat="46.88571" lon="-1.10288">
        <ele>88</ele>
        <time>2012-04-30T12:52:31Z</time>
      </trkpt>
      <trkpt lat="46.88565" lon="-1.10283">
        <ele>88</ele>
        <time>2012-04-30T12:52:32Z</time>
      </trkpt>
      <trkpt lat="46.88536" lon="-1.10258">
        <ele>88</ele>
        <time>2012-04-30T12:52:37Z</time>
      </trkpt>
      <trkpt lat="46.8853" lon="-1.10253">
        <ele>88</ele>
        <time>2012-04-30T12:52:38Z</time>
      </trkpt>
      <trkpt lat="46.88518" lon="-1.10243">
        <ele>88</ele>
        <time>2012-04-30T12:52:44Z</time>
      </trkpt>
      <trkpt lat="46.88494" lon="-1.10226">
        <ele>88</ele>
        <time>2012-04-30T12:52:44Z</time>
      </trkpt>
      <trkpt lat="46.88488" lon="-1.10222">
        <ele>88</ele>
        <time>2012-04-30T12:52:45Z</time>
      </trkpt>
      <trkpt lat="46.88475" lon="-1.10214">
        <ele>87</ele>
        <time>2012-04-30T12:52:51Z</time>
      </trkpt>
      <trkpt lat="46.88448" lon="-1.10199">
        <ele>87</ele>
        <time>2012-04-30T12:52:51Z</time>
      </trkpt>
      <trkpt lat="46.88441" lon="-1.10196">
        <ele>87</ele>
        <time>2012-04-30T12:52:52Z</time>
      </trkpt>
      <trkpt lat="46.88427" lon="-1.10189">
        <ele>87</ele>
        <time>2012-04-30T12:52:58Z</time>
      </trkpt>
      <trkpt lat="46.88397" lon="-1.10178">
        <ele>86</ele>
        <time>2012-04-30T12:52:58Z</time>
      </trkpt>
      <trkpt lat="46.8839" lon="-1.10175">
        <ele>85</ele>
        <time>2012-04-30T12:52:59Z</time>
      </trkpt>
      <trkpt lat="46.88374" lon="-1.1017">
        <ele>85</ele>
        <time>2012-04-30T12:53:04Z</time>
      </trkpt>
      <trkpt lat="46.8834" lon="-1.1016">
        <ele>84</ele>
        <time>2012-04-30T12:53:05Z</time>
      </trkpt>
      <trkpt lat="46.88332" lon="-1.10157">
        <ele>83</ele>
        <time>2012-04-30T12:53:06Z</time>
      </trkpt>
      <trkpt lat="46.88315" lon="-1.10152">
        <ele>82</ele>
        <time>2012-04-30T12:53:11Z</time>
      </trkpt>
      <trkpt lat="46.88279" lon="-1.10141">
        <ele>81</ele>
        <time>2012-04-30T12:53:12Z</time>
      </trkpt>
      <trkpt lat="46.8827" lon="-1.10138">
        <ele>80</ele>
        <time>2012-04-30T12:53:13Z</time>
      </trkpt>
      <trkpt lat="46.88223" lon="-1.10124">
        <ele>79</ele>
        <time>2012-04-30T12:53:18Z</time>
      </trkpt>
      <trkpt lat="46.88213" lon="-1.1012">
        <ele>78</ele>
        <time>2012-04-30T12:53:19Z</time>
      </trkpt>
      <trkpt lat="46.88203" lon="-1.10117">
        <ele>77</ele>
        <time>2012-04-30T12:53:20Z</time>
      </trkpt>
      <trkpt lat="46.88157" lon="-1.10101">
        <ele>76</ele>
        <time>2012-04-30T12:53:25Z</time>
      </trkpt>
      <trkpt lat="46.88147" lon="-1.10098">
        <ele>75</ele>
        <time>2012-04-30T12:53:26Z</time>
      </trkpt>
      <trkpt lat="46.88139" lon="-1.10095">
        <ele>74</ele>
        <time>2012-04-30T12:53:27Z</time>
      </trkpt>
      <trkpt lat="46.88096" lon="-1.10082">
        <ele>73</ele>
        <time>2012-04-30T12:53:32Z</time>
      </trkpt>
      <trkpt lat="46.88087" lon="-1.10079">
        <ele>72</ele>
        <time>2012-04-30T12:53:33Z</time>
      </trkpt>
      <trkpt lat="46.8808" lon="-1.10077">
        <ele>71</ele>
        <time>2012-04-30T12:53:34Z</time>
      </trkpt>
      <trkpt lat="46.88044" lon="-1.10069">
        <ele>71</ele>
        <time>2012-04-30T12:53:39Z</time>
      </trkpt>
      <trkpt lat="46.88037" lon="-1.10068">
        <ele>71</ele>
        <time>2012-04-30T12:53:40Z</time>
      </trkpt>
      <trkpt lat="46.88031" lon="-1.10067">
        <ele>71</ele>
        <time>2012-04-30T12:53:41Z</time>
      </trkpt>
      <trkpt lat="46.88002" lon="-1.10065">
        <ele>71</ele>
        <time>2012-04-30T12:53:46Z</time>
      </trkpt>
      <trkpt lat="46.87996" lon="-1.10064">
        <ele>71</ele>
        <time>2012-04-30T12:53:47Z</time>
      </trkpt>
      <trkpt lat="46.87991" lon="-1.10064">
        <ele>71</ele>
        <time>2012-04-30T12:53:48Z</time>
      </trkpt>
      <trkpt lat="46.87964" lon="-1.10063">
        <ele>71</ele>
        <time>2012-04-30T12:53:53Z</time>
      </trkpt>
      <trkpt lat="46.87959" lon="-1.10062">
        <ele>71</ele>
        <time>2012-04-30T12:53:54Z</time>
      </trkpt>
      <trkpt lat="46.87954" lon="-1.10062">
        <ele>71</ele>
        <time>2012-04-30T12:53:55Z</time>
      </trkpt>
      <trkpt lat="46.8793" lon="-1.10061">
        <ele>71</ele>
        <time>2012-04-30T12:54:00Z</time>
      </trkpt>
      <trkpt lat="46.87925" lon="-1.1006">
        <ele>72</ele>
        <time>2012-04-30T12:54:01Z</time>
      </trkpt>
      <trkpt lat="46.8792" lon="-1.1006">
        <ele>73</ele>
        <time>2012-04-30T12:54:02Z</time>
      </trkpt>
      <trkpt lat="46.87911" lon="-1.10059">
        <ele>74</ele>
        <time>2012-04-30T12:54:07Z</time>
      </trkpt>
      <trkpt lat="46.87893" lon="-1.10057">
        <ele>75</ele>
        <time>2012-04-30T12:54:08Z</time>
      </trkpt>
      <trkpt lat="46.87888" lon="-1.10057">
        <ele>76</ele>
        <time>2012-04-30T12:54:09Z</time>
      </trkpt>
      <trkpt lat="46.87866" lon="-1.10056">
        <ele>76</ele>
        <time>2012-04-30T12:54:14Z</time>
      </trkpt>
      <trkpt lat="46.87862" lon="-1.10056">
        <ele>77</ele>
        <time>2012-04-30T12:54:15Z</time>
      </trkpt>
      <trkpt lat="46.87857" lon="-1.10056">
        <ele>78</ele>
        <time>2012-04-30T12:54:16Z</time>
      </trkpt>
      <trkpt lat="46.87849" lon="-1.10055">
        <ele>78</ele>
        <time>2012-04-30T12:54:21Z</time>
      </trkpt>
      <trkpt lat="46.87831" lon="-1.10055">
        <ele>79</ele>
        <time>2012-04-30T12:54:22Z</time>
      </trkpt>
      <trkpt lat="46.87827" lon="-1.10054">
        <ele>80</ele>
        <time>2012-04-30T12:54:23Z</time>
      </trkpt>
      <trkpt lat="46.87818" lon="-1.10054">
        <ele>80</ele>
        <time>2012-04-30T12:54:28Z</time>
      </trkpt>
      <trkpt lat="46.878" lon="-1.10054">
        <ele>81</ele>
        <time>2012-04-30T12:54:29Z</time>
      </trkpt>
      <trkpt lat="46.87795" lon="-1.10054">
        <ele>81</ele>
        <time>2012-04-30T12:54:30Z</time>
      </trkpt>
      <trkpt lat="46.87786" lon="-1.10054">
        <ele>81</ele>
        <time>2012-04-30T12:54:35Z</time>
      </trkpt>
      <trkpt lat="46.87768" lon="-1.10053">
        <ele>82</ele>
        <time>2012-04-30T12:54:36Z</time>
      </trkpt>
      <trkpt lat="46.87763" lon="-1.10053">
        <ele>82</ele>
        <time>2012-04-30T12:54:37Z</time>
      </trkpt>
      <trkpt lat="46.87739" lon="-1.10053">
        <ele>82</ele>
        <time>2012-04-30T12:54:42Z</time>
      </trkpt>
      <trkpt lat="46.87735" lon="-1.10053">
        <ele>83</ele>
        <time>2012-04-30T12:54:43Z</time>
      </trkpt>
      <trkpt lat="46.8773" lon="-1.10053">
        <ele>83</ele>
        <time>2012-04-30T12:54:44Z</time>
      </trkpt>
      <trkpt lat="46.8772" lon="-1.10052">
        <ele>84</ele>
        <time>2012-04-30T12:54:49Z</time>
      </trkpt>
      <trkpt lat="46.87701" lon="-1.10048">
        <ele>84</ele>
        <time>2012-04-30T12:54:50Z</time>
      </trkpt>
      <trkpt lat="46.87691" lon="-1.10045">
        <ele>84</ele>
        <time>2012-04-30T12:54:56Z</time>
      </trkpt>
      <trkpt lat="46.87672" lon="-1.10039">
        <ele>85</ele>
        <time>2012-04-30T12:54:56Z</time>
      </trkpt>
      <trkpt lat="46.87667" lon="-1.10038">
        <ele>85</ele>
        <time>2012-04-30T12:54:57Z</time>
      </trkpt>
      <trkpt lat="46.87657" lon="-1.10034">
        <ele>85</ele>
        <time>2012-04-30T12:55:03Z</time>
      </trkpt>
      <trkpt lat="46.87637" lon="-1.10028">
        <ele>85</ele>
        <time>2012-04-30T12:55:03Z</time>
      </trkpt>
      <trkpt lat="46.87632" lon="-1.10026">
        <ele>86</ele>
        <time>2012-04-30T12:55:04Z</time>
      </trkpt>
      <trkpt lat="46.87622" lon="-1.10022">
        <ele>86</ele>
        <time>2012-04-30T12:55:10Z</time>
      </trkpt>
      <trkpt lat="46.87601" lon="-1.10016">
        <ele>86</ele>
        <time>2012-04-30T12:55:10Z</time>
      </trkpt>
      <trkpt lat="46.87595" lon="-1.10014">
        <ele>86</ele>
        <time>2012-04-30T12:55:11Z</time>
      </trkpt>
      <trkpt lat="46.87585" lon="-1.10011">
        <ele>87</ele>
        <time>2012-04-30T12:55:17Z</time>
      </trkpt>
      <trkpt lat="46.87563" lon="-1.10005">
        <ele>87</ele>
        <time>2012-04-30T12:55:17Z</time>
      </trkpt>
      <trkpt lat="46.87556" lon="-1.10003">
        <ele>87</ele>
        <time>2012-04-30T12:55:18Z</time>
      </trkpt>
      <trkpt lat="46.87545" lon="-1.09999">
        <ele>87</ele>
        <time>2012-04-30T12:55:24Z</time>
      </trkpt>
      <trkpt lat="46.8752" lon="-1.09992">
        <ele>87</ele>
        <time>2012-04-30T12:55:24Z</time>
      </trkpt>
      <trkpt lat="46.87514" lon="-1.0999">
        <ele>87</ele>
        <time>2012-04-30T12:55:25Z</time>
      </trkpt>
      <trkpt lat="46.87501" lon="-1.09986">
        <ele>87</ele>
        <time>2012-04-30T12:55:30Z</time>
      </trkpt>
      <trkpt lat="46.87473" lon="-1.09978">
        <ele>87</ele>
        <time>2012-04-30T12:55:31Z</time>
      </trkpt>
      <trkpt lat="46.87466" lon="-1.09976">
        <ele>87</ele>
        <time>2012-04-30T12:55:32Z</time>
      </trkpt>
      <trkpt lat="46.87451" lon="-1.09971">
        <ele>87</ele>
        <time>2012-04-30T12:55:37Z</time>
      </trkpt>
      <trkpt lat="46.8742" lon="-1.09961">
        <ele>87</ele>
        <time>2012-04-30T12:55:38Z</time>
      </trkpt>
      <trkpt lat="46.87413" lon="-1.09959">
        <ele>87</ele>
        <time>2012-04-30T12:55:39Z</time>
      </trkpt>
      <trkpt lat="46.87397" lon="-1.09954">
        <ele>86</ele>
        <time>2012-04-30T12:55:44Z</time>
      </trkpt>
      <trkpt lat="46.87369" lon="-1.09945">
        <ele>86</ele>
        <time>2012-04-30T12:55:45Z</time>
      </trkpt>
      <trkpt lat="46.87363" lon="-1.09943">
        <ele>86</ele>
        <time>2012-04-30T12:55:46Z</time>
      </trkpt>
      <trkpt lat="46.8735" lon="-1.09939">
        <ele>86</ele>
        <time>2012-04-30T12:55:51Z</time>
      </trkpt>
      <trkpt lat="46.87325" lon="-1.09931">
        <ele>86</ele>
        <time>2012-04-30T12:55:52Z</time>
      </trkpt>
      <trkpt lat="46.87318" lon="-1.09929">
        <ele>86</ele>
        <time>2012-04-30T12:55:53Z</time>
      </trkpt>
      <trkpt lat="46.87306" lon="-1.09925">
        <ele>86</ele>
        <time>2012-04-30T12:55:58Z</time>
      </trkpt>
      <trkpt lat="46.87283" lon="-1.09917">
        <ele>86</ele>
        <time>2012-04-30T12:55:59Z</time>
      </trkpt>
      <trkpt lat="46.87277" lon="-1.09915">
        <ele>86</ele>
        <time>2012-04-30T12:56:00Z</time>
      </trkpt>
      <trkpt lat="46.87248" lon="-1.09906">
        <ele>86</ele>
        <time>2012-04-30T12:56:05Z</time>
      </trkpt>
      <trkpt lat="46.87243" lon="-1.09905">
        <ele>86</ele>
        <time>2012-04-30T12:56:06Z</time>
      </trkpt>
      <trkpt lat="46.87237" lon="-1.09903">
        <ele>86</ele>
        <time>2012-04-30T12:56:07Z</time>
      </trkpt>
      <trkpt lat="46.87225" lon="-1.09899">
        <ele>86</ele>
        <time>2012-04-30T12:56:12Z</time>
      </trkpt>
      <trkpt lat="46.87201" lon="-1.09892">
        <ele>86</ele>
        <time>2012-04-30T12:56:13Z</time>
      </trkpt>
      <trkpt lat="46.87195" lon="-1.0989">
        <ele>86</ele>
        <time>2012-04-30T12:56:14Z</time>
      </trkpt>
      <trkpt lat="46.87183" lon="-1.09887">
        <ele>86</ele>
        <time>2012-04-30T12:56:19Z</time>
      </trkpt>
      <trkpt lat="46.87159" lon="-1.09879">
        <ele>86</ele>
        <time>2012-04-30T12:56:20Z</time>
      </trkpt>
      <trkpt lat="46.87153" lon="-1.09877">
        <ele>86</ele>
        <time>2012-04-30T12:56:21Z</time>
      </trkpt>
      <trkpt lat="46.87141" lon="-1.09873">
        <ele>86</ele>
        <time>2012-04-30T12:56:26Z</time>
      </trkpt>
      <trkpt lat="46.87117" lon="-1.09866">
        <ele>87</ele>
        <time>2012-04-30T12:56:27Z</time>
      </trkpt>
      <trkpt lat="46.87112" lon="-1.09864">
        <ele>87</ele>
        <time>2012-04-30T12:56:28Z</time>
      </trkpt>
      <trkpt lat="46.871" lon="-1.09861">
        <ele>87</ele>
        <time>2012-04-30T12:56:33Z</time>
      </trkpt>
      <trkpt lat="46.87076" lon="-1.09853">
        <ele>87</ele>
        <time>2012-04-30T12:56:34Z</time>
      </trkpt>
      <trkpt lat="46.8707" lon="-1.09851">
        <ele>87</ele>
        <time>2012-04-30T12:56:35Z</time>
      </trkpt>
      <trkpt lat="46.87057" lon="-1.09847">
        <ele>87</ele>
        <time>2012-04-30T12:56:40Z</time>
      </trkpt>
      <trkpt lat="46.87033" lon="-1.09839">
        <ele>87</ele>
        <time>2012-04-30T12:56:41Z</time>
      </trkpt>
      <trkpt lat="46.87027" lon="-1.09837">
        <ele>87</ele>
        <time>2012-04-30T12:56:42Z</time>
      </trkpt>
      <trkpt lat="46.87014" lon="-1.09833">
        <ele>87</ele>
        <time>2012-04-30T12:56:47Z</time>
      </trkpt>
      <trkpt lat="46.86991" lon="-1.09825">
        <ele>87</ele>
        <time>2012-04-30T12:56:48Z</time>
      </trkpt>
      <trkpt lat="46.86985" lon="-1.09823">
        <ele>87</ele>
        <time>2012-04-30T12:56:49Z</time>
      </trkpt>
      <trkpt lat="46.86973" lon="-1.09819">
        <ele>87</ele>
        <time>2012-04-30T12:56:54Z</time>
      </trkpt>
      <trkpt lat="46.86949" lon="-1.09811">
        <ele>87</ele>
        <time>2012-04-30T12:56:55Z</time>
      </trkpt>
      <trkpt lat="46.86943" lon="-1.09809">
        <ele>87</ele>
        <time>2012-04-30T12:56:56Z</time>
      </trkpt>
      <trkpt lat="46.86931" lon="-1.09806">
        <ele>87</ele>
        <time>2012-04-30T12:57:01Z</time>
      </trkpt>
      <trkpt lat="46.86907" lon="-1.09798">
        <ele>87</ele>
        <time>2012-04-30T12:57:02Z</time>
      </trkpt>
      <trkpt lat="46.86901" lon="-1.09796">
        <ele>87</ele>
        <time>2012-04-30T12:57:03Z</time>
      </trkpt>
      <trkpt lat="46.86889" lon="-1.09792">
        <ele>87</ele>
        <time>2012-04-30T12:57:08Z</time>
      </trkpt>
      <trkpt lat="46.86865" lon="-1.09785">
        <ele>87</ele>
        <time>2012-04-30T12:57:09Z</time>
      </trkpt>
      <trkpt lat="46.86859" lon="-1.09783">
        <ele>88</ele>
        <time>2012-04-30T12:57:10Z</time>
      </trkpt>
      <trkpt lat="46.86848" lon="-1.0978">
        <ele>88</ele>
        <time>2012-04-30T12:57:15Z</time>
      </trkpt>
      <trkpt lat="46.86824" lon="-1.09773">
        <ele>88</ele>
        <time>2012-04-30T12:57:16Z</time>
      </trkpt>
      <trkpt lat="46.86818" lon="-1.09771">
        <ele>88</ele>
        <time>2012-04-30T12:57:17Z</time>
      </trkpt>
      <trkpt lat="46.86806" lon="-1.09767">
        <ele>88</ele>
        <time>2012-04-30T12:57:22Z</time>
      </trkpt>
      <trkpt lat="46.86783" lon="-1.0976">
        <ele>88</ele>
        <time>2012-04-30T12:57:23Z</time>
      </trkpt>
      <trkpt lat="46.86777" lon="-1.09758">
        <ele>88</ele>
        <time>2012-04-30T12:57:24Z</time>
      </trkpt>
      <trkpt lat="46.86765" lon="-1.09754">
        <ele>88</ele>
        <time>2012-04-30T12:57:29Z</time>
      </trkpt>
      <trkpt lat="46.86738" lon="-1.09746">
        <ele>88</ele>
        <time>2012-04-30T12:57:30Z</time>
      </trkpt>
      <trkpt lat="46.86731" lon="-1.09744">
        <ele>88</ele>
        <time>2012-04-30T12:57:31Z</time>
      </trkpt>
      <trkpt lat="46.86717" lon="-1.09739">
        <ele>88</ele>
        <time>2012-04-30T12:57:36Z</time>
      </trkpt>
      <trkpt lat="46.86689" lon="-1.09731">
        <ele>88</ele>
        <time>2012-04-30T12:57:37Z</time>
      </trkpt>
      <trkpt lat="46.86682" lon="-1.09728">
        <ele>88</ele>
        <time>2012-04-30T12:57:38Z</time>
      </trkpt>
      <trkpt lat="46.86668" lon="-1.09724">
        <ele>88</ele>
        <time>2012-04-30T12:57:43Z</time>
      </trkpt>
      <trkpt lat="46.86639" lon="-1.09715">
        <ele>88</ele>
        <time>2012-04-30T12:57:44Z</time>
      </trkpt>
      <trkpt lat="46.86631" lon="-1.09712">
        <ele>88</ele>
        <time>2012-04-30T12:57:45Z</time>
      </trkpt>
      <trkpt lat="46.86616" lon="-1.09708">
        <ele>88</ele>
        <time>2012-04-30T12:57:50Z</time>
      </trkpt>
      <trkpt lat="46.86585" lon="-1.09698">
        <ele>88</ele>
        <time>2012-04-30T12:57:51Z</time>
      </trkpt>
      <trkpt lat="46.86577" lon="-1.09696">
        <ele>88</ele>
        <time>2012-04-30T12:57:52Z</time>
      </trkpt>
      <trkpt lat="46.86561" lon="-1.09691">
        <ele>87</ele>
        <time>2012-04-30T12:57:57Z</time>
      </trkpt>
      <trkpt lat="46.8653" lon="-1.09681">
        <ele>87</ele>
        <time>2012-04-30T12:57:58Z</time>
      </trkpt>
      <trkpt lat="46.86522" lon="-1.09679">
        <ele>86</ele>
        <time>2012-04-30T12:57:59Z</time>
      </trkpt>
      <trkpt lat="46.86507" lon="-1.09675">
        <ele>86</ele>
        <time>2012-04-30T12:58:04Z</time>
      </trkpt>
      <trkpt lat="46.86477" lon="-1.09666">
        <ele>86</ele>
        <time>2012-04-30T12:58:05Z</time>
      </trkpt>
      <trkpt lat="46.86469" lon="-1.09663">
        <ele>85</ele>
        <time>2012-04-30T12:58:06Z</time>
      </trkpt>
      <trkpt lat="46.86455" lon="-1.09659">
        <ele>85</ele>
        <time>2012-04-30T12:58:11Z</time>
      </trkpt>
      <trkpt lat="46.86425" lon="-1.0965">
        <ele>85</ele>
        <time>2012-04-30T12:58:12Z</time>
      </trkpt>
      <trkpt lat="46.86418" lon="-1.09648">
        <ele>84</ele>
        <time>2012-04-30T12:58:13Z</time>
      </trkpt>
      <trkpt lat="46.86403" lon="-1.09643">
        <ele>84</ele>
        <time>2012-04-30T12:58:18Z</time>
      </trkpt>
      <trkpt lat="46.86373" lon="-1.09633">
        <ele>84</ele>
        <time>2012-04-30T12:58:19Z</time>
      </trkpt>
      <trkpt lat="46.86366" lon="-1.09631">
        <ele>83</ele>
        <time>2012-04-30T12:58:20Z</time>
      </trkpt>
      <trkpt lat="46.86351" lon="-1.09626">
        <ele>83</ele>
        <time>2012-04-30T12:58:25Z</time>
      </trkpt>
      <trkpt lat="46.86322" lon="-1.09618">
        <ele>83</ele>
        <time>2012-04-30T12:58:26Z</time>
      </trkpt>
      <trkpt lat="46.86314" lon="-1.09615">
        <ele>83</ele>
        <time>2012-04-30T12:58:27Z</time>
      </trkpt>
      <trkpt lat="46.863" lon="-1.09611">
        <ele>82</ele>
        <time>2012-04-30T12:58:32Z</time>
      </trkpt>
      <trkpt lat="46.86275" lon="-1.09603">
        <ele>82</ele>
        <time>2012-04-30T12:58:33Z</time>
      </trkpt>
      <trkpt lat="46.86269" lon="-1.09601">
        <ele>82</ele>
        <time>2012-04-30T12:58:34Z</time>
      </trkpt>
      <trkpt lat="46.86256" lon="-1.09597">
        <ele>81</ele>
        <time>2012-04-30T12:58:39Z</time>
      </trkpt>
      <trkpt lat="46.86232" lon="-1.0959">
        <ele>81</ele>
        <time>2012-04-30T12:58:40Z</time>
      </trkpt>
      <trkpt lat="46.86228" lon="-1.09589">
        <ele>80</ele>
        <time>2012-04-30T12:58:41Z</time>
      </trkpt>
      <trkpt lat="46.8622" lon="-1.09589">
        <ele>80</ele>
        <time>2012-04-30T12:58:46Z</time>
      </trkpt>
      <trkpt lat="46.86208" lon="-1.09596">
        <ele>80</ele>
        <time>2012-04-30T12:58:47Z</time>
      </trkpt>
      <trkpt lat="46.86205" lon="-1.096">
        <ele>79</ele>
        <time>2012-04-30T12:58:49Z</time>
      </trkpt>
      <trkpt lat="46.86202" lon="-1.09605">
        <ele>79</ele>
        <time>2012-04-30T12:58:50Z</time>
      </trkpt>
      <trkpt lat="46.86186" lon="-1.09648">
        <ele>79</ele>
        <time>2012-04-30T12:58:55Z</time>
      </trkpt>
      <trkpt lat="46.86184" lon="-1.09657">
        <ele>79</ele>
        <time>2012-04-30T12:58:56Z</time>
      </trkpt>
      <trkpt lat="46.86182" lon="-1.09666">
        <ele>79</ele>
        <time>2012-04-30T12:58:58Z</time>
      </trkpt>
      <trkpt lat="46.86181" lon="-1.09682">
        <ele>79</ele>
        <time>2012-04-30T12:59:03Z</time>
      </trkpt>
      <trkpt lat="46.86179" lon="-1.09717">
        <ele>79</ele>
        <time>2012-04-30T12:59:03Z</time>
      </trkpt>
      <trkpt lat="46.86178" lon="-1.09725">
        <ele>79</ele>
        <time>2012-04-30T12:59:04Z</time>
      </trkpt>
      <trkpt lat="46.86177" lon="-1.09742">
        <ele>79</ele>
        <time>2012-04-30T12:59:10Z</time>
      </trkpt>
      <trkpt lat="46.86175" lon="-1.09774">
        <ele>79</ele>
        <time>2012-04-30T12:59:10Z</time>
      </trkpt>
      <trkpt lat="46.86173" lon="-1.09781">
        <ele>79</ele>
        <time>2012-04-30T12:59:11Z</time>
      </trkpt>
      <trkpt lat="46.86169" lon="-1.09794">
        <ele>79</ele>
        <time>2012-04-30T12:59:17Z</time>
      </trkpt>
      <trkpt lat="46.86156" lon="-1.09814">
        <ele>79</ele>
        <time>2012-04-30T12:59:17Z</time>
      </trkpt>
      <trkpt lat="46.86153" lon="-1.09818">
        <ele>79</ele>
        <time>2012-04-30T12:59:19Z</time>
      </trkpt>
      <trkpt lat="46.86149" lon="-1.09822">
        <ele>79</ele>
        <time>2012-04-30T12:59:20Z</time>
      </trkpt>
      <trkpt lat="46.86142" lon="-1.09829">
        <ele>79</ele>
        <time>2012-04-30T12:59:25Z</time>
      </trkpt>
      <trkpt lat="46.86126" lon="-1.09845">
        <ele>79</ele>
        <time>2012-04-30T12:59:25Z</time>
      </trkpt>
      <trkpt lat="46.86122" lon="-1.09849">
        <ele>80</ele>
        <time>2012-04-30T12:59:26Z</time>
      </trkpt>
      <trkpt lat="46.86115" lon="-1.09856">
        <ele>81</ele>
        <time>2012-04-30T12:59:32Z</time>
      </trkpt>
      <trkpt lat="46.861" lon="-1.09871">
        <ele>81</ele>
        <time>2012-04-30T12:59:32Z</time>
      </trkpt>
      <trkpt lat="46.86097" lon="-1.09874">
        <ele>82</ele>
        <time>2012-04-30T12:59:33Z</time>
      </trkpt>
      <trkpt lat="46.8609" lon="-1.09881">
        <ele>82</ele>
        <time>2012-04-30T12:59:39Z</time>
      </trkpt>
      <trkpt lat="46.86074" lon="-1.09898">
        <ele>83</ele>
        <time>2012-04-30T12:59:39Z</time>
      </trkpt>
      <trkpt lat="46.86071" lon="-1.09902">
        <ele>83</ele>
        <time>2012-04-30T12:59:40Z</time>
      </trkpt>
      <trkpt lat="46.86063" lon="-1.09911">
        <ele>83</ele>
        <time>2012-04-30T12:59:46Z</time>
      </trkpt>
      <trkpt lat="46.8605" lon="-1.09928">
        <ele>83</ele>
        <time>2012-04-30T12:59:46Z</time>
      </trkpt>
      <trkpt lat="46.86046" lon="-1.09932">
        <ele>84</ele>
        <time>2012-04-30T12:59:47Z</time>
      </trkpt>
      <trkpt lat="46.8602" lon="-1.0995">
        <ele>84</ele>
        <time>2012-04-30T12:59:53Z</time>
      </trkpt>
      <trkpt lat="46.86015" lon="-1.09952">
        <ele>84</ele>
        <time>2012-04-30T12:59:55Z</time>
      </trkpt>
      <trkpt lat="46.86011" lon="-1.09955">
        <ele>85</ele>
        <time>2012-04-30T12:59:55Z</time>
      </trkpt>
      <trkpt lat="46.86002" lon="-1.0996">
        <ele>85</ele>
        <time>2012-04-30T13:00:01Z</time>
      </trkpt>
      <trkpt lat="46.85983" lon="-1.0997">
        <ele>85</ele>
        <time>2012-04-30T13:00:01Z</time>
      </trkpt>
      <trkpt lat="46.85978" lon="-1.09973">
        <ele>85</ele>
        <time>2012-04-30T13:00:02Z</time>
      </trkpt>
      <trkpt lat="46.85969" lon="-1.09977">
        <ele>85</ele>
        <time>2012-04-30T13:00:08Z</time>
      </trkpt>
      <trkpt lat="46.85949" lon="-1.09985">
        <ele>85</ele>
        <time>2012-04-30T13:00:08Z</time>
      </trkpt>
      <trkpt lat="46.85944" lon="-1.09985">
        <ele>85</ele>
        <time>2012-04-30T13:00:09Z</time>
      </trkpt>
      <trkpt lat="46.85939" lon="-1.09986">
        <ele>85</ele>
        <time>2012-04-30T13:00:10Z</time>
      </trkpt>
      <trkpt lat="46.85929" lon="-1.09989">
        <ele>85</ele>
        <time>2012-04-30T13:00:15Z</time>
      </trkpt>
      <trkpt lat="46.85911" lon="-1.09995">
        <ele>85</ele>
        <time>2012-04-30T13:00:16Z</time>
      </trkpt>
      <trkpt lat="46.85906" lon="-1.09997">
        <ele>85</ele>
        <time>2012-04-30T13:00:17Z</time>
      </trkpt>
      <trkpt lat="46.85897" lon="-1.10002">
        <ele>85</ele>
        <time>2012-04-30T13:00:22Z</time>
      </trkpt>
      <trkpt lat="46.8588" lon="-1.10021">
        <ele>85</ele>
        <time>2012-04-30T13:00:23Z</time>
      </trkpt>
      <trkpt lat="46.85876" lon="-1.10027">
        <ele>85</ele>
        <time>2012-04-30T13:00:24Z</time>
      </trkpt>
      <trkpt lat="46.85872" lon="-1.10032">
        <ele>85</ele>
        <time>2012-04-30T13:00:25Z</time>
      </trkpt>
      <trkpt lat="46.85865" lon="-1.10043">
        <ele>85</ele>
        <time>2012-04-30T13:00:31Z</time>
      </trkpt>
      <trkpt lat="46.85852" lon="-1.10066">
        <ele>85</ele>
        <time>2012-04-30T13:00:31Z</time>
      </trkpt>
      <trkpt lat="46.85848" lon="-1.10072">
        <ele>85</ele>
        <time>2012-04-30T13:00:32Z</time>
      </trkpt>
      <trkpt lat="46.85841" lon="-1.10084">
        <ele>85</ele>
        <time>2012-04-30T13:00:38Z</time>
      </trkpt>
      <trkpt lat="46.85826" lon="-1.10105">
        <ele>85</ele>
        <time>2012-04-30T13:00:38Z</time>
      </trkpt>
      <trkpt lat="46.85821" lon="-1.10108">
        <ele>85</ele>
        <time>2012-04-30T13:00:40Z</time>
      </trkpt>
      <trkpt lat="46.85816" lon="-1.10111">
        <ele>85</ele>
        <time>2012-04-30T13:00:41Z</time>
      </trkpt>
      <trkpt lat="46.85806" lon="-1.10118">
        <ele>85</ele>
        <time>2012-04-30T13:00:46Z</time>
      </trkpt>
      <trkpt lat="46.85785" lon="-1.10131">
        <ele>85</ele>
        <time>2012-04-30T13:00:46Z</time>
      </trkpt>
      <trkpt lat="46.8578" lon="-1.10134">
        <ele>85</ele>
        <time>2012-04-30T13:00:47Z</time>
      </trkpt>
      <trkpt lat="46.85769" lon="-1.10141">
        <ele>85</ele>
        <time>2012-04-30T13:00:53Z</time>
      </trkpt>
      <trkpt lat="46.85748" lon="-1.10156">
        <ele>85</ele>
        <time>2012-04-30T13:00:53Z</time>
      </trkpt>
      <trkpt lat="46.85743" lon="-1.10159">
        <ele>86</ele>
        <time>2012-04-30T13:00:54Z</time>
      </trkpt>
      <trkpt lat="46.85732" lon="-1.10165">
        <ele>86</ele>
        <time>2012-04-30T13:01:00Z</time>
      </trkpt>
      <trkpt lat="46.85712" lon="-1.10177">
        <ele>86</ele>
        <time>2012-04-30T13:01:00Z</time>
      </trkpt>
      <trkpt lat="46.85707" lon="-1.10179">
        <ele>86</ele>
        <time>2012-04-30T13:01:01Z</time>
      </trkpt>
      <trkpt lat="46.85697" lon="-1.10184">
        <ele>86</ele>
        <time>2012-04-30T13:01:07Z</time>
      </trkpt>
      <trkpt lat="46.85676" lon="-1.10195">
        <ele>86</ele>
        <time>2012-04-30T13:01:07Z</time>
      </trkpt>
      <trkpt lat="46.8567" lon="-1.10197">
        <ele>86</ele>
        <time>2012-04-30T13:01:08Z</time>
      </trkpt>
      <trkpt lat="46.85638" lon="-1.1021">
        <ele>86</ele>
        <time>2012-04-30T13:01:14Z</time>
      </trkpt>
      <trkpt lat="46.85632" lon="-1.10213">
        <ele>86</ele>
        <time>2012-04-30T13:01:15Z</time>
      </trkpt>
      <trkpt lat="46.856" lon="-1.10226">
        <ele>86</ele>
        <time>2012-04-30T13:01:21Z</time>
      </trkpt>
      <trkpt lat="46.85594" lon="-1.10228">
        <ele>87</ele>
        <time>2012-04-30T13:01:22Z</time>
      </trkpt>
      <trkpt lat="46.85563" lon="-1.1024">
        <ele>87</ele>
        <time>2012-04-30T13:01:28Z</time>
      </trkpt>
      <trkpt lat="46.85557" lon="-1.10242">
        <ele>87</ele>
        <time>2012-04-30T13:01:29Z</time>
      </trkpt>
      <trkpt lat="46.85546" lon="-1.10246">
        <ele>87</ele>
        <time>2012-04-30T13:01:35Z</time>
      </trkpt>
      <trkpt lat="46.85517" lon="-1.10255">
        <ele>87</ele>
        <time>2012-04-30T13:01:36Z</time>
      </trkpt>
      <trkpt lat="46.85511" lon="-1.10257">
        <ele>87</ele>
        <time>2012-04-30T13:01:37Z</time>
      </trkpt>
      <trkpt lat="46.855" lon="-1.1026">
        <ele>87</ele>
        <time>2012-04-30T13:01:43Z</time>
      </trkpt>
      <trkpt lat="46.85479" lon="-1.10265">
        <ele>87</ele>
        <time>2012-04-30T13:01:43Z</time>
      </trkpt>
      <trkpt lat="46.85474" lon="-1.10266">
        <ele>87</ele>
        <time>2012-04-30T13:01:44Z</time>
      </trkpt>
      <trkpt lat="46.85464" lon="-1.10267">
        <ele>87</ele>
        <time>2012-04-30T13:01:50Z</time>
      </trkpt>
      <trkpt lat="46.85446" lon="-1.10269">
        <ele>87</ele>
        <time>2012-04-30T13:01:50Z</time>
      </trkpt>
      <trkpt lat="46.85442" lon="-1.10269">
        <ele>87</ele>
        <time>2012-04-30T13:01:51Z</time>
      </trkpt>
      <trkpt lat="46.85433" lon="-1.1027">
        <ele>87</ele>
        <time>2012-04-30T13:01:57Z</time>
      </trkpt>
      <trkpt lat="46.85417" lon="-1.10271">
        <ele>87</ele>
        <time>2012-04-30T13:01:57Z</time>
      </trkpt>
      <trkpt lat="46.85413" lon="-1.10272">
        <ele>87</ele>
        <time>2012-04-30T13:01:58Z</time>
      </trkpt>
      <trkpt lat="46.85404" lon="-1.10272">
        <ele>87</ele>
        <time>2012-04-30T13:02:04Z</time>
      </trkpt>
      <trkpt lat="46.85388" lon="-1.10273">
        <ele>88</ele>
        <time>2012-04-30T13:02:04Z</time>
      </trkpt>
      <trkpt lat="46.85384" lon="-1.10273">
        <ele>88</ele>
        <time>2012-04-30T13:02:05Z</time>
      </trkpt>
      <trkpt lat="46.85376" lon="-1.10274">
        <ele>88</ele>
        <time>2012-04-30T13:02:11Z</time>
      </trkpt>
      <trkpt lat="46.85358" lon="-1.10275">
        <ele>89</ele>
        <time>2012-04-30T13:02:11Z</time>
      </trkpt>
      <trkpt lat="46.85354" lon="-1.10275">
        <ele>89</ele>
        <time>2012-04-30T13:02:12Z</time>
      </trkpt>
      <trkpt lat="46.85345" lon="-1.10276">
        <ele>90</ele>
        <time>2012-04-30T13:02:18Z</time>
      </trkpt>
      <trkpt lat="46.85326" lon="-1.10277">
        <ele>91</ele>
        <time>2012-04-30T13:02:18Z</time>
      </trkpt>
      <trkpt lat="46.85321" lon="-1.10277">
        <ele>92</ele>
        <time>2012-04-30T13:02:19Z</time>
      </trkpt>
      <trkpt lat="46.8531" lon="-1.10278">
        <ele>92</ele>
        <time>2012-04-30T13:02:25Z</time>
      </trkpt>
      <trkpt lat="46.8529" lon="-1.1028">
        <ele>93</ele>
        <time>2012-04-30T13:02:25Z</time>
      </trkpt>
      <trkpt lat="46.85284" lon="-1.1028">
        <ele>94</ele>
        <time>2012-04-30T13:02:26Z</time>
      </trkpt>
      <trkpt lat="46.85272" lon="-1.10281">
        <ele>95</ele>
        <time>2012-04-30T13:02:32Z</time>
      </trkpt>
      <trkpt lat="46.85248" lon="-1.10282">
        <ele>95</ele>
        <time>2012-04-30T13:02:32Z</time>
      </trkpt>
      <trkpt lat="46.85242" lon="-1.10283">
        <ele>96</ele>
        <time>2012-04-30T13:02:33Z</time>
      </trkpt>
      <trkpt lat="46.8523" lon="-1.10283">
        <ele>96</ele>
        <time>2012-04-30T13:02:39Z</time>
      </trkpt>
      <trkpt lat="46.85197" lon="-1.10286">
        <ele>96</ele>
        <time>2012-04-30T13:02:40Z</time>
      </trkpt>
      <trkpt lat="46.85191" lon="-1.10286">
        <ele>96</ele>
        <time>2012-04-30T13:02:41Z</time>
      </trkpt>
      <trkpt lat="46.85177" lon="-1.10287">
        <ele>96</ele>
        <time>2012-04-30T13:02:46Z</time>
      </trkpt>
      <trkpt lat="46.8515" lon="-1.10289">
        <ele>96</ele>
        <time>2012-04-30T13:02:47Z</time>
      </trkpt>
      <trkpt lat="46.85143" lon="-1.1029">
        <ele>96</ele>
        <time>2012-04-30T13:02:48Z</time>
      </trkpt>
      <trkpt lat="46.85129" lon="-1.10292">
        <ele>96</ele>
        <time>2012-04-30T13:02:54Z</time>
      </trkpt>
      <trkpt lat="46.85101" lon="-1.10294">
        <ele>96</ele>
        <time>2012-04-30T13:02:54Z</time>
      </trkpt>
      <trkpt lat="46.85093" lon="-1.10294">
        <ele>96</ele>
        <time>2012-04-30T13:02:55Z</time>
      </trkpt>
      <trkpt lat="46.85079" lon="-1.10295">
        <ele>96</ele>
        <time>2012-04-30T13:03:01Z</time>
      </trkpt>
      <trkpt lat="46.85052" lon="-1.10298">
        <ele>96</ele>
        <time>2012-04-30T13:03:01Z</time>
      </trkpt>
      <trkpt lat="46.85046" lon="-1.10299">
        <ele>96</ele>
        <time>2012-04-30T13:03:02Z</time>
      </trkpt>
      <trkpt lat="46.85032" lon="-1.103">
        <ele>96</ele>
        <time>2012-04-30T13:03:08Z</time>
      </trkpt>
      <trkpt lat="46.85006" lon="-1.10302">
        <ele>96</ele>
        <time>2012-04-30T13:03:08Z</time>
      </trkpt>
      <trkpt lat="46.84999" lon="-1.10303">
        <ele>96</ele>
        <time>2012-04-30T13:03:09Z</time>
      </trkpt>
      <trkpt lat="46.84986" lon="-1.10304">
        <ele>96</ele>
        <time>2012-04-30T13:03:15Z</time>
      </trkpt>
      <trkpt lat="46.84959" lon="-1.10308">
        <ele>96</ele>
        <time>2012-04-30T13:03:15Z</time>
      </trkpt>
      <trkpt lat="46.84953" lon="-1.10309">
        <ele>96</ele>
        <time>2012-04-30T13:03:16Z</time>
      </trkpt>
      <trkpt lat="46.84939" lon="-1.10312">
        <ele>96</ele>
        <time>2012-04-30T13:03:22Z</time>
      </trkpt>
      <trkpt lat="46.84913" lon="-1.10322">
        <ele>96</ele>
        <time>2012-04-30T13:03:22Z</time>
      </trkpt>
      <trkpt lat="46.84907" lon="-1.10325">
        <ele>96</ele>
        <time>2012-04-30T13:03:23Z</time>
      </trkpt>
      <trkpt lat="46.84894" lon="-1.10331">
        <ele>96</ele>
        <time>2012-04-30T13:03:29Z</time>
      </trkpt>
      <trkpt lat="46.84867" lon="-1.10344">
        <ele>96</ele>
        <time>2012-04-30T13:03:29Z</time>
      </trkpt>
      <trkpt lat="46.84861" lon="-1.10347">
        <ele>96</ele>
        <time>2012-04-30T13:03:30Z</time>
      </trkpt>
      <trkpt lat="46.84818" lon="-1.10366">
        <ele>96</ele>
        <time>2012-04-30T13:03:36Z</time>
      </trkpt>
      <trkpt lat="46.84811" lon="-1.10369">
        <ele>96</ele>
        <time>2012-04-30T13:03:37Z</time>
      </trkpt>
      <trkpt lat="46.84804" lon="-1.10372">
        <ele>96</ele>
        <time>2012-04-30T13:03:38Z</time>
      </trkpt>
      <trkpt lat="46.8479" lon="-1.10379">
        <ele>96</ele>
        <time>2012-04-30T13:03:44Z</time>
      </trkpt>
      <trkpt lat="46.8476" lon="-1.10391">
        <ele>95</ele>
        <time>2012-04-30T13:03:44Z</time>
      </trkpt>
      <trkpt lat="46.84753" lon="-1.10394">
        <ele>95</ele>
        <time>2012-04-30T13:03:45Z</time>
      </trkpt>
      <trkpt lat="46.84737" lon="-1.10399">
        <ele>94</ele>
        <time>2012-04-30T13:03:51Z</time>
      </trkpt>
      <trkpt lat="46.84707" lon="-1.10409">
        <ele>93</ele>
        <time>2012-04-30T13:03:51Z</time>
      </trkpt>
      <trkpt lat="46.847" lon="-1.10412">
        <ele>93</ele>
        <time>2012-04-30T13:03:52Z</time>
      </trkpt>
      <trkpt lat="46.84685" lon="-1.10416">
        <ele>93</ele>
        <time>2012-04-30T13:03:58Z</time>
      </trkpt>
      <trkpt lat="46.84656" lon="-1.10425">
        <ele>92</ele>
        <time>2012-04-30T13:03:58Z</time>
      </trkpt>
      <trkpt lat="46.84649" lon="-1.10427">
        <ele>92</ele>
        <time>2012-04-30T13:03:59Z</time>
      </trkpt>
      <trkpt lat="46.84635" lon="-1.10431">
        <ele>91</ele>
        <time>2012-04-30T13:04:05Z</time>
      </trkpt>
      <trkpt lat="46.84605" lon="-1.10439">
        <ele>91</ele>
        <time>2012-04-30T13:04:05Z</time>
      </trkpt>
      <trkpt lat="46.84597" lon="-1.10441">
        <ele>91</ele>
        <time>2012-04-30T13:04:06Z</time>
      </trkpt>
      <trkpt lat="46.84555" lon="-1.10452">
        <ele>91</ele>
        <time>2012-04-30T13:04:12Z</time>
      </trkpt>
      <trkpt lat="46.84548" lon="-1.10454">
        <ele>91</ele>
        <time>2012-04-30T13:04:13Z</time>
      </trkpt>
      <trkpt lat="46.84541" lon="-1.10456">
        <ele>91</ele>
        <time>2012-04-30T13:04:14Z</time>
      </trkpt>
      <trkpt lat="46.84527" lon="-1.1046">
        <ele>91</ele>
        <time>2012-04-30T13:04:20Z</time>
      </trkpt>
      <trkpt lat="46.84501" lon="-1.10471">
        <ele>91</ele>
        <time>2012-04-30T13:04:20Z</time>
      </trkpt>
      <trkpt lat="46.84494" lon="-1.10474">
        <ele>91</ele>
        <time>2012-04-30T13:04:21Z</time>
      </trkpt>
      <trkpt lat="46.84481" lon="-1.1048">
        <ele>91</ele>
        <time>2012-04-30T13:04:27Z</time>
      </trkpt>
      <trkpt lat="46.84456" lon="-1.10497">
        <ele>91</ele>
        <time>2012-04-30T13:04:27Z</time>
      </trkpt>
      <trkpt lat="46.8445" lon="-1.10501">
        <ele>91</ele>
        <time>2012-04-30T13:04:28Z</time>
      </trkpt>
      <trkpt lat="46.84438" lon="-1.1051">
        <ele>91</ele>
        <time>2012-04-30T13:04:34Z</time>
      </trkpt>
      <trkpt lat="46.84416" lon="-1.10529">
        <ele>91</ele>
        <time>2012-04-30T13:04:34Z</time>
      </trkpt>
      <trkpt lat="46.8441" lon="-1.10534">
        <ele>91</ele>
        <time>2012-04-30T13:04:35Z</time>
      </trkpt>
      <trkpt lat="46.844" lon="-1.10544">
        <ele>91</ele>
        <time>2012-04-30T13:04:41Z</time>
      </trkpt>
      <trkpt lat="46.84378" lon="-1.10562">
        <ele>91</ele>
        <time>2012-04-30T13:04:41Z</time>
      </trkpt>
      <trkpt lat="46.84372" lon="-1.10567">
        <ele>91</ele>
        <time>2012-04-30T13:04:42Z</time>
      </trkpt>
      <trkpt lat="46.84339" lon="-1.10596">
        <ele>91</ele>
        <time>2012-04-30T13:04:48Z</time>
      </trkpt>
      <trkpt lat="46.84333" lon="-1.10601">
        <ele>91</ele>
        <time>2012-04-30T13:04:49Z</time>
      </trkpt>
      <trkpt lat="46.84322" lon="-1.10611">
        <ele>91</ele>
        <time>2012-04-30T13:04:55Z</time>
      </trkpt>
      <trkpt lat="46.84295" lon="-1.10635">
        <ele>91</ele>
        <time>2012-04-30T13:04:56Z</time>
      </trkpt>
      <trkpt lat="46.8429" lon="-1.10639">
        <ele>92</ele>
        <time>2012-04-30T13:04:57Z</time>
      </trkpt>
      <trkpt lat="46.84278" lon="-1.10649">
        <ele>92</ele>
        <time>2012-04-30T13:05:03Z</time>
      </trkpt>
      <trkpt lat="46.84256" lon="-1.10668">
        <ele>93</ele>
        <time>2012-04-30T13:05:03Z</time>
      </trkpt>
      <trkpt lat="46.8425" lon="-1.10673">
        <ele>93</ele>
        <time>2012-04-30T13:05:04Z</time>
      </trkpt>
      <trkpt lat="46.84238" lon="-1.10683">
        <ele>93</ele>
        <time>2012-04-30T13:05:10Z</time>
      </trkpt>
      <trkpt lat="46.84215" lon="-1.10703">
        <ele>93</ele>
        <time>2012-04-30T13:05:10Z</time>
      </trkpt>
      <trkpt lat="46.84209" lon="-1.10708">
        <ele>94</ele>
        <time>2012-04-30T13:05:11Z</time>
      </trkpt>
      <trkpt lat="46.84196" lon="-1.10719">
        <ele>94</ele>
        <time>2012-04-30T13:05:17Z</time>
      </trkpt>
      <trkpt lat="46.84173" lon="-1.10739">
        <ele>94</ele>
        <time>2012-04-30T13:05:17Z</time>
      </trkpt>
      <trkpt lat="46.84167" lon="-1.10744">
        <ele>94</ele>
        <time>2012-04-30T13:05:18Z</time>
      </trkpt>
      <trkpt lat="46.84132" lon="-1.10774">
        <ele>94</ele>
        <time>2012-04-30T13:05:24Z</time>
      </trkpt>
      <trkpt lat="46.84127" lon="-1.10779">
        <ele>94</ele>
        <time>2012-04-30T13:05:25Z</time>
      </trkpt>
      <trkpt lat="46.84115" lon="-1.1079">
        <ele>94</ele>
        <time>2012-04-30T13:05:31Z</time>
      </trkpt>
      <trkpt lat="46.84085" lon="-1.10817">
        <ele>94</ele>
        <time>2012-04-30T13:05:32Z</time>
      </trkpt>
      <trkpt lat="46.84078" lon="-1.10822">
        <ele>94</ele>
        <time>2012-04-30T13:05:33Z</time>
      </trkpt>
      <trkpt lat="46.84066" lon="-1.10834">
        <ele>94</ele>
        <time>2012-04-30T13:05:39Z</time>
      </trkpt>
      <trkpt lat="46.84041" lon="-1.10856">
        <ele>94</ele>
        <time>2012-04-30T13:05:39Z</time>
      </trkpt>
      <trkpt lat="46.84034" lon="-1.10861">
        <ele>94</ele>
        <time>2012-04-30T13:05:40Z</time>
      </trkpt>
      <trkpt lat="46.84022" lon="-1.10872">
        <ele>94</ele>
        <time>2012-04-30T13:05:46Z</time>
      </trkpt>
      <trkpt lat="46.83997" lon="-1.10894">
        <ele>94</ele>
        <time>2012-04-30T13:05:46Z</time>
      </trkpt>
      <trkpt lat="46.83991" lon="-1.109">
        <ele>94</ele>
        <time>2012-04-30T13:05:47Z</time>
      </trkpt>
      <trkpt lat="46.83978" lon="-1.10911">
        <ele>94</ele>
        <time>2012-04-30T13:05:53Z</time>
      </trkpt>
      <trkpt lat="46.83952" lon="-1.10936">
        <ele>94</ele>
        <time>2012-04-30T13:05:53Z</time>
      </trkpt>
      <trkpt lat="46.83946" lon="-1.10942">
        <ele>94</ele>
        <time>2012-04-30T13:05:54Z</time>
      </trkpt>
      <trkpt lat="46.8391" lon="-1.10985">
        <ele>94</ele>
        <time>2012-04-30T13:06:00Z</time>
      </trkpt>
      <trkpt lat="46.83904" lon="-1.10992">
        <ele>94</ele>
        <time>2012-04-30T13:06:01Z</time>
      </trkpt>
      <trkpt lat="46.83899" lon="-1.11">
        <ele>93</ele>
        <time>2012-04-30T13:06:02Z</time>
      </trkpt>
      <trkpt lat="46.83887" lon="-1.11014">
        <ele>93</ele>
        <time>2012-04-30T13:06:08Z</time>
      </trkpt>
      <trkpt lat="46.83864" lon="-1.11043">
        <ele>93</ele>
        <time>2012-04-30T13:06:08Z</time>
      </trkpt>
      <trkpt lat="46.83858" lon="-1.11051">
        <ele>92</ele>
        <time>2012-04-30T13:06:09Z</time>
      </trkpt>
      <trkpt lat="46.83847" lon="-1.11065">
        <ele>92</ele>
        <time>2012-04-30T13:06:15Z</time>
      </trkpt>
      <trkpt lat="46.83824" lon="-1.11094">
        <ele>92</ele>
        <time>2012-04-30T13:06:15Z</time>
      </trkpt>
      <trkpt lat="46.83818" lon="-1.11101">
        <ele>92</ele>
        <time>2012-04-30T13:06:16Z</time>
      </trkpt>
      <trkpt lat="46.83785" lon="-1.11143">
        <ele>92</ele>
        <time>2012-04-30T13:06:22Z</time>
      </trkpt>
      <trkpt lat="46.8378" lon="-1.1115">
        <ele>92</ele>
        <time>2012-04-30T13:06:23Z</time>
      </trkpt>
      <trkpt lat="46.83768" lon="-1.11163">
        <ele>92</ele>
        <time>2012-04-30T13:06:29Z</time>
      </trkpt>
      <trkpt lat="46.83741" lon="-1.11197">
        <ele>92</ele>
        <time>2012-04-30T13:06:30Z</time>
      </trkpt>
      <trkpt lat="46.83736" lon="-1.11204">
        <ele>92</ele>
        <time>2012-04-30T13:06:31Z</time>
      </trkpt>
      <trkpt lat="46.83726" lon="-1.11217">
        <ele>92</ele>
        <time>2012-04-30T13:06:37Z</time>
      </trkpt>
      <trkpt lat="46.83706" lon="-1.11242">
        <ele>92</ele>
        <time>2012-04-30T13:06:37Z</time>
      </trkpt>
      <trkpt lat="46.83701" lon="-1.11248">
        <ele>92</ele>
        <time>2012-04-30T13:06:38Z</time>
      </trkpt>
      <trkpt lat="46.83691" lon="-1.1126">
        <ele>92</ele>
        <time>2012-04-30T13:06:44Z</time>
      </trkpt>
      <trkpt lat="46.83673" lon="-1.11282">
        <ele>92</ele>
        <time>2012-04-30T13:06:44Z</time>
      </trkpt>
      <trkpt lat="46.83669" lon="-1.11288">
        <ele>92</ele>
        <time>2012-04-30T13:06:45Z</time>
      </trkpt>
      <trkpt lat="46.83641" lon="-1.11322">
        <ele>92</ele>
        <time>2012-04-30T13:06:51Z</time>
      </trkpt>
      <trkpt lat="46.83636" lon="-1.11328">
        <ele>92</ele>
        <time>2012-04-30T13:06:52Z</time>
      </trkpt>
      <trkpt lat="46.83627" lon="-1.1134">
        <ele>92</ele>
        <time>2012-04-30T13:06:58Z</time>
      </trkpt>
      <trkpt lat="46.83604" lon="-1.11369">
        <ele>92</ele>
        <time>2012-04-30T13:06:59Z</time>
      </trkpt>
      <trkpt lat="46.83599" lon="-1.11374">
        <ele>92</ele>
        <time>2012-04-30T13:07:00Z</time>
      </trkpt>
      <trkpt lat="46.8359" lon="-1.11386">
        <ele>92</ele>
        <time>2012-04-30T13:07:06Z</time>
      </trkpt>
      <trkpt lat="46.83573" lon="-1.11408">
        <ele>92</ele>
        <time>2012-04-30T13:07:06Z</time>
      </trkpt>
      <trkpt lat="46.83569" lon="-1.11414">
        <ele>92</ele>
        <time>2012-04-30T13:07:07Z</time>
      </trkpt>
      <trkpt lat="46.8356" lon="-1.11426">
        <ele>92</ele>
        <time>2012-04-30T13:07:13Z</time>
      </trkpt>
      <trkpt lat="46.83544" lon="-1.11454">
        <ele>92</ele>
        <time>2012-04-30T13:07:13Z</time>
      </trkpt>
      <trkpt lat="46.8354" lon="-1.11461">
        <ele>92</ele>
        <time>2012-04-30T13:07:14Z</time>
      </trkpt>
      <trkpt lat="46.8352" lon="-1.11505">
        <ele>92</ele>
        <time>2012-04-30T13:07:20Z</time>
      </trkpt>
      <trkpt lat="46.83517" lon="-1.11512">
        <ele>92</ele>
        <time>2012-04-30T13:07:21Z</time>
      </trkpt>
      <trkpt lat="46.83511" lon="-1.11527">
        <ele>93</ele>
        <time>2012-04-30T13:07:27Z</time>
      </trkpt>
      <trkpt lat="46.83495" lon="-1.11564">
        <ele>93</ele>
        <time>2012-04-30T13:07:28Z</time>
      </trkpt>
      <trkpt lat="46.83492" lon="-1.11571">
        <ele>94</ele>
        <time>2012-04-30T13:07:29Z</time>
      </trkpt>
      <trkpt lat="46.83485" lon="-1.11586">
        <ele>94</ele>
        <time>2012-04-30T13:07:35Z</time>
      </trkpt>
      <trkpt lat="46.83473" lon="-1.11616">
        <ele>95</ele>
        <time>2012-04-30T13:07:35Z</time>
      </trkpt>
      <trkpt lat="46.83469" lon="-1.11624">
        <ele>96</ele>
        <time>2012-04-30T13:07:36Z</time>
      </trkpt>
      <trkpt lat="46.83463" lon="-1.11638">
        <ele>96</ele>
        <time>2012-04-30T13:07:42Z</time>
      </trkpt>
      <trkpt lat="46.8345" lon="-1.11668">
        <ele>97</ele>
        <time>2012-04-30T13:07:42Z</time>
      </trkpt>
      <trkpt lat="46.83447" lon="-1.11676">
        <ele>97</ele>
        <time>2012-04-30T13:07:43Z</time>
      </trkpt>
      <trkpt lat="46.83428" lon="-1.1172">
        <ele>98</ele>
        <time>2012-04-30T13:07:49Z</time>
      </trkpt>
      <trkpt lat="46.83424" lon="-1.11728">
        <ele>98</ele>
        <time>2012-04-30T13:07:50Z</time>
      </trkpt>
      <trkpt lat="46.83421" lon="-1.11735">
        <ele>99</ele>
        <time>2012-04-30T13:07:51Z</time>
      </trkpt>
      <trkpt lat="46.83415" lon="-1.1175">
        <ele>99</ele>
        <time>2012-04-30T13:07:57Z</time>
      </trkpt>
      <trkpt lat="46.83401" lon="-1.11781">
        <ele>100</ele>
        <time>2012-04-30T13:07:57Z</time>
      </trkpt>
      <trkpt lat="46.83398" lon="-1.11789">
        <ele>100</ele>
        <time>2012-04-30T13:07:58Z</time>
      </trkpt>
      <trkpt lat="46.83391" lon="-1.11804">
        <ele>100</ele>
        <time>2012-04-30T13:08:04Z</time>
      </trkpt>
      <trkpt lat="46.83378" lon="-1.11836">
        <ele>100</ele>
        <time>2012-04-30T13:08:04Z</time>
      </trkpt>
      <trkpt lat="46.83374" lon="-1.11844">
        <ele>101</ele>
        <time>2012-04-30T13:08:05Z</time>
      </trkpt>
      <trkpt lat="46.83353" lon="-1.1189">
        <ele>101</ele>
        <time>2012-04-30T13:08:11Z</time>
      </trkpt>
      <trkpt lat="46.83349" lon="-1.11897">
        <ele>101</ele>
        <time>2012-04-30T13:08:12Z</time>
      </trkpt>
      <trkpt lat="46.83345" lon="-1.11905">
        <ele>101</ele>
        <time>2012-04-30T13:08:13Z</time>
      </trkpt>
      <trkpt lat="46.83336" lon="-1.11919">
        <ele>102</ele>
        <time>2012-04-30T13:08:19Z</time>
      </trkpt>
      <trkpt lat="46.8332" lon="-1.11945">
        <ele>102</ele>
        <time>2012-04-30T13:08:19Z</time>
      </trkpt>
      <trkpt lat="46.83315" lon="-1.11952">
        <ele>102</ele>
        <time>2012-04-30T13:08:20Z</time>
      </trkpt>
      <trkpt lat="46.83305" lon="-1.11965">
        <ele>102</ele>
        <time>2012-04-30T13:08:26Z</time>
      </trkpt>
      <trkpt lat="46.83284" lon="-1.11987">
        <ele>102</ele>
        <time>2012-04-30T13:08:26Z</time>
      </trkpt>
      <trkpt lat="46.83279" lon="-1.11992">
        <ele>102</ele>
        <time>2012-04-30T13:08:27Z</time>
      </trkpt>
      <trkpt lat="46.83267" lon="-1.12002">
        <ele>101</ele>
        <time>2012-04-30T13:08:33Z</time>
      </trkpt>
      <trkpt lat="46.83237" lon="-1.12023">
        <ele>100</ele>
        <time>2012-04-30T13:08:34Z</time>
      </trkpt>
      <trkpt lat="46.83231" lon="-1.12027">
        <ele>99</ele>
        <time>2012-04-30T13:08:35Z</time>
      </trkpt>
      <trkpt lat="46.83218" lon="-1.12035">
        <ele>98</ele>
        <time>2012-04-30T13:08:41Z</time>
      </trkpt>
      <trkpt lat="46.83192" lon="-1.12051">
        <ele>97</ele>
        <time>2012-04-30T13:08:41Z</time>
      </trkpt>
      <trkpt lat="46.83187" lon="-1.12055">
        <ele>96</ele>
        <time>2012-04-30T13:08:42Z</time>
      </trkpt>
      <trkpt lat="46.83174" lon="-1.12064">
        <ele>95</ele>
        <time>2012-04-30T13:08:48Z</time>
      </trkpt>
      <trkpt lat="46.83151" lon="-1.12083">
        <ele>95</ele>
        <time>2012-04-30T13:08:48Z</time>
      </trkpt>
      <trkpt lat="46.83146" lon="-1.12089">
        <ele>94</ele>
        <time>2012-04-30T13:08:49Z</time>
      </trkpt>
      <trkpt lat="46.83134" lon="-1.121">
        <ele>94</ele>
        <time>2012-04-30T13:08:55Z</time>
      </trkpt>
      <trkpt lat="46.83107" lon="-1.12128">
        <ele>93</ele>
        <time>2012-04-30T13:08:56Z</time>
      </trkpt>
      <trkpt lat="46.83101" lon="-1.12134">
        <ele>93</ele>
        <time>2012-04-30T13:08:57Z</time>
      </trkpt>
      <trkpt lat="46.8309" lon="-1.12145">
        <ele>93</ele>
        <time>2012-04-30T13:09:03Z</time>
      </trkpt>
      <trkpt lat="46.83067" lon="-1.12169">
        <ele>93</ele>
        <time>2012-04-30T13:09:03Z</time>
      </trkpt>
      <trkpt lat="46.83061" lon="-1.12175">
        <ele>93</ele>
        <time>2012-04-30T13:09:04Z</time>
      </trkpt>
      <trkpt lat="46.83049" lon="-1.12187">
        <ele>93</ele>
        <time>2012-04-30T13:09:10Z</time>
      </trkpt>
      <trkpt lat="46.83025" lon="-1.12212">
        <ele>93</ele>
        <time>2012-04-30T13:09:10Z</time>
      </trkpt>
      <trkpt lat="46.83019" lon="-1.12218">
        <ele>93</ele>
        <time>2012-04-30T13:09:11Z</time>
      </trkpt>
      <trkpt lat="46.83006" lon="-1.1223">
        <ele>93</ele>
        <time>2012-04-30T13:09:17Z</time>
      </trkpt>
      <trkpt lat="46.82975" lon="-1.1226">
        <ele>92</ele>
        <time>2012-04-30T13:09:18Z</time>
      </trkpt>
      <trkpt lat="46.82968" lon="-1.12267">
        <ele>91</ele>
        <time>2012-04-30T13:09:19Z</time>
      </trkpt>
      <trkpt lat="46.82955" lon="-1.1228">
        <ele>91</ele>
        <time>2012-04-30T13:09:25Z</time>
      </trkpt>
      <trkpt lat="46.82928" lon="-1.12308">
        <ele>90</ele>
        <time>2012-04-30T13:09:25Z</time>
      </trkpt>
      <trkpt lat="46.82921" lon="-1.12315">
        <ele>90</ele>
        <time>2012-04-30T13:09:26Z</time>
      </trkpt>
      <trkpt lat="46.82877" lon="-1.12357">
        <ele>89</ele>
        <time>2012-04-30T13:09:32Z</time>
      </trkpt>
      <trkpt lat="46.8287" lon="-1.12364">
        <ele>89</ele>
        <time>2012-04-30T13:09:33Z</time>
      </trkpt>
      <trkpt lat="46.82856" lon="-1.12378">
        <ele>88</ele>
        <time>2012-04-30T13:09:39Z</time>
      </trkpt>
      <trkpt lat="46.82822" lon="-1.12405">
        <ele>87</ele>
        <time>2012-04-30T13:09:40Z</time>
      </trkpt>
      <trkpt lat="46.82814" lon="-1.1241">
        <ele>86</ele>
        <time>2012-04-30T13:09:41Z</time>
      </trkpt>
      <trkpt lat="46.828" lon="-1.12418">
        <ele>85</ele>
        <time>2012-04-30T13:09:47Z</time>
      </trkpt>
      <trkpt lat="46.82771" lon="-1.12434">
        <ele>84</ele>
        <time>2012-04-30T13:09:47Z</time>
      </trkpt>
      <trkpt lat="46.82765" lon="-1.12439">
        <ele>83</ele>
        <time>2012-04-30T13:09:48Z</time>
      </trkpt>
      <trkpt lat="46.82727" lon="-1.12462">
        <ele>82</ele>
        <time>2012-04-30T13:09:54Z</time>
      </trkpt>
      <trkpt lat="46.82721" lon="-1.12465">
        <ele>81</ele>
        <time>2012-04-30T13:09:55Z</time>
      </trkpt>
      <trkpt lat="46.82709" lon="-1.12471">
        <ele>80</ele>
        <time>2012-04-30T13:10:01Z</time>
      </trkpt>
      <trkpt lat="46.82683" lon="-1.12475">
        <ele>79</ele>
        <time>2012-04-30T13:10:02Z</time>
      </trkpt>
      <trkpt lat="46.82678" lon="-1.12478">
        <ele>78</ele>
        <time>2012-04-30T13:10:03Z</time>
      </trkpt>
      <trkpt lat="46.82669" lon="-1.12486">
        <ele>78</ele>
        <time>2012-04-30T13:10:09Z</time>
      </trkpt>
      <trkpt lat="46.82649" lon="-1.12499">
        <ele>78</ele>
        <time>2012-04-30T13:10:09Z</time>
      </trkpt>
      <trkpt lat="46.82643" lon="-1.12502">
        <ele>78</ele>
        <time>2012-04-30T13:10:10Z</time>
      </trkpt>
      <trkpt lat="46.82638" lon="-1.12505">
        <ele>78</ele>
        <time>2012-04-30T13:10:12Z</time>
      </trkpt>
      <trkpt lat="46.82605" lon="-1.12523">
        <ele>78</ele>
        <time>2012-04-30T13:10:17Z</time>
      </trkpt>
      <trkpt lat="46.826" lon="-1.12526">
        <ele>78</ele>
        <time>2012-04-30T13:10:18Z</time>
      </trkpt>
      <trkpt lat="46.82589" lon="-1.12532">
        <ele>78</ele>
        <time>2012-04-30T13:10:24Z</time>
      </trkpt>
      <trkpt lat="46.82565" lon="-1.12555">
        <ele>78</ele>
        <time>2012-04-30T13:10:25Z</time>
      </trkpt>
      <trkpt lat="46.8256" lon="-1.1256">
        <ele>78</ele>
        <time>2012-04-30T13:10:26Z</time>
      </trkpt>
      <trkpt lat="46.82556" lon="-1.12566">
        <ele>78</ele>
        <time>2012-04-30T13:10:27Z</time>
      </trkpt>
      <trkpt lat="46.82546" lon="-1.12576">
        <ele>78</ele>
        <time>2012-04-30T13:10:33Z</time>
      </trkpt>
      <trkpt lat="46.82526" lon="-1.12598">
        <ele>78</ele>
        <time>2012-04-30T13:10:33Z</time>
      </trkpt>
      <trkpt lat="46.82521" lon="-1.12603">
        <ele>78</ele>
        <time>2012-04-30T13:10:34Z</time>
      </trkpt>
      <trkpt lat="46.82489" lon="-1.12636">
        <ele>78</ele>
        <time>2012-04-30T13:10:40Z</time>
      </trkpt>
      <trkpt lat="46.82484" lon="-1.12641">
        <ele>78</ele>
        <time>2012-04-30T13:10:41Z</time>
      </trkpt>
      <trkpt lat="46.8248" lon="-1.12647">
        <ele>78</ele>
        <time>2012-04-30T13:10:42Z</time>
      </trkpt>
      <trkpt lat="46.82473" lon="-1.12662">
        <ele>78</ele>
        <time>2012-04-30T13:10:48Z</time>
      </trkpt>
      <trkpt lat="46.8247" lon="-1.12697">
        <ele>79</ele>
        <time>2012-04-30T13:10:48Z</time>
      </trkpt>
      <trkpt lat="46.82471" lon="-1.12705">
        <ele>80</ele>
        <time>2012-04-30T13:10:49Z</time>
      </trkpt>
      <trkpt lat="46.82471" lon="-1.12714">
        <ele>81</ele>
        <time>2012-04-30T13:10:50Z</time>
      </trkpt>
      <trkpt lat="46.82473" lon="-1.12732">
        <ele>82</ele>
        <time>2012-04-30T13:10:56Z</time>
      </trkpt>
      <trkpt lat="46.82472" lon="-1.12769">
        <ele>83</ele>
        <time>2012-04-30T13:10:56Z</time>
      </trkpt>
      <trkpt lat="46.82471" lon="-1.12779">
        <ele>84</ele>
        <time>2012-04-30T13:10:57Z</time>
      </trkpt>
      <trkpt lat="46.82468" lon="-1.12789">
        <ele>84</ele>
        <time>2012-04-30T13:10:58Z</time>
      </trkpt>
      <trkpt lat="46.82462" lon="-1.12806">
        <ele>84</ele>
        <time>2012-04-30T13:11:04Z</time>
      </trkpt>
      <trkpt lat="46.82449" lon="-1.12838">
        <ele>84</ele>
        <time>2012-04-30T13:11:04Z</time>
      </trkpt>
      <trkpt lat="46.82446" lon="-1.12847">
        <ele>85</ele>
        <time>2012-04-30T13:11:05Z</time>
      </trkpt>
      <trkpt lat="46.8244" lon="-1.12902">
        <ele>85</ele>
        <time>2012-04-30T13:11:11Z</time>
      </trkpt>
      <trkpt lat="46.82441" lon="-1.12912">
        <ele>85</ele>
        <time>2012-04-30T13:11:13Z</time>
      </trkpt>
      <trkpt lat="46.82441" lon="-1.12921">
        <ele>85</ele>
        <time>2012-04-30T13:11:13Z</time>
      </trkpt>
      <trkpt lat="46.82442" lon="-1.1294">
        <ele>85</ele>
        <time>2012-04-30T13:11:19Z</time>
      </trkpt>
      <trkpt lat="46.82449" lon="-1.12986">
        <ele>85</ele>
        <time>2012-04-30T13:11:20Z</time>
      </trkpt>
      <trkpt lat="46.82451" lon="-1.12996">
        <ele>85</ele>
        <time>2012-04-30T13:11:21Z</time>
      </trkpt>
      <trkpt lat="46.82455" lon="-1.13014">
        <ele>85</ele>
        <time>2012-04-30T13:11:27Z</time>
      </trkpt>
      <trkpt lat="46.82465" lon="-1.13049">
        <ele>85</ele>
        <time>2012-04-30T13:11:27Z</time>
      </trkpt>
      <trkpt lat="46.82468" lon="-1.13059">
        <ele>85</ele>
        <time>2012-04-30T13:11:28Z</time>
      </trkpt>
      <trkpt lat="46.82475" lon="-1.13114">
        <ele>85</ele>
        <time>2012-04-30T13:11:34Z</time>
      </trkpt>
      <trkpt lat="46.82475" lon="-1.13123">
        <ele>85</ele>
        <time>2012-04-30T13:11:35Z</time>
      </trkpt>
      <trkpt lat="46.82476" lon="-1.13132">
        <ele>85</ele>
        <time>2012-04-30T13:11:36Z</time>
      </trkpt>
      <trkpt lat="46.82478" lon="-1.13149">
        <ele>85</ele>
        <time>2012-04-30T13:11:42Z</time>
      </trkpt>
      <trkpt lat="46.82483" lon="-1.13183">
        <ele>85</ele>
        <time>2012-04-30T13:11:42Z</time>
      </trkpt>
      <trkpt lat="46.82484" lon="-1.13192">
        <ele>85</ele>
        <time>2012-04-30T13:11:43Z</time>
      </trkpt>
      <trkpt lat="46.82486" lon="-1.13209">
        <ele>85</ele>
        <time>2012-04-30T13:11:49Z</time>
      </trkpt>
      <trkpt lat="46.82491" lon="-1.13253">
        <ele>85</ele>
        <time>2012-04-30T13:11:50Z</time>
      </trkpt>
      <trkpt lat="46.82492" lon="-1.13261">
        <ele>85</ele>
        <time>2012-04-30T13:11:51Z</time>
      </trkpt>
      <trkpt lat="46.82493" lon="-1.13279">
        <ele>85</ele>
        <time>2012-04-30T13:11:57Z</time>
      </trkpt>
      <trkpt lat="46.82495" lon="-1.13314">
        <ele>85</ele>
        <time>2012-04-30T13:11:57Z</time>
      </trkpt>
      <trkpt lat="46.82495" lon="-1.13323">
        <ele>85</ele>
        <time>2012-04-30T13:11:58Z</time>
      </trkpt>
      <trkpt lat="46.82496" lon="-1.1334">
        <ele>85</ele>
        <time>2012-04-30T13:12:04Z</time>
      </trkpt>
      <trkpt lat="46.82498" lon="-1.13384">
        <ele>85</ele>
        <time>2012-04-30T13:12:05Z</time>
      </trkpt>
      <trkpt lat="46.82498" lon="-1.13392">
        <ele>85</ele>
        <time>2012-04-30T13:12:06Z</time>
      </trkpt>
      <trkpt lat="46.82499" lon="-1.13409">
        <ele>86</ele>
        <time>2012-04-30T13:12:12Z</time>
      </trkpt>
      <trkpt lat="46.825" lon="-1.13443">
        <ele>86</ele>
        <time>2012-04-30T13:12:12Z</time>
      </trkpt>
      <trkpt lat="46.82501" lon="-1.13452">
        <ele>86</ele>
        <time>2012-04-30T13:12:13Z</time>
      </trkpt>
      <trkpt lat="46.82502" lon="-1.13469">
        <ele>87</ele>
        <time>2012-04-30T13:12:19Z</time>
      </trkpt>
      <trkpt lat="46.82503" lon="-1.13513">
        <ele>87</ele>
        <time>2012-04-30T13:12:20Z</time>
      </trkpt>
      <trkpt lat="46.82504" lon="-1.13522">
        <ele>87</ele>
        <time>2012-04-30T13:12:21Z</time>
      </trkpt>
      <trkpt lat="46.82504" lon="-1.1354">
        <ele>87</ele>
        <time>2012-04-30T13:12:27Z</time>
      </trkpt>
      <trkpt lat="46.82506" lon="-1.13579">
        <ele>88</ele>
        <time>2012-04-30T13:12:27Z</time>
      </trkpt>
      <trkpt lat="46.82506" lon="-1.13588">
        <ele>88</ele>
        <time>2012-04-30T13:12:28Z</time>
      </trkpt>
      <trkpt lat="46.82508" lon="-1.13607">
        <ele>88</ele>
        <time>2012-04-30T13:12:34Z</time>
      </trkpt>
      <trkpt lat="46.82515" lon="-1.13655">
        <ele>88</ele>
        <time>2012-04-30T13:12:35Z</time>
      </trkpt>
      <trkpt lat="46.82517" lon="-1.13664">
        <ele>88</ele>
        <time>2012-04-30T13:12:36Z</time>
      </trkpt>
      <trkpt lat="46.82522" lon="-1.13684">
        <ele>88</ele>
        <time>2012-04-30T13:12:42Z</time>
      </trkpt>
      <trkpt lat="46.82531" lon="-1.13724">
        <ele>88</ele>
        <time>2012-04-30T13:12:42Z</time>
      </trkpt>
      <trkpt lat="46.82534" lon="-1.13734">
        <ele>88</ele>
        <time>2012-04-30T13:12:43Z</time>
      </trkpt>
      <trkpt lat="46.82539" lon="-1.13754">
        <ele>88</ele>
        <time>2012-04-30T13:12:49Z</time>
      </trkpt>
      <trkpt lat="46.82553" lon="-1.13804">
        <ele>88</ele>
        <time>2012-04-30T13:12:50Z</time>
      </trkpt>
      <trkpt lat="46.82556" lon="-1.13814">
        <ele>88</ele>
        <time>2012-04-30T13:12:51Z</time>
      </trkpt>
      <trkpt lat="46.82564" lon="-1.13833">
        <ele>88</ele>
        <time>2012-04-30T13:12:57Z</time>
      </trkpt>
      <trkpt lat="46.82581" lon="-1.13868">
        <ele>88</ele>
        <time>2012-04-30T13:12:57Z</time>
      </trkpt>
      <trkpt lat="46.82586" lon="-1.13877">
        <ele>88</ele>
        <time>2012-04-30T13:12:58Z</time>
      </trkpt>
      <trkpt lat="46.82595" lon="-1.13895">
        <ele>88</ele>
        <time>2012-04-30T13:13:04Z</time>
      </trkpt>
      <trkpt lat="46.82617" lon="-1.13942">
        <ele>87</ele>
        <time>2012-04-30T13:13:05Z</time>
      </trkpt>
      <trkpt lat="46.82621" lon="-1.13952">
        <ele>87</ele>
        <time>2012-04-30T13:13:06Z</time>
      </trkpt>
      <trkpt lat="46.82629" lon="-1.13971">
        <ele>87</ele>
        <time>2012-04-30T13:13:12Z</time>
      </trkpt>
      <trkpt lat="46.82645" lon="-1.14008">
        <ele>87</ele>
        <time>2012-04-30T13:13:12Z</time>
      </trkpt>
      <trkpt lat="46.8265" lon="-1.14017">
        <ele>86</ele>
        <time>2012-04-30T13:13:13Z</time>
      </trkpt>
      <trkpt lat="46.82659" lon="-1.14034">
        <ele>86</ele>
        <time>2012-04-30T13:13:19Z</time>
      </trkpt>
      <trkpt lat="46.82682" lon="-1.14081">
        <ele>85</ele>
        <time>2012-04-30T13:13:20Z</time>
      </trkpt>
      <trkpt lat="46.82686" lon="-1.1409">
        <ele>85</ele>
        <time>2012-04-30T13:13:21Z</time>
      </trkpt>
      <trkpt lat="46.82695" lon="-1.1411">
        <ele>84</ele>
        <time>2012-04-30T13:13:27Z</time>
      </trkpt>
      <trkpt lat="46.82713" lon="-1.14151">
        <ele>84</ele>
        <time>2012-04-30T13:13:27Z</time>
      </trkpt>
      <trkpt lat="46.82717" lon="-1.14161">
        <ele>83</ele>
        <time>2012-04-30T13:13:28Z</time>
      </trkpt>
      <trkpt lat="46.82725" lon="-1.14181">
        <ele>83</ele>
        <time>2012-04-30T13:13:34Z</time>
      </trkpt>
      <trkpt lat="46.82744" lon="-1.14232">
        <ele>82</ele>
        <time>2012-04-30T13:13:35Z</time>
      </trkpt>
      <trkpt lat="46.82747" lon="-1.14243">
        <ele>81</ele>
        <time>2012-04-30T13:13:36Z</time>
      </trkpt>
      <trkpt lat="46.82753" lon="-1.14265">
        <ele>81</ele>
        <time>2012-04-30T13:13:42Z</time>
      </trkpt>
      <trkpt lat="46.8276" lon="-1.14309">
        <ele>80</ele>
        <time>2012-04-30T13:13:42Z</time>
      </trkpt>
      <trkpt lat="46.82761" lon="-1.1432">
        <ele>80</ele>
        <time>2012-04-30T13:13:43Z</time>
      </trkpt>
      <trkpt lat="46.82764" lon="-1.14341">
        <ele>80</ele>
        <time>2012-04-30T13:13:49Z</time>
      </trkpt>
      <trkpt lat="46.82782" lon="-1.14394">
        <ele>79</ele>
        <time>2012-04-30T13:13:50Z</time>
      </trkpt>
      <trkpt lat="46.82786" lon="-1.14404">
        <ele>79</ele>
        <time>2012-04-30T13:13:51Z</time>
      </trkpt>
      <trkpt lat="46.82792" lon="-1.14413">
        <ele>78</ele>
        <time>2012-04-30T13:13:52Z</time>
      </trkpt>
      <trkpt lat="46.82803" lon="-1.14431">
        <ele>77</ele>
        <time>2012-04-30T13:13:58Z</time>
      </trkpt>
      <trkpt lat="46.82826" lon="-1.14465">
        <ele>77</ele>
        <time>2012-04-30T13:13:58Z</time>
      </trkpt>
      <trkpt lat="46.82832" lon="-1.14474">
        <ele>76</ele>
        <time>2012-04-30T13:13:59Z</time>
      </trkpt>
      <trkpt lat="46.82843" lon="-1.14492">
        <ele>76</ele>
        <time>2012-04-30T13:14:05Z</time>
      </trkpt>
      <trkpt lat="46.82867" lon="-1.1454">
        <ele>76</ele>
        <time>2012-04-30T13:14:06Z</time>
      </trkpt>
      <trkpt lat="46.82872" lon="-1.14549">
        <ele>76</ele>
        <time>2012-04-30T13:14:07Z</time>
      </trkpt>
      <trkpt lat="46.82892" lon="-1.14604">
        <ele>76</ele>
        <time>2012-04-30T13:14:13Z</time>
      </trkpt>
      <trkpt lat="46.82895" lon="-1.14613">
        <ele>76</ele>
        <time>2012-04-30T13:14:14Z</time>
      </trkpt>
      <trkpt lat="46.829" lon="-1.14631">
        <ele>76</ele>
        <time>2012-04-30T13:14:20Z</time>
      </trkpt>
      <trkpt lat="46.82913" lon="-1.14678">
        <ele>76</ele>
        <time>2012-04-30T13:14:21Z</time>
      </trkpt>
      <trkpt lat="46.82916" lon="-1.14688">
        <ele>76</ele>
        <time>2012-04-30T13:14:22Z</time>
      </trkpt>
      <trkpt lat="46.82933" lon="-1.14745">
        <ele>76</ele>
        <time>2012-04-30T13:14:28Z</time>
      </trkpt>
      <trkpt lat="46.82935" lon="-1.14754">
        <ele>76</ele>
        <time>2012-04-30T13:14:29Z</time>
      </trkpt>
      <trkpt lat="46.8294" lon="-1.14774">
        <ele>76</ele>
        <time>2012-04-30T13:14:36Z</time>
      </trkpt>
      <trkpt lat="46.82947" lon="-1.14826">
        <ele>76</ele>
        <time>2012-04-30T13:14:36Z</time>
      </trkpt>
      <trkpt lat="46.82948" lon="-1.14836">
        <ele>76</ele>
        <time>2012-04-30T13:14:37Z</time>
      </trkpt>
      <trkpt lat="46.82955" lon="-1.14899">
        <ele>76</ele>
        <time>2012-04-30T13:14:43Z</time>
      </trkpt>
      <trkpt lat="46.82957" lon="-1.14909">
        <ele>76</ele>
        <time>2012-04-30T13:14:44Z</time>
      </trkpt>
      <trkpt lat="46.82961" lon="-1.1493">
        <ele>76</ele>
        <time>2012-04-30T13:14:51Z</time>
      </trkpt>
      <trkpt lat="46.8297" lon="-1.1498">
        <ele>76</ele>
        <time>2012-04-30T13:14:51Z</time>
      </trkpt>
      <trkpt lat="46.82972" lon="-1.1499">
        <ele>76</ele>
        <time>2012-04-30T13:14:52Z</time>
      </trkpt>
      <trkpt lat="46.82984" lon="-1.15048">
        <ele>76</ele>
        <time>2012-04-30T13:14:58Z</time>
      </trkpt>
      <trkpt lat="46.82987" lon="-1.15058">
        <ele>76</ele>
        <time>2012-04-30T13:14:59Z</time>
      </trkpt>
      <trkpt lat="46.8299" lon="-1.15066">
        <ele>76</ele>
        <time>2012-04-30T13:15:00Z</time>
      </trkpt>
      <trkpt lat="46.82999" lon="-1.15083">
        <ele>76</ele>
        <time>2012-04-30T13:15:06Z</time>
      </trkpt>
      <trkpt lat="46.83021" lon="-1.15105">
        <ele>76</ele>
        <time>2012-04-30T13:15:06Z</time>
      </trkpt>
      <trkpt lat="46.83027" lon="-1.15109">
        <ele>76</ele>
        <time>2012-04-30T13:15:07Z</time>
      </trkpt>
      <trkpt lat="46.83032" lon="-1.15113">
        <ele>76</ele>
        <time>2012-04-30T13:15:09Z</time>
      </trkpt>
      <trkpt lat="46.83042" lon="-1.15122">
        <ele>76</ele>
        <time>2012-04-30T13:15:14Z</time>
      </trkpt>
      <trkpt lat="46.83061" lon="-1.15156">
        <ele>76</ele>
        <time>2012-04-30T13:15:15Z</time>
      </trkpt>
      <trkpt lat="46.83062" lon="-1.15165">
        <ele>76</ele>
        <time>2012-04-30T13:15:16Z</time>
      </trkpt>
      <trkpt lat="46.83063" lon="-1.15175">
        <ele>76</ele>
        <time>2012-04-30T13:15:17Z</time>
      </trkpt>
      <trkpt lat="46.83063" lon="-1.15194">
        <ele>76</ele>
        <time>2012-04-30T13:15:23Z</time>
      </trkpt>
      <trkpt lat="46.83057" lon="-1.15241">
        <ele>76</ele>
        <time>2012-04-30T13:15:24Z</time>
      </trkpt>
      <trkpt lat="46.83055" lon="-1.1525">
        <ele>76</ele>
        <time>2012-04-30T13:15:25Z</time>
      </trkpt>
      <trkpt lat="46.83052" lon="-1.15269">
        <ele>76</ele>
        <time>2012-04-30T13:15:31Z</time>
      </trkpt>
      <trkpt lat="46.83047" lon="-1.15317">
        <ele>76</ele>
        <time>2012-04-30T13:15:32Z</time>
      </trkpt>
      <trkpt lat="46.83045" lon="-1.15328">
        <ele>76</ele>
        <time>2012-04-30T13:15:33Z</time>
      </trkpt>
      <trkpt lat="46.83043" lon="-1.1535">
        <ele>76</ele>
        <time>2012-04-30T13:15:39Z</time>
      </trkpt>
      <trkpt lat="46.83041" lon="-1.15398">
        <ele>76</ele>
        <time>2012-04-30T13:15:39Z</time>
      </trkpt>
      <trkpt lat="46.83041" lon="-1.15411">
        <ele>75</ele>
        <time>2012-04-30T13:15:40Z</time>
      </trkpt>
      <trkpt lat="46.83043" lon="-1.15426">
        <ele>74</ele>
        <time>2012-04-30T13:15:41Z</time>
      </trkpt>
      <trkpt lat="46.83069" lon="-1.15504">
        <ele>73</ele>
        <time>2012-04-30T13:15:47Z</time>
      </trkpt>
      <trkpt lat="46.83073" lon="-1.15516">
        <ele>72</ele>
        <time>2012-04-30T13:15:49Z</time>
      </trkpt>
      <trkpt lat="46.83078" lon="-1.15528">
        <ele>71</ele>
        <time>2012-04-30T13:15:49Z</time>
      </trkpt>
      <trkpt lat="46.83086" lon="-1.15549">
        <ele>71</ele>
        <time>2012-04-30T13:15:55Z</time>
      </trkpt>
      <trkpt lat="46.83102" lon="-1.15594">
        <ele>71</ele>
        <time>2012-04-30T13:15:56Z</time>
      </trkpt>
      <trkpt lat="46.83104" lon="-1.156">
        <ele>71</ele>
        <time>2012-04-30T13:15:57Z</time>
      </trkpt>
      <trkpt lat="46.83107" lon="-1.15608">
        <ele>71</ele>
        <time>2012-04-30T13:16:03Z</time>
      </trkpt>
      <trkpt lat="46.83108" lon="-1.15611">
        <ele>71</ele>
        <time>2012-04-30T13:16:03Z</time>
      </trkpt>
      <trkpt lat="46.8311" lon="-1.15611">
        <ele>71</ele>
        <time>2012-04-30T13:16:13Z</time>
      </trkpt>
      <trkpt lat="46.8312" lon="-1.15617">
        <ele>71</ele>
        <time>2012-04-30T13:16:13Z</time>
      </trkpt>
      <trkpt lat="46.83124" lon="-1.15619">
        <ele>71</ele>
        <time>2012-04-30T13:16:14Z</time>
      </trkpt>
      <trkpt lat="46.83159" lon="-1.15642">
        <ele>71</ele>
        <time>2012-04-30T13:16:21Z</time>
      </trkpt>
      <trkpt lat="46.83165" lon="-1.15647">
        <ele>71</ele>
        <time>2012-04-30T13:16:22Z</time>
      </trkpt>
      <trkpt lat="46.83175" lon="-1.15657">
        <ele>71</ele>
        <time>2012-04-30T13:16:28Z</time>
      </trkpt>
      <trkpt lat="46.832" lon="-1.15684">
        <ele>71</ele>
        <time>2012-04-30T13:16:29Z</time>
      </trkpt>
      <trkpt lat="46.83205" lon="-1.1569">
        <ele>72</ele>
        <time>2012-04-30T13:16:30Z</time>
      </trkpt>
      <trkpt lat="46.83214" lon="-1.157">
        <ele>73</ele>
        <time>2012-04-30T13:16:36Z</time>
      </trkpt>
      <trkpt lat="46.83232" lon="-1.1572">
        <ele>73</ele>
        <time>2012-04-30T13:16:36Z</time>
      </trkpt>
      <trkpt lat="46.83237" lon="-1.15726">
        <ele>74</ele>
        <time>2012-04-30T13:16:37Z</time>
      </trkpt>
      <trkpt lat="46.83246" lon="-1.15736">
        <ele>75</ele>
        <time>2012-04-30T13:16:43Z</time>
      </trkpt>
      <trkpt lat="46.8327" lon="-1.15763">
        <ele>76</ele>
        <time>2012-04-30T13:16:44Z</time>
      </trkpt>
      <trkpt lat="46.83274" lon="-1.15768">
        <ele>77</ele>
        <time>2012-04-30T13:16:45Z</time>
      </trkpt>
      <trkpt lat="46.83303" lon="-1.15801">
        <ele>78</ele>
        <time>2012-04-30T13:16:51Z</time>
      </trkpt>
      <trkpt lat="46.83308" lon="-1.15806">
        <ele>79</ele>
        <time>2012-04-30T13:16:52Z</time>
      </trkpt>
      <trkpt lat="46.83317" lon="-1.15817">
        <ele>80</ele>
        <time>2012-04-30T13:16:59Z</time>
      </trkpt>
      <trkpt lat="46.83341" lon="-1.15845">
        <ele>81</ele>
        <time>2012-04-30T13:16:59Z</time>
      </trkpt>
      <trkpt lat="46.83345" lon="-1.1585">
        <ele>81</ele>
        <time>2012-04-30T13:17:00Z</time>
      </trkpt>
      <trkpt lat="46.83355" lon="-1.15861">
        <ele>82</ele>
        <time>2012-04-30T13:17:06Z</time>
      </trkpt>
      <trkpt lat="46.83379" lon="-1.15889">
        <ele>83</ele>
        <time>2012-04-30T13:17:07Z</time>
      </trkpt>
      <trkpt lat="46.83384" lon="-1.15894">
        <ele>83</ele>
        <time>2012-04-30T13:17:08Z</time>
      </trkpt>
      <trkpt lat="46.83394" lon="-1.15905">
        <ele>83</ele>
        <time>2012-04-30T13:17:14Z</time>
      </trkpt>
      <trkpt lat="46.83414" lon="-1.15929">
        <ele>84</ele>
        <time>2012-04-30T13:17:14Z</time>
      </trkpt>
      <trkpt lat="46.8342" lon="-1.15935">
        <ele>84</ele>
        <time>2012-04-30T13:17:15Z</time>
      </trkpt>
      <trkpt lat="46.8343" lon="-1.15946">
        <ele>84</ele>
        <time>2012-04-30T13:17:22Z</time>
      </trkpt>
      <trkpt lat="46.83456" lon="-1.15977">
        <ele>84</ele>
        <time>2012-04-30T13:17:22Z</time>
      </trkpt>
      <trkpt lat="46.83461" lon="-1.15983">
        <ele>84</ele>
        <time>2012-04-30T13:17:23Z</time>
      </trkpt>
      <trkpt lat="46.83496" lon="-1.16018">
        <ele>84</ele>
        <time>2012-04-30T13:17:29Z</time>
      </trkpt>
      <trkpt lat="46.83502" lon="-1.16025">
        <ele>84</ele>
        <time>2012-04-30T13:17:30Z</time>
      </trkpt>
      <trkpt lat="46.83514" lon="-1.16037">
        <ele>84</ele>
        <time>2012-04-30T13:17:37Z</time>
      </trkpt>
      <trkpt lat="46.83546" lon="-1.16067">
        <ele>84</ele>
        <time>2012-04-30T13:17:37Z</time>
      </trkpt>
      <trkpt lat="46.83552" lon="-1.16073">
        <ele>84</ele>
        <time>2012-04-30T13:17:38Z</time>
      </trkpt>
      <trkpt lat="46.83566" lon="-1.16084">
        <ele>84</ele>
        <time>2012-04-30T13:17:44Z</time>
      </trkpt>
      <trkpt lat="46.83599" lon="-1.1611">
        <ele>84</ele>
        <time>2012-04-30T13:17:45Z</time>
      </trkpt>
      <trkpt lat="46.83606" lon="-1.16114">
        <ele>84</ele>
        <time>2012-04-30T13:17:46Z</time>
      </trkpt>
      <trkpt lat="46.8362" lon="-1.16122">
        <ele>84</ele>
        <time>2012-04-30T13:17:52Z</time>
      </trkpt>
      <trkpt lat="46.83649" lon="-1.16136">
        <ele>84</ele>
        <time>2012-04-30T13:17:52Z</time>
      </trkpt>
      <trkpt lat="46.83656" lon="-1.1614">
        <ele>84</ele>
        <time>2012-04-30T13:17:53Z</time>
      </trkpt>
      <trkpt lat="46.8367" lon="-1.16148">
        <ele>84</ele>
        <time>2012-04-30T13:18:00Z</time>
      </trkpt>
      <trkpt lat="46.83701" lon="-1.16165">
        <ele>83</ele>
        <time>2012-04-30T13:18:00Z</time>
      </trkpt>
      <trkpt lat="46.83704" lon="-1.16172">
        <ele>82</ele>
        <time>2012-04-30T13:18:01Z</time>
      </trkpt>
      <trkpt lat="46.83706" lon="-1.16181">
        <ele>81</ele>
        <time>2012-04-30T13:18:02Z</time>
      </trkpt>
      <trkpt lat="46.83708" lon="-1.1624">
        <ele>80</ele>
        <time>2012-04-30T13:18:09Z</time>
      </trkpt>
      <trkpt lat="46.83709" lon="-1.16246">
        <ele>79</ele>
        <time>2012-04-30T13:18:10Z</time>
      </trkpt>
      <trkpt lat="46.8373" lon="-1.16287">
        <ele>78</ele>
        <time>2012-04-30T13:18:16Z</time>
      </trkpt>
      <trkpt lat="46.83735" lon="-1.16294">
        <ele>77</ele>
        <time>2012-04-30T13:18:17Z</time>
      </trkpt>
      <trkpt lat="46.8374" lon="-1.16301">
        <ele>76</ele>
        <time>2012-04-30T13:18:19Z</time>
      </trkpt>
      <trkpt lat="46.83751" lon="-1.16314">
        <ele>76</ele>
        <time>2012-04-30T13:18:24Z</time>
      </trkpt>
      <trkpt lat="46.83781" lon="-1.16349">
        <ele>76</ele>
        <time>2012-04-30T13:18:25Z</time>
      </trkpt>
      <trkpt lat="46.83788" lon="-1.16357">
        <ele>76</ele>
        <time>2012-04-30T13:18:26Z</time>
      </trkpt>
      <trkpt lat="46.83829" lon="-1.16405">
        <ele>76</ele>
        <time>2012-04-30T13:18:32Z</time>
      </trkpt>
      <trkpt lat="46.83837" lon="-1.16412">
        <ele>75</ele>
        <time>2012-04-30T13:18:33Z</time>
      </trkpt>
      <trkpt lat="46.83853" lon="-1.16428">
        <ele>74</ele>
        <time>2012-04-30T13:18:40Z</time>
      </trkpt>
      <trkpt lat="46.83891" lon="-1.1647">
        <ele>73</ele>
        <time>2012-04-30T13:18:40Z</time>
      </trkpt>
      <trkpt lat="46.83899" lon="-1.16478">
        <ele>72</ele>
        <time>2012-04-30T13:18:41Z</time>
      </trkpt>
      <trkpt lat="46.83913" lon="-1.16495">
        <ele>71</ele>
        <time>2012-04-30T13:18:47Z</time>
      </trkpt>
      <trkpt lat="46.83948" lon="-1.16535">
        <ele>70</ele>
        <time>2012-04-30T13:18:48Z</time>
      </trkpt>
      <trkpt lat="46.83955" lon="-1.16542">
        <ele>69</ele>
        <time>2012-04-30T13:18:49Z</time>
      </trkpt>
      <trkpt lat="46.83989" lon="-1.16583">
        <ele>68</ele>
        <time>2012-04-30T13:18:55Z</time>
      </trkpt>
      <trkpt lat="46.83995" lon="-1.16589">
        <ele>67</ele>
        <time>2012-04-30T13:18:56Z</time>
      </trkpt>
      <trkpt lat="46.84006" lon="-1.16603">
        <ele>66</ele>
        <time>2012-04-30T13:19:03Z</time>
      </trkpt>
      <trkpt lat="46.84034" lon="-1.16635">
        <ele>66</ele>
        <time>2012-04-30T13:19:03Z</time>
      </trkpt>
      <trkpt lat="46.8404" lon="-1.16641">
        <ele>66</ele>
        <time>2012-04-30T13:19:04Z</time>
      </trkpt>
      <trkpt lat="46.84051" lon="-1.16654">
        <ele>66</ele>
        <time>2012-04-30T13:19:10Z</time>
      </trkpt>
      <trkpt lat="46.84079" lon="-1.16685">
        <ele>66</ele>
        <time>2012-04-30T13:19:11Z</time>
      </trkpt>
      <trkpt lat="46.84084" lon="-1.16692">
        <ele>67</ele>
        <time>2012-04-30T13:19:12Z</time>
      </trkpt>
      <trkpt lat="46.84119" lon="-1.16732">
        <ele>68</ele>
        <time>2012-04-30T13:19:18Z</time>
      </trkpt>
      <trkpt lat="46.84125" lon="-1.16738">
        <ele>69</ele>
        <time>2012-04-30T13:19:19Z</time>
      </trkpt>
      <trkpt lat="46.84136" lon="-1.16751">
        <ele>69</ele>
        <time>2012-04-30T13:19:26Z</time>
      </trkpt>
      <trkpt lat="46.84165" lon="-1.16784">
        <ele>70</ele>
        <time>2012-04-30T13:19:26Z</time>
      </trkpt>
      <trkpt lat="46.84171" lon="-1.1679">
        <ele>70</ele>
        <time>2012-04-30T13:19:27Z</time>
      </trkpt>
      <trkpt lat="46.84182" lon="-1.16803">
        <ele>70</ele>
        <time>2012-04-30T13:19:33Z</time>
      </trkpt>
      <trkpt lat="46.84211" lon="-1.16837">
        <ele>70</ele>
        <time>2012-04-30T13:19:34Z</time>
      </trkpt>
      <trkpt lat="46.84217" lon="-1.16843">
        <ele>70</ele>
        <time>2012-04-30T13:19:35Z</time>
      </trkpt>
      <trkpt lat="46.84256" lon="-1.16884">
        <ele>70</ele>
        <time>2012-04-30T13:19:41Z</time>
      </trkpt>
      <trkpt lat="46.84262" lon="-1.16892">
        <ele>70</ele>
        <time>2012-04-30T13:19:42Z</time>
      </trkpt>
      <trkpt lat="46.84269" lon="-1.16899">
        <ele>70</ele>
        <time>2012-04-30T13:19:43Z</time>
      </trkpt>
      <trkpt lat="46.84309" lon="-1.16945">
        <ele>70</ele>
        <time>2012-04-30T13:19:49Z</time>
      </trkpt>
      <trkpt lat="46.84316" lon="-1.16953">
        <ele>69</ele>
        <time>2012-04-30T13:19:50Z</time>
      </trkpt>
      <trkpt lat="46.8433" lon="-1.16969">
        <ele>68</ele>
        <time>2012-04-30T13:19:57Z</time>
      </trkpt>
      <trkpt lat="46.84364" lon="-1.1701">
        <ele>67</ele>
        <time>2012-04-30T13:19:57Z</time>
      </trkpt>
      <trkpt lat="46.84371" lon="-1.17018">
        <ele>66</ele>
        <time>2012-04-30T13:19:58Z</time>
      </trkpt>
      <trkpt lat="46.84385" lon="-1.17033">
        <ele>65</ele>
        <time>2012-04-30T13:20:04Z</time>
      </trkpt>
      <trkpt lat="46.84419" lon="-1.1707">
        <ele>64</ele>
        <time>2012-04-30T13:20:05Z</time>
      </trkpt>
      <trkpt lat="46.84425" lon="-1.17078">
        <ele>64</ele>
        <time>2012-04-30T13:20:06Z</time>
      </trkpt>
      <trkpt lat="46.84463" lon="-1.17121">
        <ele>63</ele>
        <time>2012-04-30T13:20:12Z</time>
      </trkpt>
      <trkpt lat="46.84469" lon="-1.17127">
        <ele>63</ele>
        <time>2012-04-30T13:20:13Z</time>
      </trkpt>
      <trkpt lat="46.84475" lon="-1.17134">
        <ele>62</ele>
        <time>2012-04-30T13:20:14Z</time>
      </trkpt>
      <trkpt lat="46.84509" lon="-1.17172">
        <ele>62</ele>
        <time>2012-04-30T13:20:20Z</time>
      </trkpt>
      <trkpt lat="46.84514" lon="-1.17178">
        <ele>62</ele>
        <time>2012-04-30T13:20:21Z</time>
      </trkpt>
      <trkpt lat="46.84525" lon="-1.1719">
        <ele>62</ele>
        <time>2012-04-30T13:20:28Z</time>
      </trkpt>
      <trkpt lat="46.84551" lon="-1.17218">
        <ele>62</ele>
        <time>2012-04-30T13:20:28Z</time>
      </trkpt>
      <trkpt lat="46.84556" lon="-1.17224">
        <ele>62</ele>
        <time>2012-04-30T13:20:29Z</time>
      </trkpt>
      <trkpt lat="46.84566" lon="-1.17235">
        <ele>62</ele>
        <time>2012-04-30T13:20:36Z</time>
      </trkpt>
      <trkpt lat="46.84591" lon="-1.17264">
        <ele>62</ele>
        <time>2012-04-30T13:20:36Z</time>
      </trkpt>
      <trkpt lat="46.84597" lon="-1.1727">
        <ele>63</ele>
        <time>2012-04-30T13:20:37Z</time>
      </trkpt>
      <trkpt lat="46.84607" lon="-1.17282">
        <ele>64</ele>
        <time>2012-04-30T13:20:43Z</time>
      </trkpt>
      <trkpt lat="46.84633" lon="-1.17312">
        <ele>64</ele>
        <time>2012-04-30T13:20:44Z</time>
      </trkpt>
      <trkpt lat="46.84638" lon="-1.17317">
        <ele>65</ele>
        <time>2012-04-30T13:20:45Z</time>
      </trkpt>
      <trkpt lat="46.84669" lon="-1.17354">
        <ele>65</ele>
        <time>2012-04-30T13:20:51Z</time>
      </trkpt>
      <trkpt lat="46.84674" lon="-1.1736">
        <ele>65</ele>
        <time>2012-04-30T13:20:52Z</time>
      </trkpt>
      <trkpt lat="46.84686" lon="-1.17373">
        <ele>66</ele>
        <time>2012-04-30T13:20:59Z</time>
      </trkpt>
      <trkpt lat="46.84713" lon="-1.17406">
        <ele>66</ele>
        <time>2012-04-30T13:20:59Z</time>
      </trkpt>
      <trkpt lat="46.84719" lon="-1.17412">
        <ele>66</ele>
        <time>2012-04-30T13:21:00Z</time>
      </trkpt>
      <trkpt lat="46.8473" lon="-1.17425">
        <ele>67</ele>
        <time>2012-04-30T13:21:07Z</time>
      </trkpt>
      <trkpt lat="46.8476" lon="-1.17457">
        <ele>67</ele>
        <time>2012-04-30T13:21:07Z</time>
      </trkpt>
      <trkpt lat="46.84765" lon="-1.17464">
        <ele>68</ele>
        <time>2012-04-30T13:21:08Z</time>
      </trkpt>
      <trkpt lat="46.84777" lon="-1.17476">
        <ele>68</ele>
        <time>2012-04-30T13:21:14Z</time>
      </trkpt>
      <trkpt lat="46.84804" lon="-1.17506">
        <ele>69</ele>
        <time>2012-04-30T13:21:15Z</time>
      </trkpt>
      <trkpt lat="46.84809" lon="-1.17512">
        <ele>69</ele>
        <time>2012-04-30T13:21:16Z</time>
      </trkpt>
      <trkpt lat="46.84843" lon="-1.17551">
        <ele>69</ele>
        <time>2012-04-30T13:21:22Z</time>
      </trkpt>
      <trkpt lat="46.84849" lon="-1.17557">
        <ele>69</ele>
        <time>2012-04-30T13:21:23Z</time>
      </trkpt>
      <trkpt lat="46.8486" lon="-1.17568">
        <ele>69</ele>
        <time>2012-04-30T13:21:30Z</time>
      </trkpt>
      <trkpt lat="46.84893" lon="-1.17588">
        <ele>69</ele>
        <time>2012-04-30T13:21:30Z</time>
      </trkpt>
      <trkpt lat="46.849" lon="-1.17591">
        <ele>69</ele>
        <time>2012-04-30T13:21:32Z</time>
      </trkpt>
      <trkpt lat="46.84906" lon="-1.17593">
        <ele>69</ele>
        <time>2012-04-30T13:21:33Z</time>
      </trkpt>
      <trkpt lat="46.84921" lon="-1.17596">
        <ele>69</ele>
        <time>2012-04-30T13:21:39Z</time>
      </trkpt>
      <trkpt lat="46.84956" lon="-1.17604">
        <ele>69</ele>
        <time>2012-04-30T13:21:39Z</time>
      </trkpt>
      <trkpt lat="46.84963" lon="-1.17605">
        <ele>69</ele>
        <time>2012-04-30T13:21:40Z</time>
      </trkpt>
      <trkpt lat="46.85" lon="-1.17612">
        <ele>69</ele>
        <time>2012-04-30T13:21:45Z</time>
      </trkpt>
      <trkpt lat="46.85006" lon="-1.17614">
        <ele>69</ele>
        <time>2012-04-30T13:21:46Z</time>
      </trkpt>
      <trkpt lat="46.85013" lon="-1.17616">
        <ele>69</ele>
        <time>2012-04-30T13:21:47Z</time>
      </trkpt>
      <trkpt lat="46.85025" lon="-1.17619">
        <ele>69</ele>
        <time>2012-04-30T13:21:52Z</time>
      </trkpt>
      <trkpt lat="46.8504" lon="-1.1762">
        <ele>69</ele>
        <time>2012-04-30T13:21:52Z</time>
      </trkpt>
      <trkpt lat="46.85043" lon="-1.17619">
        <ele>69</ele>
        <time>2012-04-30T13:21:53Z</time>
      </trkpt>
      <trkpt lat="46.85047" lon="-1.17618">
        <ele>70</ele>
        <time>2012-04-30T13:21:55Z</time>
      </trkpt>
      <trkpt lat="46.85053" lon="-1.17616">
        <ele>71</ele>
        <time>2012-04-30T13:21:59Z</time>
      </trkpt>
      <trkpt lat="46.8507" lon="-1.1761">
        <ele>71</ele>
        <time>2012-04-30T13:22:00Z</time>
      </trkpt>
      <trkpt lat="46.85075" lon="-1.17609">
        <ele>71</ele>
        <time>2012-04-30T13:22:01Z</time>
      </trkpt>
      <trkpt lat="46.85086" lon="-1.17607">
        <ele>71</ele>
        <time>2012-04-30T13:22:06Z</time>
      </trkpt>
      <trkpt lat="46.85103" lon="-1.17604">
        <ele>71</ele>
        <time>2012-04-30T13:22:06Z</time>
      </trkpt>
      <trkpt lat="46.85109" lon="-1.17604">
        <ele>71</ele>
        <time>2012-04-30T13:22:07Z</time>
      </trkpt>
      <trkpt lat="46.85121" lon="-1.17606">
        <ele>71</ele>
        <time>2012-04-30T13:22:12Z</time>
      </trkpt>
      <trkpt lat="46.85147" lon="-1.17614">
        <ele>72</ele>
        <time>2012-04-30T13:22:13Z</time>
      </trkpt>
      <trkpt lat="46.85153" lon="-1.17617">
        <ele>73</ele>
        <time>2012-04-30T13:22:14Z</time>
      </trkpt>
      <trkpt lat="46.85159" lon="-1.17621">
        <ele>73</ele>
        <time>2012-04-30T13:22:15Z</time>
      </trkpt>
      <trkpt lat="46.8517" lon="-1.17628">
        <ele>73</ele>
        <time>2012-04-30T13:22:20Z</time>
      </trkpt>
      <trkpt lat="46.85186" lon="-1.17638">
        <ele>73</ele>
        <time>2012-04-30T13:22:20Z</time>
      </trkpt>
      <trkpt lat="46.85191" lon="-1.17641">
        <ele>73</ele>
        <time>2012-04-30T13:22:21Z</time>
      </trkpt>
      <trkpt lat="46.85201" lon="-1.17649">
        <ele>73</ele>
        <time>2012-04-30T13:22:26Z</time>
      </trkpt>
      <trkpt lat="46.85219" lon="-1.17664">
        <ele>73</ele>
        <time>2012-04-30T13:22:27Z</time>
      </trkpt>
      <trkpt lat="46.85224" lon="-1.17667">
        <ele>73</ele>
        <time>2012-04-30T13:22:28Z</time>
      </trkpt>
      <trkpt lat="46.85234" lon="-1.17667">
        <ele>73</ele>
        <time>2012-04-30T13:22:33Z</time>
      </trkpt>
      <trkpt lat="46.8525" lon="-1.17664">
        <ele>74</ele>
        <time>2012-04-30T13:22:34Z</time>
      </trkpt>
      <trkpt lat="46.85256" lon="-1.17662">
        <ele>75</ele>
        <time>2012-04-30T13:22:35Z</time>
      </trkpt>
      <trkpt lat="46.85262" lon="-1.1766">
        <ele>76</ele>
        <time>2012-04-30T13:22:35Z</time>
      </trkpt>
      <trkpt lat="46.85273" lon="-1.17654">
        <ele>77</ele>
        <time>2012-04-30T13:22:40Z</time>
      </trkpt>
      <trkpt lat="46.85298" lon="-1.17641">
        <ele>78</ele>
        <time>2012-04-30T13:22:41Z</time>
      </trkpt>
      <trkpt lat="46.85305" lon="-1.17638">
        <ele>79</ele>
        <time>2012-04-30T13:22:42Z</time>
      </trkpt>
      <trkpt lat="46.85317" lon="-1.17632">
        <ele>79</ele>
        <time>2012-04-30T13:22:47Z</time>
      </trkpt>
      <trkpt lat="46.85335" lon="-1.17624">
        <ele>79</ele>
        <time>2012-04-30T13:22:47Z</time>
      </trkpt>
      <trkpt lat="46.85342" lon="-1.17621">
        <ele>79</ele>
        <time>2012-04-30T13:22:48Z</time>
      </trkpt>
      <trkpt lat="46.85354" lon="-1.17616">
        <ele>79</ele>
        <time>2012-04-30T13:22:53Z</time>
      </trkpt>
      <trkpt lat="46.85378" lon="-1.17605">
        <ele>79</ele>
        <time>2012-04-30T13:22:54Z</time>
      </trkpt>
      <trkpt lat="46.85384" lon="-1.17602">
        <ele>79</ele>
        <time>2012-04-30T13:22:55Z</time>
      </trkpt>
      <trkpt lat="46.85396" lon="-1.17595">
        <ele>79</ele>
        <time>2012-04-30T13:23:00Z</time>
      </trkpt>
      <trkpt lat="46.85419" lon="-1.1758">
        <ele>79</ele>
        <time>2012-04-30T13:23:03Z</time>
      </trkpt>
      <trkpt lat="46.85443" lon="-1.17569">
        <ele>79</ele>
        <time>2012-04-30T13:23:07Z</time>
      </trkpt>
      <trkpt lat="46.85468" lon="-1.17557">
        <ele>79</ele>
        <time>2012-04-30T13:23:10Z</time>
      </trkpt>
      <trkpt lat="46.85488" lon="-1.17552">
        <ele>79</ele>
        <time>2012-04-30T13:23:14Z</time>
      </trkpt>
      <trkpt lat="46.85513" lon="-1.17545">
        <ele>79</ele>
        <time>2012-04-30T13:23:17Z</time>
      </trkpt>
      <trkpt lat="46.85532" lon="-1.17542">
        <ele>80</ele>
        <time>2012-04-30T13:23:19Z</time>
      </trkpt>
      <trkpt lat="46.85543" lon="-1.1754">
        <ele>81</ele>
        <time>2012-04-30T13:23:24Z</time>
      </trkpt>
      <trkpt lat="46.85574" lon="-1.17535">
        <ele>82</ele>
        <time>2012-04-30T13:23:29Z</time>
      </trkpt>
      <trkpt lat="46.85603" lon="-1.17529">
        <ele>83</ele>
        <time>2012-04-30T13:23:32Z</time>
      </trkpt>
      <trkpt lat="46.85614" lon="-1.17526">
        <ele>84</ele>
        <time>2012-04-30T13:23:36Z</time>
      </trkpt>
      <trkpt lat="46.85636" lon="-1.17518">
        <ele>85</ele>
        <time>2012-04-30T13:23:37Z</time>
      </trkpt>
      <trkpt lat="46.85641" lon="-1.17516">
        <ele>86</ele>
        <time>2012-04-30T13:23:38Z</time>
      </trkpt>
      <trkpt lat="46.85652" lon="-1.17511">
        <ele>87</ele>
        <time>2012-04-30T13:23:43Z</time>
      </trkpt>
      <trkpt lat="46.85669" lon="-1.17504">
        <ele>88</ele>
        <time>2012-04-30T13:23:43Z</time>
      </trkpt>
      <trkpt lat="46.85674" lon="-1.17502">
        <ele>88</ele>
        <time>2012-04-30T13:23:44Z</time>
      </trkpt>
      <trkpt lat="46.85684" lon="-1.17497">
        <ele>89</ele>
        <time>2012-04-30T13:23:49Z</time>
      </trkpt>
      <trkpt lat="46.85709" lon="-1.17481">
        <ele>89</ele>
        <time>2012-04-30T13:23:51Z</time>
      </trkpt>
      <trkpt lat="46.8572" lon="-1.17475">
        <ele>90</ele>
        <time>2012-04-30T13:23:53Z</time>
      </trkpt>
      <trkpt lat="46.8573" lon="-1.17469">
        <ele>90</ele>
        <time>2012-04-30T13:23:56Z</time>
      </trkpt>
      <trkpt lat="46.85739" lon="-1.17462">
        <ele>91</ele>
        <time>2012-04-30T13:23:58Z</time>
      </trkpt>
      <trkpt lat="46.85755" lon="-1.17452">
        <ele>92</ele>
        <time>2012-04-30T13:24:00Z</time>
      </trkpt>
      <trkpt lat="46.85765" lon="-1.17445">
        <ele>92</ele>
        <time>2012-04-30T13:24:02Z</time>
      </trkpt>
      <trkpt lat="46.85776" lon="-1.17438">
        <ele>93</ele>
        <time>2012-04-30T13:24:05Z</time>
      </trkpt>
      <trkpt lat="46.85791" lon="-1.17428">
        <ele>93</ele>
        <time>2012-04-30T13:24:07Z</time>
      </trkpt>
      <trkpt lat="46.858" lon="-1.1742">
        <ele>94</ele>
        <time>2012-04-30T13:24:09Z</time>
      </trkpt>
      <trkpt lat="46.85809" lon="-1.17412">
        <ele>94</ele>
        <time>2012-04-30T13:24:12Z</time>
      </trkpt>
      <trkpt lat="46.85817" lon="-1.17404">
        <ele>95</ele>
        <time>2012-04-30T13:24:16Z</time>
      </trkpt>
      <trkpt lat="46.85833" lon="-1.17388">
        <ele>95</ele>
        <time>2012-04-30T13:24:17Z</time>
      </trkpt>
      <trkpt lat="46.85837" lon="-1.17384">
        <ele>95</ele>
        <time>2012-04-30T13:24:18Z</time>
      </trkpt>
      <trkpt lat="46.85842" lon="-1.17372">
        <ele>96</ele>
        <time>2012-04-30T13:24:23Z</time>
      </trkpt>
      <trkpt lat="46.85849" lon="-1.17352">
        <ele>96</ele>
        <time>2012-04-30T13:24:24Z</time>
      </trkpt>
      <trkpt lat="46.85853" lon="-1.17348">
        <ele>96</ele>
        <time>2012-04-30T13:24:24Z</time>
      </trkpt>
      <trkpt lat="46.85857" lon="-1.17345">
        <ele>96</ele>
        <time>2012-04-30T13:24:25Z</time>
      </trkpt>
      <trkpt lat="46.85867" lon="-1.17342">
        <ele>96</ele>
        <time>2012-04-30T13:24:31Z</time>
      </trkpt>
      <trkpt lat="46.85885" lon="-1.17331">
        <ele>96</ele>
        <time>2012-04-30T13:24:32Z</time>
      </trkpt>
      <trkpt lat="46.85889" lon="-1.17327">
        <ele>96</ele>
        <time>2012-04-30T13:24:32Z</time>
      </trkpt>
      <trkpt lat="46.85891" lon="-1.17323">
        <ele>96</ele>
        <time>2012-04-30T13:24:34Z</time>
      </trkpt>
      <trkpt lat="46.85895" lon="-1.17315">
        <ele>96</ele>
        <time>2012-04-30T13:24:38Z</time>
      </trkpt>
      <trkpt lat="46.85899" lon="-1.17307">
        <ele>96</ele>
        <time>2012-04-30T13:24:39Z</time>
      </trkpt>
      <trkpt lat="46.85901" lon="-1.17306">
        <ele>96</ele>
        <time>2012-04-30T13:25:00Z</time>
      </trkpt>
      <trkpt lat="46.85902" lon="-1.17305">
        <ele>88</ele>
        <time>2012-04-30T13:25:46Z</time>
      </trkpt>
      <trkpt lat="46.85901" lon="-1.17306">
        <ele>88</ele>
        <time>2012-04-30T13:25:52Z</time>
      </trkpt>
      <trkpt lat="46.85902" lon="-1.17305">
        <ele>85</ele>
        <time>2012-04-30T13:26:16Z</time>
      </trkpt>
      <trkpt lat="46.85904" lon="-1.17304">
        <ele>85</ele>
        <time>2012-04-30T13:26:24Z</time>
      </trkpt>
      <trkpt lat="46.85907" lon="-1.17301">
        <ele>85</ele>
        <time>2012-04-30T13:26:27Z</time>
      </trkpt>
      <trkpt lat="46.8591" lon="-1.17295">
        <ele>85</ele>
        <time>2012-04-30T13:26:32Z</time>
      </trkpt>
      <trkpt lat="46.8592" lon="-1.17273">
        <ele>85</ele>
        <time>2012-04-30T13:26:32Z</time>
      </trkpt>
      <trkpt lat="46.85924" lon="-1.17266">
        <ele>85</ele>
        <time>2012-04-30T13:26:33Z</time>
      </trkpt>
      <trkpt lat="46.85931" lon="-1.17251">
        <ele>85</ele>
        <time>2012-04-30T13:26:38Z</time>
      </trkpt>
      <trkpt lat="46.85945" lon="-1.17225">
        <ele>85</ele>
        <time>2012-04-30T13:26:38Z</time>
      </trkpt>
      <trkpt lat="46.8595" lon="-1.17216">
        <ele>85</ele>
        <time>2012-04-30T13:26:39Z</time>
      </trkpt>
      <trkpt lat="46.8596" lon="-1.17198">
        <ele>85</ele>
        <time>2012-04-30T13:26:44Z</time>
      </trkpt>
      <trkpt lat="46.85981" lon="-1.17157">
        <ele>85</ele>
        <time>2012-04-30T13:26:45Z</time>
      </trkpt>
      <trkpt lat="46.85986" lon="-1.17146">
        <ele>85</ele>
        <time>2012-04-30T13:26:46Z</time>
      </trkpt>
      <trkpt lat="46.85996" lon="-1.17126">
        <ele>85</ele>
        <time>2012-04-30T13:26:51Z</time>
      </trkpt>
      <trkpt lat="46.8601" lon="-1.17097">
        <ele>85</ele>
        <time>2012-04-30T13:26:51Z</time>
      </trkpt>
      <trkpt lat="46.86015" lon="-1.17087">
        <ele>85</ele>
        <time>2012-04-30T13:26:52Z</time>
      </trkpt>
      <trkpt lat="46.86026" lon="-1.17069">
        <ele>85</ele>
        <time>2012-04-30T13:26:57Z</time>
      </trkpt>
      <trkpt lat="46.86046" lon="-1.17033">
        <ele>85</ele>
        <time>2012-04-30T13:26:58Z</time>
      </trkpt>
      <trkpt lat="46.8605" lon="-1.17024">
        <ele>85</ele>
        <time>2012-04-30T13:26:59Z</time>
      </trkpt>
      <trkpt lat="46.8606" lon="-1.17008">
        <ele>85</ele>
        <time>2012-04-30T13:27:04Z</time>
      </trkpt>
      <trkpt lat="46.86077" lon="-1.16989">
        <ele>85</ele>
        <time>2012-04-30T13:27:04Z</time>
      </trkpt>
      <trkpt lat="46.86083" lon="-1.16982">
        <ele>85</ele>
        <time>2012-04-30T13:27:05Z</time>
      </trkpt>
      <trkpt lat="46.86094" lon="-1.16971">
        <ele>85</ele>
        <time>2012-04-30T13:27:10Z</time>
      </trkpt>
      <trkpt lat="46.86117" lon="-1.16948">
        <ele>85</ele>
        <time>2012-04-30T13:27:11Z</time>
      </trkpt>
      <trkpt lat="46.86123" lon="-1.16942">
        <ele>85</ele>
        <time>2012-04-30T13:27:12Z</time>
      </trkpt>
      <trkpt lat="46.86134" lon="-1.1693">
        <ele>85</ele>
        <time>2012-04-30T13:27:17Z</time>
      </trkpt>
      <trkpt lat="46.8615" lon="-1.16913">
        <ele>85</ele>
        <time>2012-04-30T13:27:17Z</time>
      </trkpt>
      <trkpt lat="46.86156" lon="-1.16908">
        <ele>85</ele>
        <time>2012-04-30T13:27:18Z</time>
      </trkpt>
      <trkpt lat="46.86167" lon="-1.16896">
        <ele>85</ele>
        <time>2012-04-30T13:27:23Z</time>
      </trkpt>
      <trkpt lat="46.86189" lon="-1.16873">
        <ele>85</ele>
        <time>2012-04-30T13:27:24Z</time>
      </trkpt>
      <trkpt lat="46.86194" lon="-1.16867">
        <ele>85</ele>
        <time>2012-04-30T13:27:25Z</time>
      </trkpt>
      <trkpt lat="46.86205" lon="-1.16856">
        <ele>85</ele>
        <time>2012-04-30T13:27:30Z</time>
      </trkpt>
      <trkpt lat="46.86221" lon="-1.16838">
        <ele>85</ele>
        <time>2012-04-30T13:27:30Z</time>
      </trkpt>
      <trkpt lat="46.86226" lon="-1.16832">
        <ele>85</ele>
        <time>2012-04-30T13:27:31Z</time>
      </trkpt>
      <trkpt lat="46.86237" lon="-1.16821">
        <ele>85</ele>
        <time>2012-04-30T13:27:36Z</time>
      </trkpt>
      <trkpt lat="46.86259" lon="-1.16798">
        <ele>85</ele>
        <time>2012-04-30T13:27:37Z</time>
      </trkpt>
      <trkpt lat="46.86264" lon="-1.16793">
        <ele>85</ele>
        <time>2012-04-30T13:27:38Z</time>
      </trkpt>
      <trkpt lat="46.86276" lon="-1.16783">
        <ele>85</ele>
        <time>2012-04-30T13:27:43Z</time>
      </trkpt>
      <trkpt lat="46.86293" lon="-1.16771">
        <ele>85</ele>
        <time>2012-04-30T13:27:43Z</time>
      </trkpt>
      <trkpt lat="46.86299" lon="-1.16768">
        <ele>86</ele>
        <time>2012-04-30T13:27:44Z</time>
      </trkpt>
      <trkpt lat="46.86311" lon="-1.1676">
        <ele>87</ele>
        <time>2012-04-30T13:27:49Z</time>
      </trkpt>
      <trkpt lat="46.86335" lon="-1.16745">
        <ele>88</ele>
        <time>2012-04-30T13:27:50Z</time>
      </trkpt>
      <trkpt lat="46.86341" lon="-1.16741">
        <ele>89</ele>
        <time>2012-04-30T13:27:51Z</time>
      </trkpt>
      <trkpt lat="46.86353" lon="-1.16733">
        <ele>90</ele>
        <time>2012-04-30T13:27:56Z</time>
      </trkpt>
      <trkpt lat="46.8637" lon="-1.16721">
        <ele>90</ele>
        <time>2012-04-30T13:27:56Z</time>
      </trkpt>
      <trkpt lat="46.86376" lon="-1.16716">
        <ele>91</ele>
        <time>2012-04-30T13:27:57Z</time>
      </trkpt>
      <trkpt lat="46.86388" lon="-1.16708">
        <ele>91</ele>
        <time>2012-04-30T13:28:02Z</time>
      </trkpt>
      <trkpt lat="46.8641" lon="-1.16688">
        <ele>91</ele>
        <time>2012-04-30T13:28:03Z</time>
      </trkpt>
      <trkpt lat="46.86415" lon="-1.16683">
        <ele>92</ele>
        <time>2012-04-30T13:28:04Z</time>
      </trkpt>
      <trkpt lat="46.86426" lon="-1.16674">
        <ele>93</ele>
        <time>2012-04-30T13:28:09Z</time>
      </trkpt>
      <trkpt lat="46.86441" lon="-1.16658">
        <ele>94</ele>
        <time>2012-04-30T13:28:09Z</time>
      </trkpt>
      <trkpt lat="46.86447" lon="-1.16653">
        <ele>95</ele>
        <time>2012-04-30T13:28:10Z</time>
      </trkpt>
      <trkpt lat="46.86457" lon="-1.16643">
        <ele>96</ele>
        <time>2012-04-30T13:28:15Z</time>
      </trkpt>
      <trkpt lat="46.86477" lon="-1.16621">
        <ele>97</ele>
        <time>2012-04-30T13:28:16Z</time>
      </trkpt>
      <trkpt lat="46.86481" lon="-1.16615">
        <ele>98</ele>
        <time>2012-04-30T13:28:17Z</time>
      </trkpt>
      <trkpt lat="46.86503" lon="-1.16585">
        <ele>98</ele>
        <time>2012-04-30T13:28:22Z</time>
      </trkpt>
      <trkpt lat="46.86508" lon="-1.16579">
        <ele>99</ele>
        <time>2012-04-30T13:28:23Z</time>
      </trkpt>
      <trkpt lat="46.86516" lon="-1.16566">
        <ele>99</ele>
        <time>2012-04-30T13:28:28Z</time>
      </trkpt>
      <trkpt lat="46.86531" lon="-1.16539">
        <ele>100</ele>
        <time>2012-04-30T13:28:29Z</time>
      </trkpt>
      <trkpt lat="46.86534" lon="-1.16532">
        <ele>100</ele>
        <time>2012-04-30T13:28:30Z</time>
      </trkpt>
      <trkpt lat="46.86552" lon="-1.16496">
        <ele>100</ele>
        <time>2012-04-30T13:28:35Z</time>
      </trkpt>
      <trkpt lat="46.86555" lon="-1.16489">
        <ele>100</ele>
        <time>2012-04-30T13:28:36Z</time>
      </trkpt>
      <trkpt lat="46.86562" lon="-1.16474">
        <ele>100</ele>
        <time>2012-04-30T13:28:42Z</time>
      </trkpt>
      <trkpt lat="46.86576" lon="-1.16445">
        <ele>100</ele>
        <time>2012-04-30T13:28:42Z</time>
      </trkpt>
      <trkpt lat="46.86579" lon="-1.16437">
        <ele>100</ele>
        <time>2012-04-30T13:28:43Z</time>
      </trkpt>
      <trkpt lat="46.86597" lon="-1.16399">
        <ele>101</ele>
        <time>2012-04-30T13:28:48Z</time>
      </trkpt>
      <trkpt lat="46.866" lon="-1.16391">
        <ele>101</ele>
        <time>2012-04-30T13:28:49Z</time>
      </trkpt>
      <trkpt lat="46.86604" lon="-1.16384">
        <ele>101</ele>
        <time>2012-04-30T13:28:50Z</time>
      </trkpt>
      <trkpt lat="46.86611" lon="-1.16368">
        <ele>101</ele>
        <time>2012-04-30T13:28:55Z</time>
      </trkpt>
      <trkpt lat="46.86622" lon="-1.16345">
        <ele>101</ele>
        <time>2012-04-30T13:28:55Z</time>
      </trkpt>
      <trkpt lat="46.86625" lon="-1.16337">
        <ele>101</ele>
        <time>2012-04-30T13:28:56Z</time>
      </trkpt>
      <trkpt lat="46.86633" lon="-1.16322">
        <ele>101</ele>
        <time>2012-04-30T13:29:01Z</time>
      </trkpt>
      <trkpt lat="46.86648" lon="-1.16289">
        <ele>101</ele>
        <time>2012-04-30T13:29:02Z</time>
      </trkpt>
      <trkpt lat="46.86652" lon="-1.16281">
        <ele>101</ele>
        <time>2012-04-30T13:29:03Z</time>
      </trkpt>
      <trkpt lat="46.8666" lon="-1.16264">
        <ele>101</ele>
        <time>2012-04-30T13:29:08Z</time>
      </trkpt>
      <trkpt lat="46.86672" lon="-1.16238">
        <ele>101</ele>
        <time>2012-04-30T13:29:08Z</time>
      </trkpt>
      <trkpt lat="46.86676" lon="-1.16229">
        <ele>101</ele>
        <time>2012-04-30T13:29:09Z</time>
      </trkpt>
      <trkpt lat="46.86684" lon="-1.16211">
        <ele>101</ele>
        <time>2012-04-30T13:29:14Z</time>
      </trkpt>
      <trkpt lat="46.86701" lon="-1.16176">
        <ele>101</ele>
        <time>2012-04-30T13:29:15Z</time>
      </trkpt>
      <trkpt lat="46.86705" lon="-1.16167">
        <ele>101</ele>
        <time>2012-04-30T13:29:16Z</time>
      </trkpt>
      <trkpt lat="46.86725" lon="-1.16123">
        <ele>101</ele>
        <time>2012-04-30T13:29:21Z</time>
      </trkpt>
      <trkpt lat="46.8673" lon="-1.16114">
        <ele>101</ele>
        <time>2012-04-30T13:29:22Z</time>
      </trkpt>
      <trkpt lat="46.86739" lon="-1.16095">
        <ele>101</ele>
        <time>2012-04-30T13:29:27Z</time>
      </trkpt>
      <trkpt lat="46.86758" lon="-1.1606">
        <ele>101</ele>
        <time>2012-04-30T13:29:28Z</time>
      </trkpt>
      <trkpt lat="46.86764" lon="-1.16051">
        <ele>101</ele>
        <time>2012-04-30T13:29:29Z</time>
      </trkpt>
      <trkpt lat="46.86792" lon="-1.16012">
        <ele>101</ele>
        <time>2012-04-30T13:29:34Z</time>
      </trkpt>
      <trkpt lat="46.86797" lon="-1.16005">
        <ele>101</ele>
        <time>2012-04-30T13:29:35Z</time>
      </trkpt>
      <trkpt lat="46.86809" lon="-1.1599">
        <ele>101</ele>
        <time>2012-04-30T13:29:41Z</time>
      </trkpt>
      <trkpt lat="46.86832" lon="-1.1596">
        <ele>101</ele>
        <time>2012-04-30T13:29:41Z</time>
      </trkpt>
      <trkpt lat="46.86838" lon="-1.15953">
        <ele>101</ele>
        <time>2012-04-30T13:29:42Z</time>
      </trkpt>
      <trkpt lat="46.8685" lon="-1.15937">
        <ele>101</ele>
        <time>2012-04-30T13:29:47Z</time>
      </trkpt>
      <trkpt lat="46.86873" lon="-1.15908">
        <ele>101</ele>
        <time>2012-04-30T13:29:48Z</time>
      </trkpt>
      <trkpt lat="46.86879" lon="-1.159">
        <ele>101</ele>
        <time>2012-04-30T13:29:49Z</time>
      </trkpt>
      <trkpt lat="46.8689" lon="-1.15885">
        <ele>101</ele>
        <time>2012-04-30T13:29:54Z</time>
      </trkpt>
      <trkpt lat="46.86908" lon="-1.15862">
        <ele>101</ele>
        <time>2012-04-30T13:29:54Z</time>
      </trkpt>
      <trkpt lat="46.86914" lon="-1.15854">
        <ele>101</ele>
        <time>2012-04-30T13:29:55Z</time>
      </trkpt>
      <trkpt lat="46.86926" lon="-1.15839">
        <ele>101</ele>
        <time>2012-04-30T13:30:00Z</time>
      </trkpt>
      <trkpt lat="46.8695" lon="-1.15808">
        <ele>101</ele>
        <time>2012-04-30T13:30:01Z</time>
      </trkpt>
      <trkpt lat="46.86956" lon="-1.158">
        <ele>101</ele>
        <time>2012-04-30T13:30:02Z</time>
      </trkpt>
      <trkpt lat="46.86985" lon="-1.15762">
        <ele>101</ele>
        <time>2012-04-30T13:30:07Z</time>
      </trkpt>
      <trkpt lat="46.8699" lon="-1.15754">
        <ele>101</ele>
        <time>2012-04-30T13:30:08Z</time>
      </trkpt>
      <trkpt lat="46.87002" lon="-1.15739">
        <ele>101</ele>
        <time>2012-04-30T13:30:14Z</time>
      </trkpt>
      <trkpt lat="46.87025" lon="-1.15709">
        <ele>101</ele>
        <time>2012-04-30T13:30:14Z</time>
      </trkpt>
      <trkpt lat="46.8703" lon="-1.15702">
        <ele>100</ele>
        <time>2012-04-30T13:30:15Z</time>
      </trkpt>
      <trkpt lat="46.87059" lon="-1.15664">
        <ele>100</ele>
        <time>2012-04-30T13:30:20Z</time>
      </trkpt>
      <trkpt lat="46.87065" lon="-1.15657">
        <ele>100</ele>
        <time>2012-04-30T13:30:21Z</time>
      </trkpt>
      <trkpt lat="46.87071" lon="-1.15649">
        <ele>100</ele>
        <time>2012-04-30T13:30:22Z</time>
      </trkpt>
      <trkpt lat="46.87082" lon="-1.15634">
        <ele>100</ele>
        <time>2012-04-30T13:30:27Z</time>
      </trkpt>
      <trkpt lat="46.87099" lon="-1.15612">
        <ele>99</ele>
        <time>2012-04-30T13:30:27Z</time>
      </trkpt>
      <trkpt lat="46.87105" lon="-1.15604">
        <ele>99</ele>
        <time>2012-04-30T13:30:28Z</time>
      </trkpt>
      <trkpt lat="46.87116" lon="-1.15591">
        <ele>98</ele>
        <time>2012-04-30T13:30:33Z</time>
      </trkpt>
      <trkpt lat="46.87138" lon="-1.15565">
        <ele>98</ele>
        <time>2012-04-30T13:30:34Z</time>
      </trkpt>
      <trkpt lat="46.87143" lon="-1.15559">
        <ele>97</ele>
        <time>2012-04-30T13:30:35Z</time>
      </trkpt>
      <trkpt lat="46.87171" lon="-1.15526">
        <ele>96</ele>
        <time>2012-04-30T13:30:40Z</time>
      </trkpt>
      <trkpt lat="46.87177" lon="-1.1552">
        <ele>96</ele>
        <time>2012-04-30T13:30:41Z</time>
      </trkpt>
      <trkpt lat="46.87189" lon="-1.15507">
        <ele>96</ele>
        <time>2012-04-30T13:30:47Z</time>
      </trkpt>
      <trkpt lat="46.87213" lon="-1.15481">
        <ele>96</ele>
        <time>2012-04-30T13:30:47Z</time>
      </trkpt>
      <trkpt lat="46.87219" lon="-1.15474">
        <ele>96</ele>
        <time>2012-04-30T13:30:48Z</time>
      </trkpt>
      <trkpt lat="46.87249" lon="-1.15442">
        <ele>96</ele>
        <time>2012-04-30T13:30:53Z</time>
      </trkpt>
      <trkpt lat="46.87255" lon="-1.15435">
        <ele>96</ele>
        <time>2012-04-30T13:30:54Z</time>
      </trkpt>
      <trkpt lat="46.87261" lon="-1.15428">
        <ele>96</ele>
        <time>2012-04-30T13:30:55Z</time>
      </trkpt>
      <trkpt lat="46.87273" lon="-1.15415">
        <ele>96</ele>
        <time>2012-04-30T13:31:00Z</time>
      </trkpt>
      <trkpt lat="46.87291" lon="-1.15396">
        <ele>96</ele>
        <time>2012-04-30T13:31:00Z</time>
      </trkpt>
      <trkpt lat="46.87297" lon="-1.15389">
        <ele>96</ele>
        <time>2012-04-30T13:31:01Z</time>
      </trkpt>
      <trkpt lat="46.87309" lon="-1.15376">
        <ele>96</ele>
        <time>2012-04-30T13:31:06Z</time>
      </trkpt>
      <trkpt lat="46.87334" lon="-1.15348">
        <ele>96</ele>
        <time>2012-04-30T13:31:07Z</time>
      </trkpt>
      <trkpt lat="46.8734" lon="-1.15341">
        <ele>96</ele>
        <time>2012-04-30T13:31:08Z</time>
      </trkpt>
      <trkpt lat="46.87373" lon="-1.15304">
        <ele>96</ele>
        <time>2012-04-30T13:31:13Z</time>
      </trkpt>
      <trkpt lat="46.8738" lon="-1.15297">
        <ele>96</ele>
        <time>2012-04-30T13:31:14Z</time>
      </trkpt>
      <trkpt lat="46.87386" lon="-1.15289">
        <ele>96</ele>
        <time>2012-04-30T13:31:15Z</time>
      </trkpt>
      <trkpt lat="46.874" lon="-1.15275">
        <ele>96</ele>
        <time>2012-04-30T13:31:20Z</time>
      </trkpt>
      <trkpt lat="46.8742" lon="-1.15253">
        <ele>96</ele>
        <time>2012-04-30T13:31:20Z</time>
      </trkpt>
      <trkpt lat="46.87426" lon="-1.15245">
        <ele>96</ele>
        <time>2012-04-30T13:31:21Z</time>
      </trkpt>
      <trkpt lat="46.87439" lon="-1.15231">
        <ele>96</ele>
        <time>2012-04-30T13:31:26Z</time>
      </trkpt>
      <trkpt lat="46.87465" lon="-1.15202">
        <ele>96</ele>
        <time>2012-04-30T13:31:27Z</time>
      </trkpt>
      <trkpt lat="46.87471" lon="-1.15195">
        <ele>96</ele>
        <time>2012-04-30T13:31:28Z</time>
      </trkpt>
      <trkpt lat="46.87504" lon="-1.15159">
        <ele>96</ele>
        <time>2012-04-30T13:31:33Z</time>
      </trkpt>
      <trkpt lat="46.8751" lon="-1.15152">
        <ele>96</ele>
        <time>2012-04-30T13:31:34Z</time>
      </trkpt>
      <trkpt lat="46.87517" lon="-1.15145">
        <ele>96</ele>
        <time>2012-04-30T13:31:35Z</time>
      </trkpt>
      <trkpt lat="46.87529" lon="-1.1513">
        <ele>96</ele>
        <time>2012-04-30T13:31:40Z</time>
      </trkpt>
      <trkpt lat="46.87548" lon="-1.15109">
        <ele>96</ele>
        <time>2012-04-30T13:31:40Z</time>
      </trkpt>
      <trkpt lat="46.87555" lon="-1.15101">
        <ele>96</ele>
        <time>2012-04-30T13:31:41Z</time>
      </trkpt>
      <trkpt lat="46.87568" lon="-1.15087">
        <ele>96</ele>
        <time>2012-04-30T13:31:46Z</time>
      </trkpt>
      <trkpt lat="46.87593" lon="-1.15059">
        <ele>96</ele>
        <time>2012-04-30T13:31:47Z</time>
      </trkpt>
      <trkpt lat="46.87599" lon="-1.15052">
        <ele>96</ele>
        <time>2012-04-30T13:31:48Z</time>
      </trkpt>
      <trkpt lat="46.87632" lon="-1.15016">
        <ele>96</ele>
        <time>2012-04-30T13:31:53Z</time>
      </trkpt>
      <trkpt lat="46.87639" lon="-1.15008">
        <ele>96</ele>
        <time>2012-04-30T13:31:54Z</time>
      </trkpt>
      <trkpt lat="46.87645" lon="-1.15">
        <ele>96</ele>
        <time>2012-04-30T13:31:55Z</time>
      </trkpt>
      <trkpt lat="46.87659" lon="-1.14985">
        <ele>95</ele>
        <time>2012-04-30T13:32:00Z</time>
      </trkpt>
      <trkpt lat="46.87681" lon="-1.14961">
        <ele>94</ele>
        <time>2012-04-30T13:32:00Z</time>
      </trkpt>
      <trkpt lat="46.87688" lon="-1.14953">
        <ele>94</ele>
        <time>2012-04-30T13:32:01Z</time>
      </trkpt>
      <trkpt lat="46.87701" lon="-1.14937">
        <ele>93</ele>
        <time>2012-04-30T13:32:06Z</time>
      </trkpt>
      <trkpt lat="46.87727" lon="-1.14908">
        <ele>92</ele>
        <time>2012-04-30T13:32:07Z</time>
      </trkpt>
      <trkpt lat="46.87732" lon="-1.14901">
        <ele>91</ele>
        <time>2012-04-30T13:32:08Z</time>
      </trkpt>
      <trkpt lat="46.87761" lon="-1.14869">
        <ele>90</ele>
        <time>2012-04-30T13:32:13Z</time>
      </trkpt>
      <trkpt lat="46.87767" lon="-1.14863">
        <ele>90</ele>
        <time>2012-04-30T13:32:14Z</time>
      </trkpt>
      <trkpt lat="46.87772" lon="-1.14857">
        <ele>90</ele>
        <time>2012-04-30T13:32:15Z</time>
      </trkpt>
      <trkpt lat="46.87783" lon="-1.14845">
        <ele>90</ele>
        <time>2012-04-30T13:32:20Z</time>
      </trkpt>
      <trkpt lat="46.87798" lon="-1.14827">
        <ele>90</ele>
        <time>2012-04-30T13:32:20Z</time>
      </trkpt>
      <trkpt lat="46.87803" lon="-1.14822">
        <ele>90</ele>
        <time>2012-04-30T13:32:21Z</time>
      </trkpt>
      <trkpt lat="46.87814" lon="-1.1481">
        <ele>90</ele>
        <time>2012-04-30T13:32:26Z</time>
      </trkpt>
      <trkpt lat="46.87834" lon="-1.14786">
        <ele>90</ele>
        <time>2012-04-30T13:32:27Z</time>
      </trkpt>
      <trkpt lat="46.87839" lon="-1.1478">
        <ele>90</ele>
        <time>2012-04-30T13:32:28Z</time>
      </trkpt>
      <trkpt lat="46.87865" lon="-1.14749">
        <ele>90</ele>
        <time>2012-04-30T13:32:33Z</time>
      </trkpt>
      <trkpt lat="46.8787" lon="-1.14743">
        <ele>90</ele>
        <time>2012-04-30T13:32:34Z</time>
      </trkpt>
      <trkpt lat="46.87876" lon="-1.14737">
        <ele>90</ele>
        <time>2012-04-30T13:32:35Z</time>
      </trkpt>
      <trkpt lat="46.87888" lon="-1.14725">
        <ele>90</ele>
        <time>2012-04-30T13:32:40Z</time>
      </trkpt>
      <trkpt lat="46.87906" lon="-1.14707">
        <ele>90</ele>
        <time>2012-04-30T13:32:40Z</time>
      </trkpt>
      <trkpt lat="46.87912" lon="-1.147">
        <ele>90</ele>
        <time>2012-04-30T13:32:41Z</time>
      </trkpt>
      <trkpt lat="46.87924" lon="-1.14688">
        <ele>90</ele>
        <time>2012-04-30T13:32:46Z</time>
      </trkpt>
      <trkpt lat="46.87948" lon="-1.14663">
        <ele>90</ele>
        <time>2012-04-30T13:32:47Z</time>
      </trkpt>
      <trkpt lat="46.87954" lon="-1.14656">
        <ele>91</ele>
        <time>2012-04-30T13:32:48Z</time>
      </trkpt>
      <trkpt lat="46.87982" lon="-1.14625">
        <ele>92</ele>
        <time>2012-04-30T13:32:53Z</time>
      </trkpt>
      <trkpt lat="46.87988" lon="-1.14618">
        <ele>92</ele>
        <time>2012-04-30T13:32:54Z</time>
      </trkpt>
      <trkpt lat="46.87993" lon="-1.14611">
        <ele>92</ele>
        <time>2012-04-30T13:32:55Z</time>
      </trkpt>
      <trkpt lat="46.88005" lon="-1.14598">
        <ele>92</ele>
        <time>2012-04-30T13:33:00Z</time>
      </trkpt>
      <trkpt lat="46.88023" lon="-1.14578">
        <ele>92</ele>
        <time>2012-04-30T13:33:00Z</time>
      </trkpt>
      <trkpt lat="46.88029" lon="-1.14571">
        <ele>92</ele>
        <time>2012-04-30T13:33:01Z</time>
      </trkpt>
      <trkpt lat="46.88041" lon="-1.14558">
        <ele>92</ele>
        <time>2012-04-30T13:33:06Z</time>
      </trkpt>
      <trkpt lat="46.88064" lon="-1.14532">
        <ele>92</ele>
        <time>2012-04-30T13:33:07Z</time>
      </trkpt>
      <trkpt lat="46.88071" lon="-1.14526">
        <ele>92</ele>
        <time>2012-04-30T13:33:08Z</time>
      </trkpt>
      <trkpt lat="46.88101" lon="-1.14493">
        <ele>92</ele>
        <time>2012-04-30T13:33:13Z</time>
      </trkpt>
      <trkpt lat="46.88107" lon="-1.14486">
        <ele>92</ele>
        <time>2012-04-30T13:33:14Z</time>
      </trkpt>
      <trkpt lat="46.88113" lon="-1.1448">
        <ele>92</ele>
        <time>2012-04-30T13:33:15Z</time>
      </trkpt>
      <trkpt lat="46.88125" lon="-1.14467">
        <ele>92</ele>
        <time>2012-04-30T13:33:20Z</time>
      </trkpt>
      <trkpt lat="46.88142" lon="-1.14447">
        <ele>92</ele>
        <time>2012-04-30T13:33:20Z</time>
      </trkpt>
      <trkpt lat="46.88148" lon="-1.14441">
        <ele>92</ele>
        <time>2012-04-30T13:33:21Z</time>
      </trkpt>
      <trkpt lat="46.88159" lon="-1.14428">
        <ele>92</ele>
        <time>2012-04-30T13:33:26Z</time>
      </trkpt>
      <trkpt lat="46.88182" lon="-1.14402">
        <ele>92</ele>
        <time>2012-04-30T13:33:27Z</time>
      </trkpt>
      <trkpt lat="46.88188" lon="-1.14395">
        <ele>92</ele>
        <time>2012-04-30T13:33:28Z</time>
      </trkpt>
      <trkpt lat="46.88219" lon="-1.14361">
        <ele>92</ele>
        <time>2012-04-30T13:33:33Z</time>
      </trkpt>
      <trkpt lat="46.88225" lon="-1.14354">
        <ele>92</ele>
        <time>2012-04-30T13:33:34Z</time>
      </trkpt>
      <trkpt lat="46.88231" lon="-1.14347">
        <ele>92</ele>
        <time>2012-04-30T13:33:35Z</time>
      </trkpt>
      <trkpt lat="46.88244" lon="-1.14333">
        <ele>92</ele>
        <time>2012-04-30T13:33:40Z</time>
      </trkpt>
      <trkpt lat="46.88263" lon="-1.14312">
        <ele>92</ele>
        <time>2012-04-30T13:33:40Z</time>
      </trkpt>
      <trkpt lat="46.88268" lon="-1.14305">
        <ele>92</ele>
        <time>2012-04-30T13:33:41Z</time>
      </trkpt>
      <trkpt lat="46.8828" lon="-1.14291">
        <ele>92</ele>
        <time>2012-04-30T13:33:46Z</time>
      </trkpt>
      <trkpt lat="46.88306" lon="-1.14263">
        <ele>92</ele>
        <time>2012-04-30T13:33:47Z</time>
      </trkpt>
      <trkpt lat="46.88312" lon="-1.14257">
        <ele>92</ele>
        <time>2012-04-30T13:33:48Z</time>
      </trkpt>
      <trkpt lat="46.88344" lon="-1.14223">
        <ele>92</ele>
        <time>2012-04-30T13:33:53Z</time>
      </trkpt>
      <trkpt lat="46.8835" lon="-1.14217">
        <ele>92</ele>
        <time>2012-04-30T13:33:54Z</time>
      </trkpt>
      <trkpt lat="46.88357" lon="-1.14211">
        <ele>92</ele>
        <time>2012-04-30T13:33:55Z</time>
      </trkpt>
      <trkpt lat="46.88371" lon="-1.14199">
        <ele>92</ele>
        <time>2012-04-30T13:34:00Z</time>
      </trkpt>
      <trkpt lat="46.88392" lon="-1.14183">
        <ele>92</ele>
        <time>2012-04-30T13:34:00Z</time>
      </trkpt>
      <trkpt lat="46.884" lon="-1.14179">
        <ele>92</ele>
        <time>2012-04-30T13:34:01Z</time>
      </trkpt>
      <trkpt lat="46.88414" lon="-1.1417">
        <ele>92</ele>
        <time>2012-04-30T13:34:06Z</time>
      </trkpt>
      <trkpt lat="46.88444" lon="-1.14152">
        <ele>92</ele>
        <time>2012-04-30T13:34:07Z</time>
      </trkpt>
      <trkpt lat="46.88451" lon="-1.14148">
        <ele>92</ele>
        <time>2012-04-30T13:34:08Z</time>
      </trkpt>
      <trkpt lat="46.88489" lon="-1.14126">
        <ele>92</ele>
        <time>2012-04-30T13:34:13Z</time>
      </trkpt>
      <trkpt lat="46.88497" lon="-1.14122">
        <ele>92</ele>
        <time>2012-04-30T13:34:14Z</time>
      </trkpt>
      <trkpt lat="46.88504" lon="-1.14118">
        <ele>92</ele>
        <time>2012-04-30T13:34:15Z</time>
      </trkpt>
      <trkpt lat="46.88519" lon="-1.1411">
        <ele>92</ele>
        <time>2012-04-30T13:34:20Z</time>
      </trkpt>
      <trkpt lat="46.88542" lon="-1.14099">
        <ele>92</ele>
        <time>2012-04-30T13:34:20Z</time>
      </trkpt>
      <trkpt lat="46.8855" lon="-1.14096">
        <ele>92</ele>
        <time>2012-04-30T13:34:21Z</time>
      </trkpt>
      <trkpt lat="46.88565" lon="-1.14091">
        <ele>92</ele>
        <time>2012-04-30T13:34:26Z</time>
      </trkpt>
      <trkpt lat="46.88597" lon="-1.14084">
        <ele>92</ele>
        <time>2012-04-30T13:34:27Z</time>
      </trkpt>
      <trkpt lat="46.88605" lon="-1.14084">
        <ele>92</ele>
        <time>2012-04-30T13:34:28Z</time>
      </trkpt>
      <trkpt lat="46.88644" lon="-1.14081">
        <ele>91</ele>
        <time>2012-04-30T13:34:33Z</time>
      </trkpt>
      <trkpt lat="46.88652" lon="-1.14081">
        <ele>91</ele>
        <time>2012-04-30T13:34:34Z</time>
      </trkpt>
      <trkpt lat="46.88668" lon="-1.14079">
        <ele>90</ele>
        <time>2012-04-30T13:34:40Z</time>
      </trkpt>
      <trkpt lat="46.88699" lon="-1.14077">
        <ele>90</ele>
        <time>2012-04-30T13:34:40Z</time>
      </trkpt>
      <trkpt lat="46.88707" lon="-1.14077">
        <ele>89</ele>
        <time>2012-04-30T13:34:41Z</time>
      </trkpt>
      <trkpt lat="46.88723" lon="-1.14076">
        <ele>88</ele>
        <time>2012-04-30T13:34:46Z</time>
      </trkpt>
      <trkpt lat="46.88755" lon="-1.14074">
        <ele>88</ele>
        <time>2012-04-30T13:34:47Z</time>
      </trkpt>
      <trkpt lat="46.88763" lon="-1.14073">
        <ele>87</ele>
        <time>2012-04-30T13:34:48Z</time>
      </trkpt>
      <trkpt lat="46.88778" lon="-1.14072">
        <ele>87</ele>
        <time>2012-04-30T13:34:53Z</time>
      </trkpt>
      <trkpt lat="46.88801" lon="-1.1407">
        <ele>86</ele>
        <time>2012-04-30T13:34:53Z</time>
      </trkpt>
      <trkpt lat="46.88809" lon="-1.1407">
        <ele>86</ele>
        <time>2012-04-30T13:34:54Z</time>
      </trkpt>
      <trkpt lat="46.88824" lon="-1.14069">
        <ele>86</ele>
        <time>2012-04-30T13:34:59Z</time>
      </trkpt>
      <trkpt lat="46.88854" lon="-1.14067">
        <ele>86</ele>
        <time>2012-04-30T13:35:00Z</time>
      </trkpt>
      <trkpt lat="46.88861" lon="-1.14066">
        <ele>85</ele>
        <time>2012-04-30T13:35:01Z</time>
      </trkpt>
      <trkpt lat="46.88877" lon="-1.14065">
        <ele>85</ele>
        <time>2012-04-30T13:35:06Z</time>
      </trkpt>
      <trkpt lat="46.88908" lon="-1.14063">
        <ele>85</ele>
        <time>2012-04-30T13:35:07Z</time>
      </trkpt>
      <trkpt lat="46.88916" lon="-1.14062">
        <ele>84</ele>
        <time>2012-04-30T13:35:08Z</time>
      </trkpt>
      <trkpt lat="46.88931" lon="-1.1406">
        <ele>84</ele>
        <time>2012-04-30T13:35:13Z</time>
      </trkpt>
      <trkpt lat="46.88955" lon="-1.14058">
        <ele>83</ele>
        <time>2012-04-30T13:35:13Z</time>
      </trkpt>
      <trkpt lat="46.88963" lon="-1.14057">
        <ele>83</ele>
        <time>2012-04-30T13:35:14Z</time>
      </trkpt>
      <trkpt lat="46.8898" lon="-1.14056">
        <ele>82</ele>
        <time>2012-04-30T13:35:19Z</time>
      </trkpt>
      <trkpt lat="46.89015" lon="-1.14053">
        <ele>81</ele>
        <time>2012-04-30T13:35:20Z</time>
      </trkpt>
      <trkpt lat="46.89024" lon="-1.14052">
        <ele>81</ele>
        <time>2012-04-30T13:35:21Z</time>
      </trkpt>
      <trkpt lat="46.89043" lon="-1.14051">
        <ele>80</ele>
        <time>2012-04-30T13:35:26Z</time>
      </trkpt>
      <trkpt lat="46.8908" lon="-1.14047">
        <ele>79</ele>
        <time>2012-04-30T13:35:27Z</time>
      </trkpt>
      <trkpt lat="46.8909" lon="-1.14047">
        <ele>78</ele>
        <time>2012-04-30T13:35:28Z</time>
      </trkpt>
      <trkpt lat="46.89109" lon="-1.14045">
        <ele>77</ele>
        <time>2012-04-30T13:35:33Z</time>
      </trkpt>
      <trkpt lat="46.89141" lon="-1.14042">
        <ele>76</ele>
        <time>2012-04-30T13:35:33Z</time>
      </trkpt>
      <trkpt lat="46.89151" lon="-1.14041">
        <ele>75</ele>
        <time>2012-04-30T13:35:34Z</time>
      </trkpt>
      <trkpt lat="46.89173" lon="-1.1404">
        <ele>74</ele>
        <time>2012-04-30T13:35:39Z</time>
      </trkpt>
      <trkpt lat="46.89217" lon="-1.14037">
        <ele>73</ele>
        <time>2012-04-30T13:35:40Z</time>
      </trkpt>
      <trkpt lat="46.89227" lon="-1.14036">
        <ele>72</ele>
        <time>2012-04-30T13:35:41Z</time>
      </trkpt>
      <trkpt lat="46.89249" lon="-1.14034">
        <ele>71</ele>
        <time>2012-04-30T13:35:46Z</time>
      </trkpt>
      <trkpt lat="46.89293" lon="-1.14022">
        <ele>70</ele>
        <time>2012-04-30T13:35:47Z</time>
      </trkpt>
      <trkpt lat="46.89304" lon="-1.14014">
        <ele>69</ele>
        <time>2012-04-30T13:35:49Z</time>
      </trkpt>
      <trkpt lat="46.89313" lon="-1.14004">
        <ele>68</ele>
        <time>2012-04-30T13:35:49Z</time>
      </trkpt>
      <trkpt lat="46.89327" lon="-1.13977">
        <ele>67</ele>
        <time>2012-04-30T13:35:55Z</time>
      </trkpt>
      <trkpt lat="46.89341" lon="-1.13914">
        <ele>66</ele>
        <time>2012-04-30T13:35:55Z</time>
      </trkpt>
      <trkpt lat="46.89345" lon="-1.13898">
        <ele>65</ele>
        <time>2012-04-30T13:35:56Z</time>
      </trkpt>
      <trkpt lat="46.89349" lon="-1.13883">
        <ele>64</ele>
        <time>2012-04-30T13:35:57Z</time>
      </trkpt>
      <trkpt lat="46.89354" lon="-1.13855">
        <ele>63</ele>
        <time>2012-04-30T13:36:02Z</time>
      </trkpt>
      <trkpt lat="46.89372" lon="-1.13808">
        <ele>63</ele>
        <time>2012-04-30T13:36:03Z</time>
      </trkpt>
      <trkpt lat="46.89377" lon="-1.13798">
        <ele>63</ele>
        <time>2012-04-30T13:36:05Z</time>
      </trkpt>
      <trkpt lat="46.89381" lon="-1.13788">
        <ele>63</ele>
        <time>2012-04-30T13:36:06Z</time>
      </trkpt>
      <trkpt lat="46.89391" lon="-1.1377">
        <ele>63</ele>
        <time>2012-04-30T13:36:10Z</time>
      </trkpt>
      <trkpt lat="46.89408" lon="-1.13741">
        <ele>63</ele>
        <time>2012-04-30T13:36:11Z</time>
      </trkpt>
      <trkpt lat="46.89412" lon="-1.13735">
        <ele>63</ele>
        <time>2012-04-30T13:36:12Z</time>
      </trkpt>
      <trkpt lat="46.89432" lon="-1.13709">
        <ele>63</ele>
        <time>2012-04-30T13:36:17Z</time>
      </trkpt>
      <trkpt lat="46.89436" lon="-1.13705">
        <ele>64</ele>
        <time>2012-04-30T13:36:18Z</time>
      </trkpt>
      <trkpt lat="46.8944" lon="-1.13701">
        <ele>65</ele>
        <time>2012-04-30T13:36:19Z</time>
      </trkpt>
      <trkpt lat="46.89447" lon="-1.13693">
        <ele>66</ele>
        <time>2012-04-30T13:36:24Z</time>
      </trkpt>
      <trkpt lat="46.89457" lon="-1.13683">
        <ele>67</ele>
        <time>2012-04-30T13:36:24Z</time>
      </trkpt>
      <trkpt lat="46.89461" lon="-1.1368">
        <ele>68</ele>
        <time>2012-04-30T13:36:25Z</time>
      </trkpt>
      <trkpt lat="46.89469" lon="-1.13674">
        <ele>69</ele>
        <time>2012-04-30T13:36:30Z</time>
      </trkpt>
      <trkpt lat="46.89486" lon="-1.13663">
        <ele>70</ele>
        <time>2012-04-30T13:36:31Z</time>
      </trkpt>
      <trkpt lat="46.89491" lon="-1.13661">
        <ele>71</ele>
        <time>2012-04-30T13:36:32Z</time>
      </trkpt>
      <trkpt lat="46.89514" lon="-1.13651">
        <ele>72</ele>
        <time>2012-04-30T13:36:37Z</time>
      </trkpt>
      <trkpt lat="46.89519" lon="-1.13648">
        <ele>73</ele>
        <time>2012-04-30T13:36:38Z</time>
      </trkpt>
      <trkpt lat="46.89524" lon="-1.13646">
        <ele>74</ele>
        <time>2012-04-30T13:36:39Z</time>
      </trkpt>
      <trkpt lat="46.89534" lon="-1.13642">
        <ele>75</ele>
        <time>2012-04-30T13:36:44Z</time>
      </trkpt>
      <trkpt lat="46.89548" lon="-1.13635">
        <ele>76</ele>
        <time>2012-04-30T13:36:44Z</time>
      </trkpt>
      <trkpt lat="46.89553" lon="-1.13633">
        <ele>77</ele>
        <time>2012-04-30T13:36:45Z</time>
      </trkpt>
      <trkpt lat="46.89563" lon="-1.13629">
        <ele>78</ele>
        <time>2012-04-30T13:36:50Z</time>
      </trkpt>
      <trkpt lat="46.89582" lon="-1.13621">
        <ele>79</ele>
        <time>2012-04-30T13:36:51Z</time>
      </trkpt>
      <trkpt lat="46.89587" lon="-1.13619">
        <ele>80</ele>
        <time>2012-04-30T13:36:52Z</time>
      </trkpt>
      <trkpt lat="46.89597" lon="-1.13614">
        <ele>81</ele>
        <time>2012-04-30T13:36:57Z</time>
      </trkpt>
      <trkpt lat="46.89617" lon="-1.13606">
        <ele>82</ele>
        <time>2012-04-30T13:36:58Z</time>
      </trkpt>
      <trkpt lat="46.89622" lon="-1.13604">
        <ele>83</ele>
        <time>2012-04-30T13:36:59Z</time>
      </trkpt>
      <trkpt lat="46.89631" lon="-1.13599">
        <ele>84</ele>
        <time>2012-04-30T13:37:04Z</time>
      </trkpt>
      <trkpt lat="46.89646" lon="-1.13593">
        <ele>85</ele>
        <time>2012-04-30T13:37:04Z</time>
      </trkpt>
      <trkpt lat="46.89651" lon="-1.13591">
        <ele>86</ele>
        <time>2012-04-30T13:37:05Z</time>
      </trkpt>
      <trkpt lat="46.89661" lon="-1.13586">
        <ele>87</ele>
        <time>2012-04-30T13:37:10Z</time>
      </trkpt>
      <trkpt lat="46.89681" lon="-1.13577">
        <ele>88</ele>
        <time>2012-04-30T13:37:11Z</time>
      </trkpt>
      <trkpt lat="46.89687" lon="-1.13574">
        <ele>89</ele>
        <time>2012-04-30T13:37:12Z</time>
      </trkpt>
      <trkpt lat="46.89697" lon="-1.13569">
        <ele>90</ele>
        <time>2012-04-30T13:37:17Z</time>
      </trkpt>
      <trkpt lat="46.89719" lon="-1.13559">
        <ele>91</ele>
        <time>2012-04-30T13:37:18Z</time>
      </trkpt>
      <trkpt lat="46.89725" lon="-1.13556">
        <ele>92</ele>
        <time>2012-04-30T13:37:19Z</time>
      </trkpt>
      <trkpt lat="46.89736" lon="-1.13551">
        <ele>92</ele>
        <time>2012-04-30T13:37:24Z</time>
      </trkpt>
      <trkpt lat="46.89753" lon="-1.13543">
        <ele>92</ele>
        <time>2012-04-30T13:37:24Z</time>
      </trkpt>
      <trkpt lat="46.89759" lon="-1.1354">
        <ele>92</ele>
        <time>2012-04-30T13:37:25Z</time>
      </trkpt>
      <trkpt lat="46.8977" lon="-1.13534">
        <ele>92</ele>
        <time>2012-04-30T13:37:31Z</time>
      </trkpt>
      <trkpt lat="46.89793" lon="-1.13522">
        <ele>92</ele>
        <time>2012-04-30T13:37:31Z</time>
      </trkpt>
      <trkpt lat="46.89799" lon="-1.13518">
        <ele>92</ele>
        <time>2012-04-30T13:37:32Z</time>
      </trkpt>
      <trkpt lat="46.8981" lon="-1.13511">
        <ele>92</ele>
        <time>2012-04-30T13:37:37Z</time>
      </trkpt>
      <trkpt lat="46.8983" lon="-1.13495">
        <ele>92</ele>
        <time>2012-04-30T13:37:38Z</time>
      </trkpt>
      <trkpt lat="46.89835" lon="-1.1349">
        <ele>92</ele>
        <time>2012-04-30T13:37:39Z</time>
      </trkpt>
      <trkpt lat="46.89846" lon="-1.13481">
        <ele>92</ele>
        <time>2012-04-30T13:37:44Z</time>
      </trkpt>
      <trkpt lat="46.89862" lon="-1.13468">
        <ele>92</ele>
        <time>2012-04-30T13:37:44Z</time>
      </trkpt>
      <trkpt lat="46.89867" lon="-1.13463">
        <ele>92</ele>
        <time>2012-04-30T13:37:45Z</time>
      </trkpt>
      <trkpt lat="46.89878" lon="-1.13454">
        <ele>92</ele>
        <time>2012-04-30T13:37:51Z</time>
      </trkpt>
      <trkpt lat="46.89899" lon="-1.13435">
        <ele>92</ele>
        <time>2012-04-30T13:37:51Z</time>
      </trkpt>
      <trkpt lat="46.89905" lon="-1.13431">
        <ele>92</ele>
        <time>2012-04-30T13:37:52Z</time>
      </trkpt>
      <trkpt lat="46.89916" lon="-1.13421">
        <ele>92</ele>
        <time>2012-04-30T13:37:57Z</time>
      </trkpt>
      <trkpt lat="46.89939" lon="-1.13402">
        <ele>92</ele>
        <time>2012-04-30T13:37:58Z</time>
      </trkpt>
      <trkpt lat="46.89945" lon="-1.13397">
        <ele>92</ele>
        <time>2012-04-30T13:37:59Z</time>
      </trkpt>
      <trkpt lat="46.89956" lon="-1.13387">
        <ele>92</ele>
        <time>2012-04-30T13:38:04Z</time>
      </trkpt>
      <trkpt lat="46.89973" lon="-1.13373">
        <ele>92</ele>
        <time>2012-04-30T13:38:04Z</time>
      </trkpt>
      <trkpt lat="46.89979" lon="-1.13368">
        <ele>92</ele>
        <time>2012-04-30T13:38:05Z</time>
      </trkpt>
      <trkpt lat="46.89989" lon="-1.13359">
        <ele>92</ele>
        <time>2012-04-30T13:38:11Z</time>
      </trkpt>
      <trkpt lat="46.90012" lon="-1.1334">
        <ele>92</ele>
        <time>2012-04-30T13:38:11Z</time>
      </trkpt>
      <trkpt lat="46.90017" lon="-1.13335">
        <ele>92</ele>
        <time>2012-04-30T13:38:12Z</time>
      </trkpt>
      <trkpt lat="46.90028" lon="-1.13326">
        <ele>92</ele>
        <time>2012-04-30T13:38:17Z</time>
      </trkpt>
      <trkpt lat="46.90052" lon="-1.13308">
        <ele>92</ele>
        <time>2012-04-30T13:38:18Z</time>
      </trkpt>
      <trkpt lat="46.90058" lon="-1.13303">
        <ele>92</ele>
        <time>2012-04-30T13:38:19Z</time>
      </trkpt>
      <trkpt lat="46.9007" lon="-1.13295">
        <ele>92</ele>
        <time>2012-04-30T13:38:24Z</time>
      </trkpt>
      <trkpt lat="46.90088" lon="-1.13284">
        <ele>92</ele>
        <time>2012-04-30T13:38:24Z</time>
      </trkpt>
      <trkpt lat="46.90094" lon="-1.1328">
        <ele>92</ele>
        <time>2012-04-30T13:38:25Z</time>
      </trkpt>
      <trkpt lat="46.90107" lon="-1.13274">
        <ele>92</ele>
        <time>2012-04-30T13:38:31Z</time>
      </trkpt>
      <trkpt lat="46.90133" lon="-1.13262">
        <ele>92</ele>
        <time>2012-04-30T13:38:31Z</time>
      </trkpt>
      <trkpt lat="46.9014" lon="-1.1326">
        <ele>92</ele>
        <time>2012-04-30T13:38:32Z</time>
      </trkpt>
      <trkpt lat="46.90153" lon="-1.13255">
        <ele>92</ele>
        <time>2012-04-30T13:38:37Z</time>
      </trkpt>
      <trkpt lat="46.90182" lon="-1.13246">
        <ele>92</ele>
        <time>2012-04-30T13:38:38Z</time>
      </trkpt>
      <trkpt lat="46.90189" lon="-1.13244">
        <ele>92</ele>
        <time>2012-04-30T13:38:39Z</time>
      </trkpt>
      <trkpt lat="46.90203" lon="-1.1324">
        <ele>92</ele>
        <time>2012-04-30T13:38:44Z</time>
      </trkpt>
      <trkpt lat="46.90227" lon="-1.13236">
        <ele>92</ele>
        <time>2012-04-30T13:38:44Z</time>
      </trkpt>
      <trkpt lat="46.90235" lon="-1.13234">
        <ele>92</ele>
        <time>2012-04-30T13:38:45Z</time>
      </trkpt>
      <trkpt lat="46.90251" lon="-1.13232">
        <ele>92</ele>
        <time>2012-04-30T13:38:51Z</time>
      </trkpt>
      <trkpt lat="46.90284" lon="-1.13232">
        <ele>91</ele>
        <time>2012-04-30T13:38:51Z</time>
      </trkpt>
      <trkpt lat="46.90292" lon="-1.13232">
        <ele>90</ele>
        <time>2012-04-30T13:38:52Z</time>
      </trkpt>
      <trkpt lat="46.90309" lon="-1.13232">
        <ele>89</ele>
        <time>2012-04-30T13:38:57Z</time>
      </trkpt>
      <trkpt lat="46.90343" lon="-1.13231">
        <ele>88</ele>
        <time>2012-04-30T13:38:58Z</time>
      </trkpt>
      <trkpt lat="46.90352" lon="-1.1323">
        <ele>87</ele>
        <time>2012-04-30T13:38:59Z</time>
      </trkpt>
      <trkpt lat="46.90394" lon="-1.13222">
        <ele>86</ele>
        <time>2012-04-30T13:39:04Z</time>
      </trkpt>
      <trkpt lat="46.90402" lon="-1.13219">
        <ele>85</ele>
        <time>2012-04-30T13:39:05Z</time>
      </trkpt>
      <trkpt lat="46.90419" lon="-1.13213">
        <ele>84</ele>
        <time>2012-04-30T13:39:11Z</time>
      </trkpt>
      <trkpt lat="46.90451" lon="-1.13197">
        <ele>83</ele>
        <time>2012-04-30T13:39:11Z</time>
      </trkpt>
      <trkpt lat="46.90459" lon="-1.13192">
        <ele>82</ele>
        <time>2012-04-30T13:39:12Z</time>
      </trkpt>
      <trkpt lat="46.90475" lon="-1.13181">
        <ele>81</ele>
        <time>2012-04-30T13:39:17Z</time>
      </trkpt>
      <trkpt lat="46.90507" lon="-1.13154">
        <ele>80</ele>
        <time>2012-04-30T13:39:18Z</time>
      </trkpt>
      <trkpt lat="46.90514" lon="-1.13146">
        <ele>79</ele>
        <time>2012-04-30T13:39:19Z</time>
      </trkpt>
      <trkpt lat="46.9055" lon="-1.13109">
        <ele>78</ele>
        <time>2012-04-30T13:39:24Z</time>
      </trkpt>
      <trkpt lat="46.90556" lon="-1.13102">
        <ele>77</ele>
        <time>2012-04-30T13:39:25Z</time>
      </trkpt>
      <trkpt lat="46.90569" lon="-1.13089">
        <ele>76</ele>
        <time>2012-04-30T13:39:31Z</time>
      </trkpt>
      <trkpt lat="46.90588" lon="-1.13069">
        <ele>76</ele>
        <time>2012-04-30T13:39:31Z</time>
      </trkpt>
      <trkpt lat="46.90591" lon="-1.13066">
        <ele>76</ele>
        <time>2012-04-30T13:39:32Z</time>
      </trkpt>
      <trkpt lat="46.90594" lon="-1.13063">
        <ele>76</ele>
        <time>2012-04-30T13:39:37Z</time>
      </trkpt>
      <trkpt lat="46.906" lon="-1.13058">
        <ele>76</ele>
        <time>2012-04-30T13:39:38Z</time>
      </trkpt>
      <trkpt lat="46.90601" lon="-1.13057">
        <ele>76</ele>
        <time>2012-04-30T13:39:39Z</time>
      </trkpt>
      <trkpt lat="46.90609" lon="-1.13049">
        <ele>76</ele>
        <time>2012-04-30T13:39:44Z</time>
      </trkpt>
      <trkpt lat="46.90611" lon="-1.13048">
        <ele>76</ele>
        <time>2012-04-30T13:39:46Z</time>
      </trkpt>
      <trkpt lat="46.90614" lon="-1.13049">
        <ele>76</ele>
        <time>2012-04-30T13:39:47Z</time>
      </trkpt>
      <trkpt lat="46.90617" lon="-1.13051">
        <ele>76</ele>
        <time>2012-04-30T13:39:48Z</time>
      </trkpt>
      <trkpt lat="46.9062" lon="-1.13056">
        <ele>76</ele>
        <time>2012-04-30T13:39:49Z</time>
      </trkpt>
      <trkpt lat="46.90626" lon="-1.13075">
        <ele>76</ele>
        <time>2012-04-30T13:39:54Z</time>
      </trkpt>
      <trkpt lat="46.90638" lon="-1.13106">
        <ele>75</ele>
        <time>2012-04-30T13:39:56Z</time>
      </trkpt>
      <trkpt lat="46.90641" lon="-1.13114">
        <ele>75</ele>
        <time>2012-04-30T13:39:56Z</time>
      </trkpt>
      <trkpt lat="46.90645" lon="-1.13121">
        <ele>75</ele>
        <time>2012-04-30T13:39:57Z</time>
      </trkpt>
      <trkpt lat="46.90652" lon="-1.13135">
        <ele>75</ele>
        <time>2012-04-30T13:40:02Z</time>
      </trkpt>
      <trkpt lat="46.90665" lon="-1.13159">
        <ele>75</ele>
        <time>2012-04-30T13:40:03Z</time>
      </trkpt>
      <trkpt lat="46.90667" lon="-1.13164">
        <ele>75</ele>
        <time>2012-04-30T13:40:04Z</time>
      </trkpt>
      <trkpt lat="46.90681" lon="-1.1319">
        <ele>75</ele>
        <time>2012-04-30T13:40:09Z</time>
      </trkpt>
      <trkpt lat="46.90683" lon="-1.13196">
        <ele>75</ele>
        <time>2012-04-30T13:40:10Z</time>
      </trkpt>
      <trkpt lat="46.90688" lon="-1.13207">
        <ele>76</ele>
        <time>2012-04-30T13:40:16Z</time>
      </trkpt>
      <trkpt lat="46.90699" lon="-1.13228">
        <ele>77</ele>
        <time>2012-04-30T13:40:16Z</time>
      </trkpt>
      <trkpt lat="46.90702" lon="-1.13233">
        <ele>78</ele>
        <time>2012-04-30T13:40:17Z</time>
      </trkpt>
      <trkpt lat="46.90708" lon="-1.13243">
        <ele>79</ele>
        <time>2012-04-30T13:40:22Z</time>
      </trkpt>
      <trkpt lat="46.9072" lon="-1.13263">
        <ele>80</ele>
        <time>2012-04-30T13:40:23Z</time>
      </trkpt>
      <trkpt lat="46.90723" lon="-1.13268">
        <ele>81</ele>
        <time>2012-04-30T13:40:24Z</time>
      </trkpt>
      <trkpt lat="46.90737" lon="-1.13296">
        <ele>82</ele>
        <time>2012-04-30T13:40:29Z</time>
      </trkpt>
      <trkpt lat="46.9074" lon="-1.13302">
        <ele>83</ele>
        <time>2012-04-30T13:40:30Z</time>
      </trkpt>
      <trkpt lat="46.90746" lon="-1.13313">
        <ele>84</ele>
        <time>2012-04-30T13:40:36Z</time>
      </trkpt>
      <trkpt lat="46.90758" lon="-1.13336">
        <ele>85</ele>
        <time>2012-04-30T13:40:36Z</time>
      </trkpt>
      <trkpt lat="46.90761" lon="-1.13342">
        <ele>85</ele>
        <time>2012-04-30T13:40:37Z</time>
      </trkpt>
      <trkpt lat="46.90765" lon="-1.13356">
        <ele>85</ele>
        <time>2012-04-30T13:40:42Z</time>
      </trkpt>
      <trkpt lat="46.90773" lon="-1.13384">
        <ele>85</ele>
        <time>2012-04-30T13:40:43Z</time>
      </trkpt>
      <trkpt lat="46.90774" lon="-1.13391">
        <ele>85</ele>
        <time>2012-04-30T13:40:44Z</time>
      </trkpt>
      <trkpt lat="46.90776" lon="-1.13406">
        <ele>85</ele>
        <time>2012-04-30T13:40:49Z</time>
      </trkpt>
      <trkpt lat="46.90778" lon="-1.13436">
        <ele>85</ele>
        <time>2012-04-30T13:40:50Z</time>
      </trkpt>
      <trkpt lat="46.90778" lon="-1.13444">
        <ele>85</ele>
        <time>2012-04-30T13:40:51Z</time>
      </trkpt>
      <trkpt lat="46.90792" lon="-1.13476">
        <ele>85</ele>
        <time>2012-04-30T13:40:56Z</time>
      </trkpt>
      <trkpt lat="46.90796" lon="-1.13483">
        <ele>85</ele>
        <time>2012-04-30T13:40:57Z</time>
      </trkpt>
      <trkpt lat="46.90798" lon="-1.13491">
        <ele>85</ele>
        <time>2012-04-30T13:40:58Z</time>
      </trkpt>
      <trkpt lat="46.90803" lon="-1.13506">
        <ele>85</ele>
        <time>2012-04-30T13:41:03Z</time>
      </trkpt>
      <trkpt lat="46.90814" lon="-1.13539">
        <ele>85</ele>
        <time>2012-04-30T13:41:04Z</time>
      </trkpt>
      <trkpt lat="46.90816" lon="-1.13547">
        <ele>85</ele>
        <time>2012-04-30T13:41:05Z</time>
      </trkpt>
      <trkpt lat="46.9083" lon="-1.13587">
        <ele>85</ele>
        <time>2012-04-30T13:41:10Z</time>
      </trkpt>
      <trkpt lat="46.90833" lon="-1.13595">
        <ele>85</ele>
        <time>2012-04-30T13:41:11Z</time>
      </trkpt>
      <trkpt lat="46.90839" lon="-1.13612">
        <ele>85</ele>
        <time>2012-04-30T13:41:17Z</time>
      </trkpt>
      <trkpt lat="46.90851" lon="-1.13647">
        <ele>85</ele>
        <time>2012-04-30T13:41:17Z</time>
      </trkpt>
      <trkpt lat="46.90854" lon="-1.13656">
        <ele>85</ele>
        <time>2012-04-30T13:41:18Z</time>
      </trkpt>
      <trkpt lat="46.9086" lon="-1.13674">
        <ele>85</ele>
        <time>2012-04-30T13:41:23Z</time>
      </trkpt>
      <trkpt lat="46.90871" lon="-1.13707">
        <ele>85</ele>
        <time>2012-04-30T13:41:24Z</time>
      </trkpt>
      <trkpt lat="46.90874" lon="-1.13715">
        <ele>85</ele>
        <time>2012-04-30T13:41:25Z</time>
      </trkpt>
      <trkpt lat="46.90888" lon="-1.13754">
        <ele>85</ele>
        <time>2012-04-30T13:41:30Z</time>
      </trkpt>
      <trkpt lat="46.90891" lon="-1.13763">
        <ele>85</ele>
        <time>2012-04-30T13:41:31Z</time>
      </trkpt>
      <trkpt lat="46.90893" lon="-1.13771">
        <ele>85</ele>
        <time>2012-04-30T13:41:32Z</time>
      </trkpt>
      <trkpt lat="46.90906" lon="-1.13812">
        <ele>85</ele>
        <time>2012-04-30T13:41:37Z</time>
      </trkpt>
      <trkpt lat="46.90909" lon="-1.13821">
        <ele>85</ele>
        <time>2012-04-30T13:41:38Z</time>
      </trkpt>
      <trkpt lat="46.90914" lon="-1.13837">
        <ele>85</ele>
        <time>2012-04-30T13:41:44Z</time>
      </trkpt>
      <trkpt lat="46.90925" lon="-1.1387">
        <ele>85</ele>
        <time>2012-04-30T13:41:44Z</time>
      </trkpt>
      <trkpt lat="46.90928" lon="-1.13878">
        <ele>85</ele>
        <time>2012-04-30T13:41:45Z</time>
      </trkpt>
      <trkpt lat="46.90934" lon="-1.13895">
        <ele>85</ele>
        <time>2012-04-30T13:41:50Z</time>
      </trkpt>
      <trkpt lat="46.90944" lon="-1.13928">
        <ele>85</ele>
        <time>2012-04-30T13:41:51Z</time>
      </trkpt>
      <trkpt lat="46.90947" lon="-1.13935">
        <ele>85</ele>
        <time>2012-04-30T13:41:52Z</time>
      </trkpt>
      <trkpt lat="46.9096" lon="-1.13975">
        <ele>85</ele>
        <time>2012-04-30T13:41:57Z</time>
      </trkpt>
      <trkpt lat="46.90963" lon="-1.13983">
        <ele>85</ele>
        <time>2012-04-30T13:41:58Z</time>
      </trkpt>
      <trkpt lat="46.90966" lon="-1.13991">
        <ele>85</ele>
        <time>2012-04-30T13:41:59Z</time>
      </trkpt>
      <trkpt lat="46.90978" lon="-1.14032">
        <ele>85</ele>
        <time>2012-04-30T13:42:04Z</time>
      </trkpt>
      <trkpt lat="46.90981" lon="-1.1404">
        <ele>85</ele>
        <time>2012-04-30T13:42:05Z</time>
      </trkpt>
      <trkpt lat="46.90986" lon="-1.14056">
        <ele>85</ele>
        <time>2012-04-30T13:42:11Z</time>
      </trkpt>
      <trkpt lat="46.90997" lon="-1.14088">
        <ele>85</ele>
        <time>2012-04-30T13:42:11Z</time>
      </trkpt>
      <trkpt lat="46.91" lon="-1.14096">
        <ele>85</ele>
        <time>2012-04-30T13:42:12Z</time>
      </trkpt>
      <trkpt lat="46.91005" lon="-1.14113">
        <ele>85</ele>
        <time>2012-04-30T13:42:17Z</time>
      </trkpt>
      <trkpt lat="46.91016" lon="-1.14145">
        <ele>85</ele>
        <time>2012-04-30T13:42:18Z</time>
      </trkpt>
      <trkpt lat="46.91019" lon="-1.14154">
        <ele>85</ele>
        <time>2012-04-30T13:42:19Z</time>
      </trkpt>
      <trkpt lat="46.91024" lon="-1.1417">
        <ele>85</ele>
        <time>2012-04-30T13:42:24Z</time>
      </trkpt>
      <trkpt lat="46.91035" lon="-1.14202">
        <ele>85</ele>
        <time>2012-04-30T13:42:25Z</time>
      </trkpt>
      <trkpt lat="46.91038" lon="-1.1421">
        <ele>85</ele>
        <time>2012-04-30T13:42:26Z</time>
      </trkpt>
      <trkpt lat="46.91049" lon="-1.14253">
        <ele>85</ele>
        <time>2012-04-30T13:42:31Z</time>
      </trkpt>
      <trkpt lat="46.91051" lon="-1.14262">
        <ele>85</ele>
        <time>2012-04-30T13:42:32Z</time>
      </trkpt>
      <trkpt lat="46.91055" lon="-1.14279">
        <ele>85</ele>
        <time>2012-04-30T13:42:38Z</time>
      </trkpt>
      <trkpt lat="46.91059" lon="-1.14313">
        <ele>85</ele>
        <time>2012-04-30T13:42:38Z</time>
      </trkpt>
      <trkpt lat="46.9106" lon="-1.14321">
        <ele>86</ele>
        <time>2012-04-30T13:42:39Z</time>
      </trkpt>
      <trkpt lat="46.91063" lon="-1.14338">
        <ele>86</ele>
        <time>2012-04-30T13:42:44Z</time>
      </trkpt>
      <trkpt lat="46.91079" lon="-1.14364">
        <ele>86</ele>
        <time>2012-04-30T13:42:45Z</time>
      </trkpt>
      <trkpt lat="46.91085" lon="-1.14366">
        <ele>86</ele>
        <time>2012-04-30T13:42:46Z</time>
      </trkpt>
      <trkpt lat="46.91091" lon="-1.14366">
        <ele>86</ele>
        <time>2012-04-30T13:42:47Z</time>
      </trkpt>
      <trkpt lat="46.91097" lon="-1.14367">
        <ele>86</ele>
        <time>2012-04-30T13:42:48Z</time>
      </trkpt>
      <trkpt lat="46.91124" lon="-1.14392">
        <ele>86</ele>
        <time>2012-04-30T13:42:53Z</time>
      </trkpt>
      <trkpt lat="46.91127" lon="-1.144">
        <ele>86</ele>
        <time>2012-04-30T13:42:55Z</time>
      </trkpt>
      <trkpt lat="46.91131" lon="-1.14408">
        <ele>86</ele>
        <time>2012-04-30T13:42:55Z</time>
      </trkpt>
      <trkpt lat="46.91138" lon="-1.14423">
        <ele>86</ele>
        <time>2012-04-30T13:43:01Z</time>
      </trkpt>
      <trkpt lat="46.91153" lon="-1.14455">
        <ele>86</ele>
        <time>2012-04-30T13:43:01Z</time>
      </trkpt>
      <trkpt lat="46.91156" lon="-1.14463">
        <ele>86</ele>
        <time>2012-04-30T13:43:02Z</time>
      </trkpt>
      <trkpt lat="46.91164" lon="-1.14479">
        <ele>86</ele>
        <time>2012-04-30T13:43:07Z</time>
      </trkpt>
      <trkpt lat="46.91181" lon="-1.14512">
        <ele>86</ele>
        <time>2012-04-30T13:43:08Z</time>
      </trkpt>
      <trkpt lat="46.91185" lon="-1.1452">
        <ele>86</ele>
        <time>2012-04-30T13:43:09Z</time>
      </trkpt>
      <trkpt lat="46.91204" lon="-1.14562">
        <ele>86</ele>
        <time>2012-04-30T13:43:14Z</time>
      </trkpt>
      <trkpt lat="46.91208" lon="-1.1457">
        <ele>86</ele>
        <time>2012-04-30T13:43:15Z</time>
      </trkpt>
      <trkpt lat="46.91211" lon="-1.14578">
        <ele>86</ele>
        <time>2012-04-30T13:43:16Z</time>
      </trkpt>
      <trkpt lat="46.9123" lon="-1.1462">
        <ele>86</ele>
        <time>2012-04-30T13:43:21Z</time>
      </trkpt>
      <trkpt lat="46.91234" lon="-1.14629">
        <ele>86</ele>
        <time>2012-04-30T13:43:22Z</time>
      </trkpt>
      <trkpt lat="46.91242" lon="-1.14645">
        <ele>86</ele>
        <time>2012-04-30T13:43:28Z</time>
      </trkpt>
      <trkpt lat="46.91257" lon="-1.14678">
        <ele>86</ele>
        <time>2012-04-30T13:43:28Z</time>
      </trkpt>
      <trkpt lat="46.9126" lon="-1.14686">
        <ele>86</ele>
        <time>2012-04-30T13:43:29Z</time>
      </trkpt>
      <trkpt lat="46.91268" lon="-1.14703">
        <ele>86</ele>
        <time>2012-04-30T13:43:34Z</time>
      </trkpt>
      <trkpt lat="46.91283" lon="-1.14736">
        <ele>86</ele>
        <time>2012-04-30T13:43:35Z</time>
      </trkpt>
      <trkpt lat="46.91287" lon="-1.14745">
        <ele>86</ele>
        <time>2012-04-30T13:43:36Z</time>
      </trkpt>
      <trkpt lat="46.91295" lon="-1.14762">
        <ele>86</ele>
        <time>2012-04-30T13:43:41Z</time>
      </trkpt>
      <trkpt lat="46.91311" lon="-1.14795">
        <ele>86</ele>
        <time>2012-04-30T13:43:42Z</time>
      </trkpt>
      <trkpt lat="46.91315" lon="-1.14803">
        <ele>86</ele>
        <time>2012-04-30T13:43:43Z</time>
      </trkpt>
      <trkpt lat="46.91336" lon="-1.14845">
        <ele>86</ele>
        <time>2012-04-30T13:43:48Z</time>
      </trkpt>
      <trkpt lat="46.9134" lon="-1.14853">
        <ele>86</ele>
        <time>2012-04-30T13:43:49Z</time>
      </trkpt>
      <trkpt lat="46.91348" lon="-1.14869">
        <ele>86</ele>
        <time>2012-04-30T13:43:55Z</time>
      </trkpt>
      <trkpt lat="46.91366" lon="-1.14901">
        <ele>86</ele>
        <time>2012-04-30T13:43:55Z</time>
      </trkpt>
      <trkpt lat="46.91371" lon="-1.14909">
        <ele>86</ele>
        <time>2012-04-30T13:43:56Z</time>
      </trkpt>
      <trkpt lat="46.9138" lon="-1.14924">
        <ele>86</ele>
        <time>2012-04-30T13:44:01Z</time>
      </trkpt>
      <trkpt lat="46.91398" lon="-1.14956">
        <ele>86</ele>
        <time>2012-04-30T13:44:02Z</time>
      </trkpt>
      <trkpt lat="46.91403" lon="-1.14964">
        <ele>86</ele>
        <time>2012-04-30T13:44:03Z</time>
      </trkpt>
      <trkpt lat="46.91412" lon="-1.14981">
        <ele>86</ele>
        <time>2012-04-30T13:44:08Z</time>
      </trkpt>
      <trkpt lat="46.91431" lon="-1.15014">
        <ele>86</ele>
        <time>2012-04-30T13:44:09Z</time>
      </trkpt>
      <trkpt lat="46.91436" lon="-1.15022">
        <ele>86</ele>
        <time>2012-04-30T13:44:10Z</time>
      </trkpt>
      <trkpt lat="46.91459" lon="-1.15063">
        <ele>86</ele>
        <time>2012-04-30T13:44:15Z</time>
      </trkpt>
      <trkpt lat="46.91464" lon="-1.15071">
        <ele>86</ele>
        <time>2012-04-30T13:44:16Z</time>
      </trkpt>
      <trkpt lat="46.91473" lon="-1.15088">
        <ele>86</ele>
        <time>2012-04-30T13:44:22Z</time>
      </trkpt>
      <trkpt lat="46.91492" lon="-1.1512">
        <ele>86</ele>
        <time>2012-04-30T13:44:22Z</time>
      </trkpt>
      <trkpt lat="46.91496" lon="-1.15128">
        <ele>86</ele>
        <time>2012-04-30T13:44:23Z</time>
      </trkpt>
      <trkpt lat="46.91505" lon="-1.15144">
        <ele>86</ele>
        <time>2012-04-30T13:44:28Z</time>
      </trkpt>
      <trkpt lat="46.91524" lon="-1.15177">
        <ele>86</ele>
        <time>2012-04-30T13:44:29Z</time>
      </trkpt>
      <trkpt lat="46.91528" lon="-1.15185">
        <ele>86</ele>
        <time>2012-04-30T13:44:30Z</time>
      </trkpt>
      <trkpt lat="46.91537" lon="-1.15201">
        <ele>86</ele>
        <time>2012-04-30T13:44:35Z</time>
      </trkpt>
      <trkpt lat="46.91553" lon="-1.15235">
        <ele>86</ele>
        <time>2012-04-30T13:44:36Z</time>
      </trkpt>
      <trkpt lat="46.91557" lon="-1.15244">
        <ele>85</ele>
        <time>2012-04-30T13:44:37Z</time>
      </trkpt>
      <trkpt lat="46.91574" lon="-1.15289">
        <ele>85</ele>
        <time>2012-04-30T13:44:42Z</time>
      </trkpt>
      <trkpt lat="46.91578" lon="-1.15298">
        <ele>85</ele>
        <time>2012-04-30T13:44:43Z</time>
      </trkpt>
      <trkpt lat="46.91584" lon="-1.15316">
        <ele>85</ele>
        <time>2012-04-30T13:44:49Z</time>
      </trkpt>
      <trkpt lat="46.91597" lon="-1.15352">
        <ele>84</ele>
        <time>2012-04-30T13:44:49Z</time>
      </trkpt>
      <trkpt lat="46.916" lon="-1.15361">
        <ele>84</ele>
        <time>2012-04-30T13:44:50Z</time>
      </trkpt>
      <trkpt lat="46.91605" lon="-1.15378">
        <ele>84</ele>
        <time>2012-04-30T13:44:55Z</time>
      </trkpt>
      <trkpt lat="46.91616" lon="-1.15412">
        <ele>84</ele>
        <time>2012-04-30T13:44:56Z</time>
      </trkpt>
      <trkpt lat="46.9162" lon="-1.1542">
        <ele>84</ele>
        <time>2012-04-30T13:44:57Z</time>
      </trkpt>
      <trkpt lat="46.91626" lon="-1.15438">
        <ele>84</ele>
        <time>2012-04-30T13:45:02Z</time>
      </trkpt>
      <trkpt lat="46.9164" lon="-1.15475">
        <ele>84</ele>
        <time>2012-04-30T13:45:03Z</time>
      </trkpt>
      <trkpt lat="46.91643" lon="-1.15484">
        <ele>84</ele>
        <time>2012-04-30T13:45:04Z</time>
      </trkpt>
      <trkpt lat="46.91661" lon="-1.15532">
        <ele>84</ele>
        <time>2012-04-30T13:45:09Z</time>
      </trkpt>
      <trkpt lat="46.91664" lon="-1.15541">
        <ele>84</ele>
        <time>2012-04-30T13:45:10Z</time>
      </trkpt>
      <trkpt lat="46.91671" lon="-1.1556">
        <ele>84</ele>
        <time>2012-04-30T13:45:16Z</time>
      </trkpt>
      <trkpt lat="46.91685" lon="-1.156">
        <ele>83</ele>
        <time>2012-04-30T13:45:16Z</time>
      </trkpt>
      <trkpt lat="46.91689" lon="-1.1561">
        <ele>83</ele>
        <time>2012-04-30T13:45:17Z</time>
      </trkpt>
      <trkpt lat="46.91696" lon="-1.15629">
        <ele>82</ele>
        <time>2012-04-30T13:45:22Z</time>
      </trkpt>
      <trkpt lat="46.91709" lon="-1.15668">
        <ele>82</ele>
        <time>2012-04-30T13:45:23Z</time>
      </trkpt>
      <trkpt lat="46.91713" lon="-1.15679">
        <ele>82</ele>
        <time>2012-04-30T13:45:24Z</time>
      </trkpt>
      <trkpt lat="46.9172" lon="-1.15699">
        <ele>82</ele>
        <time>2012-04-30T13:45:29Z</time>
      </trkpt>
      <trkpt lat="46.91734" lon="-1.1574">
        <ele>82</ele>
        <time>2012-04-30T13:45:30Z</time>
      </trkpt>
      <trkpt lat="46.91738" lon="-1.1575">
        <ele>82</ele>
        <time>2012-04-30T13:45:31Z</time>
      </trkpt>
      <trkpt lat="46.91756" lon="-1.15801">
        <ele>82</ele>
        <time>2012-04-30T13:45:36Z</time>
      </trkpt>
      <trkpt lat="46.9176" lon="-1.15811">
        <ele>82</ele>
        <time>2012-04-30T13:45:37Z</time>
      </trkpt>
      <trkpt lat="46.91767" lon="-1.15832">
        <ele>82</ele>
        <time>2012-04-30T13:45:43Z</time>
      </trkpt>
      <trkpt lat="46.91782" lon="-1.15873">
        <ele>82</ele>
        <time>2012-04-30T13:45:43Z</time>
      </trkpt>
      <trkpt lat="46.91786" lon="-1.15884">
        <ele>82</ele>
        <time>2012-04-30T13:45:44Z</time>
      </trkpt>
      <trkpt lat="46.91793" lon="-1.15905">
        <ele>82</ele>
        <time>2012-04-30T13:45:49Z</time>
      </trkpt>
      <trkpt lat="46.91808" lon="-1.15946">
        <ele>82</ele>
        <time>2012-04-30T13:45:50Z</time>
      </trkpt>
      <trkpt lat="46.91812" lon="-1.15956">
        <ele>82</ele>
        <time>2012-04-30T13:45:51Z</time>
      </trkpt>
      <trkpt lat="46.9182" lon="-1.15977">
        <ele>82</ele>
        <time>2012-04-30T13:45:56Z</time>
      </trkpt>
      <trkpt lat="46.91834" lon="-1.16017">
        <ele>82</ele>
        <time>2012-04-30T13:45:57Z</time>
      </trkpt>
      <trkpt lat="46.91838" lon="-1.16027">
        <ele>82</ele>
        <time>2012-04-30T13:45:58Z</time>
      </trkpt>
      <trkpt lat="46.91857" lon="-1.16078">
        <ele>82</ele>
        <time>2012-04-30T13:46:03Z</time>
      </trkpt>
      <trkpt lat="46.91861" lon="-1.16088">
        <ele>82</ele>
        <time>2012-04-30T13:46:04Z</time>
      </trkpt>
      <trkpt lat="46.91871" lon="-1.16109">
        <ele>82</ele>
        <time>2012-04-30T13:46:10Z</time>
      </trkpt>
      <trkpt lat="46.91892" lon="-1.1615">
        <ele>82</ele>
        <time>2012-04-30T13:46:10Z</time>
      </trkpt>
      <trkpt lat="46.91898" lon="-1.1616">
        <ele>82</ele>
        <time>2012-04-30T13:46:11Z</time>
      </trkpt>
      <trkpt lat="46.9191" lon="-1.1618">
        <ele>81</ele>
        <time>2012-04-30T13:46:16Z</time>
      </trkpt>
      <trkpt lat="46.91935" lon="-1.16219">
        <ele>81</ele>
        <time>2012-04-30T13:46:17Z</time>
      </trkpt>
      <trkpt lat="46.91941" lon="-1.16228">
        <ele>80</ele>
        <time>2012-04-30T13:46:18Z</time>
      </trkpt>
      <trkpt lat="46.91955" lon="-1.16245">
        <ele>80</ele>
        <time>2012-04-30T13:46:23Z</time>
      </trkpt>
      <trkpt lat="46.91981" lon="-1.16275">
        <ele>79</ele>
        <time>2012-04-30T13:46:24Z</time>
      </trkpt>
      <trkpt lat="46.91987" lon="-1.16282">
        <ele>79</ele>
        <time>2012-04-30T13:46:25Z</time>
      </trkpt>
      <trkpt lat="46.9202" lon="-1.16312">
        <ele>79</ele>
        <time>2012-04-30T13:46:30Z</time>
      </trkpt>
      <trkpt lat="46.92026" lon="-1.16317">
        <ele>78</ele>
        <time>2012-04-30T13:46:31Z</time>
      </trkpt>
      <trkpt lat="46.92039" lon="-1.16328">
        <ele>78</ele>
        <time>2012-04-30T13:46:37Z</time>
      </trkpt>
      <trkpt lat="46.92065" lon="-1.16348">
        <ele>78</ele>
        <time>2012-04-30T13:46:37Z</time>
      </trkpt>
      <trkpt lat="46.92072" lon="-1.16353">
        <ele>78</ele>
        <time>2012-04-30T13:46:38Z</time>
      </trkpt>
      <trkpt lat="46.92085" lon="-1.16363">
        <ele>78</ele>
        <time>2012-04-30T13:46:43Z</time>
      </trkpt>
      <trkpt lat="46.92112" lon="-1.16384">
        <ele>78</ele>
        <time>2012-04-30T13:46:44Z</time>
      </trkpt>
      <trkpt lat="46.92118" lon="-1.1639">
        <ele>78</ele>
        <time>2012-04-30T13:46:45Z</time>
      </trkpt>
      <trkpt lat="46.92132" lon="-1.164">
        <ele>78</ele>
        <time>2012-04-30T13:46:50Z</time>
      </trkpt>
      <trkpt lat="46.92159" lon="-1.16422">
        <ele>78</ele>
        <time>2012-04-30T13:46:51Z</time>
      </trkpt>
      <trkpt lat="46.92165" lon="-1.16427">
        <ele>78</ele>
        <time>2012-04-30T13:46:52Z</time>
      </trkpt>
      <trkpt lat="46.92198" lon="-1.16452">
        <ele>78</ele>
        <time>2012-04-30T13:46:57Z</time>
      </trkpt>
      <trkpt lat="46.92204" lon="-1.16457">
        <ele>78</ele>
        <time>2012-04-30T13:46:58Z</time>
      </trkpt>
      <trkpt lat="46.92216" lon="-1.16467">
        <ele>78</ele>
        <time>2012-04-30T13:47:04Z</time>
      </trkpt>
      <trkpt lat="46.92241" lon="-1.16487">
        <ele>78</ele>
        <time>2012-04-30T13:47:04Z</time>
      </trkpt>
      <trkpt lat="46.92247" lon="-1.16491">
        <ele>78</ele>
        <time>2012-04-30T13:47:05Z</time>
      </trkpt>
      <trkpt lat="46.9226" lon="-1.16501">
        <ele>78</ele>
        <time>2012-04-30T13:47:10Z</time>
      </trkpt>
      <trkpt lat="46.92285" lon="-1.16521">
        <ele>78</ele>
        <time>2012-04-30T13:47:11Z</time>
      </trkpt>
      <trkpt lat="46.92291" lon="-1.16526">
        <ele>78</ele>
        <time>2012-04-30T13:47:12Z</time>
      </trkpt>
      <trkpt lat="46.92304" lon="-1.16536">
        <ele>78</ele>
        <time>2012-04-30T13:47:17Z</time>
      </trkpt>
      <trkpt lat="46.9233" lon="-1.16556">
        <ele>78</ele>
        <time>2012-04-30T13:47:18Z</time>
      </trkpt>
      <trkpt lat="46.92336" lon="-1.16561">
        <ele>78</ele>
        <time>2012-04-30T13:47:19Z</time>
      </trkpt>
      <trkpt lat="46.92369" lon="-1.16586">
        <ele>78</ele>
        <time>2012-04-30T13:47:24Z</time>
      </trkpt>
      <trkpt lat="46.92375" lon="-1.16592">
        <ele>78</ele>
        <time>2012-04-30T13:47:25Z</time>
      </trkpt>
      <trkpt lat="46.92389" lon="-1.16602">
        <ele>78</ele>
        <time>2012-04-30T13:47:31Z</time>
      </trkpt>
      <trkpt lat="46.92415" lon="-1.16623">
        <ele>77</ele>
        <time>2012-04-30T13:47:31Z</time>
      </trkpt>
      <trkpt lat="46.92422" lon="-1.16628">
        <ele>77</ele>
        <time>2012-04-30T13:47:32Z</time>
      </trkpt>
      <trkpt lat="46.92435" lon="-1.16638">
        <ele>77</ele>
        <time>2012-04-30T13:47:37Z</time>
      </trkpt>
      <trkpt lat="46.92461" lon="-1.16658">
        <ele>77</ele>
        <time>2012-04-30T13:47:38Z</time>
      </trkpt>
      <trkpt lat="46.92467" lon="-1.16663">
        <ele>77</ele>
        <time>2012-04-30T13:47:39Z</time>
      </trkpt>
      <trkpt lat="46.9248" lon="-1.16673">
        <ele>77</ele>
        <time>2012-04-30T13:47:44Z</time>
      </trkpt>
      <trkpt lat="46.92506" lon="-1.16693">
        <ele>77</ele>
        <time>2012-04-30T13:47:45Z</time>
      </trkpt>
      <trkpt lat="46.92513" lon="-1.16698">
        <ele>77</ele>
        <time>2012-04-30T13:47:46Z</time>
      </trkpt>
      <trkpt lat="46.92546" lon="-1.16723">
        <ele>77</ele>
        <time>2012-04-30T13:47:51Z</time>
      </trkpt>
      <trkpt lat="46.92553" lon="-1.16728">
        <ele>77</ele>
        <time>2012-04-30T13:47:52Z</time>
      </trkpt>
      <trkpt lat="46.92566" lon="-1.16739">
        <ele>77</ele>
        <time>2012-04-30T13:47:58Z</time>
      </trkpt>
      <trkpt lat="46.92592" lon="-1.16759">
        <ele>77</ele>
        <time>2012-04-30T13:47:58Z</time>
      </trkpt>
      <trkpt lat="46.92598" lon="-1.16764">
        <ele>77</ele>
        <time>2012-04-30T13:47:59Z</time>
      </trkpt>
      <trkpt lat="46.92611" lon="-1.16774">
        <ele>77</ele>
        <time>2012-04-30T13:48:04Z</time>
      </trkpt>
      <trkpt lat="46.92638" lon="-1.16796">
        <ele>77</ele>
        <time>2012-04-30T13:48:05Z</time>
      </trkpt>
      <trkpt lat="46.92645" lon="-1.168">
        <ele>77</ele>
        <time>2012-04-30T13:48:06Z</time>
      </trkpt>
      <trkpt lat="46.92658" lon="-1.1681">
        <ele>77</ele>
        <time>2012-04-30T13:48:11Z</time>
      </trkpt>
      <trkpt lat="46.92684" lon="-1.16831">
        <ele>77</ele>
        <time>2012-04-30T13:48:12Z</time>
      </trkpt>
      <trkpt lat="46.92691" lon="-1.16836">
        <ele>77</ele>
        <time>2012-04-30T13:48:13Z</time>
      </trkpt>
      <trkpt lat="46.92723" lon="-1.16862">
        <ele>77</ele>
        <time>2012-04-30T13:48:18Z</time>
      </trkpt>
      <trkpt lat="46.9273" lon="-1.16867">
        <ele>77</ele>
        <time>2012-04-30T13:48:19Z</time>
      </trkpt>
      <trkpt lat="46.92741" lon="-1.16877">
        <ele>77</ele>
        <time>2012-04-30T13:48:25Z</time>
      </trkpt>
      <trkpt lat="46.92767" lon="-1.16898">
        <ele>77</ele>
        <time>2012-04-30T13:48:25Z</time>
      </trkpt>
      <trkpt lat="46.92773" lon="-1.16903">
        <ele>77</ele>
        <time>2012-04-30T13:48:26Z</time>
      </trkpt>
      <trkpt lat="46.92785" lon="-1.16913">
        <ele>77</ele>
        <time>2012-04-30T13:48:31Z</time>
      </trkpt>
      <trkpt lat="46.9281" lon="-1.16932">
        <ele>77</ele>
        <time>2012-04-30T13:48:32Z</time>
      </trkpt>
      <trkpt lat="46.92815" lon="-1.16936">
        <ele>77</ele>
        <time>2012-04-30T13:48:33Z</time>
      </trkpt>
      <trkpt lat="46.92828" lon="-1.16946">
        <ele>77</ele>
        <time>2012-04-30T13:48:38Z</time>
      </trkpt>
      <trkpt lat="46.92851" lon="-1.16964">
        <ele>77</ele>
        <time>2012-04-30T13:48:39Z</time>
      </trkpt>
      <trkpt lat="46.92857" lon="-1.16969">
        <ele>77</ele>
        <time>2012-04-30T13:48:40Z</time>
      </trkpt>
      <trkpt lat="46.92886" lon="-1.1699">
        <ele>77</ele>
        <time>2012-04-30T13:48:45Z</time>
      </trkpt>
      <trkpt lat="46.92892" lon="-1.16995">
        <ele>77</ele>
        <time>2012-04-30T13:48:46Z</time>
      </trkpt>
      <trkpt lat="46.92903" lon="-1.17004">
        <ele>77</ele>
        <time>2012-04-30T13:48:52Z</time>
      </trkpt>
      <trkpt lat="46.92926" lon="-1.17023">
        <ele>77</ele>
        <time>2012-04-30T13:48:52Z</time>
      </trkpt>
      <trkpt lat="46.92932" lon="-1.17027">
        <ele>77</ele>
        <time>2012-04-30T13:48:53Z</time>
      </trkpt>
      <trkpt lat="46.92943" lon="-1.17036">
        <ele>77</ele>
        <time>2012-04-30T13:48:58Z</time>
      </trkpt>
      <trkpt lat="46.92964" lon="-1.17053">
        <ele>77</ele>
        <time>2012-04-30T13:48:59Z</time>
      </trkpt>
      <trkpt lat="46.9297" lon="-1.17057">
        <ele>77</ele>
        <time>2012-04-30T13:49:00Z</time>
      </trkpt>
      <trkpt lat="46.92981" lon="-1.17066">
        <ele>77</ele>
        <time>2012-04-30T13:49:05Z</time>
      </trkpt>
      <trkpt lat="46.93002" lon="-1.17083">
        <ele>77</ele>
        <time>2012-04-30T13:49:06Z</time>
      </trkpt>
      <trkpt lat="46.93008" lon="-1.17087">
        <ele>77</ele>
        <time>2012-04-30T13:49:07Z</time>
      </trkpt>
      <trkpt lat="46.93035" lon="-1.17107">
        <ele>77</ele>
        <time>2012-04-30T13:49:12Z</time>
      </trkpt>
      <trkpt lat="46.9304" lon="-1.17111">
        <ele>78</ele>
        <time>2012-04-30T13:49:13Z</time>
      </trkpt>
      <trkpt lat="46.93051" lon="-1.17119">
        <ele>79</ele>
        <time>2012-04-30T13:49:19Z</time>
      </trkpt>
      <trkpt lat="46.93073" lon="-1.17137">
        <ele>80</ele>
        <time>2012-04-30T13:49:19Z</time>
      </trkpt>
      <trkpt lat="46.93079" lon="-1.17141">
        <ele>80</ele>
        <time>2012-04-30T13:49:20Z</time>
      </trkpt>
      <trkpt lat="46.9309" lon="-1.1715">
        <ele>81</ele>
        <time>2012-04-30T13:49:25Z</time>
      </trkpt>
      <trkpt lat="46.93112" lon="-1.17168">
        <ele>81</ele>
        <time>2012-04-30T13:49:26Z</time>
      </trkpt>
      <trkpt lat="46.93118" lon="-1.17173">
        <ele>82</ele>
        <time>2012-04-30T13:49:27Z</time>
      </trkpt>
      <trkpt lat="46.93129" lon="-1.17182">
        <ele>82</ele>
        <time>2012-04-30T13:49:32Z</time>
      </trkpt>
      <trkpt lat="46.93153" lon="-1.17201">
        <ele>82</ele>
        <time>2012-04-30T13:49:33Z</time>
      </trkpt>
      <trkpt lat="46.9316" lon="-1.17206">
        <ele>82</ele>
        <time>2012-04-30T13:49:34Z</time>
      </trkpt>
      <trkpt lat="46.9319" lon="-1.17229">
        <ele>82</ele>
        <time>2012-04-30T13:49:39Z</time>
      </trkpt>
      <trkpt lat="46.93196" lon="-1.17234">
        <ele>82</ele>
        <time>2012-04-30T13:49:40Z</time>
      </trkpt>
      <trkpt lat="46.93208" lon="-1.17244">
        <ele>82</ele>
        <time>2012-04-30T13:49:46Z</time>
      </trkpt>
      <trkpt lat="46.93232" lon="-1.17263">
        <ele>82</ele>
        <time>2012-04-30T13:49:46Z</time>
      </trkpt>
      <trkpt lat="46.93238" lon="-1.17268">
        <ele>82</ele>
        <time>2012-04-30T13:49:47Z</time>
      </trkpt>
      <trkpt lat="46.93251" lon="-1.17278">
        <ele>82</ele>
        <time>2012-04-30T13:49:52Z</time>
      </trkpt>
      <trkpt lat="46.93275" lon="-1.17297">
        <ele>82</ele>
        <time>2012-04-30T13:49:53Z</time>
      </trkpt>
      <trkpt lat="46.93281" lon="-1.17302">
        <ele>82</ele>
        <time>2012-04-30T13:49:54Z</time>
      </trkpt>
      <trkpt lat="46.93294" lon="-1.17312">
        <ele>82</ele>
        <time>2012-04-30T13:49:59Z</time>
      </trkpt>
      <trkpt lat="46.93319" lon="-1.17332">
        <ele>82</ele>
        <time>2012-04-30T13:50:00Z</time>
      </trkpt>
      <trkpt lat="46.93326" lon="-1.17336">
        <ele>82</ele>
        <time>2012-04-30T13:50:01Z</time>
      </trkpt>
      <trkpt lat="46.93357" lon="-1.17361">
        <ele>82</ele>
        <time>2012-04-30T13:50:06Z</time>
      </trkpt>
      <trkpt lat="46.93363" lon="-1.17366">
        <ele>82</ele>
        <time>2012-04-30T13:50:07Z</time>
      </trkpt>
      <trkpt lat="46.93376" lon="-1.17376">
        <ele>82</ele>
        <time>2012-04-30T13:50:13Z</time>
      </trkpt>
      <trkpt lat="46.93402" lon="-1.17396">
        <ele>82</ele>
        <time>2012-04-30T13:50:13Z</time>
      </trkpt>
      <trkpt lat="46.93408" lon="-1.17401">
        <ele>82</ele>
        <time>2012-04-30T13:50:14Z</time>
      </trkpt>
      <trkpt lat="46.93421" lon="-1.17411">
        <ele>82</ele>
        <time>2012-04-30T13:50:19Z</time>
      </trkpt>
      <trkpt lat="46.93446" lon="-1.17431">
        <ele>82</ele>
        <time>2012-04-30T13:50:20Z</time>
      </trkpt>
      <trkpt lat="46.93452" lon="-1.17436">
        <ele>82</ele>
        <time>2012-04-30T13:50:21Z</time>
      </trkpt>
      <trkpt lat="46.93465" lon="-1.17445">
        <ele>82</ele>
        <time>2012-04-30T13:50:26Z</time>
      </trkpt>
      <trkpt lat="46.93488" lon="-1.17462">
        <ele>82</ele>
        <time>2012-04-30T13:50:27Z</time>
      </trkpt>
      <trkpt lat="46.93494" lon="-1.17466">
        <ele>82</ele>
        <time>2012-04-30T13:50:28Z</time>
      </trkpt>
      <trkpt lat="46.93523" lon="-1.17489">
        <ele>82</ele>
        <time>2012-04-30T13:50:33Z</time>
      </trkpt>
      <trkpt lat="46.93529" lon="-1.17493">
        <ele>82</ele>
        <time>2012-04-30T13:50:34Z</time>
      </trkpt>
      <trkpt lat="46.9354" lon="-1.17503">
        <ele>82</ele>
        <time>2012-04-30T13:50:40Z</time>
      </trkpt>
      <trkpt lat="46.93562" lon="-1.17521">
        <ele>82</ele>
        <time>2012-04-30T13:50:40Z</time>
      </trkpt>
      <trkpt lat="46.93568" lon="-1.17526">
        <ele>82</ele>
        <time>2012-04-30T13:50:41Z</time>
      </trkpt>
      <trkpt lat="46.93579" lon="-1.17536">
        <ele>83</ele>
        <time>2012-04-30T13:50:46Z</time>
      </trkpt>
      <trkpt lat="46.936" lon="-1.17555">
        <ele>84</ele>
        <time>2012-04-30T13:50:47Z</time>
      </trkpt>
      <trkpt lat="46.93605" lon="-1.1756">
        <ele>85</ele>
        <time>2012-04-30T13:50:48Z</time>
      </trkpt>
      <trkpt lat="46.93615" lon="-1.1757">
        <ele>86</ele>
        <time>2012-04-30T13:50:53Z</time>
      </trkpt>
      <trkpt lat="46.93635" lon="-1.17593">
        <ele>87</ele>
        <time>2012-04-30T13:50:54Z</time>
      </trkpt>
      <trkpt lat="46.9364" lon="-1.17599">
        <ele>88</ele>
        <time>2012-04-30T13:50:55Z</time>
      </trkpt>
      <trkpt lat="46.93665" lon="-1.17633">
        <ele>89</ele>
        <time>2012-04-30T13:51:00Z</time>
      </trkpt>
      <trkpt lat="46.9367" lon="-1.1764">
        <ele>90</ele>
        <time>2012-04-30T13:51:01Z</time>
      </trkpt>
      <trkpt lat="46.93679" lon="-1.17653">
        <ele>91</ele>
        <time>2012-04-30T13:51:07Z</time>
      </trkpt>
      <trkpt lat="46.93697" lon="-1.17681">
        <ele>92</ele>
        <time>2012-04-30T13:51:07Z</time>
      </trkpt>
      <trkpt lat="46.93702" lon="-1.17687">
        <ele>93</ele>
        <time>2012-04-30T13:51:08Z</time>
      </trkpt>
      <trkpt lat="46.93713" lon="-1.17702">
        <ele>94</ele>
        <time>2012-04-30T13:51:13Z</time>
      </trkpt>
      <trkpt lat="46.93734" lon="-1.1773">
        <ele>95</ele>
        <time>2012-04-30T13:51:14Z</time>
      </trkpt>
      <trkpt lat="46.93739" lon="-1.17737">
        <ele>95</ele>
        <time>2012-04-30T13:51:15Z</time>
      </trkpt>
      <trkpt lat="46.93749" lon="-1.17751">
        <ele>95</ele>
        <time>2012-04-30T13:51:20Z</time>
      </trkpt>
      <trkpt lat="46.9377" lon="-1.17779">
        <ele>95</ele>
        <time>2012-04-30T13:51:21Z</time>
      </trkpt>
      <trkpt lat="46.93775" lon="-1.17786">
        <ele>95</ele>
        <time>2012-04-30T13:51:22Z</time>
      </trkpt>
      <trkpt lat="46.93802" lon="-1.17821">
        <ele>95</ele>
        <time>2012-04-30T13:51:27Z</time>
      </trkpt>
      <trkpt lat="46.93807" lon="-1.17828">
        <ele>95</ele>
        <time>2012-04-30T13:51:28Z</time>
      </trkpt>
      <trkpt lat="46.93817" lon="-1.17842">
        <ele>95</ele>
        <time>2012-04-30T13:51:34Z</time>
      </trkpt>
      <trkpt lat="46.93838" lon="-1.1787">
        <ele>95</ele>
        <time>2012-04-30T13:51:34Z</time>
      </trkpt>
      <trkpt lat="46.93843" lon="-1.17877">
        <ele>95</ele>
        <time>2012-04-30T13:51:35Z</time>
      </trkpt>
      <trkpt lat="46.93853" lon="-1.17891">
        <ele>95</ele>
        <time>2012-04-30T13:51:40Z</time>
      </trkpt>
      <trkpt lat="46.93874" lon="-1.1792">
        <ele>95</ele>
        <time>2012-04-30T13:51:41Z</time>
      </trkpt>
      <trkpt lat="46.93879" lon="-1.17927">
        <ele>95</ele>
        <time>2012-04-30T13:51:42Z</time>
      </trkpt>
      <trkpt lat="46.93889" lon="-1.17941">
        <ele>95</ele>
        <time>2012-04-30T13:51:47Z</time>
      </trkpt>
      <trkpt lat="46.93909" lon="-1.17968">
        <ele>95</ele>
        <time>2012-04-30T13:51:48Z</time>
      </trkpt>
      <trkpt lat="46.93914" lon="-1.17975">
        <ele>95</ele>
        <time>2012-04-30T13:51:49Z</time>
      </trkpt>
      <trkpt lat="46.93938" lon="-1.18009">
        <ele>95</ele>
        <time>2012-04-30T13:51:54Z</time>
      </trkpt>
      <trkpt lat="46.93943" lon="-1.18016">
        <ele>95</ele>
        <time>2012-04-30T13:51:55Z</time>
      </trkpt>
      <trkpt lat="46.93953" lon="-1.18029">
        <ele>95</ele>
        <time>2012-04-30T13:52:01Z</time>
      </trkpt>
      <trkpt lat="46.93972" lon="-1.18056">
        <ele>95</ele>
        <time>2012-04-30T13:52:01Z</time>
      </trkpt>
      <trkpt lat="46.93977" lon="-1.18063">
        <ele>96</ele>
        <time>2012-04-30T13:52:02Z</time>
      </trkpt>
      <trkpt lat="46.93988" lon="-1.18076">
        <ele>96</ele>
        <time>2012-04-30T13:52:07Z</time>
      </trkpt>
      <trkpt lat="46.94009" lon="-1.18103">
        <ele>96</ele>
        <time>2012-04-30T13:52:08Z</time>
      </trkpt>
      <trkpt lat="46.94014" lon="-1.18109">
        <ele>96</ele>
        <time>2012-04-30T13:52:09Z</time>
      </trkpt>
      <trkpt lat="46.94025" lon="-1.18122">
        <ele>96</ele>
        <time>2012-04-30T13:52:14Z</time>
      </trkpt>
      <trkpt lat="46.94044" lon="-1.18149">
        <ele>96</ele>
        <time>2012-04-30T13:52:15Z</time>
      </trkpt>
      <trkpt lat="46.94049" lon="-1.18156">
        <ele>96</ele>
        <time>2012-04-30T13:52:16Z</time>
      </trkpt>
      <trkpt lat="46.94075" lon="-1.18189">
        <ele>96</ele>
        <time>2012-04-30T13:52:21Z</time>
      </trkpt>
      <trkpt lat="46.9408" lon="-1.18196">
        <ele>96</ele>
        <time>2012-04-30T13:52:22Z</time>
      </trkpt>
      <trkpt lat="46.9409" lon="-1.18209">
        <ele>96</ele>
        <time>2012-04-30T13:52:28Z</time>
      </trkpt>
      <trkpt lat="46.94111" lon="-1.18237">
        <ele>96</ele>
        <time>2012-04-30T13:52:28Z</time>
      </trkpt>
      <trkpt lat="46.94116" lon="-1.18244">
        <ele>96</ele>
        <time>2012-04-30T13:52:29Z</time>
      </trkpt>
      <trkpt lat="46.94125" lon="-1.18258">
        <ele>96</ele>
        <time>2012-04-30T13:52:34Z</time>
      </trkpt>
      <trkpt lat="46.94146" lon="-1.18286">
        <ele>96</ele>
        <time>2012-04-30T13:52:35Z</time>
      </trkpt>
      <trkpt lat="46.94151" lon="-1.18293">
        <ele>96</ele>
        <time>2012-04-30T13:52:36Z</time>
      </trkpt>
      <trkpt lat="46.94161" lon="-1.18307">
        <ele>96</ele>
        <time>2012-04-30T13:52:41Z</time>
      </trkpt>
      <trkpt lat="46.94181" lon="-1.18336">
        <ele>96</ele>
        <time>2012-04-30T13:52:42Z</time>
      </trkpt>
      <trkpt lat="46.94186" lon="-1.18343">
        <ele>96</ele>
        <time>2012-04-30T13:52:43Z</time>
      </trkpt>
      <trkpt lat="46.94211" lon="-1.18376">
        <ele>96</ele>
        <time>2012-04-30T13:52:48Z</time>
      </trkpt>
      <trkpt lat="46.94216" lon="-1.18383">
        <ele>96</ele>
        <time>2012-04-30T13:52:49Z</time>
      </trkpt>
      <trkpt lat="46.94226" lon="-1.18397">
        <ele>96</ele>
        <time>2012-04-30T13:52:55Z</time>
      </trkpt>
      <trkpt lat="46.94247" lon="-1.18425">
        <ele>96</ele>
        <time>2012-04-30T13:52:55Z</time>
      </trkpt>
      <trkpt lat="46.94252" lon="-1.18431">
        <ele>96</ele>
        <time>2012-04-30T13:52:56Z</time>
      </trkpt>
      <trkpt lat="46.94263" lon="-1.18442">
        <ele>96</ele>
        <time>2012-04-30T13:53:01Z</time>
      </trkpt>
      <trkpt lat="46.94281" lon="-1.18471">
        <ele>96</ele>
        <time>2012-04-30T13:53:02Z</time>
      </trkpt>
      <trkpt lat="46.94286" lon="-1.18476">
        <ele>96</ele>
        <time>2012-04-30T13:53:03Z</time>
      </trkpt>
      <trkpt lat="46.94295" lon="-1.18486">
        <ele>96</ele>
        <time>2012-04-30T13:53:08Z</time>
      </trkpt>
      <trkpt lat="46.94312" lon="-1.18511">
        <ele>95</ele>
        <time>2012-04-30T13:53:09Z</time>
      </trkpt>
      <trkpt lat="46.94316" lon="-1.18516">
        <ele>94</ele>
        <time>2012-04-30T13:53:10Z</time>
      </trkpt>
      <trkpt lat="46.94339" lon="-1.18544">
        <ele>93</ele>
        <time>2012-04-30T13:53:15Z</time>
      </trkpt>
      <trkpt lat="46.94344" lon="-1.18551">
        <ele>92</ele>
        <time>2012-04-30T13:53:16Z</time>
      </trkpt>
      <trkpt lat="46.94354" lon="-1.18564">
        <ele>91</ele>
        <time>2012-04-30T13:53:22Z</time>
      </trkpt>
      <trkpt lat="46.94374" lon="-1.18591">
        <ele>90</ele>
        <time>2012-04-30T13:53:22Z</time>
      </trkpt>
      <trkpt lat="46.94379" lon="-1.18598">
        <ele>89</ele>
        <time>2012-04-30T13:53:23Z</time>
      </trkpt>
      <trkpt lat="46.94389" lon="-1.18612">
        <ele>89</ele>
        <time>2012-04-30T13:53:29Z</time>
      </trkpt>
      <trkpt lat="46.94409" lon="-1.18639">
        <ele>89</ele>
        <time>2012-04-30T13:53:29Z</time>
      </trkpt>
      <trkpt lat="46.94414" lon="-1.18646">
        <ele>88</ele>
        <time>2012-04-30T13:53:30Z</time>
      </trkpt>
      <trkpt lat="46.94425" lon="-1.1866">
        <ele>88</ele>
        <time>2012-04-30T13:53:35Z</time>
      </trkpt>
      <trkpt lat="46.94446" lon="-1.1869">
        <ele>88</ele>
        <time>2012-04-30T13:53:36Z</time>
      </trkpt>
      <trkpt lat="46.94452" lon="-1.18698">
        <ele>87</ele>
        <time>2012-04-30T13:53:37Z</time>
      </trkpt>
      <trkpt lat="46.94463" lon="-1.18713">
        <ele>87</ele>
        <time>2012-04-30T13:53:42Z</time>
      </trkpt>
      <trkpt lat="46.94486" lon="-1.18746">
        <ele>86</ele>
        <time>2012-04-30T13:53:43Z</time>
      </trkpt>
      <trkpt lat="46.94492" lon="-1.18754">
        <ele>85</ele>
        <time>2012-04-30T13:53:44Z</time>
      </trkpt>
      <trkpt lat="46.94524" lon="-1.18797">
        <ele>84</ele>
        <time>2012-04-30T13:53:49Z</time>
      </trkpt>
      <trkpt lat="46.9453" lon="-1.18805">
        <ele>83</ele>
        <time>2012-04-30T13:53:50Z</time>
      </trkpt>
      <trkpt lat="46.94543" lon="-1.18823">
        <ele>82</ele>
        <time>2012-04-30T13:53:56Z</time>
      </trkpt>
      <trkpt lat="46.94569" lon="-1.18857">
        <ele>81</ele>
        <time>2012-04-30T13:53:56Z</time>
      </trkpt>
      <trkpt lat="46.94576" lon="-1.18866">
        <ele>80</ele>
        <time>2012-04-30T13:53:57Z</time>
      </trkpt>
      <trkpt lat="46.94588" lon="-1.18884">
        <ele>79</ele>
        <time>2012-04-30T13:54:02Z</time>
      </trkpt>
      <trkpt lat="46.94615" lon="-1.1892">
        <ele>78</ele>
        <time>2012-04-30T13:54:03Z</time>
      </trkpt>
      <trkpt lat="46.94622" lon="-1.18929">
        <ele>77</ele>
        <time>2012-04-30T13:54:04Z</time>
      </trkpt>
      <trkpt lat="46.94637" lon="-1.18948">
        <ele>76</ele>
        <time>2012-04-30T13:54:09Z</time>
      </trkpt>
      <trkpt lat="46.94666" lon="-1.18986">
        <ele>75</ele>
        <time>2012-04-30T13:54:10Z</time>
      </trkpt>
      <trkpt lat="46.94673" lon="-1.18996">
        <ele>74</ele>
        <time>2012-04-30T13:54:11Z</time>
      </trkpt>
      <trkpt lat="46.94709" lon="-1.19044">
        <ele>73</ele>
        <time>2012-04-30T13:54:16Z</time>
      </trkpt>
      <trkpt lat="46.94717" lon="-1.19053">
        <ele>72</ele>
        <time>2012-04-30T13:54:17Z</time>
      </trkpt>
      <trkpt lat="46.94724" lon="-1.19063">
        <ele>71</ele>
        <time>2012-04-30T13:54:18Z</time>
      </trkpt>
      <trkpt lat="46.94759" lon="-1.19113">
        <ele>70</ele>
        <time>2012-04-30T13:54:23Z</time>
      </trkpt>
      <trkpt lat="46.94766" lon="-1.19122">
        <ele>69</ele>
        <time>2012-04-30T13:54:24Z</time>
      </trkpt>
      <trkpt lat="46.94779" lon="-1.1914">
        <ele>68</ele>
        <time>2012-04-30T13:54:30Z</time>
      </trkpt>
      <trkpt lat="46.94799" lon="-1.19179">
        <ele>67</ele>
        <time>2012-04-30T13:54:30Z</time>
      </trkpt>
      <trkpt lat="46.94803" lon="-1.1919">
        <ele>66</ele>
        <time>2012-04-30T13:54:31Z</time>
      </trkpt>
      <trkpt lat="46.94806" lon="-1.19201">
        <ele>65</ele>
        <time>2012-04-30T13:54:33Z</time>
      </trkpt>
      <trkpt lat="46.94811" lon="-1.19221">
        <ele>64</ele>
        <time>2012-04-30T13:54:38Z</time>
      </trkpt>
      <trkpt lat="46.94817" lon="-1.19259">
        <ele>64</ele>
        <time>2012-04-30T13:54:38Z</time>
      </trkpt>
      <trkpt lat="46.94818" lon="-1.19267">
        <ele>64</ele>
        <time>2012-04-30T13:54:39Z</time>
      </trkpt>
      <trkpt lat="46.9482" lon="-1.19283">
        <ele>64</ele>
        <time>2012-04-30T13:54:44Z</time>
      </trkpt>
      <trkpt lat="46.94822" lon="-1.19314">
        <ele>64</ele>
        <time>2012-04-30T13:54:45Z</time>
      </trkpt>
      <trkpt lat="46.94823" lon="-1.19322">
        <ele>64</ele>
        <time>2012-04-30T13:54:46Z</time>
      </trkpt>
      <trkpt lat="46.94824" lon="-1.19337">
        <ele>64</ele>
        <time>2012-04-30T13:54:51Z</time>
      </trkpt>
      <trkpt lat="46.94824" lon="-1.19365">
        <ele>65</ele>
        <time>2012-04-30T13:54:52Z</time>
      </trkpt>
      <trkpt lat="46.94825" lon="-1.1937">
        <ele>66</ele>
        <time>2012-04-30T13:54:53Z</time>
      </trkpt>
      <trkpt lat="46.94829" lon="-1.19374">
        <ele>67</ele>
        <time>2012-04-30T13:54:54Z</time>
      </trkpt>
      <trkpt lat="46.94838" lon="-1.19374">
        <ele>68</ele>
        <time>2012-04-30T13:54:59Z</time>
      </trkpt>
      <trkpt lat="46.94858" lon="-1.19365">
        <ele>69</ele>
        <time>2012-04-30T13:55:00Z</time>
      </trkpt>
      <trkpt lat="46.94864" lon="-1.19362">
        <ele>70</ele>
        <time>2012-04-30T13:55:01Z</time>
      </trkpt>
      <trkpt lat="46.94869" lon="-1.1936">
        <ele>71</ele>
        <time>2012-04-30T13:55:02Z</time>
      </trkpt>
      <trkpt lat="46.94879" lon="-1.19355">
        <ele>71</ele>
        <time>2012-04-30T13:55:07Z</time>
      </trkpt>
      <trkpt lat="46.94899" lon="-1.19344">
        <ele>72</ele>
        <time>2012-04-30T13:55:08Z</time>
      </trkpt>
      <trkpt lat="46.94903" lon="-1.1934">
        <ele>72</ele>
        <time>2012-04-30T13:55:09Z</time>
      </trkpt>
      <trkpt lat="46.94912" lon="-1.19333">
        <ele>73</ele>
        <time>2012-04-30T13:55:14Z</time>
      </trkpt>
      <trkpt lat="46.94928" lon="-1.19319">
        <ele>74</ele>
        <time>2012-04-30T13:55:15Z</time>
      </trkpt>
      <trkpt lat="46.94933" lon="-1.19316">
        <ele>75</ele>
        <time>2012-04-30T13:55:16Z</time>
      </trkpt>
      <trkpt lat="46.94956" lon="-1.19298">
        <ele>76</ele>
        <time>2012-04-30T13:55:21Z</time>
      </trkpt>
      <trkpt lat="46.94961" lon="-1.19294">
        <ele>77</ele>
        <time>2012-04-30T13:55:22Z</time>
      </trkpt>
      <trkpt lat="46.94971" lon="-1.19287">
        <ele>78</ele>
        <time>2012-04-30T13:55:28Z</time>
      </trkpt>
      <trkpt lat="46.9499" lon="-1.19271">
        <ele>79</ele>
        <time>2012-04-30T13:55:28Z</time>
      </trkpt>
      <trkpt lat="46.94995" lon="-1.19267">
        <ele>80</ele>
        <time>2012-04-30T13:55:29Z</time>
      </trkpt>
      <trkpt lat="46.95005" lon="-1.19259">
        <ele>80</ele>
        <time>2012-04-30T13:55:34Z</time>
      </trkpt>
      <trkpt lat="46.95024" lon="-1.19242">
        <ele>81</ele>
        <time>2012-04-30T13:55:35Z</time>
      </trkpt>
      <trkpt lat="46.95029" lon="-1.19238">
        <ele>81</ele>
        <time>2012-04-30T13:55:36Z</time>
      </trkpt>
      <trkpt lat="46.95038" lon="-1.19229">
        <ele>82</ele>
        <time>2012-04-30T13:55:41Z</time>
      </trkpt>
      <trkpt lat="46.95055" lon="-1.19212">
        <ele>82</ele>
        <time>2012-04-30T13:55:42Z</time>
      </trkpt>
      <trkpt lat="46.95059" lon="-1.19208">
        <ele>82</ele>
        <time>2012-04-30T13:55:43Z</time>
      </trkpt>
      <trkpt lat="46.95073" lon="-1.19188">
        <ele>82</ele>
        <time>2012-04-30T13:55:48Z</time>
      </trkpt>
      <trkpt lat="46.95075" lon="-1.19186">
        <ele>82</ele>
        <time>2012-04-30T13:55:49Z</time>
      </trkpt>
      <trkpt lat="46.95078" lon="-1.19185">
        <ele>82</ele>
        <time>2012-04-30T13:55:50Z</time>
      </trkpt>
      <trkpt lat="46.95084" lon="-1.19188">
        <ele>82</ele>
        <time>2012-04-30T13:55:56Z</time>
      </trkpt>
      <trkpt lat="46.95105" lon="-1.19209">
        <ele>82</ele>
        <time>2012-04-30T13:55:57Z</time>
      </trkpt>
      <trkpt lat="46.9511" lon="-1.19213">
        <ele>82</ele>
        <time>2012-04-30T13:55:58Z</time>
      </trkpt>
      <trkpt lat="46.95138" lon="-1.19224">
        <ele>82</ele>
        <time>2012-04-30T13:56:03Z</time>
      </trkpt>
      <trkpt lat="46.95144" lon="-1.19225">
        <ele>82</ele>
        <time>2012-04-30T13:56:04Z</time>
      </trkpt>
      <trkpt lat="46.9515" lon="-1.19226">
        <ele>82</ele>
        <time>2012-04-30T13:56:05Z</time>
      </trkpt>
      <trkpt lat="46.95163" lon="-1.19226">
        <ele>82</ele>
        <time>2012-04-30T13:56:10Z</time>
      </trkpt>
      <trkpt lat="46.95186" lon="-1.19219">
        <ele>82</ele>
        <time>2012-04-30T13:56:11Z</time>
      </trkpt>
      <trkpt lat="46.95192" lon="-1.19216">
        <ele>82</ele>
        <time>2012-04-30T13:56:12Z</time>
      </trkpt>
      <trkpt lat="46.95198" lon="-1.19214">
        <ele>82</ele>
        <time>2012-04-30T13:56:13Z</time>
      </trkpt>
      <trkpt lat="46.95211" lon="-1.19209">
        <ele>82</ele>
        <time>2012-04-30T13:56:18Z</time>
      </trkpt>
      <trkpt lat="46.95234" lon="-1.19198">
        <ele>82</ele>
        <time>2012-04-30T13:56:19Z</time>
      </trkpt>
      <trkpt lat="46.9524" lon="-1.19195">
        <ele>82</ele>
        <time>2012-04-30T13:56:20Z</time>
      </trkpt>
      <trkpt lat="46.95271" lon="-1.19189">
        <ele>82</ele>
        <time>2012-04-30T13:56:25Z</time>
      </trkpt>
      <trkpt lat="46.95277" lon="-1.19188">
        <ele>82</ele>
        <time>2012-04-30T13:56:26Z</time>
      </trkpt>
      <trkpt lat="46.95283" lon="-1.19187">
        <ele>82</ele>
        <time>2012-04-30T13:56:27Z</time>
      </trkpt>
      <trkpt lat="46.95295" lon="-1.19187">
        <ele>82</ele>
        <time>2012-04-30T13:56:32Z</time>
      </trkpt>
      <trkpt lat="46.95321" lon="-1.19188">
        <ele>82</ele>
        <time>2012-04-30T13:56:33Z</time>
      </trkpt>
      <trkpt lat="46.95327" lon="-1.19188">
        <ele>82</ele>
        <time>2012-04-30T13:56:34Z</time>
      </trkpt>
      <trkpt lat="46.9536" lon="-1.19189">
        <ele>82</ele>
        <time>2012-04-30T13:56:39Z</time>
      </trkpt>
      <trkpt lat="46.95367" lon="-1.1919">
        <ele>82</ele>
        <time>2012-04-30T13:56:40Z</time>
      </trkpt>
      <trkpt lat="46.95374" lon="-1.1919">
        <ele>82</ele>
        <time>2012-04-30T13:56:41Z</time>
      </trkpt>
      <trkpt lat="46.95407" lon="-1.19191">
        <ele>82</ele>
        <time>2012-04-30T13:56:46Z</time>
      </trkpt>
      <trkpt lat="46.95414" lon="-1.19192">
        <ele>82</ele>
        <time>2012-04-30T13:56:47Z</time>
      </trkpt>
      <trkpt lat="46.95421" lon="-1.19192">
        <ele>82</ele>
        <time>2012-04-30T13:56:48Z</time>
      </trkpt>
      <trkpt lat="46.95454" lon="-1.19192">
        <ele>82</ele>
        <time>2012-04-30T13:56:53Z</time>
      </trkpt>
      <trkpt lat="46.95461" lon="-1.19192">
        <ele>82</ele>
        <time>2012-04-30T13:56:54Z</time>
      </trkpt>
      <trkpt lat="46.95467" lon="-1.19191">
        <ele>82</ele>
        <time>2012-04-30T13:56:55Z</time>
      </trkpt>
      <trkpt lat="46.95501" lon="-1.19186">
        <ele>82</ele>
        <time>2012-04-30T13:57:00Z</time>
      </trkpt>
      <trkpt lat="46.95507" lon="-1.19185">
        <ele>82</ele>
        <time>2012-04-30T13:57:01Z</time>
      </trkpt>
      <trkpt lat="46.95514" lon="-1.19184">
        <ele>82</ele>
        <time>2012-04-30T13:57:02Z</time>
      </trkpt>
      <trkpt lat="46.95545" lon="-1.19179">
        <ele>82</ele>
        <time>2012-04-30T13:57:07Z</time>
      </trkpt>
      <trkpt lat="46.95551" lon="-1.19178">
        <ele>82</ele>
        <time>2012-04-30T13:57:08Z</time>
      </trkpt>
      <trkpt lat="46.95557" lon="-1.19177">
        <ele>82</ele>
        <time>2012-04-30T13:57:09Z</time>
      </trkpt>
      <trkpt lat="46.95588" lon="-1.19172">
        <ele>82</ele>
        <time>2012-04-30T13:57:14Z</time>
      </trkpt>
      <trkpt lat="46.95595" lon="-1.19171">
        <ele>82</ele>
        <time>2012-04-30T13:57:15Z</time>
      </trkpt>
      <trkpt lat="46.95601" lon="-1.19169">
        <ele>82</ele>
        <time>2012-04-30T13:57:16Z</time>
      </trkpt>
      <trkpt lat="46.95631" lon="-1.19162">
        <ele>82</ele>
        <time>2012-04-30T13:57:21Z</time>
      </trkpt>
      <trkpt lat="46.95637" lon="-1.19161">
        <ele>82</ele>
        <time>2012-04-30T13:57:22Z</time>
      </trkpt>
      <trkpt lat="46.95643" lon="-1.1916">
        <ele>82</ele>
        <time>2012-04-30T13:57:23Z</time>
      </trkpt>
      <trkpt lat="46.95676" lon="-1.19165">
        <ele>82</ele>
        <time>2012-04-30T13:57:28Z</time>
      </trkpt>
      <trkpt lat="46.95683" lon="-1.19167">
        <ele>82</ele>
        <time>2012-04-30T13:57:29Z</time>
      </trkpt>
      <trkpt lat="46.95689" lon="-1.1917">
        <ele>82</ele>
        <time>2012-04-30T13:57:30Z</time>
      </trkpt>
      <trkpt lat="46.9572" lon="-1.19184">
        <ele>82</ele>
        <time>2012-04-30T13:57:35Z</time>
      </trkpt>
      <trkpt lat="46.95727" lon="-1.19187">
        <ele>82</ele>
        <time>2012-04-30T13:57:36Z</time>
      </trkpt>
      <trkpt lat="46.95733" lon="-1.1919">
        <ele>82</ele>
        <time>2012-04-30T13:57:37Z</time>
      </trkpt>
      <trkpt lat="46.95766" lon="-1.19209">
        <ele>82</ele>
        <time>2012-04-30T13:57:42Z</time>
      </trkpt>
      <trkpt lat="46.95778" lon="-1.19218">
        <ele>82</ele>
        <time>2012-04-30T13:57:46Z</time>
      </trkpt>
      <trkpt lat="46.95811" lon="-1.19245">
        <ele>82</ele>
        <time>2012-04-30T13:57:49Z</time>
      </trkpt>
      <trkpt lat="46.95823" lon="-1.19255">
        <ele>82</ele>
        <time>2012-04-30T13:57:54Z</time>
      </trkpt>
      <trkpt lat="46.95845" lon="-1.19281">
        <ele>82</ele>
        <time>2012-04-30T13:57:55Z</time>
      </trkpt>
      <trkpt lat="46.9585" lon="-1.19289">
        <ele>82</ele>
        <time>2012-04-30T13:57:56Z</time>
      </trkpt>
      <trkpt lat="46.95874" lon="-1.19328">
        <ele>82</ele>
        <time>2012-04-30T13:58:01Z</time>
      </trkpt>
      <trkpt lat="46.95879" lon="-1.19336">
        <ele>82</ele>
        <time>2012-04-30T13:58:02Z</time>
      </trkpt>
      <trkpt lat="46.95884" lon="-1.19343">
        <ele>82</ele>
        <time>2012-04-30T13:58:03Z</time>
      </trkpt>
      <trkpt lat="46.95909" lon="-1.19383">
        <ele>82</ele>
        <time>2012-04-30T13:58:08Z</time>
      </trkpt>
      <trkpt lat="46.95914" lon="-1.19391">
        <ele>82</ele>
        <time>2012-04-30T13:58:09Z</time>
      </trkpt>
      <trkpt lat="46.95919" lon="-1.19399">
        <ele>82</ele>
        <time>2012-04-30T13:58:10Z</time>
      </trkpt>
      <trkpt lat="46.95945" lon="-1.19437">
        <ele>82</ele>
        <time>2012-04-30T13:58:15Z</time>
      </trkpt>
      <trkpt lat="46.9595" lon="-1.19445">
        <ele>82</ele>
        <time>2012-04-30T13:58:16Z</time>
      </trkpt>
      <trkpt lat="46.95956" lon="-1.19453">
        <ele>81</ele>
        <time>2012-04-30T13:58:17Z</time>
      </trkpt>
      <trkpt lat="46.95981" lon="-1.19491">
        <ele>81</ele>
        <time>2012-04-30T13:58:22Z</time>
      </trkpt>
      <trkpt lat="46.95986" lon="-1.19499">
        <ele>80</ele>
        <time>2012-04-30T13:58:23Z</time>
      </trkpt>
      <trkpt lat="46.95992" lon="-1.19507">
        <ele>80</ele>
        <time>2012-04-30T13:58:24Z</time>
      </trkpt>
      <trkpt lat="46.96016" lon="-1.19546">
        <ele>80</ele>
        <time>2012-04-30T13:58:29Z</time>
      </trkpt>
      <trkpt lat="46.96022" lon="-1.19553">
        <ele>80</ele>
        <time>2012-04-30T13:58:30Z</time>
      </trkpt>
      <trkpt lat="46.96027" lon="-1.19561">
        <ele>80</ele>
        <time>2012-04-30T13:58:31Z</time>
      </trkpt>
      <trkpt lat="46.96052" lon="-1.19599">
        <ele>80</ele>
        <time>2012-04-30T13:58:36Z</time>
      </trkpt>
      <trkpt lat="46.96057" lon="-1.19607">
        <ele>80</ele>
        <time>2012-04-30T13:58:37Z</time>
      </trkpt>
      <trkpt lat="46.96062" lon="-1.19614">
        <ele>80</ele>
        <time>2012-04-30T13:58:38Z</time>
      </trkpt>
      <trkpt lat="46.96085" lon="-1.19652">
        <ele>80</ele>
        <time>2012-04-30T13:58:43Z</time>
      </trkpt>
      <trkpt lat="46.9609" lon="-1.19659">
        <ele>80</ele>
        <time>2012-04-30T13:58:44Z</time>
      </trkpt>
      <trkpt lat="46.96095" lon="-1.19666">
        <ele>80</ele>
        <time>2012-04-30T13:58:45Z</time>
      </trkpt>
      <trkpt lat="46.96119" lon="-1.19703">
        <ele>80</ele>
        <time>2012-04-30T13:58:50Z</time>
      </trkpt>
      <trkpt lat="46.96124" lon="-1.19711">
        <ele>79</ele>
        <time>2012-04-30T13:58:51Z</time>
      </trkpt>
      <trkpt lat="46.96129" lon="-1.19719">
        <ele>79</ele>
        <time>2012-04-30T13:58:52Z</time>
      </trkpt>
      <trkpt lat="46.96154" lon="-1.19757">
        <ele>79</ele>
        <time>2012-04-30T13:58:57Z</time>
      </trkpt>
      <trkpt lat="46.96159" lon="-1.19764">
        <ele>79</ele>
        <time>2012-04-30T13:58:58Z</time>
      </trkpt>
      <trkpt lat="46.96164" lon="-1.19772">
        <ele>78</ele>
        <time>2012-04-30T13:58:59Z</time>
      </trkpt>
      <trkpt lat="46.96189" lon="-1.19809">
        <ele>78</ele>
        <time>2012-04-30T13:59:04Z</time>
      </trkpt>
      <trkpt lat="46.96194" lon="-1.19817">
        <ele>78</ele>
        <time>2012-04-30T13:59:05Z</time>
      </trkpt>
      <trkpt lat="46.96199" lon="-1.19825">
        <ele>78</ele>
        <time>2012-04-30T13:59:06Z</time>
      </trkpt>
      <trkpt lat="46.96224" lon="-1.19863">
        <ele>77</ele>
        <time>2012-04-30T13:59:11Z</time>
      </trkpt>
      <trkpt lat="46.96229" lon="-1.1987">
        <ele>77</ele>
        <time>2012-04-30T13:59:12Z</time>
      </trkpt>
      <trkpt lat="46.96234" lon="-1.19878">
        <ele>77</ele>
        <time>2012-04-30T13:59:13Z</time>
      </trkpt>
      <trkpt lat="46.9626" lon="-1.19916">
        <ele>76</ele>
        <time>2012-04-30T13:59:18Z</time>
      </trkpt>
      <trkpt lat="46.96265" lon="-1.19924">
        <ele>76</ele>
        <time>2012-04-30T13:59:19Z</time>
      </trkpt>
      <trkpt lat="46.9627" lon="-1.19931">
        <ele>76</ele>
        <time>2012-04-30T13:59:20Z</time>
      </trkpt>
      <trkpt lat="46.96281" lon="-1.19947">
        <ele>75</ele>
        <time>2012-04-30T13:59:25Z</time>
      </trkpt>
      <trkpt lat="46.96303" lon="-1.19977">
        <ele>75</ele>
        <time>2012-04-30T13:59:26Z</time>
      </trkpt>
      <trkpt lat="46.96309" lon="-1.19984">
        <ele>75</ele>
        <time>2012-04-30T13:59:27Z</time>
      </trkpt>
      <trkpt lat="46.96337" lon="-1.20018">
        <ele>74</ele>
        <time>2012-04-30T13:59:32Z</time>
      </trkpt>
      <trkpt lat="46.96342" lon="-1.20024">
        <ele>74</ele>
        <time>2012-04-30T13:59:33Z</time>
      </trkpt>
      <trkpt lat="46.96348" lon="-1.2003">
        <ele>74</ele>
        <time>2012-04-30T13:59:34Z</time>
      </trkpt>
      <trkpt lat="46.96375" lon="-1.20062">
        <ele>74</ele>
        <time>2012-04-30T13:59:39Z</time>
      </trkpt>
      <trkpt lat="46.9638" lon="-1.20068">
        <ele>74</ele>
        <time>2012-04-30T13:59:40Z</time>
      </trkpt>
      <trkpt lat="46.96386" lon="-1.20074">
        <ele>74</ele>
        <time>2012-04-30T13:59:41Z</time>
      </trkpt>
      <trkpt lat="46.96413" lon="-1.20105">
        <ele>74</ele>
        <time>2012-04-30T13:59:46Z</time>
      </trkpt>
      <trkpt lat="46.96419" lon="-1.20111">
        <ele>74</ele>
        <time>2012-04-30T13:59:47Z</time>
      </trkpt>
      <trkpt lat="46.96425" lon="-1.20117">
        <ele>74</ele>
        <time>2012-04-30T13:59:48Z</time>
      </trkpt>
      <trkpt lat="46.96457" lon="-1.20143">
        <ele>74</ele>
        <time>2012-04-30T13:59:53Z</time>
      </trkpt>
      <trkpt lat="46.96463" lon="-1.20148">
        <ele>74</ele>
        <time>2012-04-30T13:59:54Z</time>
      </trkpt>
      <trkpt lat="46.9647" lon="-1.20153">
        <ele>74</ele>
        <time>2012-04-30T13:59:55Z</time>
      </trkpt>
      <trkpt lat="46.96483" lon="-1.20162">
        <ele>74</ele>
        <time>2012-04-30T14:00:00Z</time>
      </trkpt>
      <trkpt lat="46.96509" lon="-1.20179">
        <ele>74</ele>
        <time>2012-04-30T14:00:01Z</time>
      </trkpt>
      <trkpt lat="46.96516" lon="-1.20184">
        <ele>74</ele>
        <time>2012-04-30T14:00:02Z</time>
      </trkpt>
      <trkpt lat="46.96548" lon="-1.20206">
        <ele>74</ele>
        <time>2012-04-30T14:00:07Z</time>
      </trkpt>
      <trkpt lat="46.96555" lon="-1.20211">
        <ele>74</ele>
        <time>2012-04-30T14:00:08Z</time>
      </trkpt>
      <trkpt lat="46.96561" lon="-1.20215">
        <ele>74</ele>
        <time>2012-04-30T14:00:09Z</time>
      </trkpt>
      <trkpt lat="46.96593" lon="-1.20237">
        <ele>74</ele>
        <time>2012-04-30T14:00:14Z</time>
      </trkpt>
      <trkpt lat="46.966" lon="-1.20241">
        <ele>74</ele>
        <time>2012-04-30T14:00:15Z</time>
      </trkpt>
      <trkpt lat="46.96606" lon="-1.20246">
        <ele>74</ele>
        <time>2012-04-30T14:00:16Z</time>
      </trkpt>
      <trkpt lat="46.96639" lon="-1.20268">
        <ele>74</ele>
        <time>2012-04-30T14:00:21Z</time>
      </trkpt>
      <trkpt lat="46.96645" lon="-1.20273">
        <ele>74</ele>
        <time>2012-04-30T14:00:22Z</time>
      </trkpt>
      <trkpt lat="46.96652" lon="-1.20277">
        <ele>74</ele>
        <time>2012-04-30T14:00:23Z</time>
      </trkpt>
      <trkpt lat="46.96684" lon="-1.203">
        <ele>74</ele>
        <time>2012-04-30T14:00:28Z</time>
      </trkpt>
      <trkpt lat="46.96691" lon="-1.20304">
        <ele>74</ele>
        <time>2012-04-30T14:00:29Z</time>
      </trkpt>
      <trkpt lat="46.96698" lon="-1.20308">
        <ele>74</ele>
        <time>2012-04-30T14:00:30Z</time>
      </trkpt>
      <trkpt lat="46.96711" lon="-1.20318">
        <ele>74</ele>
        <time>2012-04-30T14:00:35Z</time>
      </trkpt>
      <trkpt lat="46.9674" lon="-1.20339">
        <ele>74</ele>
        <time>2012-04-30T14:00:36Z</time>
      </trkpt>
      <trkpt lat="46.96747" lon="-1.20344">
        <ele>74</ele>
        <time>2012-04-30T14:00:37Z</time>
      </trkpt>
      <trkpt lat="46.96783" lon="-1.20369">
        <ele>74</ele>
        <time>2012-04-30T14:00:42Z</time>
      </trkpt>
      <trkpt lat="46.9679" lon="-1.20373">
        <ele>74</ele>
        <time>2012-04-30T14:00:43Z</time>
      </trkpt>
      <trkpt lat="46.96797" lon="-1.20378">
        <ele>73</ele>
        <time>2012-04-30T14:00:44Z</time>
      </trkpt>
      <trkpt lat="46.96833" lon="-1.20403">
        <ele>73</ele>
        <time>2012-04-30T14:00:49Z</time>
      </trkpt>
      <trkpt lat="46.9684" lon="-1.20408">
        <ele>73</ele>
        <time>2012-04-30T14:00:50Z</time>
      </trkpt>
      <trkpt lat="46.96848" lon="-1.20413">
        <ele>72</ele>
        <time>2012-04-30T14:00:51Z</time>
      </trkpt>
      <trkpt lat="46.96883" lon="-1.20438">
        <ele>72</ele>
        <time>2012-04-30T14:00:56Z</time>
      </trkpt>
      <trkpt lat="46.9689" lon="-1.20443">
        <ele>72</ele>
        <time>2012-04-30T14:00:57Z</time>
      </trkpt>
      <trkpt lat="46.96897" lon="-1.20448">
        <ele>72</ele>
        <time>2012-04-30T14:00:58Z</time>
      </trkpt>
      <trkpt lat="46.96932" lon="-1.20472">
        <ele>72</ele>
        <time>2012-04-30T14:01:03Z</time>
      </trkpt>
      <trkpt lat="46.96938" lon="-1.20476">
        <ele>72</ele>
        <time>2012-04-30T14:01:04Z</time>
      </trkpt>
      <trkpt lat="46.96945" lon="-1.20481">
        <ele>72</ele>
        <time>2012-04-30T14:01:05Z</time>
      </trkpt>
      <trkpt lat="46.96958" lon="-1.2049">
        <ele>72</ele>
        <time>2012-04-30T14:01:10Z</time>
      </trkpt>
      <trkpt lat="46.96983" lon="-1.20508">
        <ele>72</ele>
        <time>2012-04-30T14:01:11Z</time>
      </trkpt>
      <trkpt lat="46.96989" lon="-1.20512">
        <ele>72</ele>
        <time>2012-04-30T14:01:12Z</time>
      </trkpt>
      <trkpt lat="46.97021" lon="-1.20534">
        <ele>72</ele>
        <time>2012-04-30T14:01:17Z</time>
      </trkpt>
      <trkpt lat="46.97028" lon="-1.20538">
        <ele>72</ele>
        <time>2012-04-30T14:01:18Z</time>
      </trkpt>
      <trkpt lat="46.97034" lon="-1.20543">
        <ele>72</ele>
        <time>2012-04-30T14:01:19Z</time>
      </trkpt>
      <trkpt lat="46.97047" lon="-1.20552">
        <ele>72</ele>
        <time>2012-04-30T14:01:24Z</time>
      </trkpt>
      <trkpt lat="46.97073" lon="-1.2057">
        <ele>72</ele>
        <time>2012-04-30T14:01:25Z</time>
      </trkpt>
      <trkpt lat="46.9708" lon="-1.20574">
        <ele>72</ele>
        <time>2012-04-30T14:01:26Z</time>
      </trkpt>
      <trkpt lat="46.97113" lon="-1.20598">
        <ele>72</ele>
        <time>2012-04-30T14:01:31Z</time>
      </trkpt>
      <trkpt lat="46.97119" lon="-1.20602">
        <ele>72</ele>
        <time>2012-04-30T14:01:32Z</time>
      </trkpt>
      <trkpt lat="46.97126" lon="-1.20607">
        <ele>72</ele>
        <time>2012-04-30T14:01:33Z</time>
      </trkpt>
      <trkpt lat="46.9716" lon="-1.2063">
        <ele>72</ele>
        <time>2012-04-30T14:01:38Z</time>
      </trkpt>
      <trkpt lat="46.97166" lon="-1.20635">
        <ele>72</ele>
        <time>2012-04-30T14:01:39Z</time>
      </trkpt>
      <trkpt lat="46.97174" lon="-1.20639">
        <ele>72</ele>
        <time>2012-04-30T14:01:40Z</time>
      </trkpt>
      <trkpt lat="46.97188" lon="-1.20648">
        <ele>72</ele>
        <time>2012-04-30T14:01:45Z</time>
      </trkpt>
      <trkpt lat="46.9722" lon="-1.2066">
        <ele>72</ele>
        <time>2012-04-30T14:01:46Z</time>
      </trkpt>
      <trkpt lat="46.97228" lon="-1.20661">
        <ele>72</ele>
        <time>2012-04-30T14:01:47Z</time>
      </trkpt>
      <trkpt lat="46.97236" lon="-1.20662">
        <ele>71</ele>
        <time>2012-04-30T14:01:48Z</time>
      </trkpt>
      <trkpt lat="46.97277" lon="-1.20668">
        <ele>71</ele>
        <time>2012-04-30T14:01:53Z</time>
      </trkpt>
      <trkpt lat="46.97285" lon="-1.20669">
        <ele>71</ele>
        <time>2012-04-30T14:01:54Z</time>
      </trkpt>
      <trkpt lat="46.97293" lon="-1.2067">
        <ele>71</ele>
        <time>2012-04-30T14:01:55Z</time>
      </trkpt>
      <trkpt lat="46.97327" lon="-1.20675">
        <ele>71</ele>
        <time>2012-04-30T14:02:00Z</time>
      </trkpt>
      <trkpt lat="46.97333" lon="-1.20676">
        <ele>71</ele>
        <time>2012-04-30T14:02:01Z</time>
      </trkpt>
      <trkpt lat="46.97339" lon="-1.20677">
        <ele>71</ele>
        <time>2012-04-30T14:02:02Z</time>
      </trkpt>
      <trkpt lat="46.97367" lon="-1.20674">
        <ele>71</ele>
        <time>2012-04-30T14:02:07Z</time>
      </trkpt>
      <trkpt lat="46.97372" lon="-1.20671">
        <ele>71</ele>
        <time>2012-04-30T14:02:08Z</time>
      </trkpt>
      <trkpt lat="46.97377" lon="-1.20669">
        <ele>71</ele>
        <time>2012-04-30T14:02:09Z</time>
      </trkpt>
      <trkpt lat="46.97387" lon="-1.20664">
        <ele>71</ele>
        <time>2012-04-30T14:02:14Z</time>
      </trkpt>
      <trkpt lat="46.97409" lon="-1.20651">
        <ele>71</ele>
        <time>2012-04-30T14:02:15Z</time>
      </trkpt>
      <trkpt lat="46.97415" lon="-1.20648">
        <ele>71</ele>
        <time>2012-04-30T14:02:16Z</time>
      </trkpt>
      <trkpt lat="46.97426" lon="-1.20641">
        <ele>71</ele>
        <time>2012-04-30T14:02:21Z</time>
      </trkpt>
      <trkpt lat="46.97449" lon="-1.20627">
        <ele>71</ele>
        <time>2012-04-30T14:02:22Z</time>
      </trkpt>
      <trkpt lat="46.97455" lon="-1.20624">
        <ele>71</ele>
        <time>2012-04-30T14:02:23Z</time>
      </trkpt>
      <trkpt lat="46.97467" lon="-1.20617">
        <ele>71</ele>
        <time>2012-04-30T14:02:28Z</time>
      </trkpt>
      <trkpt lat="46.97489" lon="-1.20603">
        <ele>71</ele>
        <time>2012-04-30T14:02:29Z</time>
      </trkpt>
      <trkpt lat="46.97495" lon="-1.206">
        <ele>72</ele>
        <time>2012-04-30T14:02:30Z</time>
      </trkpt>
      <trkpt lat="46.97524" lon="-1.20583">
        <ele>72</ele>
        <time>2012-04-30T14:02:35Z</time>
      </trkpt>
      <trkpt lat="46.9753" lon="-1.20579">
        <ele>73</ele>
        <time>2012-04-30T14:02:36Z</time>
      </trkpt>
      <trkpt lat="46.97536" lon="-1.20576">
        <ele>74</ele>
        <time>2012-04-30T14:02:37Z</time>
      </trkpt>
      <trkpt lat="46.97567" lon="-1.20561">
        <ele>75</ele>
        <time>2012-04-30T14:02:42Z</time>
      </trkpt>
      <trkpt lat="46.97574" lon="-1.20557">
        <ele>75</ele>
        <time>2012-04-30T14:02:43Z</time>
      </trkpt>
      <trkpt lat="46.9758" lon="-1.20555">
        <ele>76</ele>
        <time>2012-04-30T14:02:44Z</time>
      </trkpt>
      <trkpt lat="46.97612" lon="-1.20542">
        <ele>76</ele>
        <time>2012-04-30T14:02:49Z</time>
      </trkpt>
      <trkpt lat="46.97619" lon="-1.20539">
        <ele>76</ele>
        <time>2012-04-30T14:02:50Z</time>
      </trkpt>
      <trkpt lat="46.97625" lon="-1.20536">
        <ele>77</ele>
        <time>2012-04-30T14:02:51Z</time>
      </trkpt>
      <trkpt lat="46.97657" lon="-1.20523">
        <ele>77</ele>
        <time>2012-04-30T14:02:56Z</time>
      </trkpt>
      <trkpt lat="46.97664" lon="-1.20521">
        <ele>77</ele>
        <time>2012-04-30T14:02:57Z</time>
      </trkpt>
      <trkpt lat="46.9767" lon="-1.20518">
        <ele>77</ele>
        <time>2012-04-30T14:02:58Z</time>
      </trkpt>
      <trkpt lat="46.97702" lon="-1.20507">
        <ele>78</ele>
        <time>2012-04-30T14:03:03Z</time>
      </trkpt>
      <trkpt lat="46.97708" lon="-1.20506">
        <ele>78</ele>
        <time>2012-04-30T14:03:04Z</time>
      </trkpt>
      <trkpt lat="46.97715" lon="-1.20504">
        <ele>78</ele>
        <time>2012-04-30T14:03:05Z</time>
      </trkpt>
      <trkpt lat="46.97747" lon="-1.20497">
        <ele>78</ele>
        <time>2012-04-30T14:03:10Z</time>
      </trkpt>
      <trkpt lat="46.97753" lon="-1.20496">
        <ele>78</ele>
        <time>2012-04-30T14:03:11Z</time>
      </trkpt>
      <trkpt lat="46.97759" lon="-1.20495">
        <ele>78</ele>
        <time>2012-04-30T14:03:12Z</time>
      </trkpt>
      <trkpt lat="46.97772" lon="-1.20492">
        <ele>78</ele>
        <time>2012-04-30T14:03:17Z</time>
      </trkpt>
      <trkpt lat="46.97797" lon="-1.20486">
        <ele>78</ele>
        <time>2012-04-30T14:03:18Z</time>
      </trkpt>
      <trkpt lat="46.97802" lon="-1.20484">
        <ele>78</ele>
        <time>2012-04-30T14:03:19Z</time>
      </trkpt>
      <trkpt lat="46.97824" lon="-1.20497">
        <ele>78</ele>
        <time>2012-04-30T14:03:24Z</time>
      </trkpt>
      <trkpt lat="46.97824" lon="-1.20504">
        <ele>77</ele>
        <time>2012-04-30T14:03:25Z</time>
      </trkpt>
      <trkpt lat="46.97823" lon="-1.20512">
        <ele>76</ele>
        <time>2012-04-30T14:03:26Z</time>
      </trkpt>
      <trkpt lat="46.97823" lon="-1.20521">
        <ele>76</ele>
        <time>2012-04-30T14:03:27Z</time>
      </trkpt>
      <trkpt lat="46.97822" lon="-1.20538">
        <ele>76</ele>
        <time>2012-04-30T14:03:32Z</time>
      </trkpt>
      <trkpt lat="46.97822" lon="-1.20575">
        <ele>76</ele>
        <time>2012-04-30T14:03:33Z</time>
      </trkpt>
      <trkpt lat="46.97821" lon="-1.20585">
        <ele>76</ele>
        <time>2012-04-30T14:03:34Z</time>
      </trkpt>
      <trkpt lat="46.97821" lon="-1.20604">
        <ele>76</ele>
        <time>2012-04-30T14:03:39Z</time>
      </trkpt>
      <trkpt lat="46.97822" lon="-1.20642">
        <ele>76</ele>
        <time>2012-04-30T14:03:40Z</time>
      </trkpt>
      <trkpt lat="46.97822" lon="-1.20652">
        <ele>76</ele>
        <time>2012-04-30T14:03:41Z</time>
      </trkpt>
      <trkpt lat="46.97823" lon="-1.20671">
        <ele>76</ele>
        <time>2012-04-30T14:03:46Z</time>
      </trkpt>
      <trkpt lat="46.97826" lon="-1.20707">
        <ele>76</ele>
        <time>2012-04-30T14:03:47Z</time>
      </trkpt>
      <trkpt lat="46.97826" lon="-1.20717">
        <ele>76</ele>
        <time>2012-04-30T14:03:48Z</time>
      </trkpt>
      <trkpt lat="46.97827" lon="-1.20737">
        <ele>76</ele>
        <time>2012-04-30T14:03:53Z</time>
      </trkpt>
      <trkpt lat="46.97829" lon="-1.20779">
        <ele>76</ele>
        <time>2012-04-30T14:03:54Z</time>
      </trkpt>
      <trkpt lat="46.97829" lon="-1.2079">
        <ele>76</ele>
        <time>2012-04-30T14:03:55Z</time>
      </trkpt>
      <trkpt lat="46.97829" lon="-1.20811">
        <ele>76</ele>
        <time>2012-04-30T14:04:00Z</time>
      </trkpt>
      <trkpt lat="46.97831" lon="-1.20854">
        <ele>76</ele>
        <time>2012-04-30T14:04:01Z</time>
      </trkpt>
      <trkpt lat="46.97832" lon="-1.20864">
        <ele>76</ele>
        <time>2012-04-30T14:04:02Z</time>
      </trkpt>
      <trkpt lat="46.97835" lon="-1.20885">
        <ele>76</ele>
        <time>2012-04-30T14:04:07Z</time>
      </trkpt>
      <trkpt lat="46.97844" lon="-1.20924">
        <ele>76</ele>
        <time>2012-04-30T14:04:08Z</time>
      </trkpt>
      <trkpt lat="46.97847" lon="-1.20934">
        <ele>76</ele>
        <time>2012-04-30T14:04:09Z</time>
      </trkpt>
      <trkpt lat="46.97861" lon="-1.20983">
        <ele>76</ele>
        <time>2012-04-30T14:04:14Z</time>
      </trkpt>
      <trkpt lat="46.97864" lon="-1.20993">
        <ele>76</ele>
        <time>2012-04-30T14:04:15Z</time>
      </trkpt>
      <trkpt lat="46.97867" lon="-1.21003">
        <ele>76</ele>
        <time>2012-04-30T14:04:16Z</time>
      </trkpt>
      <trkpt lat="46.97872" lon="-1.21022">
        <ele>76</ele>
        <time>2012-04-30T14:04:21Z</time>
      </trkpt>
      <trkpt lat="46.97883" lon="-1.21062">
        <ele>76</ele>
        <time>2012-04-30T14:04:22Z</time>
      </trkpt>
      <trkpt lat="46.97885" lon="-1.21072">
        <ele>76</ele>
        <time>2012-04-30T14:04:23Z</time>
      </trkpt>
      <trkpt lat="46.97889" lon="-1.21092">
        <ele>76</ele>
        <time>2012-04-30T14:04:28Z</time>
      </trkpt>
      <trkpt lat="46.97897" lon="-1.21132">
        <ele>76</ele>
        <time>2012-04-30T14:04:29Z</time>
      </trkpt>
      <trkpt lat="46.97899" lon="-1.21142">
        <ele>76</ele>
        <time>2012-04-30T14:04:30Z</time>
      </trkpt>
      <trkpt lat="46.97903" lon="-1.21162">
        <ele>76</ele>
        <time>2012-04-30T14:04:35Z</time>
      </trkpt>
      <trkpt lat="46.97911" lon="-1.21201">
        <ele>76</ele>
        <time>2012-04-30T14:04:36Z</time>
      </trkpt>
      <trkpt lat="46.97913" lon="-1.21211">
        <ele>76</ele>
        <time>2012-04-30T14:04:37Z</time>
      </trkpt>
      <trkpt lat="46.97918" lon="-1.2123">
        <ele>76</ele>
        <time>2012-04-30T14:04:42Z</time>
      </trkpt>
      <trkpt lat="46.97926" lon="-1.21268">
        <ele>76</ele>
        <time>2012-04-30T14:04:43Z</time>
      </trkpt>
      <trkpt lat="46.97929" lon="-1.21278">
        <ele>76</ele>
        <time>2012-04-30T14:04:44Z</time>
      </trkpt>
      <trkpt lat="46.97934" lon="-1.21297">
        <ele>76</ele>
        <time>2012-04-30T14:04:49Z</time>
      </trkpt>
      <trkpt lat="46.97944" lon="-1.21336">
        <ele>76</ele>
        <time>2012-04-30T14:04:50Z</time>
      </trkpt>
      <trkpt lat="46.97947" lon="-1.21346">
        <ele>76</ele>
        <time>2012-04-30T14:04:51Z</time>
      </trkpt>
      <trkpt lat="46.97952" lon="-1.21366">
        <ele>76</ele>
        <time>2012-04-30T14:04:56Z</time>
      </trkpt>
      <trkpt lat="46.97963" lon="-1.21405">
        <ele>76</ele>
        <time>2012-04-30T14:04:57Z</time>
      </trkpt>
      <trkpt lat="46.97966" lon="-1.21414">
        <ele>76</ele>
        <time>2012-04-30T14:04:58Z</time>
      </trkpt>
      <trkpt lat="46.97973" lon="-1.21433">
        <ele>76</ele>
        <time>2012-04-30T14:05:03Z</time>
      </trkpt>
      <trkpt lat="46.97992" lon="-1.2147">
        <ele>76</ele>
        <time>2012-04-30T14:05:04Z</time>
      </trkpt>
      <trkpt lat="46.97996" lon="-1.2148">
        <ele>75</ele>
        <time>2012-04-30T14:05:05Z</time>
      </trkpt>
      <trkpt lat="46.98005" lon="-1.21496">
        <ele>74</ele>
        <time>2012-04-30T14:05:10Z</time>
      </trkpt>
      <trkpt lat="46.98023" lon="-1.21528">
        <ele>73</ele>
        <time>2012-04-30T14:05:11Z</time>
      </trkpt>
      <trkpt lat="46.98026" lon="-1.21537">
        <ele>73</ele>
        <time>2012-04-30T14:05:12Z</time>
      </trkpt>
      <trkpt lat="46.98033" lon="-1.21555">
        <ele>73</ele>
        <time>2012-04-30T14:05:17Z</time>
      </trkpt>
      <trkpt lat="46.98043" lon="-1.21592">
        <ele>73</ele>
        <time>2012-04-30T14:05:18Z</time>
      </trkpt>
      <trkpt lat="46.98045" lon="-1.21601">
        <ele>73</ele>
        <time>2012-04-30T14:05:19Z</time>
      </trkpt>
      <trkpt lat="46.98048" lon="-1.21621">
        <ele>73</ele>
        <time>2012-04-30T14:05:24Z</time>
      </trkpt>
      <trkpt lat="46.98056" lon="-1.21661">
        <ele>73</ele>
        <time>2012-04-30T14:05:25Z</time>
      </trkpt>
      <trkpt lat="46.98058" lon="-1.21671">
        <ele>73</ele>
        <time>2012-04-30T14:05:26Z</time>
      </trkpt>
      <trkpt lat="46.98062" lon="-1.21692">
        <ele>73</ele>
        <time>2012-04-30T14:05:31Z</time>
      </trkpt>
      <trkpt lat="46.98071" lon="-1.21732">
        <ele>73</ele>
        <time>2012-04-30T14:05:32Z</time>
      </trkpt>
      <trkpt lat="46.98073" lon="-1.21742">
        <ele>72</ele>
        <time>2012-04-30T14:05:33Z</time>
      </trkpt>
      <trkpt lat="46.98078" lon="-1.21761">
        <ele>71</ele>
        <time>2012-04-30T14:05:38Z</time>
      </trkpt>
      <trkpt lat="46.98086" lon="-1.218">
        <ele>70</ele>
        <time>2012-04-30T14:05:39Z</time>
      </trkpt>
      <trkpt lat="46.98088" lon="-1.2181">
        <ele>70</ele>
        <time>2012-04-30T14:05:40Z</time>
      </trkpt>
      <trkpt lat="46.98093" lon="-1.2183">
        <ele>69</ele>
        <time>2012-04-30T14:05:45Z</time>
      </trkpt>
      <trkpt lat="46.98103" lon="-1.21871">
        <ele>68</ele>
        <time>2012-04-30T14:05:46Z</time>
      </trkpt>
      <trkpt lat="46.98105" lon="-1.21882">
        <ele>68</ele>
        <time>2012-04-30T14:05:47Z</time>
      </trkpt>
      <trkpt lat="46.98109" lon="-1.21905">
        <ele>67</ele>
        <time>2012-04-30T14:05:52Z</time>
      </trkpt>
      <trkpt lat="46.98114" lon="-1.21951">
        <ele>66</ele>
        <time>2012-04-30T14:05:53Z</time>
      </trkpt>
      <trkpt lat="46.98115" lon="-1.21963">
        <ele>66</ele>
        <time>2012-04-30T14:05:54Z</time>
      </trkpt>
      <trkpt lat="46.98116" lon="-1.21986">
        <ele>65</ele>
        <time>2012-04-30T14:05:59Z</time>
      </trkpt>
      <trkpt lat="46.98119" lon="-1.22028">
        <ele>65</ele>
        <time>2012-04-30T14:06:00Z</time>
      </trkpt>
      <trkpt lat="46.98119" lon="-1.22038">
        <ele>65</ele>
        <time>2012-04-30T14:06:01Z</time>
      </trkpt>
      <trkpt lat="46.98122" lon="-1.22059">
        <ele>65</ele>
        <time>2012-04-30T14:06:06Z</time>
      </trkpt>
      <trkpt lat="46.98126" lon="-1.22098">
        <ele>65</ele>
        <time>2012-04-30T14:06:07Z</time>
      </trkpt>
      <trkpt lat="46.98127" lon="-1.22107">
        <ele>65</ele>
        <time>2012-04-30T14:06:08Z</time>
      </trkpt>
      <trkpt lat="46.98129" lon="-1.22127">
        <ele>65</ele>
        <time>2012-04-30T14:06:13Z</time>
      </trkpt>
      <trkpt lat="46.98134" lon="-1.22165">
        <ele>65</ele>
        <time>2012-04-30T14:06:14Z</time>
      </trkpt>
      <trkpt lat="46.98135" lon="-1.22175">
        <ele>65</ele>
        <time>2012-04-30T14:06:15Z</time>
      </trkpt>
      <trkpt lat="46.98139" lon="-1.22193">
        <ele>65</ele>
        <time>2012-04-30T14:06:20Z</time>
      </trkpt>
      <trkpt lat="46.98148" lon="-1.22229">
        <ele>65</ele>
        <time>2012-04-30T14:06:21Z</time>
      </trkpt>
      <trkpt lat="46.98151" lon="-1.22238">
        <ele>65</ele>
        <time>2012-04-30T14:06:22Z</time>
      </trkpt>
      <trkpt lat="46.98156" lon="-1.22256">
        <ele>65</ele>
        <time>2012-04-30T14:06:27Z</time>
      </trkpt>
      <trkpt lat="46.98164" lon="-1.22293">
        <ele>65</ele>
        <time>2012-04-30T14:06:28Z</time>
      </trkpt>
      <trkpt lat="46.98166" lon="-1.22303">
        <ele>65</ele>
        <time>2012-04-30T14:06:29Z</time>
      </trkpt>
      <trkpt lat="46.98168" lon="-1.22323">
        <ele>65</ele>
        <time>2012-04-30T14:06:34Z</time>
      </trkpt>
      <trkpt lat="46.98174" lon="-1.22362">
        <ele>65</ele>
        <time>2012-04-30T14:06:35Z</time>
      </trkpt>
      <trkpt lat="46.98175" lon="-1.22371">
        <ele>65</ele>
        <time>2012-04-30T14:06:36Z</time>
      </trkpt>
      <trkpt lat="46.98178" lon="-1.2239">
        <ele>65</ele>
        <time>2012-04-30T14:06:41Z</time>
      </trkpt>
      <trkpt lat="46.98185" lon="-1.22427">
        <ele>65</ele>
        <time>2012-04-30T14:06:42Z</time>
      </trkpt>
      <trkpt lat="46.98188" lon="-1.22436">
        <ele>65</ele>
        <time>2012-04-30T14:06:43Z</time>
      </trkpt>
      <trkpt lat="46.98191" lon="-1.22455">
        <ele>65</ele>
        <time>2012-04-30T14:06:48Z</time>
      </trkpt>
      <trkpt lat="46.98203" lon="-1.22491">
        <ele>65</ele>
        <time>2012-04-30T14:06:49Z</time>
      </trkpt>
      <trkpt lat="46.98206" lon="-1.22499">
        <ele>65</ele>
        <time>2012-04-30T14:06:50Z</time>
      </trkpt>
      <trkpt lat="46.98213" lon="-1.22516">
        <ele>65</ele>
        <time>2012-04-30T14:06:55Z</time>
      </trkpt>
      <trkpt lat="46.98226" lon="-1.22552">
        <ele>65</ele>
        <time>2012-04-30T14:06:56Z</time>
      </trkpt>
      <trkpt lat="46.9823" lon="-1.22562">
        <ele>65</ele>
        <time>2012-04-30T14:06:57Z</time>
      </trkpt>
      <trkpt lat="46.98236" lon="-1.2258">
        <ele>65</ele>
        <time>2012-04-30T14:07:02Z</time>
      </trkpt>
      <trkpt lat="46.9825" lon="-1.22617">
        <ele>65</ele>
        <time>2012-04-30T14:07:03Z</time>
      </trkpt>
      <trkpt lat="46.98253" lon="-1.22626">
        <ele>65</ele>
        <time>2012-04-30T14:07:04Z</time>
      </trkpt>
      <trkpt lat="46.98261" lon="-1.22644">
        <ele>65</ele>
        <time>2012-04-30T14:07:09Z</time>
      </trkpt>
      <trkpt lat="46.98279" lon="-1.22678">
        <ele>65</ele>
        <time>2012-04-30T14:07:10Z</time>
      </trkpt>
      <trkpt lat="46.98283" lon="-1.22686">
        <ele>65</ele>
        <time>2012-04-30T14:07:11Z</time>
      </trkpt>
      <trkpt lat="46.98291" lon="-1.22703">
        <ele>65</ele>
        <time>2012-04-30T14:07:16Z</time>
      </trkpt>
      <trkpt lat="46.98305" lon="-1.22737">
        <ele>65</ele>
        <time>2012-04-30T14:07:17Z</time>
      </trkpt>
      <trkpt lat="46.98309" lon="-1.22746">
        <ele>65</ele>
        <time>2012-04-30T14:07:18Z</time>
      </trkpt>
      <trkpt lat="46.98315" lon="-1.22762">
        <ele>65</ele>
        <time>2012-04-30T14:07:23Z</time>
      </trkpt>
      <trkpt lat="46.98327" lon="-1.22797">
        <ele>65</ele>
        <time>2012-04-30T14:07:24Z</time>
      </trkpt>
      <trkpt lat="46.98329" lon="-1.22807">
        <ele>65</ele>
        <time>2012-04-30T14:07:25Z</time>
      </trkpt>
      <trkpt lat="46.98334" lon="-1.22826">
        <ele>65</ele>
        <time>2012-04-30T14:07:30Z</time>
      </trkpt>
      <trkpt lat="46.98347" lon="-1.22865">
        <ele>65</ele>
        <time>2012-04-30T14:07:31Z</time>
      </trkpt>
      <trkpt lat="46.98351" lon="-1.22874">
        <ele>65</ele>
        <time>2012-04-30T14:07:32Z</time>
      </trkpt>
      <trkpt lat="46.98359" lon="-1.22891">
        <ele>65</ele>
        <time>2012-04-30T14:07:37Z</time>
      </trkpt>
      <trkpt lat="46.98367" lon="-1.22924">
        <ele>65</ele>
        <time>2012-04-30T14:07:38Z</time>
      </trkpt>
      <trkpt lat="46.98368" lon="-1.22933">
        <ele>65</ele>
        <time>2012-04-30T14:07:39Z</time>
      </trkpt>
      <trkpt lat="46.98368" lon="-1.22942">
        <ele>65</ele>
        <time>2012-04-30T14:07:40Z</time>
      </trkpt>
      <trkpt lat="46.98368" lon="-1.22958">
        <ele>65</ele>
        <time>2012-04-30T14:07:45Z</time>
      </trkpt>
      <trkpt lat="46.98367" lon="-1.22995">
        <ele>65</ele>
        <time>2012-04-30T14:07:46Z</time>
      </trkpt>
      <trkpt lat="46.98367" lon="-1.23004">
        <ele>65</ele>
        <time>2012-04-30T14:07:47Z</time>
      </trkpt>
      <trkpt lat="46.98368" lon="-1.23022">
        <ele>65</ele>
        <time>2012-04-30T14:07:52Z</time>
      </trkpt>
      <trkpt lat="46.98374" lon="-1.23055">
        <ele>65</ele>
        <time>2012-04-30T14:07:53Z</time>
      </trkpt>
      <trkpt lat="46.98377" lon="-1.23061">
        <ele>65</ele>
        <time>2012-04-30T14:07:54Z</time>
      </trkpt>
      <trkpt lat="46.98381" lon="-1.23065">
        <ele>65</ele>
        <time>2012-04-30T14:07:55Z</time>
      </trkpt>
      <trkpt lat="46.98387" lon="-1.23066">
        <ele>65</ele>
        <time>2012-04-30T14:07:56Z</time>
      </trkpt>
      <trkpt lat="46.98398" lon="-1.23067">
        <ele>65</ele>
        <time>2012-04-30T14:08:02Z</time>
      </trkpt>
      <trkpt lat="46.98413" lon="-1.23087">
        <ele>65</ele>
        <time>2012-04-30T14:08:02Z</time>
      </trkpt>
      <trkpt lat="46.98413" lon="-1.23093">
        <ele>65</ele>
        <time>2012-04-30T14:08:03Z</time>
      </trkpt>
      <trkpt lat="46.98414" lon="-1.231">
        <ele>65</ele>
        <time>2012-04-30T14:08:04Z</time>
      </trkpt>
      <trkpt lat="46.98415" lon="-1.2311">
        <ele>65</ele>
        <time>2012-04-30T14:08:09Z</time>
      </trkpt>
      <trkpt lat="46.98417" lon="-1.23127">
        <ele>65</ele>
        <time>2012-04-30T14:08:10Z</time>
      </trkpt>
      <trkpt lat="46.98417" lon="-1.2313">
        <ele>65</ele>
        <time>2012-04-30T14:08:11Z</time>
      </trkpt>
      <trkpt lat="46.98417" lon="-1.23133">
        <ele>65</ele>
        <time>2012-04-30T14:08:16Z</time>
      </trkpt>
      <trkpt lat="46.98415" lon="-1.23131">
        <ele>65</ele>
        <time>2012-04-30T14:08:17Z</time>
      </trkpt>
      <trkpt lat="46.98413" lon="-1.2313">
        <ele>65</ele>
        <time>2012-04-30T14:08:18Z</time>
      </trkpt>
      <trkpt lat="46.98412" lon="-1.23128">
        <ele>65</ele>
        <time>2012-04-30T14:08:19Z</time>
      </trkpt>
      <trkpt lat="46.98409" lon="-1.23127">
        <ele>65</ele>
        <time>2012-04-30T14:08:20Z</time>
      </trkpt>
      <trkpt lat="46.98391" lon="-1.23149">
        <ele>65</ele>
        <time>2012-04-30T14:08:26Z</time>
      </trkpt>
      <trkpt lat="46.98389" lon="-1.23156">
        <ele>65</ele>
        <time>2012-04-30T14:08:27Z</time>
      </trkpt>
      <trkpt lat="46.98386" lon="-1.23163">
        <ele>65</ele>
        <time>2012-04-30T14:08:28Z</time>
      </trkpt>
      <trkpt lat="46.98381" lon="-1.23179">
        <ele>65</ele>
        <time>2012-04-30T14:08:33Z</time>
      </trkpt>
      <trkpt lat="46.9837" lon="-1.2321">
        <ele>65</ele>
        <time>2012-04-30T14:08:34Z</time>
      </trkpt>
      <trkpt lat="46.98367" lon="-1.23218">
        <ele>65</ele>
        <time>2012-04-30T14:08:35Z</time>
      </trkpt>
      <trkpt lat="46.98361" lon="-1.23234">
        <ele>65</ele>
        <time>2012-04-30T14:08:40Z</time>
      </trkpt>
      <trkpt lat="46.9835" lon="-1.23265">
        <ele>65</ele>
        <time>2012-04-30T14:08:41Z</time>
      </trkpt>
      <trkpt lat="46.98347" lon="-1.23273">
        <ele>65</ele>
        <time>2012-04-30T14:08:42Z</time>
      </trkpt>
      <trkpt lat="46.98341" lon="-1.23288">
        <ele>65</ele>
        <time>2012-04-30T14:08:47Z</time>
      </trkpt>
      <trkpt lat="46.98328" lon="-1.23317">
        <ele>65</ele>
        <time>2012-04-30T14:08:48Z</time>
      </trkpt>
      <trkpt lat="46.98325" lon="-1.23323">
        <ele>65</ele>
        <time>2012-04-30T14:08:49Z</time>
      </trkpt>
      <trkpt lat="46.98319" lon="-1.23336">
        <ele>65</ele>
        <time>2012-04-30T14:08:54Z</time>
      </trkpt>
      <trkpt lat="46.98307" lon="-1.2336">
        <ele>65</ele>
        <time>2012-04-30T14:08:55Z</time>
      </trkpt>
      <trkpt lat="46.98304" lon="-1.23366">
        <ele>65</ele>
        <time>2012-04-30T14:08:56Z</time>
      </trkpt>
      <trkpt lat="46.98299" lon="-1.23376">
        <ele>65</ele>
        <time>2012-04-30T14:09:01Z</time>
      </trkpt>
      <trkpt lat="46.98294" lon="-1.23393">
        <ele>65</ele>
        <time>2012-04-30T14:09:02Z</time>
      </trkpt>
      <trkpt lat="46.98296" lon="-1.23397">
        <ele>65</ele>
        <time>2012-04-30T14:09:03Z</time>
      </trkpt>
      <trkpt lat="46.98298" lon="-1.234">
        <ele>65</ele>
        <time>2012-04-30T14:09:04Z</time>
      </trkpt>
      <trkpt lat="46.98306" lon="-1.23407">
        <ele>65</ele>
        <time>2012-04-30T14:09:10Z</time>
      </trkpt>
      <trkpt lat="46.9833" lon="-1.23434">
        <ele>65</ele>
        <time>2012-04-30T14:09:11Z</time>
      </trkpt>
      <trkpt lat="46.98339" lon="-1.23446">
        <ele>64</ele>
        <time>2012-04-30T14:09:16Z</time>
      </trkpt>
      <trkpt lat="46.98359" lon="-1.2347">
        <ele>63</ele>
        <time>2012-04-30T14:09:17Z</time>
      </trkpt>
      <trkpt lat="46.98363" lon="-1.23476">
        <ele>62</ele>
        <time>2012-04-30T14:09:18Z</time>
      </trkpt>
      <trkpt lat="46.98372" lon="-1.23488">
        <ele>61</ele>
        <time>2012-04-30T14:09:21Z</time>
      </trkpt>
      <trkpt lat="46.98386" lon="-1.23505">
        <ele>61</ele>
        <time>2012-04-30T14:09:24Z</time>
      </trkpt>
      <trkpt lat="46.984" lon="-1.23521">
        <ele>61</ele>
        <time>2012-04-30T14:09:27Z</time>
      </trkpt>
      <trkpt lat="46.98411" lon="-1.2353">
        <ele>61</ele>
        <time>2012-04-30T14:09:29Z</time>
      </trkpt>
      <trkpt lat="46.98427" lon="-1.23538">
        <ele>61</ele>
        <time>2012-04-30T14:09:35Z</time>
      </trkpt>
      <trkpt lat="46.98448" lon="-1.23547">
        <ele>61</ele>
        <time>2012-04-30T14:09:35Z</time>
      </trkpt>
      <trkpt lat="46.98453" lon="-1.23547">
        <ele>61</ele>
        <time>2012-04-30T14:09:36Z</time>
      </trkpt>
      <trkpt lat="46.98456" lon="-1.23547">
        <ele>61</ele>
        <time>2012-04-30T14:09:37Z</time>
      </trkpt>
      <trkpt lat="46.98459" lon="-1.23546">
        <ele>61</ele>
        <time>2012-04-30T14:09:38Z</time>
      </trkpt>
      <trkpt lat="46.98464" lon="-1.23523">
        <ele>60</ele>
        <time>2012-04-30T14:09:44Z</time>
      </trkpt>
      <trkpt lat="46.98464" lon="-1.23515">
        <ele>60</ele>
        <time>2012-04-30T14:09:45Z</time>
      </trkpt>
      <trkpt lat="46.98464" lon="-1.23506">
        <ele>60</ele>
        <time>2012-04-30T14:09:46Z</time>
      </trkpt>
      <trkpt lat="46.98465" lon="-1.23487">
        <ele>60</ele>
        <time>2012-04-30T14:09:51Z</time>
      </trkpt>
      <trkpt lat="46.98468" lon="-1.23442">
        <ele>60</ele>
        <time>2012-04-30T14:09:52Z</time>
      </trkpt>
      <trkpt lat="46.98469" lon="-1.23431">
        <ele>60</ele>
        <time>2012-04-30T14:09:53Z</time>
      </trkpt>
      <trkpt lat="46.9847" lon="-1.23408">
        <ele>60</ele>
        <time>2012-04-30T14:09:58Z</time>
      </trkpt>
      <trkpt lat="46.98475" lon="-1.23365">
        <ele>60</ele>
        <time>2012-04-30T14:09:59Z</time>
      </trkpt>
      <trkpt lat="46.98475" lon="-1.23355">
        <ele>60</ele>
        <time>2012-04-30T14:10:00Z</time>
      </trkpt>
      <trkpt lat="46.98477" lon="-1.23336">
        <ele>60</ele>
        <time>2012-04-30T14:10:05Z</time>
      </trkpt>
      <trkpt lat="46.98489" lon="-1.23316">
        <ele>60</ele>
        <time>2012-04-30T14:10:06Z</time>
      </trkpt>
      <trkpt lat="46.98494" lon="-1.23317">
        <ele>60</ele>
        <time>2012-04-30T14:10:07Z</time>
      </trkpt>
      <trkpt lat="46.985" lon="-1.23318">
        <ele>60</ele>
        <time>2012-04-30T14:10:08Z</time>
      </trkpt>
      <trkpt lat="46.98512" lon="-1.23314">
        <ele>60</ele>
        <time>2012-04-30T14:10:13Z</time>
      </trkpt>
      <trkpt lat="46.98537" lon="-1.2331">
        <ele>60</ele>
        <time>2012-04-30T14:10:14Z</time>
      </trkpt>
      <trkpt lat="46.98543" lon="-1.23311">
        <ele>60</ele>
        <time>2012-04-30T14:10:15Z</time>
      </trkpt>
      <trkpt lat="46.9855" lon="-1.23311">
        <ele>60</ele>
        <time>2012-04-30T14:10:16Z</time>
      </trkpt>
      <trkpt lat="46.98561" lon="-1.23303">
        <ele>60</ele>
        <time>2012-04-30T14:10:21Z</time>
      </trkpt>
      <trkpt lat="46.98566" lon="-1.23269">
        <ele>60</ele>
        <time>2012-04-30T14:10:22Z</time>
      </trkpt>
      <trkpt lat="46.98566" lon="-1.23261">
        <ele>60</ele>
        <time>2012-04-30T14:10:23Z</time>
      </trkpt>
      <trkpt lat="46.98566" lon="-1.23253">
        <ele>60</ele>
        <time>2012-04-30T14:10:24Z</time>
      </trkpt>
      <trkpt lat="46.98567" lon="-1.23236">
        <ele>60</ele>
        <time>2012-04-30T14:10:29Z</time>
      </trkpt>
      <trkpt lat="46.98579" lon="-1.2321">
        <ele>60</ele>
        <time>2012-04-30T14:10:30Z</time>
      </trkpt>
      <trkpt lat="46.98585" lon="-1.23207">
        <ele>60</ele>
        <time>2012-04-30T14:10:31Z</time>
      </trkpt>
      <trkpt lat="46.9859" lon="-1.23207">
        <ele>60</ele>
        <time>2012-04-30T14:10:32Z</time>
      </trkpt>
      <trkpt lat="46.9861" lon="-1.23183">
        <ele>60</ele>
        <time>2012-04-30T14:10:38Z</time>
      </trkpt>
      <trkpt lat="46.9861" lon="-1.23175">
        <ele>60</ele>
        <time>2012-04-30T14:10:39Z</time>
      </trkpt>
      <trkpt lat="46.98609" lon="-1.23166">
        <ele>60</ele>
        <time>2012-04-30T14:10:40Z</time>
      </trkpt>
      <trkpt lat="46.98609" lon="-1.23149">
        <ele>60</ele>
        <time>2012-04-30T14:10:45Z</time>
      </trkpt>
      <trkpt lat="46.98609" lon="-1.23112">
        <ele>60</ele>
        <time>2012-04-30T14:10:46Z</time>
      </trkpt>
      <trkpt lat="46.98609" lon="-1.23102">
        <ele>60</ele>
        <time>2012-04-30T14:10:47Z</time>
      </trkpt>
      <trkpt lat="46.98609" lon="-1.23083">
        <ele>60</ele>
        <time>2012-04-30T14:10:52Z</time>
      </trkpt>
      <trkpt lat="46.9861" lon="-1.23042">
        <ele>60</ele>
        <time>2012-04-30T14:10:53Z</time>
      </trkpt>
      <trkpt lat="46.9861" lon="-1.23032">
        <ele>60</ele>
        <time>2012-04-30T14:10:54Z</time>
      </trkpt>
      <trkpt lat="46.9861" lon="-1.23011">
        <ele>60</ele>
        <time>2012-04-30T14:10:59Z</time>
      </trkpt>
      <trkpt lat="46.98611" lon="-1.22972">
        <ele>60</ele>
        <time>2012-04-30T14:11:00Z</time>
      </trkpt>
      <trkpt lat="46.98611" lon="-1.22962">
        <ele>60</ele>
        <time>2012-04-30T14:11:01Z</time>
      </trkpt>
      <trkpt lat="46.98611" lon="-1.22942">
        <ele>60</ele>
        <time>2012-04-30T14:11:06Z</time>
      </trkpt>
      <trkpt lat="46.98612" lon="-1.22903">
        <ele>60</ele>
        <time>2012-04-30T14:11:07Z</time>
      </trkpt>
      <trkpt lat="46.98612" lon="-1.22894">
        <ele>60</ele>
        <time>2012-04-30T14:11:08Z</time>
      </trkpt>
      <trkpt lat="46.98612" lon="-1.22875">
        <ele>60</ele>
        <time>2012-04-30T14:11:13Z</time>
      </trkpt>
      <trkpt lat="46.98612" lon="-1.22841">
        <ele>60</ele>
        <time>2012-04-30T14:11:14Z</time>
      </trkpt>
      <trkpt lat="46.98611" lon="-1.22834">
        <ele>60</ele>
        <time>2012-04-30T14:11:15Z</time>
      </trkpt>
      <trkpt lat="46.98608" lon="-1.22824">
        <ele>60</ele>
        <time>2012-04-30T14:11:20Z</time>
      </trkpt>
      <trkpt lat="46.98605" lon="-1.22813">
        <ele>60</ele>
        <time>2012-04-30T14:11:21Z</time>
      </trkpt>
      <trkpt lat="46.98606" lon="-1.22809">
        <ele>60</ele>
        <time>2012-04-30T14:11:22Z</time>
      </trkpt>
      <trkpt lat="46.98607" lon="-1.22804">
        <ele>60</ele>
        <time>2012-04-30T14:11:23Z</time>
      </trkpt>
      <trkpt lat="46.98609" lon="-1.22799">
        <ele>60</ele>
        <time>2012-04-30T14:11:24Z</time>
      </trkpt>
      <trkpt lat="46.98631" lon="-1.22764">
        <ele>60</ele>
        <time>2012-04-30T14:11:30Z</time>
      </trkpt>
      <trkpt lat="46.98635" lon="-1.22757">
        <ele>60</ele>
        <time>2012-04-30T14:11:31Z</time>
      </trkpt>
      <trkpt lat="46.98644" lon="-1.22744">
        <ele>60</ele>
        <time>2012-04-30T14:11:37Z</time>
      </trkpt>
      <trkpt lat="46.98664" lon="-1.22715">
        <ele>60</ele>
        <time>2012-04-30T14:11:37Z</time>
      </trkpt>
      <trkpt lat="46.98669" lon="-1.22708">
        <ele>60</ele>
        <time>2012-04-30T14:11:38Z</time>
      </trkpt>
      <trkpt lat="46.98679" lon="-1.22694">
        <ele>60</ele>
        <time>2012-04-30T14:11:44Z</time>
      </trkpt>
      <trkpt lat="46.98699" lon="-1.22671">
        <ele>60</ele>
        <time>2012-04-30T14:11:44Z</time>
      </trkpt>
      <trkpt lat="46.98705" lon="-1.22666">
        <ele>60</ele>
        <time>2012-04-30T14:11:45Z</time>
      </trkpt>
      <trkpt lat="46.98716" lon="-1.22655">
        <ele>60</ele>
        <time>2012-04-30T14:11:50Z</time>
      </trkpt>
      <trkpt lat="46.9874" lon="-1.22634">
        <ele>60</ele>
        <time>2012-04-30T14:11:51Z</time>
      </trkpt>
      <trkpt lat="46.98746" lon="-1.22629">
        <ele>60</ele>
        <time>2012-04-30T14:11:52Z</time>
      </trkpt>
      <trkpt lat="46.98758" lon="-1.22619">
        <ele>60</ele>
        <time>2012-04-30T14:11:57Z</time>
      </trkpt>
      <trkpt lat="46.98777" lon="-1.22596">
        <ele>60</ele>
        <time>2012-04-30T14:11:58Z</time>
      </trkpt>
      <trkpt lat="46.98781" lon="-1.22589">
        <ele>60</ele>
        <time>2012-04-30T14:11:59Z</time>
      </trkpt>
      <trkpt lat="46.98785" lon="-1.22582">
        <ele>60</ele>
        <time>2012-04-30T14:12:00Z</time>
      </trkpt>
      <trkpt lat="46.98795" lon="-1.22568">
        <ele>60</ele>
        <time>2012-04-30T14:12:05Z</time>
      </trkpt>
      <trkpt lat="46.98812" lon="-1.22537">
        <ele>60</ele>
        <time>2012-04-30T14:12:06Z</time>
      </trkpt>
      <trkpt lat="46.98816" lon="-1.2253">
        <ele>60</ele>
        <time>2012-04-30T14:12:07Z</time>
      </trkpt>
      <trkpt lat="46.98825" lon="-1.22515">
        <ele>60</ele>
        <time>2012-04-30T14:12:12Z</time>
      </trkpt>
      <trkpt lat="46.98841" lon="-1.22486">
        <ele>60</ele>
        <time>2012-04-30T14:12:13Z</time>
      </trkpt>
      <trkpt lat="46.98845" lon="-1.22479">
        <ele>60</ele>
        <time>2012-04-30T14:12:14Z</time>
      </trkpt>
      <trkpt lat="46.98852" lon="-1.22465">
        <ele>60</ele>
        <time>2012-04-30T14:12:19Z</time>
      </trkpt>
      <trkpt lat="46.98867" lon="-1.22436">
        <ele>60</ele>
        <time>2012-04-30T14:12:20Z</time>
      </trkpt>
      <trkpt lat="46.98871" lon="-1.2243">
        <ele>60</ele>
        <time>2012-04-30T14:12:21Z</time>
      </trkpt>
      <trkpt lat="46.9888" lon="-1.22415">
        <ele>60</ele>
        <time>2012-04-30T14:12:26Z</time>
      </trkpt>
      <trkpt lat="46.98896" lon="-1.22385">
        <ele>60</ele>
        <time>2012-04-30T14:12:27Z</time>
      </trkpt>
      <trkpt lat="46.989" lon="-1.22377">
        <ele>61</ele>
        <time>2012-04-30T14:12:28Z</time>
      </trkpt>
      <trkpt lat="46.98909" lon="-1.22362">
        <ele>61</ele>
        <time>2012-04-30T14:12:33Z</time>
      </trkpt>
      <trkpt lat="46.98925" lon="-1.2233">
        <ele>61</ele>
        <time>2012-04-30T14:12:34Z</time>
      </trkpt>
      <trkpt lat="46.9893" lon="-1.22322">
        <ele>62</ele>
        <time>2012-04-30T14:12:35Z</time>
      </trkpt>
      <trkpt lat="46.98938" lon="-1.22307">
        <ele>62</ele>
        <time>2012-04-30T14:12:40Z</time>
      </trkpt>
      <trkpt lat="46.98956" lon="-1.22274">
        <ele>62</ele>
        <time>2012-04-30T14:12:41Z</time>
      </trkpt>
      <trkpt lat="46.9896" lon="-1.22266">
        <ele>62</ele>
        <time>2012-04-30T14:12:42Z</time>
      </trkpt>
      <trkpt lat="46.98969" lon="-1.2225">
        <ele>63</ele>
        <time>2012-04-30T14:12:47Z</time>
      </trkpt>
      <trkpt lat="46.98987" lon="-1.22221">
        <ele>63</ele>
        <time>2012-04-30T14:12:48Z</time>
      </trkpt>
      <trkpt lat="46.98992" lon="-1.22214">
        <ele>64</ele>
        <time>2012-04-30T14:12:49Z</time>
      </trkpt>
      <trkpt lat="46.99001" lon="-1.22199">
        <ele>64</ele>
        <time>2012-04-30T14:12:54Z</time>
      </trkpt>
      <trkpt lat="46.99021" lon="-1.22172">
        <ele>65</ele>
        <time>2012-04-30T14:12:55Z</time>
      </trkpt>
      <trkpt lat="46.99026" lon="-1.22165">
        <ele>66</ele>
        <time>2012-04-30T14:12:56Z</time>
      </trkpt>
      <trkpt lat="46.99038" lon="-1.22153">
        <ele>66</ele>
        <time>2012-04-30T14:13:01Z</time>
      </trkpt>
      <trkpt lat="46.99061" lon="-1.22129">
        <ele>66</ele>
        <time>2012-04-30T14:13:02Z</time>
      </trkpt>
      <trkpt lat="46.99067" lon="-1.22123">
        <ele>67</ele>
        <time>2012-04-30T14:13:03Z</time>
      </trkpt>
      <trkpt lat="46.9908" lon="-1.22111">
        <ele>67</ele>
        <time>2012-04-30T14:13:08Z</time>
      </trkpt>
      <trkpt lat="46.99105" lon="-1.2209">
        <ele>67</ele>
        <time>2012-04-30T14:13:09Z</time>
      </trkpt>
      <trkpt lat="46.99112" lon="-1.22085">
        <ele>67</ele>
        <time>2012-04-30T14:13:10Z</time>
      </trkpt>
      <trkpt lat="46.99125" lon="-1.22075">
        <ele>67</ele>
        <time>2012-04-30T14:13:15Z</time>
      </trkpt>
      <trkpt lat="46.9915" lon="-1.22056">
        <ele>67</ele>
        <time>2012-04-30T14:13:16Z</time>
      </trkpt>
      <trkpt lat="46.99157" lon="-1.22051">
        <ele>67</ele>
        <time>2012-04-30T14:13:17Z</time>
      </trkpt>
      <trkpt lat="46.99169" lon="-1.22041">
        <ele>67</ele>
        <time>2012-04-30T14:13:22Z</time>
      </trkpt>
      <trkpt lat="46.99194" lon="-1.22021">
        <ele>68</ele>
        <time>2012-04-30T14:13:23Z</time>
      </trkpt>
      <trkpt lat="46.992" lon="-1.22016">
        <ele>68</ele>
        <time>2012-04-30T14:13:24Z</time>
      </trkpt>
      <trkpt lat="46.99212" lon="-1.22005">
        <ele>68</ele>
        <time>2012-04-30T14:13:29Z</time>
      </trkpt>
      <trkpt lat="46.99235" lon="-1.21983">
        <ele>69</ele>
        <time>2012-04-30T14:13:30Z</time>
      </trkpt>
      <trkpt lat="46.9924" lon="-1.21977">
        <ele>69</ele>
        <time>2012-04-30T14:13:31Z</time>
      </trkpt>
      <trkpt lat="46.99252" lon="-1.21966">
        <ele>70</ele>
        <time>2012-04-30T14:13:36Z</time>
      </trkpt>
      <trkpt lat="46.99274" lon="-1.21943">
        <ele>70</ele>
        <time>2012-04-30T14:13:37Z</time>
      </trkpt>
      <trkpt lat="46.9928" lon="-1.21937">
        <ele>71</ele>
        <time>2012-04-30T14:13:38Z</time>
      </trkpt>
      <trkpt lat="46.99291" lon="-1.21926">
        <ele>72</ele>
        <time>2012-04-30T14:13:43Z</time>
      </trkpt>
      <trkpt lat="46.99313" lon="-1.21906">
        <ele>72</ele>
        <time>2012-04-30T14:13:44Z</time>
      </trkpt>
      <trkpt lat="46.99318" lon="-1.219">
        <ele>73</ele>
        <time>2012-04-30T14:13:45Z</time>
      </trkpt>
      <trkpt lat="46.99329" lon="-1.2189">
        <ele>73</ele>
        <time>2012-04-30T14:13:50Z</time>
      </trkpt>
      <trkpt lat="46.99351" lon="-1.21868">
        <ele>73</ele>
        <time>2012-04-30T14:13:51Z</time>
      </trkpt>
      <trkpt lat="46.99356" lon="-1.21863">
        <ele>74</ele>
        <time>2012-04-30T14:13:52Z</time>
      </trkpt>
      <trkpt lat="46.99367" lon="-1.21852">
        <ele>74</ele>
        <time>2012-04-30T14:13:57Z</time>
      </trkpt>
      <trkpt lat="46.99389" lon="-1.2183">
        <ele>74</ele>
        <time>2012-04-30T14:13:58Z</time>
      </trkpt>
      <trkpt lat="46.99395" lon="-1.21825">
        <ele>74</ele>
        <time>2012-04-30T14:13:59Z</time>
      </trkpt>
      <trkpt lat="46.99405" lon="-1.21815">
        <ele>74</ele>
        <time>2012-04-30T14:14:04Z</time>
      </trkpt>
      <trkpt lat="46.99426" lon="-1.21793">
        <ele>75</ele>
        <time>2012-04-30T14:14:05Z</time>
      </trkpt>
      <trkpt lat="46.99431" lon="-1.21788">
        <ele>76</ele>
        <time>2012-04-30T14:14:06Z</time>
      </trkpt>
      <trkpt lat="46.99442" lon="-1.21777">
        <ele>76</ele>
        <time>2012-04-30T14:14:11Z</time>
      </trkpt>
      <trkpt lat="46.99463" lon="-1.21756">
        <ele>77</ele>
        <time>2012-04-30T14:14:12Z</time>
      </trkpt>
      <trkpt lat="46.99468" lon="-1.21751">
        <ele>78</ele>
        <time>2012-04-30T14:14:13Z</time>
      </trkpt>
      <trkpt lat="46.99479" lon="-1.21741">
        <ele>79</ele>
        <time>2012-04-30T14:14:18Z</time>
      </trkpt>
      <trkpt lat="46.995" lon="-1.21721">
        <ele>80</ele>
        <time>2012-04-30T14:14:19Z</time>
      </trkpt>
      <trkpt lat="46.99505" lon="-1.21715">
        <ele>81</ele>
        <time>2012-04-30T14:14:20Z</time>
      </trkpt>
      <trkpt lat="46.99516" lon="-1.21706">
        <ele>81</ele>
        <time>2012-04-30T14:14:25Z</time>
      </trkpt>
      <trkpt lat="46.99536" lon="-1.21685">
        <ele>82</ele>
        <time>2012-04-30T14:14:26Z</time>
      </trkpt>
      <trkpt lat="46.99542" lon="-1.21679">
        <ele>82</ele>
        <time>2012-04-30T14:14:27Z</time>
      </trkpt>
      <trkpt lat="46.99552" lon="-1.21669">
        <ele>83</ele>
        <time>2012-04-30T14:14:32Z</time>
      </trkpt>
      <trkpt lat="46.99574" lon="-1.21649">
        <ele>83</ele>
        <time>2012-04-30T14:14:33Z</time>
      </trkpt>
      <trkpt lat="46.9958" lon="-1.21643">
        <ele>84</ele>
        <time>2012-04-30T14:14:34Z</time>
      </trkpt>
      <trkpt lat="46.99592" lon="-1.21633">
        <ele>84</ele>
        <time>2012-04-30T14:14:39Z</time>
      </trkpt>
      <trkpt lat="46.99615" lon="-1.21612">
        <ele>85</ele>
        <time>2012-04-30T14:14:40Z</time>
      </trkpt>
      <trkpt lat="46.99621" lon="-1.21606">
        <ele>85</ele>
        <time>2012-04-30T14:14:41Z</time>
      </trkpt>
      <trkpt lat="46.99633" lon="-1.21595">
        <ele>85</ele>
        <time>2012-04-30T14:14:46Z</time>
      </trkpt>
      <trkpt lat="46.99656" lon="-1.21574">
        <ele>86</ele>
        <time>2012-04-30T14:14:47Z</time>
      </trkpt>
      <trkpt lat="46.99661" lon="-1.21567">
        <ele>86</ele>
        <time>2012-04-30T14:14:48Z</time>
      </trkpt>
      <trkpt lat="46.99672" lon="-1.21555">
        <ele>87</ele>
        <time>2012-04-30T14:14:53Z</time>
      </trkpt>
      <trkpt lat="46.99694" lon="-1.2153">
        <ele>87</ele>
        <time>2012-04-30T14:14:54Z</time>
      </trkpt>
      <trkpt lat="46.997" lon="-1.21524">
        <ele>88</ele>
        <time>2012-04-30T14:14:55Z</time>
      </trkpt>
      <trkpt lat="46.99711" lon="-1.21511">
        <ele>88</ele>
        <time>2012-04-30T14:15:00Z</time>
      </trkpt>
      <trkpt lat="46.99734" lon="-1.21485">
        <ele>88</ele>
        <time>2012-04-30T14:15:01Z</time>
      </trkpt>
      <trkpt lat="46.99739" lon="-1.21479">
        <ele>88</ele>
        <time>2012-04-30T14:15:02Z</time>
      </trkpt>
      <trkpt lat="46.99751" lon="-1.21466">
        <ele>88</ele>
        <time>2012-04-30T14:15:07Z</time>
      </trkpt>
      <trkpt lat="46.99773" lon="-1.21439">
        <ele>88</ele>
        <time>2012-04-30T14:15:08Z</time>
      </trkpt>
      <trkpt lat="46.99779" lon="-1.21432">
        <ele>88</ele>
        <time>2012-04-30T14:15:09Z</time>
      </trkpt>
      <trkpt lat="46.9979" lon="-1.21417">
        <ele>88</ele>
        <time>2012-04-30T14:15:14Z</time>
      </trkpt>
      <trkpt lat="46.99815" lon="-1.21388">
        <ele>88</ele>
        <time>2012-04-30T14:15:15Z</time>
      </trkpt>
      <trkpt lat="46.99821" lon="-1.21381">
        <ele>88</ele>
        <time>2012-04-30T14:15:16Z</time>
      </trkpt>
      <trkpt lat="46.99834" lon="-1.21367">
        <ele>88</ele>
        <time>2012-04-30T14:15:21Z</time>
      </trkpt>
      <trkpt lat="46.99858" lon="-1.21339">
        <ele>88</ele>
        <time>2012-04-30T14:15:22Z</time>
      </trkpt>
      <trkpt lat="46.99865" lon="-1.21333">
        <ele>88</ele>
        <time>2012-04-30T14:15:23Z</time>
      </trkpt>
      <trkpt lat="46.99878" lon="-1.21322">
        <ele>88</ele>
        <time>2012-04-30T14:15:28Z</time>
      </trkpt>
      <trkpt lat="46.99904" lon="-1.21302">
        <ele>87</ele>
        <time>2012-04-30T14:15:29Z</time>
      </trkpt>
      <trkpt lat="46.99911" lon="-1.21297">
        <ele>86</ele>
        <time>2012-04-30T14:15:30Z</time>
      </trkpt>
      <trkpt lat="46.99924" lon="-1.21288">
        <ele>85</ele>
        <time>2012-04-30T14:15:35Z</time>
      </trkpt>
      <trkpt lat="46.99951" lon="-1.21271">
        <ele>84</ele>
        <time>2012-04-30T14:15:36Z</time>
      </trkpt>
      <trkpt lat="46.99958" lon="-1.21267">
        <ele>83</ele>
        <time>2012-04-30T14:15:37Z</time>
      </trkpt>
      <trkpt lat="46.99972" lon="-1.2126">
        <ele>83</ele>
        <time>2012-04-30T14:15:42Z</time>
      </trkpt>
      <trkpt lat="47.00001" lon="-1.2125">
        <ele>82</ele>
        <time>2012-04-30T14:15:43Z</time>
      </trkpt>
      <trkpt lat="47.00008" lon="-1.21247">
        <ele>81</ele>
        <time>2012-04-30T14:15:44Z</time>
      </trkpt>
      <trkpt lat="47.00021" lon="-1.21243">
        <ele>81</ele>
        <time>2012-04-30T14:15:49Z</time>
      </trkpt>
      <trkpt lat="47.00049" lon="-1.21232">
        <ele>81</ele>
        <time>2012-04-30T14:15:50Z</time>
      </trkpt>
      <trkpt lat="47.00056" lon="-1.21229">
        <ele>81</ele>
        <time>2012-04-30T14:15:51Z</time>
      </trkpt>
      <trkpt lat="47.0007" lon="-1.2122">
        <ele>80</ele>
        <time>2012-04-30T14:15:56Z</time>
      </trkpt>
      <trkpt lat="47.00095" lon="-1.21194">
        <ele>80</ele>
        <time>2012-04-30T14:15:57Z</time>
      </trkpt>
      <trkpt lat="47.001" lon="-1.21186">
        <ele>80</ele>
        <time>2012-04-30T14:15:58Z</time>
      </trkpt>
      <trkpt lat="47.00106" lon="-1.21178">
        <ele>79</ele>
        <time>2012-04-30T14:15:59Z</time>
      </trkpt>
      <trkpt lat="47.00116" lon="-1.21163">
        <ele>79</ele>
        <time>2012-04-30T14:16:04Z</time>
      </trkpt>
      <trkpt lat="47.00137" lon="-1.21134">
        <ele>79</ele>
        <time>2012-04-30T14:16:05Z</time>
      </trkpt>
      <trkpt lat="47.00142" lon="-1.21126">
        <ele>79</ele>
        <time>2012-04-30T14:16:06Z</time>
      </trkpt>
      <trkpt lat="47.00153" lon="-1.21112">
        <ele>79</ele>
        <time>2012-04-30T14:16:11Z</time>
      </trkpt>
      <trkpt lat="47.00174" lon="-1.21085">
        <ele>79</ele>
        <time>2012-04-30T14:16:12Z</time>
      </trkpt>
      <trkpt lat="47.0018" lon="-1.21078">
        <ele>79</ele>
        <time>2012-04-30T14:16:13Z</time>
      </trkpt>
      <trkpt lat="47.00192" lon="-1.21067">
        <ele>79</ele>
        <time>2012-04-30T14:16:18Z</time>
      </trkpt>
      <trkpt lat="47.00219" lon="-1.2105">
        <ele>79</ele>
        <time>2012-04-30T14:16:19Z</time>
      </trkpt>
      <trkpt lat="47.00225" lon="-1.21046">
        <ele>79</ele>
        <time>2012-04-30T14:16:20Z</time>
      </trkpt>
      <trkpt lat="47.00239" lon="-1.21037">
        <ele>79</ele>
        <time>2012-04-30T14:16:25Z</time>
      </trkpt>
      <trkpt lat="47.00264" lon="-1.21016">
        <ele>79</ele>
        <time>2012-04-30T14:16:26Z</time>
      </trkpt>
      <trkpt lat="47.00271" lon="-1.2101">
        <ele>79</ele>
        <time>2012-04-30T14:16:27Z</time>
      </trkpt>
      <trkpt lat="47.00283" lon="-1.20997">
        <ele>79</ele>
        <time>2012-04-30T14:16:32Z</time>
      </trkpt>
      <trkpt lat="47.00309" lon="-1.20972">
        <ele>79</ele>
        <time>2012-04-30T14:16:33Z</time>
      </trkpt>
      <trkpt lat="47.00316" lon="-1.20965">
        <ele>79</ele>
        <time>2012-04-30T14:16:34Z</time>
      </trkpt>
      <trkpt lat="47.00328" lon="-1.20951">
        <ele>79</ele>
        <time>2012-04-30T14:16:39Z</time>
      </trkpt>
      <trkpt lat="47.00354" lon="-1.20921">
        <ele>79</ele>
        <time>2012-04-30T14:16:40Z</time>
      </trkpt>
      <trkpt lat="47.0036" lon="-1.20913">
        <ele>79</ele>
        <time>2012-04-30T14:16:41Z</time>
      </trkpt>
      <trkpt lat="47.00373" lon="-1.20898">
        <ele>79</ele>
        <time>2012-04-30T14:16:46Z</time>
      </trkpt>
      <trkpt lat="47.00402" lon="-1.20868">
        <ele>78</ele>
        <time>2012-04-30T14:16:47Z</time>
      </trkpt>
      <trkpt lat="47.00409" lon="-1.20861">
        <ele>78</ele>
        <time>2012-04-30T14:16:48Z</time>
      </trkpt>
      <trkpt lat="47.00424" lon="-1.20846">
        <ele>77</ele>
        <time>2012-04-30T14:16:53Z</time>
      </trkpt>
      <trkpt lat="47.00455" lon="-1.20818">
        <ele>76</ele>
        <time>2012-04-30T14:16:54Z</time>
      </trkpt>
      <trkpt lat="47.00463" lon="-1.2081">
        <ele>75</ele>
        <time>2012-04-30T14:16:55Z</time>
      </trkpt>
      <trkpt lat="47.00479" lon="-1.20796">
        <ele>74</ele>
        <time>2012-04-30T14:17:00Z</time>
      </trkpt>
      <trkpt lat="47.00509" lon="-1.20767">
        <ele>73</ele>
        <time>2012-04-30T14:17:01Z</time>
      </trkpt>
      <trkpt lat="47.00517" lon="-1.20761">
        <ele>72</ele>
        <time>2012-04-30T14:17:02Z</time>
      </trkpt>
      <trkpt lat="47.00531" lon="-1.20746">
        <ele>71</ele>
        <time>2012-04-30T14:17:07Z</time>
      </trkpt>
      <trkpt lat="47.00561" lon="-1.20719">
        <ele>71</ele>
        <time>2012-04-30T14:17:08Z</time>
      </trkpt>
      <trkpt lat="47.00568" lon="-1.20712">
        <ele>70</ele>
        <time>2012-04-30T14:17:09Z</time>
      </trkpt>
      <trkpt lat="47.00583" lon="-1.20697">
        <ele>69</ele>
        <time>2012-04-30T14:17:14Z</time>
      </trkpt>
      <trkpt lat="47.00612" lon="-1.20665">
        <ele>69</ele>
        <time>2012-04-30T14:17:15Z</time>
      </trkpt>
      <trkpt lat="47.00619" lon="-1.20657">
        <ele>68</ele>
        <time>2012-04-30T14:17:16Z</time>
      </trkpt>
      <trkpt lat="47.00633" lon="-1.2064">
        <ele>68</ele>
        <time>2012-04-30T14:17:21Z</time>
      </trkpt>
      <trkpt lat="47.00661" lon="-1.20607">
        <ele>68</ele>
        <time>2012-04-30T14:17:22Z</time>
      </trkpt>
      <trkpt lat="47.00668" lon="-1.206">
        <ele>67</ele>
        <time>2012-04-30T14:17:23Z</time>
      </trkpt>
      <trkpt lat="47.00682" lon="-1.20585">
        <ele>67</ele>
        <time>2012-04-30T14:17:28Z</time>
      </trkpt>
      <trkpt lat="47.00711" lon="-1.20557">
        <ele>67</ele>
        <time>2012-04-30T14:17:29Z</time>
      </trkpt>
      <trkpt lat="47.00719" lon="-1.2055">
        <ele>66</ele>
        <time>2012-04-30T14:17:30Z</time>
      </trkpt>
      <trkpt lat="47.00733" lon="-1.20538">
        <ele>66</ele>
        <time>2012-04-30T14:17:35Z</time>
      </trkpt>
      <trkpt lat="47.0076" lon="-1.20515">
        <ele>65</ele>
        <time>2012-04-30T14:17:36Z</time>
      </trkpt>
      <trkpt lat="47.00766" lon="-1.2051">
        <ele>65</ele>
        <time>2012-04-30T14:17:37Z</time>
      </trkpt>
      <trkpt lat="47.00779" lon="-1.20499">
        <ele>65</ele>
        <time>2012-04-30T14:17:42Z</time>
      </trkpt>
      <trkpt lat="47.00803" lon="-1.20475">
        <ele>65</ele>
        <time>2012-04-30T14:17:43Z</time>
      </trkpt>
      <trkpt lat="47.00809" lon="-1.20469">
        <ele>65</ele>
        <time>2012-04-30T14:17:44Z</time>
      </trkpt>
      <trkpt lat="47.00821" lon="-1.20457">
        <ele>65</ele>
        <time>2012-04-30T14:17:50Z</time>
      </trkpt>
      <trkpt lat="47.00846" lon="-1.20431">
        <ele>65</ele>
        <time>2012-04-30T14:17:50Z</time>
      </trkpt>
      <trkpt lat="47.00852" lon="-1.20424">
        <ele>64</ele>
        <time>2012-04-30T14:17:51Z</time>
      </trkpt>
      <trkpt lat="47.00864" lon="-1.20409">
        <ele>64</ele>
        <time>2012-04-30T14:17:57Z</time>
      </trkpt>
      <trkpt lat="47.00888" lon="-1.20372">
        <ele>63</ele>
        <time>2012-04-30T14:17:57Z</time>
      </trkpt>
      <trkpt lat="47.00894" lon="-1.20362">
        <ele>63</ele>
        <time>2012-04-30T14:17:58Z</time>
      </trkpt>
      <trkpt lat="47.00905" lon="-1.20343">
        <ele>62</ele>
        <time>2012-04-30T14:18:04Z</time>
      </trkpt>
      <trkpt lat="47.00931" lon="-1.20306">
        <ele>62</ele>
        <time>2012-04-30T14:18:04Z</time>
      </trkpt>
      <trkpt lat="47.00938" lon="-1.20298">
        <ele>61</ele>
        <time>2012-04-30T14:18:05Z</time>
      </trkpt>
      <trkpt lat="47.00952" lon="-1.20282">
        <ele>61</ele>
        <time>2012-04-30T14:18:11Z</time>
      </trkpt>
      <trkpt lat="47.0098" lon="-1.20252">
        <ele>60</ele>
        <time>2012-04-30T14:18:11Z</time>
      </trkpt>
      <trkpt lat="47.00986" lon="-1.20244">
        <ele>60</ele>
        <time>2012-04-30T14:18:12Z</time>
      </trkpt>
      <trkpt lat="47.00998" lon="-1.20229">
        <ele>59</ele>
        <time>2012-04-30T14:18:18Z</time>
      </trkpt>
      <trkpt lat="47.01014" lon="-1.202">
        <ele>59</ele>
        <time>2012-04-30T14:18:18Z</time>
      </trkpt>
      <trkpt lat="47.01016" lon="-1.20193">
        <ele>59</ele>
        <time>2012-04-30T14:18:19Z</time>
      </trkpt>
      <trkpt lat="47.01019" lon="-1.20186">
        <ele>59</ele>
        <time>2012-04-30T14:18:20Z</time>
      </trkpt>
      <trkpt lat="47.01022" lon="-1.20181">
        <ele>59</ele>
        <time>2012-04-30T14:18:21Z</time>
      </trkpt>
      <trkpt lat="47.01027" lon="-1.20178">
        <ele>59</ele>
        <time>2012-04-30T14:18:22Z</time>
      </trkpt>
      <trkpt lat="47.01053" lon="-1.20203">
        <ele>59</ele>
        <time>2012-04-30T14:18:28Z</time>
      </trkpt>
      <trkpt lat="47.01057" lon="-1.2021">
        <ele>59</ele>
        <time>2012-04-30T14:18:29Z</time>
      </trkpt>
      <trkpt lat="47.01063" lon="-1.20215">
        <ele>59</ele>
        <time>2012-04-30T14:18:30Z</time>
      </trkpt>
      <trkpt lat="47.01074" lon="-1.20225">
        <ele>59</ele>
        <time>2012-04-30T14:18:36Z</time>
      </trkpt>
      <trkpt lat="47.01102" lon="-1.20247">
        <ele>59</ele>
        <time>2012-04-30T14:18:37Z</time>
      </trkpt>
      <trkpt lat="47.01114" lon="-1.20255">
        <ele>59</ele>
        <time>2012-04-30T14:18:43Z</time>
      </trkpt>
      <trkpt lat="47.01137" lon="-1.20272">
        <ele>60</ele>
        <time>2012-04-30T14:18:43Z</time>
      </trkpt>
      <trkpt lat="47.01143" lon="-1.20277">
        <ele>60</ele>
        <time>2012-04-30T14:18:44Z</time>
      </trkpt>
      <trkpt lat="47.01155" lon="-1.20285">
        <ele>61</ele>
        <time>2012-04-30T14:18:50Z</time>
      </trkpt>
      <trkpt lat="47.01178" lon="-1.20302">
        <ele>62</ele>
        <time>2012-04-30T14:18:50Z</time>
      </trkpt>
      <trkpt lat="47.01184" lon="-1.20307">
        <ele>63</ele>
        <time>2012-04-30T14:18:51Z</time>
      </trkpt>
      <trkpt lat="47.0122" lon="-1.20333">
        <ele>63</ele>
        <time>2012-04-30T14:18:57Z</time>
      </trkpt>
      <trkpt lat="47.01226" lon="-1.20337">
        <ele>64</ele>
        <time>2012-04-30T14:18:58Z</time>
      </trkpt>
      <trkpt lat="47.01262" lon="-1.20363">
        <ele>65</ele>
        <time>2012-04-30T14:19:04Z</time>
      </trkpt>
      <trkpt lat="47.01268" lon="-1.20367">
        <ele>65</ele>
        <time>2012-04-30T14:19:05Z</time>
      </trkpt>
      <trkpt lat="47.01303" lon="-1.20391">
        <ele>66</ele>
        <time>2012-04-30T14:19:11Z</time>
      </trkpt>
      <trkpt lat="47.01308" lon="-1.20396">
        <ele>67</ele>
        <time>2012-04-30T14:19:12Z</time>
      </trkpt>
      <trkpt lat="47.01314" lon="-1.204">
        <ele>68</ele>
        <time>2012-04-30T14:19:13Z</time>
      </trkpt>
      <trkpt lat="47.01325" lon="-1.20408">
        <ele>69</ele>
        <time>2012-04-30T14:19:18Z</time>
      </trkpt>
      <trkpt lat="47.01348" lon="-1.20424">
        <ele>70</ele>
        <time>2012-04-30T14:19:19Z</time>
      </trkpt>
      <trkpt lat="47.01354" lon="-1.20428">
        <ele>71</ele>
        <time>2012-04-30T14:19:20Z</time>
      </trkpt>
      <trkpt lat="47.01365" lon="-1.20436">
        <ele>71</ele>
        <time>2012-04-30T14:19:25Z</time>
      </trkpt>
      <trkpt lat="47.01387" lon="-1.20451">
        <ele>72</ele>
        <time>2012-04-30T14:19:26Z</time>
      </trkpt>
      <trkpt lat="47.01392" lon="-1.20455">
        <ele>73</ele>
        <time>2012-04-30T14:19:27Z</time>
      </trkpt>
      <trkpt lat="47.01402" lon="-1.20462">
        <ele>74</ele>
        <time>2012-04-30T14:19:32Z</time>
      </trkpt>
      <trkpt lat="47.01424" lon="-1.20474">
        <ele>75</ele>
        <time>2012-04-30T14:19:33Z</time>
      </trkpt>
      <trkpt lat="47.01429" lon="-1.20475">
        <ele>76</ele>
        <time>2012-04-30T14:19:34Z</time>
      </trkpt>
      <trkpt lat="47.01434" lon="-1.20475">
        <ele>76</ele>
        <time>2012-04-30T14:19:35Z</time>
      </trkpt>
      <trkpt lat="47.01471" lon="-1.20484">
        <ele>77</ele>
        <time>2012-04-30T14:19:42Z</time>
      </trkpt>
      <trkpt lat="47.01476" lon="-1.2049">
        <ele>77</ele>
        <time>2012-04-30T14:19:43Z</time>
      </trkpt>
      <trkpt lat="47.0148" lon="-1.20496">
        <ele>77</ele>
        <time>2012-04-30T14:19:45Z</time>
      </trkpt>
      <trkpt lat="47.01519" lon="-1.20514">
        <ele>77</ele>
        <time>2012-04-30T14:19:50Z</time>
      </trkpt>
      <trkpt lat="47.01525" lon="-1.20516">
        <ele>77</ele>
        <time>2012-04-30T14:19:52Z</time>
      </trkpt>
      <trkpt lat="47.01532" lon="-1.20517">
        <ele>77</ele>
        <time>2012-04-30T14:19:52Z</time>
      </trkpt>
      <trkpt lat="47.01572" lon="-1.20523">
        <ele>77</ele>
        <time>2012-04-30T14:19:58Z</time>
      </trkpt>
      <trkpt lat="47.01579" lon="-1.20523">
        <ele>77</ele>
        <time>2012-04-30T14:19:59Z</time>
      </trkpt>
      <trkpt lat="47.01617" lon="-1.2052">
        <ele>76</ele>
        <time>2012-04-30T14:20:05Z</time>
      </trkpt>
      <trkpt lat="47.01624" lon="-1.20519">
        <ele>76</ele>
        <time>2012-04-30T14:20:06Z</time>
      </trkpt>
      <trkpt lat="47.0163" lon="-1.20518">
        <ele>75</ele>
        <time>2012-04-30T14:20:07Z</time>
      </trkpt>
      <trkpt lat="47.01643" lon="-1.20515">
        <ele>75</ele>
        <time>2012-04-30T14:20:12Z</time>
      </trkpt>
      <trkpt lat="47.01667" lon="-1.20507">
        <ele>75</ele>
        <time>2012-04-30T14:20:13Z</time>
      </trkpt>
      <trkpt lat="47.01674" lon="-1.20505">
        <ele>75</ele>
        <time>2012-04-30T14:20:14Z</time>
      </trkpt>
      <trkpt lat="47.01686" lon="-1.205">
        <ele>75</ele>
        <time>2012-04-30T14:20:19Z</time>
      </trkpt>
      <trkpt lat="47.0171" lon="-1.20488">
        <ele>75</ele>
        <time>2012-04-30T14:20:20Z</time>
      </trkpt>
      <trkpt lat="47.01715" lon="-1.20485">
        <ele>75</ele>
        <time>2012-04-30T14:20:21Z</time>
      </trkpt>
      <trkpt lat="47.01727" lon="-1.20478">
        <ele>75</ele>
        <time>2012-04-30T14:20:26Z</time>
      </trkpt>
      <trkpt lat="47.0175" lon="-1.20463">
        <ele>75</ele>
        <time>2012-04-30T14:20:27Z</time>
      </trkpt>
      <trkpt lat="47.01756" lon="-1.20459">
        <ele>75</ele>
        <time>2012-04-30T14:20:28Z</time>
      </trkpt>
      <trkpt lat="47.01767" lon="-1.20451">
        <ele>75</ele>
        <time>2012-04-30T14:20:33Z</time>
      </trkpt>
      <trkpt lat="47.01789" lon="-1.20436">
        <ele>75</ele>
        <time>2012-04-30T14:20:34Z</time>
      </trkpt>
      <trkpt lat="47.01795" lon="-1.20432">
        <ele>75</ele>
        <time>2012-04-30T14:20:35Z</time>
      </trkpt>
      <trkpt lat="47.01807" lon="-1.20424">
        <ele>75</ele>
        <time>2012-04-30T14:20:40Z</time>
      </trkpt>
      <trkpt lat="47.0183" lon="-1.20407">
        <ele>76</ele>
        <time>2012-04-30T14:20:41Z</time>
      </trkpt>
      <trkpt lat="47.01836" lon="-1.20403">
        <ele>76</ele>
        <time>2012-04-30T14:20:42Z</time>
      </trkpt>
      <trkpt lat="47.01849" lon="-1.20394">
        <ele>76</ele>
        <time>2012-04-30T14:20:48Z</time>
      </trkpt>
      <trkpt lat="47.01874" lon="-1.20376">
        <ele>76</ele>
        <time>2012-04-30T14:20:48Z</time>
      </trkpt>
      <trkpt lat="47.01881" lon="-1.20372">
        <ele>76</ele>
        <time>2012-04-30T14:20:49Z</time>
      </trkpt>
      <trkpt lat="47.01893" lon="-1.20363">
        <ele>76</ele>
        <time>2012-04-30T14:20:55Z</time>
      </trkpt>
      <trkpt lat="47.0192" lon="-1.20346">
        <ele>76</ele>
        <time>2012-04-30T14:20:55Z</time>
      </trkpt>
      <trkpt lat="47.01926" lon="-1.20341">
        <ele>76</ele>
        <time>2012-04-30T14:20:56Z</time>
      </trkpt>
      <trkpt lat="47.01967" lon="-1.20314">
        <ele>76</ele>
        <time>2012-04-30T14:21:02Z</time>
      </trkpt>
      <trkpt lat="47.01973" lon="-1.20309">
        <ele>76</ele>
        <time>2012-04-30T14:21:03Z</time>
      </trkpt>
      <trkpt lat="47.02013" lon="-1.20282">
        <ele>76</ele>
        <time>2012-04-30T14:21:09Z</time>
      </trkpt>
      <trkpt lat="47.02019" lon="-1.20276">
        <ele>76</ele>
        <time>2012-04-30T14:21:10Z</time>
      </trkpt>
      <trkpt lat="47.02026" lon="-1.20271">
        <ele>76</ele>
        <time>2012-04-30T14:21:11Z</time>
      </trkpt>
      <trkpt lat="47.02038" lon="-1.20259">
        <ele>75</ele>
        <time>2012-04-30T14:21:16Z</time>
      </trkpt>
      <trkpt lat="47.02057" lon="-1.20229">
        <ele>75</ele>
        <time>2012-04-30T14:21:17Z</time>
      </trkpt>
      <trkpt lat="47.02061" lon="-1.20221">
        <ele>75</ele>
        <time>2012-04-30T14:21:18Z</time>
      </trkpt>
      <trkpt lat="47.02087" lon="-1.20173">
        <ele>74</ele>
        <time>2012-04-30T14:21:24Z</time>
      </trkpt>
      <trkpt lat="47.0209" lon="-1.20165">
        <ele>74</ele>
        <time>2012-04-30T14:21:25Z</time>
      </trkpt>
      <trkpt lat="47.02106" lon="-1.20112">
        <ele>74</ele>
        <time>2012-04-30T14:21:31Z</time>
      </trkpt>
      <trkpt lat="47.02111" lon="-1.20105">
        <ele>74</ele>
        <time>2012-04-30T14:21:32Z</time>
      </trkpt>
      <trkpt lat="47.02115" lon="-1.20096">
        <ele>73</ele>
        <time>2012-04-30T14:21:33Z</time>
      </trkpt>
      <trkpt lat="47.02121" lon="-1.20077">
        <ele>73</ele>
        <time>2012-04-30T14:21:38Z</time>
      </trkpt>
      <trkpt lat="47.02129" lon="-1.20035">
        <ele>72</ele>
        <time>2012-04-30T14:21:39Z</time>
      </trkpt>
      <trkpt lat="47.02131" lon="-1.20025">
        <ele>72</ele>
        <time>2012-04-30T14:21:40Z</time>
      </trkpt>
      <trkpt lat="47.02143" lon="-1.19961">
        <ele>72</ele>
        <time>2012-04-30T14:21:46Z</time>
      </trkpt>
      <trkpt lat="47.02145" lon="-1.1995">
        <ele>72</ele>
        <time>2012-04-30T14:21:47Z</time>
      </trkpt>
      <trkpt lat="47.0216" lon="-1.19888">
        <ele>71</ele>
        <time>2012-04-30T14:21:53Z</time>
      </trkpt>
      <trkpt lat="47.02163" lon="-1.19878">
        <ele>71</ele>
        <time>2012-04-30T14:21:54Z</time>
      </trkpt>
      <trkpt lat="47.02166" lon="-1.19868">
        <ele>71</ele>
        <time>2012-04-30T14:21:55Z</time>
      </trkpt>
      <trkpt lat="47.02172" lon="-1.19848">
        <ele>71</ele>
        <time>2012-04-30T14:22:00Z</time>
      </trkpt>
      <trkpt lat="47.02187" lon="-1.19808">
        <ele>71</ele>
        <time>2012-04-30T14:22:01Z</time>
      </trkpt>
      <trkpt lat="47.02192" lon="-1.19798">
        <ele>71</ele>
        <time>2012-04-30T14:22:02Z</time>
      </trkpt>
      <trkpt lat="47.02201" lon="-1.19778">
        <ele>71</ele>
        <time>2012-04-30T14:22:07Z</time>
      </trkpt>
      <trkpt lat="47.02221" lon="-1.1974">
        <ele>71</ele>
        <time>2012-04-30T14:22:08Z</time>
      </trkpt>
      <trkpt lat="47.02226" lon="-1.19731">
        <ele>71</ele>
        <time>2012-04-30T14:22:09Z</time>
      </trkpt>
      <trkpt lat="47.02237" lon="-1.19712">
        <ele>70</ele>
        <time>2012-04-30T14:22:14Z</time>
      </trkpt>
      <trkpt lat="47.0226" lon="-1.19677">
        <ele>69</ele>
        <time>2012-04-30T14:22:15Z</time>
      </trkpt>
      <trkpt lat="47.02266" lon="-1.19669">
        <ele>68</ele>
        <time>2012-04-30T14:22:16Z</time>
      </trkpt>
      <trkpt lat="47.02278" lon="-1.19653">
        <ele>67</ele>
        <time>2012-04-30T14:22:22Z</time>
      </trkpt>
      <trkpt lat="47.02304" lon="-1.19623">
        <ele>66</ele>
        <time>2012-04-30T14:22:22Z</time>
      </trkpt>
      <trkpt lat="47.02311" lon="-1.19615">
        <ele>65</ele>
        <time>2012-04-30T14:22:23Z</time>
      </trkpt>
      <trkpt lat="47.02324" lon="-1.19599">
        <ele>64</ele>
        <time>2012-04-30T14:22:29Z</time>
      </trkpt>
      <trkpt lat="47.0235" lon="-1.19569">
        <ele>63</ele>
        <time>2012-04-30T14:22:29Z</time>
      </trkpt>
      <trkpt lat="47.02357" lon="-1.19562">
        <ele>62</ele>
        <time>2012-04-30T14:22:30Z</time>
      </trkpt>
      <trkpt lat="47.02396" lon="-1.19517">
        <ele>62</ele>
        <time>2012-04-30T14:22:36Z</time>
      </trkpt>
      <trkpt lat="47.02402" lon="-1.19509">
        <ele>62</ele>
        <time>2012-04-30T14:22:37Z</time>
      </trkpt>
      <trkpt lat="47.02415" lon="-1.19495">
        <ele>62</ele>
        <time>2012-04-30T14:22:43Z</time>
      </trkpt>
      <trkpt lat="47.02446" lon="-1.19459">
        <ele>62</ele>
        <time>2012-04-30T14:22:44Z</time>
      </trkpt>
      <trkpt lat="47.02452" lon="-1.19452">
        <ele>62</ele>
        <time>2012-04-30T14:22:45Z</time>
      </trkpt>
      <trkpt lat="47.02464" lon="-1.19439">
        <ele>62</ele>
        <time>2012-04-30T14:22:50Z</time>
      </trkpt>
      <trkpt lat="47.02489" lon="-1.19412">
        <ele>62</ele>
        <time>2012-04-30T14:22:51Z</time>
      </trkpt>
      <trkpt lat="47.02495" lon="-1.19405">
        <ele>62</ele>
        <time>2012-04-30T14:22:52Z</time>
      </trkpt>
      <trkpt lat="47.02506" lon="-1.19392">
        <ele>62</ele>
        <time>2012-04-30T14:22:57Z</time>
      </trkpt>
      <trkpt lat="47.02529" lon="-1.19366">
        <ele>62</ele>
        <time>2012-04-30T14:22:58Z</time>
      </trkpt>
      <trkpt lat="47.02535" lon="-1.19359">
        <ele>62</ele>
        <time>2012-04-30T14:22:59Z</time>
      </trkpt>
      <trkpt lat="47.02546" lon="-1.19346">
        <ele>62</ele>
        <time>2012-04-30T14:23:05Z</time>
      </trkpt>
      <trkpt lat="47.0257" lon="-1.19319">
        <ele>62</ele>
        <time>2012-04-30T14:23:05Z</time>
      </trkpt>
      <trkpt lat="47.02576" lon="-1.19313">
        <ele>62</ele>
        <time>2012-04-30T14:23:06Z</time>
      </trkpt>
      <trkpt lat="47.02589" lon="-1.19299">
        <ele>62</ele>
        <time>2012-04-30T14:23:12Z</time>
      </trkpt>
      <trkpt lat="47.02612" lon="-1.19273">
        <ele>62</ele>
        <time>2012-04-30T14:23:12Z</time>
      </trkpt>
      <trkpt lat="47.02617" lon="-1.19267">
        <ele>62</ele>
        <time>2012-04-30T14:23:13Z</time>
      </trkpt>
      <trkpt lat="47.02652" lon="-1.19226">
        <ele>62</ele>
        <time>2012-04-30T14:23:19Z</time>
      </trkpt>
      <trkpt lat="47.02658" lon="-1.1922">
        <ele>62</ele>
        <time>2012-04-30T14:23:20Z</time>
      </trkpt>
      <trkpt lat="47.02694" lon="-1.19178">
        <ele>62</ele>
        <time>2012-04-30T14:23:26Z</time>
      </trkpt>
      <trkpt lat="47.02701" lon="-1.19171">
        <ele>62</ele>
        <time>2012-04-30T14:23:27Z</time>
      </trkpt>
      <trkpt lat="47.02707" lon="-1.19164">
        <ele>62</ele>
        <time>2012-04-30T14:23:28Z</time>
      </trkpt>
      <trkpt lat="47.0272" lon="-1.1915">
        <ele>62</ele>
        <time>2012-04-30T14:23:33Z</time>
      </trkpt>
      <trkpt lat="47.02745" lon="-1.19122">
        <ele>62</ele>
        <time>2012-04-30T14:23:34Z</time>
      </trkpt>
      <trkpt lat="47.02751" lon="-1.19114">
        <ele>62</ele>
        <time>2012-04-30T14:23:35Z</time>
      </trkpt>
      <trkpt lat="47.02763" lon="-1.191">
        <ele>62</ele>
        <time>2012-04-30T14:23:40Z</time>
      </trkpt>
      <trkpt lat="47.02788" lon="-1.19073">
        <ele>62</ele>
        <time>2012-04-30T14:23:41Z</time>
      </trkpt>
      <trkpt lat="47.02794" lon="-1.19067">
        <ele>62</ele>
        <time>2012-04-30T14:23:42Z</time>
      </trkpt>
      <trkpt lat="47.02808" lon="-1.19056">
        <ele>62</ele>
        <time>2012-04-30T14:23:48Z</time>
      </trkpt>
      <trkpt lat="47.02838" lon="-1.19044">
        <ele>62</ele>
        <time>2012-04-30T14:23:48Z</time>
      </trkpt>
      <trkpt lat="47.02846" lon="-1.19044">
        <ele>62</ele>
        <time>2012-04-30T14:23:49Z</time>
      </trkpt>
      <trkpt lat="47.02853" lon="-1.19045">
        <ele>62</ele>
        <time>2012-04-30T14:23:50Z</time>
      </trkpt>
      <trkpt lat="47.02869" lon="-1.19048">
        <ele>62</ele>
        <time>2012-04-30T14:23:55Z</time>
      </trkpt>
      <trkpt lat="47.029" lon="-1.19056">
        <ele>61</ele>
        <time>2012-04-30T14:23:56Z</time>
      </trkpt>
      <trkpt lat="47.02909" lon="-1.19054">
        <ele>61</ele>
        <time>2012-04-30T14:23:57Z</time>
      </trkpt>
      <trkpt lat="47.02917" lon="-1.19051">
        <ele>60</ele>
        <time>2012-04-30T14:23:58Z</time>
      </trkpt>
      <trkpt lat="47.02934" lon="-1.19043">
        <ele>60</ele>
        <time>2012-04-30T14:24:03Z</time>
      </trkpt>
      <trkpt lat="47.02969" lon="-1.19024">
        <ele>59</ele>
        <time>2012-04-30T14:24:04Z</time>
      </trkpt>
      <trkpt lat="47.02977" lon="-1.1902">
        <ele>58</ele>
        <time>2012-04-30T14:24:05Z</time>
      </trkpt>
      <trkpt lat="47.02995" lon="-1.1901">
        <ele>57</ele>
        <time>2012-04-30T14:24:10Z</time>
      </trkpt>
      <trkpt lat="47.03031" lon="-1.18991">
        <ele>56</ele>
        <time>2012-04-30T14:24:11Z</time>
      </trkpt>
      <trkpt lat="47.0304" lon="-1.18987">
        <ele>55</ele>
        <time>2012-04-30T14:24:12Z</time>
      </trkpt>
      <trkpt lat="47.03059" lon="-1.18977">
        <ele>54</ele>
        <time>2012-04-30T14:24:18Z</time>
      </trkpt>
      <trkpt lat="47.03093" lon="-1.18958">
        <ele>53</ele>
        <time>2012-04-30T14:24:18Z</time>
      </trkpt>
      <trkpt lat="47.03101" lon="-1.18949">
        <ele>52</ele>
        <time>2012-04-30T14:24:19Z</time>
      </trkpt>
      <trkpt lat="47.03109" lon="-1.18939">
        <ele>51</ele>
        <time>2012-04-30T14:24:21Z</time>
      </trkpt>
      <trkpt lat="47.0312" lon="-1.18912">
        <ele>50</ele>
        <time>2012-04-30T14:24:27Z</time>
      </trkpt>
      <trkpt lat="47.03151" lon="-1.18851">
        <ele>49</ele>
        <time>2012-04-30T14:24:28Z</time>
      </trkpt>
      <trkpt lat="47.0316" lon="-1.18845">
        <ele>48</ele>
        <time>2012-04-30T14:24:29Z</time>
      </trkpt>
      <trkpt lat="47.0317" lon="-1.18841">
        <ele>47</ele>
        <time>2012-04-30T14:24:29Z</time>
      </trkpt>
      <trkpt lat="47.03222" lon="-1.18819">
        <ele>46</ele>
        <time>2012-04-30T14:24:35Z</time>
      </trkpt>
      <trkpt lat="47.03231" lon="-1.18813">
        <ele>45</ele>
        <time>2012-04-30T14:24:36Z</time>
      </trkpt>
      <trkpt lat="47.03239" lon="-1.18805">
        <ele>44</ele>
        <time>2012-04-30T14:24:37Z</time>
      </trkpt>
      <trkpt lat="47.03269" lon="-1.1874">
        <ele>43</ele>
        <time>2012-04-30T14:24:43Z</time>
      </trkpt>
      <trkpt lat="47.03274" lon="-1.18729">
        <ele>42</ele>
        <time>2012-04-30T14:24:44Z</time>
      </trkpt>
      <trkpt lat="47.03279" lon="-1.18719">
        <ele>41</ele>
        <time>2012-04-30T14:24:45Z</time>
      </trkpt>
      <trkpt lat="47.03314" lon="-1.18679">
        <ele>40</ele>
        <time>2012-04-30T14:24:51Z</time>
      </trkpt>
      <trkpt lat="47.03321" lon="-1.18676">
        <ele>39</ele>
        <time>2012-04-30T14:24:52Z</time>
      </trkpt>
      <trkpt lat="47.03328" lon="-1.18674">
        <ele>38</ele>
        <time>2012-04-30T14:24:53Z</time>
      </trkpt>
      <trkpt lat="47.03374" lon="-1.18654">
        <ele>37</ele>
        <time>2012-04-30T14:24:59Z</time>
      </trkpt>
      <trkpt lat="47.03382" lon="-1.18649">
        <ele>37</ele>
        <time>2012-04-30T14:25:00Z</time>
      </trkpt>
      <trkpt lat="47.0339" lon="-1.18646">
        <ele>36</ele>
        <time>2012-04-30T14:25:01Z</time>
      </trkpt>
      <trkpt lat="47.03407" lon="-1.18639">
        <ele>36</ele>
        <time>2012-04-30T14:25:06Z</time>
      </trkpt>
      <trkpt lat="47.03438" lon="-1.18625">
        <ele>36</ele>
        <time>2012-04-30T14:25:07Z</time>
      </trkpt>
      <trkpt lat="47.03447" lon="-1.18622">
        <ele>36</ele>
        <time>2012-04-30T14:25:08Z</time>
      </trkpt>
      <trkpt lat="47.03463" lon="-1.18616">
        <ele>36</ele>
        <time>2012-04-30T14:25:14Z</time>
      </trkpt>
      <trkpt lat="47.03497" lon="-1.18601">
        <ele>36</ele>
        <time>2012-04-30T14:25:14Z</time>
      </trkpt>
      <trkpt lat="47.03505" lon="-1.18597">
        <ele>36</ele>
        <time>2012-04-30T14:25:15Z</time>
      </trkpt>
      <trkpt lat="47.03521" lon="-1.18589">
        <ele>36</ele>
        <time>2012-04-30T14:25:21Z</time>
      </trkpt>
      <trkpt lat="47.03553" lon="-1.18581">
        <ele>36</ele>
        <time>2012-04-30T14:25:21Z</time>
      </trkpt>
      <trkpt lat="47.03561" lon="-1.18581">
        <ele>36</ele>
        <time>2012-04-30T14:25:22Z</time>
      </trkpt>
      <trkpt lat="47.03569" lon="-1.18581">
        <ele>36</ele>
        <time>2012-04-30T14:25:23Z</time>
      </trkpt>
      <trkpt lat="47.03583" lon="-1.18578">
        <ele>36</ele>
        <time>2012-04-30T14:25:28Z</time>
      </trkpt>
      <trkpt lat="47.03601" lon="-1.18551">
        <ele>36</ele>
        <time>2012-04-30T14:25:29Z</time>
      </trkpt>
      <trkpt lat="47.03602" lon="-1.1854">
        <ele>36</ele>
        <time>2012-04-30T14:25:30Z</time>
      </trkpt>
      <trkpt lat="47.03602" lon="-1.18529">
        <ele>36</ele>
        <time>2012-04-30T14:25:31Z</time>
      </trkpt>
      <trkpt lat="47.03602" lon="-1.18519">
        <ele>36</ele>
        <time>2012-04-30T14:25:32Z</time>
      </trkpt>
      <trkpt lat="47.03604" lon="-1.18499">
        <ele>36</ele>
        <time>2012-04-30T14:25:38Z</time>
      </trkpt>
      <trkpt lat="47.03622" lon="-1.18466">
        <ele>36</ele>
        <time>2012-04-30T14:25:39Z</time>
      </trkpt>
      <trkpt lat="47.03627" lon="-1.1846">
        <ele>36</ele>
        <time>2012-04-30T14:25:39Z</time>
      </trkpt>
      <trkpt lat="47.03633" lon="-1.18456">
        <ele>36</ele>
        <time>2012-04-30T14:25:40Z</time>
      </trkpt>
      <trkpt lat="47.0364" lon="-1.18453">
        <ele>36</ele>
        <time>2012-04-30T14:25:41Z</time>
      </trkpt>
      <trkpt lat="47.03654" lon="-1.18451">
        <ele>36</ele>
        <time>2012-04-30T14:25:46Z</time>
      </trkpt>
      <trkpt lat="47.03682" lon="-1.18445">
        <ele>36</ele>
        <time>2012-04-30T14:25:47Z</time>
      </trkpt>
      <trkpt lat="47.03688" lon="-1.18443">
        <ele>36</ele>
        <time>2012-04-30T14:25:48Z</time>
      </trkpt>
      <trkpt lat="47.037" lon="-1.18441">
        <ele>36</ele>
        <time>2012-04-30T14:25:54Z</time>
      </trkpt>
      <trkpt lat="47.03726" lon="-1.18437">
        <ele>36</ele>
        <time>2012-04-30T14:25:54Z</time>
      </trkpt>
      <trkpt lat="47.03732" lon="-1.18439">
        <ele>36</ele>
        <time>2012-04-30T14:25:55Z</time>
      </trkpt>
      <trkpt lat="47.03737" lon="-1.18444">
        <ele>36</ele>
        <time>2012-04-30T14:25:56Z</time>
      </trkpt>
      <trkpt lat="47.03741" lon="-1.1845">
        <ele>36</ele>
        <time>2012-04-30T14:25:57Z</time>
      </trkpt>
      <trkpt lat="47.03747" lon="-1.18467">
        <ele>36</ele>
        <time>2012-04-30T14:26:03Z</time>
      </trkpt>
      <trkpt lat="47.03754" lon="-1.18512">
        <ele>36</ele>
        <time>2012-04-30T14:26:04Z</time>
      </trkpt>
      <trkpt lat="47.03754" lon="-1.1852">
        <ele>36</ele>
        <time>2012-04-30T14:26:06Z</time>
      </trkpt>
      <trkpt lat="47.0377" lon="-1.18566">
        <ele>37</ele>
        <time>2012-04-30T14:26:12Z</time>
      </trkpt>
      <trkpt lat="47.03773" lon="-1.18572">
        <ele>38</ele>
        <time>2012-04-30T14:26:13Z</time>
      </trkpt>
      <trkpt lat="47.03777" lon="-1.18577">
        <ele>39</ele>
        <time>2012-04-30T14:26:14Z</time>
      </trkpt>
      <trkpt lat="47.03783" lon="-1.18588">
        <ele>40</ele>
        <time>2012-04-30T14:26:20Z</time>
      </trkpt>
      <trkpt lat="47.03795" lon="-1.18607">
        <ele>41</ele>
        <time>2012-04-30T14:26:20Z</time>
      </trkpt>
      <trkpt lat="47.03797" lon="-1.18612">
        <ele>42</ele>
        <time>2012-04-30T14:26:21Z</time>
      </trkpt>
      <trkpt lat="47.03804" lon="-1.18648">
        <ele>43</ele>
        <time>2012-04-30T14:26:27Z</time>
      </trkpt>
      <trkpt lat="47.03804" lon="-1.18654">
        <ele>44</ele>
        <time>2012-04-30T14:26:28Z</time>
      </trkpt>
      <trkpt lat="47.03804" lon="-1.1866">
        <ele>45</ele>
        <time>2012-04-30T14:26:29Z</time>
      </trkpt>
      <trkpt lat="47.03804" lon="-1.18672">
        <ele>46</ele>
        <time>2012-04-30T14:26:34Z</time>
      </trkpt>
      <trkpt lat="47.03808" lon="-1.18698">
        <ele>47</ele>
        <time>2012-04-30T14:26:35Z</time>
      </trkpt>
      <trkpt lat="47.03809" lon="-1.18704">
        <ele>49</ele>
        <time>2012-04-30T14:26:36Z</time>
      </trkpt>
      <trkpt lat="47.03811" lon="-1.18717">
        <ele>50</ele>
        <time>2012-04-30T14:26:42Z</time>
      </trkpt>
      <trkpt lat="47.03818" lon="-1.18739">
        <ele>51</ele>
        <time>2012-04-30T14:26:42Z</time>
      </trkpt>
      <trkpt lat="47.03821" lon="-1.18744">
        <ele>52</ele>
        <time>2012-04-30T14:26:43Z</time>
      </trkpt>
      <trkpt lat="47.03824" lon="-1.18749">
        <ele>53</ele>
        <time>2012-04-30T14:26:44Z</time>
      </trkpt>
      <trkpt lat="47.0383" lon="-1.18758">
        <ele>54</ele>
        <time>2012-04-30T14:26:49Z</time>
      </trkpt>
      <trkpt lat="47.03843" lon="-1.18774">
        <ele>55</ele>
        <time>2012-04-30T14:26:50Z</time>
      </trkpt>
      <trkpt lat="47.03846" lon="-1.18777">
        <ele>56</ele>
        <time>2012-04-30T14:26:51Z</time>
      </trkpt>
      <trkpt lat="47.03849" lon="-1.18781">
        <ele>57</ele>
        <time>2012-04-30T14:26:52Z</time>
      </trkpt>
      <trkpt lat="47.03856" lon="-1.18788">
        <ele>58</ele>
        <time>2012-04-30T14:26:57Z</time>
      </trkpt>
      <trkpt lat="47.03867" lon="-1.18802">
        <ele>59</ele>
        <time>2012-04-30T14:26:58Z</time>
      </trkpt>
      <trkpt lat="47.03871" lon="-1.18806">
        <ele>60</ele>
        <time>2012-04-30T14:26:59Z</time>
      </trkpt>
      <trkpt lat="47.03878" lon="-1.18813">
        <ele>61</ele>
        <time>2012-04-30T14:27:05Z</time>
      </trkpt>
      <trkpt lat="47.0389" lon="-1.18825">
        <ele>62</ele>
        <time>2012-04-30T14:27:05Z</time>
      </trkpt>
      <trkpt lat="47.03893" lon="-1.18828">
        <ele>63</ele>
        <time>2012-04-30T14:27:06Z</time>
      </trkpt>
      <trkpt lat="47.03899" lon="-1.18835">
        <ele>64</ele>
        <time>2012-04-30T14:27:12Z</time>
      </trkpt>
      <trkpt lat="47.03912" lon="-1.18848">
        <ele>65</ele>
        <time>2012-04-30T14:27:12Z</time>
      </trkpt>
      <trkpt lat="47.03916" lon="-1.18852">
        <ele>66</ele>
        <time>2012-04-30T14:27:13Z</time>
      </trkpt>
      <trkpt lat="47.03939" lon="-1.1887">
        <ele>67</ele>
        <time>2012-04-30T14:27:19Z</time>
      </trkpt>
      <trkpt lat="47.03942" lon="-1.18872">
        <ele>67</ele>
        <time>2012-04-30T14:27:20Z</time>
      </trkpt>
      <trkpt lat="47.0395" lon="-1.18877">
        <ele>67</ele>
        <time>2012-04-30T14:27:26Z</time>
      </trkpt>
      <trkpt lat="47.03971" lon="-1.18884">
        <ele>67</ele>
        <time>2012-04-30T14:27:27Z</time>
      </trkpt>
      <trkpt lat="47.03976" lon="-1.18885">
        <ele>67</ele>
        <time>2012-04-30T14:27:28Z</time>
      </trkpt>
      <trkpt lat="47.04" lon="-1.18881">
        <ele>67</ele>
        <time>2012-04-30T14:27:34Z</time>
      </trkpt>
      <trkpt lat="47.04004" lon="-1.1888">
        <ele>67</ele>
        <time>2012-04-30T14:27:35Z</time>
      </trkpt>
      <trkpt lat="47.04008" lon="-1.18878">
        <ele>67</ele>
        <time>2012-04-30T14:27:36Z</time>
      </trkpt>
      <trkpt lat="47.0403" lon="-1.18868">
        <ele>67</ele>
        <time>2012-04-30T14:27:42Z</time>
      </trkpt>
      <trkpt lat="47.04033" lon="-1.18867">
        <ele>68</ele>
        <time>2012-04-30T14:27:43Z</time>
      </trkpt>
      <trkpt lat="47.04042" lon="-1.18861">
        <ele>69</ele>
        <time>2012-04-30T14:27:49Z</time>
      </trkpt>
      <trkpt lat="47.04063" lon="-1.18853">
        <ele>70</ele>
        <time>2012-04-30T14:27:50Z</time>
      </trkpt>
      <trkpt lat="47.04067" lon="-1.18851">
        <ele>71</ele>
        <time>2012-04-30T14:27:51Z</time>
      </trkpt>
      <trkpt lat="47.04074" lon="-1.18848">
        <ele>72</ele>
        <time>2012-04-30T14:27:56Z</time>
      </trkpt>
      <trkpt lat="47.04091" lon="-1.18837">
        <ele>73</ele>
        <time>2012-04-30T14:27:57Z</time>
      </trkpt>
      <trkpt lat="47.04094" lon="-1.18835">
        <ele>74</ele>
        <time>2012-04-30T14:27:58Z</time>
      </trkpt>
      <trkpt lat="47.04102" lon="-1.18832">
        <ele>75</ele>
        <time>2012-04-30T14:28:04Z</time>
      </trkpt>
      <trkpt lat="47.04119" lon="-1.18823">
        <ele>76</ele>
        <time>2012-04-30T14:28:04Z</time>
      </trkpt>
      <trkpt lat="47.04123" lon="-1.1882">
        <ele>77</ele>
        <time>2012-04-30T14:28:05Z</time>
      </trkpt>
      <trkpt lat="47.04131" lon="-1.18816">
        <ele>78</ele>
        <time>2012-04-30T14:28:11Z</time>
      </trkpt>
      <trkpt lat="47.04146" lon="-1.18807">
        <ele>79</ele>
        <time>2012-04-30T14:28:11Z</time>
      </trkpt>
      <trkpt lat="47.0415" lon="-1.18805">
        <ele>80</ele>
        <time>2012-04-30T14:28:12Z</time>
      </trkpt>
      <trkpt lat="47.04177" lon="-1.18791">
        <ele>81</ele>
        <time>2012-04-30T14:28:18Z</time>
      </trkpt>
      <trkpt lat="47.04181" lon="-1.18789">
        <ele>82</ele>
        <time>2012-04-30T14:28:19Z</time>
      </trkpt>
      <trkpt lat="47.04185" lon="-1.18787">
        <ele>83</ele>
        <time>2012-04-30T14:28:20Z</time>
      </trkpt>
      <trkpt lat="47.04194" lon="-1.18782">
        <ele>84</ele>
        <time>2012-04-30T14:28:25Z</time>
      </trkpt>
      <trkpt lat="47.04212" lon="-1.18773">
        <ele>85</ele>
        <time>2012-04-30T14:28:26Z</time>
      </trkpt>
      <trkpt lat="47.04216" lon="-1.18771">
        <ele>85</ele>
        <time>2012-04-30T14:28:27Z</time>
      </trkpt>
      <trkpt lat="47.04225" lon="-1.18766">
        <ele>86</ele>
        <time>2012-04-30T14:28:33Z</time>
      </trkpt>
      <trkpt lat="47.04243" lon="-1.18757">
        <ele>86</ele>
        <time>2012-04-30T14:28:33Z</time>
      </trkpt>
      <trkpt lat="47.04247" lon="-1.18755">
        <ele>86</ele>
        <time>2012-04-30T14:28:34Z</time>
      </trkpt>
      <trkpt lat="47.04256" lon="-1.18751">
        <ele>86</ele>
        <time>2012-04-30T14:28:40Z</time>
      </trkpt>
      <trkpt lat="47.04273" lon="-1.18742">
        <ele>87</ele>
        <time>2012-04-30T14:28:40Z</time>
      </trkpt>
      <trkpt lat="47.04277" lon="-1.1874">
        <ele>87</ele>
        <time>2012-04-30T14:28:41Z</time>
      </trkpt>
      <trkpt lat="47.04303" lon="-1.18723">
        <ele>87</ele>
        <time>2012-04-30T14:28:47Z</time>
      </trkpt>
      <trkpt lat="47.04306" lon="-1.1872">
        <ele>87</ele>
        <time>2012-04-30T14:28:48Z</time>
      </trkpt>
      <trkpt lat="47.04309" lon="-1.18717">
        <ele>87</ele>
        <time>2012-04-30T14:28:49Z</time>
      </trkpt>
      <trkpt lat="47.04316" lon="-1.1871">
        <ele>87</ele>
        <time>2012-04-30T14:28:54Z</time>
      </trkpt>
      <trkpt lat="47.0433" lon="-1.18693">
        <ele>87</ele>
        <time>2012-04-30T14:28:55Z</time>
      </trkpt>
      <trkpt lat="47.04334" lon="-1.18688">
        <ele>87</ele>
        <time>2012-04-30T14:28:56Z</time>
      </trkpt>
      <trkpt lat="47.04341" lon="-1.18678">
        <ele>87</ele>
        <time>2012-04-30T14:29:02Z</time>
      </trkpt>
      <trkpt lat="47.04355" lon="-1.18655">
        <ele>87</ele>
        <time>2012-04-30T14:29:02Z</time>
      </trkpt>
      <trkpt lat="47.04358" lon="-1.18649">
        <ele>87</ele>
        <time>2012-04-30T14:29:03Z</time>
      </trkpt>
      <trkpt lat="47.04365" lon="-1.18638">
        <ele>87</ele>
        <time>2012-04-30T14:29:09Z</time>
      </trkpt>
      <trkpt lat="47.04382" lon="-1.1863">
        <ele>87</ele>
        <time>2012-04-30T14:29:09Z</time>
      </trkpt>
      <trkpt lat="47.04387" lon="-1.18628">
        <ele>87</ele>
        <time>2012-04-30T14:29:11Z</time>
      </trkpt>
      <trkpt lat="47.04392" lon="-1.18627">
        <ele>87</ele>
        <time>2012-04-30T14:29:11Z</time>
      </trkpt>
      <trkpt lat="47.04401" lon="-1.18625">
        <ele>87</ele>
        <time>2012-04-30T14:29:17Z</time>
      </trkpt>
      <trkpt lat="47.04419" lon="-1.18628">
        <ele>87</ele>
        <time>2012-04-30T14:29:17Z</time>
      </trkpt>
      <trkpt lat="47.04425" lon="-1.18628">
        <ele>87</ele>
        <time>2012-04-30T14:29:18Z</time>
      </trkpt>
      <trkpt lat="47.04453" lon="-1.18603">
        <ele>87</ele>
        <time>2012-04-30T14:29:24Z</time>
      </trkpt>
      <trkpt lat="47.04457" lon="-1.18598">
        <ele>87</ele>
        <time>2012-04-30T14:29:25Z</time>
      </trkpt>
      <trkpt lat="47.04462" lon="-1.18593">
        <ele>87</ele>
        <time>2012-04-30T14:29:26Z</time>
      </trkpt>
      <trkpt lat="47.04489" lon="-1.18561">
        <ele>87</ele>
        <time>2012-04-30T14:29:32Z</time>
      </trkpt>
      <trkpt lat="47.04493" lon="-1.18556">
        <ele>87</ele>
        <time>2012-04-30T14:29:33Z</time>
      </trkpt>
      <trkpt lat="47.04501" lon="-1.18546">
        <ele>87</ele>
        <time>2012-04-30T14:29:39Z</time>
      </trkpt>
      <trkpt lat="47.0451" lon="-1.18521">
        <ele>87</ele>
        <time>2012-04-30T14:29:40Z</time>
      </trkpt>
      <trkpt lat="47.04509" lon="-1.18519">
        <ele>87</ele>
        <time>2012-04-30T14:29:42Z</time>
      </trkpt>
      <trkpt lat="47.04508" lon="-1.18518">
        <ele>87</ele>
        <time>2012-04-30T14:29:43Z</time>
      </trkpt>
      <trkpt lat="47.04511" lon="-1.18509">
        <ele>86</ele>
        <time>2012-04-30T14:29:48Z</time>
      </trkpt>
      <trkpt lat="47.0452" lon="-1.18487">
        <ele>85</ele>
        <time>2012-04-30T14:29:49Z</time>
      </trkpt>
      <trkpt lat="47.04522" lon="-1.1848">
        <ele>84</ele>
        <time>2012-04-30T14:29:50Z</time>
      </trkpt>
      <trkpt lat="47.04526" lon="-1.18467">
        <ele>83</ele>
        <time>2012-04-30T14:29:56Z</time>
      </trkpt>
      <trkpt lat="47.04539" lon="-1.18438">
        <ele>82</ele>
        <time>2012-04-30T14:29:56Z</time>
      </trkpt>
      <trkpt lat="47.04542" lon="-1.18431">
        <ele>82</ele>
        <time>2012-04-30T14:29:57Z</time>
      </trkpt>
      <trkpt lat="47.0456" lon="-1.18386">
        <ele>82</ele>
        <time>2012-04-30T14:30:03Z</time>
      </trkpt>
      <trkpt lat="47.04562" lon="-1.18378">
        <ele>82</ele>
        <time>2012-04-30T14:30:04Z</time>
      </trkpt>
      <trkpt lat="47.04564" lon="-1.1837">
        <ele>82</ele>
        <time>2012-04-30T14:30:05Z</time>
      </trkpt>
      <trkpt lat="47.04568" lon="-1.18354">
        <ele>82</ele>
        <time>2012-04-30T14:30:10Z</time>
      </trkpt>
      <trkpt lat="47.04576" lon="-1.18322">
        <ele>82</ele>
        <time>2012-04-30T14:30:11Z</time>
      </trkpt>
      <trkpt lat="47.04579" lon="-1.18314">
        <ele>82</ele>
        <time>2012-04-30T14:30:12Z</time>
      </trkpt>
      <trkpt lat="47.04583" lon="-1.18298">
        <ele>82</ele>
        <time>2012-04-30T14:30:18Z</time>
      </trkpt>
      <trkpt lat="47.04588" lon="-1.1827">
        <ele>82</ele>
        <time>2012-04-30T14:30:18Z</time>
      </trkpt>
      <trkpt lat="47.04586" lon="-1.18263">
        <ele>82</ele>
        <time>2012-04-30T14:30:19Z</time>
      </trkpt>
      <trkpt lat="47.04584" lon="-1.18257">
        <ele>82</ele>
        <time>2012-04-30T14:30:20Z</time>
      </trkpt>
      <trkpt lat="47.0458" lon="-1.18252">
        <ele>82</ele>
        <time>2012-04-30T14:30:21Z</time>
      </trkpt>
      <trkpt lat="47.04572" lon="-1.18241">
        <ele>81</ele>
        <time>2012-04-30T14:30:27Z</time>
      </trkpt>
      <trkpt lat="47.04547" lon="-1.18212">
        <ele>81</ele>
        <time>2012-04-30T14:30:28Z</time>
      </trkpt>
      <trkpt lat="47.04542" lon="-1.18197">
        <ele>81</ele>
        <time>2012-04-30T14:30:34Z</time>
      </trkpt>
      <trkpt lat="47.04556" lon="-1.18168">
        <ele>81</ele>
        <time>2012-04-30T14:30:35Z</time>
      </trkpt>
      <trkpt lat="47.04557" lon="-1.18162">
        <ele>81</ele>
        <time>2012-04-30T14:30:36Z</time>
      </trkpt>
      <trkpt lat="47.04557" lon="-1.18155">
        <ele>81</ele>
        <time>2012-04-30T14:30:37Z</time>
      </trkpt>
      <trkpt lat="47.04529" lon="-1.18122">
        <ele>81</ele>
        <time>2012-04-30T14:30:44Z</time>
      </trkpt>
      <trkpt lat="47.04524" lon="-1.18117">
        <ele>81</ele>
        <time>2012-04-30T14:30:45Z</time>
      </trkpt>
      <trkpt lat="47.0452" lon="-1.18112">
        <ele>81</ele>
        <time>2012-04-30T14:30:46Z</time>
      </trkpt>
      <trkpt lat="47.04496" lon="-1.18072">
        <ele>81</ele>
        <time>2012-04-30T14:30:52Z</time>
      </trkpt>
      <trkpt lat="47.04494" lon="-1.18064">
        <ele>81</ele>
        <time>2012-04-30T14:30:53Z</time>
      </trkpt>
      <trkpt lat="47.04493" lon="-1.18056">
        <ele>80</ele>
        <time>2012-04-30T14:30:54Z</time>
      </trkpt>
      <trkpt lat="47.04492" lon="-1.18043">
        <ele>80</ele>
        <time>2012-04-30T14:31:00Z</time>
      </trkpt>
      <trkpt lat="47.04491" lon="-1.18022">
        <ele>80</ele>
        <time>2012-04-30T14:31:00Z</time>
      </trkpt>
      <trkpt lat="47.04493" lon="-1.18021">
        <ele>80</ele>
        <time>2012-04-30T14:31:01Z</time>
      </trkpt>
      <trkpt lat="47.04495" lon="-1.18022">
        <ele>80</ele>
        <time>2012-04-30T14:31:02Z</time>
      </trkpt>
      <trkpt lat="47.04494" lon="-1.18029">
        <ele>80</ele>
        <time>2012-04-30T14:31:08Z</time>
      </trkpt>
      <trkpt lat="47.04495" lon="-1.18033">
        <ele>80</ele>
        <time>2012-04-30T14:31:09Z</time>
      </trkpt>
      <trkpt lat="47.04495" lon="-1.18038">
        <ele>80</ele>
        <time>2012-04-30T14:31:18Z</time>
      </trkpt>
      <trkpt lat="47.04496" lon="-1.18059">
        <ele>80</ele>
        <time>2012-04-30T14:31:18Z</time>
      </trkpt>
      <trkpt lat="47.04497" lon="-1.18063">
        <ele>80</ele>
        <time>2012-04-30T14:31:19Z</time>
      </trkpt>
      <trkpt lat="47.04498" lon="-1.18069">
        <ele>80</ele>
        <time>2012-04-30T14:31:20Z</time>
      </trkpt>
      <trkpt lat="47.04499" lon="-1.1808">
        <ele>80</ele>
        <time>2012-04-30T14:31:25Z</time>
      </trkpt>
      <trkpt lat="47.04516" lon="-1.18106">
        <ele>80</ele>
        <time>2012-04-30T14:31:26Z</time>
      </trkpt>
      <trkpt lat="47.04522" lon="-1.18112">
        <ele>80</ele>
        <time>2012-04-30T14:31:27Z</time>
      </trkpt>
      <trkpt lat="47.04528" lon="-1.18119">
        <ele>80</ele>
        <time>2012-04-30T14:31:28Z</time>
      </trkpt>
      <trkpt lat="47.04541" lon="-1.18131">
        <ele>80</ele>
        <time>2012-04-30T14:31:34Z</time>
      </trkpt>
      <trkpt lat="47.0456" lon="-1.18147">
        <ele>80</ele>
        <time>2012-04-30T14:31:34Z</time>
      </trkpt>
      <trkpt lat="47.04562" lon="-1.18149">
        <ele>80</ele>
        <time>2012-04-30T14:31:35Z</time>
      </trkpt>
      <trkpt lat="47.04563" lon="-1.18153">
        <ele>80</ele>
        <time>2012-04-30T14:31:36Z</time>
      </trkpt>
      <trkpt lat="47.04562" lon="-1.18158">
        <ele>80</ele>
        <time>2012-04-30T14:31:37Z</time>
      </trkpt>
      <trkpt lat="47.04557" lon="-1.1817">
        <ele>80</ele>
        <time>2012-04-30T14:31:44Z</time>
      </trkpt>
      <trkpt lat="47.04546" lon="-1.18208">
        <ele>80</ele>
        <time>2012-04-30T14:31:45Z</time>
      </trkpt>
      <trkpt lat="47.04548" lon="-1.18216">
        <ele>80</ele>
        <time>2012-04-30T14:31:45Z</time>
      </trkpt>
      <trkpt lat="47.04552" lon="-1.18221">
        <ele>80</ele>
        <time>2012-04-30T14:31:46Z</time>
      </trkpt>
      <trkpt lat="47.04583" lon="-1.18249">
        <ele>80</ele>
        <time>2012-04-30T14:31:52Z</time>
      </trkpt>
      <trkpt lat="47.04588" lon="-1.18251">
        <ele>80</ele>
        <time>2012-04-30T14:31:53Z</time>
      </trkpt>
      <trkpt lat="47.04591" lon="-1.18253">
        <ele>80</ele>
        <time>2012-04-30T14:31:54Z</time>
      </trkpt>
      <trkpt lat="47.04595" lon="-1.1826">
        <ele>80</ele>
        <time>2012-04-30T14:31:59Z</time>
      </trkpt>
      <trkpt lat="47.04588" lon="-1.18279">
        <ele>80</ele>
        <time>2012-04-30T14:32:00Z</time>
      </trkpt>
      <trkpt lat="47.04585" lon="-1.18286">
        <ele>80</ele>
        <time>2012-04-30T14:32:01Z</time>
      </trkpt>
      <trkpt lat="47.04583" lon="-1.18295">
        <ele>80</ele>
        <time>2012-04-30T14:32:02Z</time>
      </trkpt>
      <trkpt lat="47.04578" lon="-1.18314">
        <ele>80</ele>
        <time>2012-04-30T14:32:07Z</time>
      </trkpt>
      <trkpt lat="47.04569" lon="-1.18353">
        <ele>80</ele>
        <time>2012-04-30T14:32:08Z</time>
      </trkpt>
      <trkpt lat="47.04567" lon="-1.18363">
        <ele>80</ele>
        <time>2012-04-30T14:32:09Z</time>
      </trkpt>
      <trkpt lat="47.04562" lon="-1.18382">
        <ele>80</ele>
        <time>2012-04-30T14:32:15Z</time>
      </trkpt>
      <trkpt lat="47.04548" lon="-1.1842">
        <ele>80</ele>
        <time>2012-04-30T14:32:15Z</time>
      </trkpt>
      <trkpt lat="47.04544" lon="-1.18428">
        <ele>80</ele>
        <time>2012-04-30T14:32:16Z</time>
      </trkpt>
      <trkpt lat="47.0454" lon="-1.18436">
        <ele>80</ele>
        <time>2012-04-30T14:32:17Z</time>
      </trkpt>
      <trkpt lat="47.04533" lon="-1.18453">
        <ele>80</ele>
        <time>2012-04-30T14:32:23Z</time>
      </trkpt>
      <trkpt lat="47.04518" lon="-1.18487">
        <ele>80</ele>
        <time>2012-04-30T14:32:23Z</time>
      </trkpt>
      <trkpt lat="47.04515" lon="-1.18495">
        <ele>80</ele>
        <time>2012-04-30T14:32:24Z</time>
      </trkpt>
      <trkpt lat="47.0451" lon="-1.18509">
        <ele>80</ele>
        <time>2012-04-30T14:32:30Z</time>
      </trkpt>
      <trkpt lat="47.04499" lon="-1.18517">
        <ele>79</ele>
        <time>2012-04-30T14:32:31Z</time>
      </trkpt>
      <trkpt lat="47.04496" lon="-1.18515">
        <ele>79</ele>
        <time>2012-04-30T14:32:32Z</time>
      </trkpt>
      <trkpt lat="47.04492" lon="-1.18512">
        <ele>78</ele>
        <time>2012-04-30T14:32:33Z</time>
      </trkpt>
      <trkpt lat="47.04469" lon="-1.18479">
        <ele>78</ele>
        <time>2012-04-30T14:32:39Z</time>
      </trkpt>
      <trkpt lat="47.04465" lon="-1.18472">
        <ele>77</ele>
        <time>2012-04-30T14:32:40Z</time>
      </trkpt>
      <trkpt lat="47.04462" lon="-1.18464">
        <ele>77</ele>
        <time>2012-04-30T14:32:41Z</time>
      </trkpt>
      <trkpt lat="47.04455" lon="-1.1845">
        <ele>77</ele>
        <time>2012-04-30T14:32:47Z</time>
      </trkpt>
      <trkpt lat="47.04444" lon="-1.18419">
        <ele>77</ele>
        <time>2012-04-30T14:32:47Z</time>
      </trkpt>
      <trkpt lat="47.04442" lon="-1.1841">
        <ele>77</ele>
        <time>2012-04-30T14:32:48Z</time>
      </trkpt>
      <trkpt lat="47.04436" lon="-1.18356">
        <ele>77</ele>
        <time>2012-04-30T14:32:54Z</time>
      </trkpt>
      <trkpt lat="47.04436" lon="-1.18347">
        <ele>77</ele>
        <time>2012-04-30T14:32:55Z</time>
      </trkpt>
      <trkpt lat="47.04436" lon="-1.18339">
        <ele>77</ele>
        <time>2012-04-30T14:32:56Z</time>
      </trkpt>
      <trkpt lat="47.04435" lon="-1.18286">
        <ele>77</ele>
        <time>2012-04-30T14:33:02Z</time>
      </trkpt>
      <trkpt lat="47.04435" lon="-1.18278">
        <ele>77</ele>
        <time>2012-04-30T14:33:03Z</time>
      </trkpt>
      <trkpt lat="47.04432" lon="-1.1826">
        <ele>77</ele>
        <time>2012-04-30T14:33:09Z</time>
      </trkpt>
      <trkpt lat="47.04423" lon="-1.18212">
        <ele>76</ele>
        <time>2012-04-30T14:33:10Z</time>
      </trkpt>
      <trkpt lat="47.0442" lon="-1.18203">
        <ele>76</ele>
        <time>2012-04-30T14:33:11Z</time>
      </trkpt>
      <trkpt lat="47.04416" lon="-1.18183">
        <ele>76</ele>
        <time>2012-04-30T14:33:16Z</time>
      </trkpt>
      <trkpt lat="47.04408" lon="-1.1814">
        <ele>76</ele>
        <time>2012-04-30T14:33:17Z</time>
      </trkpt>
      <trkpt lat="47.04406" lon="-1.18129">
        <ele>76</ele>
        <time>2012-04-30T14:33:18Z</time>
      </trkpt>
      <trkpt lat="47.04402" lon="-1.18107">
        <ele>75</ele>
        <time>2012-04-30T14:33:24Z</time>
      </trkpt>
      <trkpt lat="47.04393" lon="-1.18062">
        <ele>75</ele>
        <time>2012-04-30T14:33:24Z</time>
      </trkpt>
      <trkpt lat="47.0439" lon="-1.18051">
        <ele>75</ele>
        <time>2012-04-30T14:33:25Z</time>
      </trkpt>
      <trkpt lat="47.04364" lon="-1.18003">
        <ele>74</ele>
        <time>2012-04-30T14:33:31Z</time>
      </trkpt>
      <trkpt lat="47.04362" lon="-1.17995">
        <ele>74</ele>
        <time>2012-04-30T14:33:32Z</time>
      </trkpt>
      <trkpt lat="47.04361" lon="-1.17987">
        <ele>73</ele>
        <time>2012-04-30T14:33:33Z</time>
      </trkpt>
      <trkpt lat="47.0436" lon="-1.17979">
        <ele>73</ele>
        <time>2012-04-30T14:33:34Z</time>
      </trkpt>
      <trkpt lat="47.04359" lon="-1.17961">
        <ele>73</ele>
        <time>2012-04-30T14:33:40Z</time>
      </trkpt>
      <trkpt lat="47.04357" lon="-1.17925">
        <ele>73</ele>
        <time>2012-04-30T14:33:40Z</time>
      </trkpt>
      <trkpt lat="47.04358" lon="-1.17916">
        <ele>73</ele>
        <time>2012-04-30T14:33:41Z</time>
      </trkpt>
      <trkpt lat="47.04366" lon="-1.17864">
        <ele>73</ele>
        <time>2012-04-30T14:33:47Z</time>
      </trkpt>
      <trkpt lat="47.04368" lon="-1.17854">
        <ele>73</ele>
        <time>2012-04-30T14:33:48Z</time>
      </trkpt>
      <trkpt lat="47.04369" lon="-1.17845">
        <ele>73</ele>
        <time>2012-04-30T14:33:49Z</time>
      </trkpt>
      <trkpt lat="47.04372" lon="-1.17827">
        <ele>73</ele>
        <time>2012-04-30T14:33:54Z</time>
      </trkpt>
      <trkpt lat="47.04374" lon="-1.1779">
        <ele>73</ele>
        <time>2012-04-30T14:33:55Z</time>
      </trkpt>
      <trkpt lat="47.04374" lon="-1.1778">
        <ele>73</ele>
        <time>2012-04-30T14:33:56Z</time>
      </trkpt>
      <trkpt lat="47.04373" lon="-1.17727">
        <ele>73</ele>
        <time>2012-04-30T14:34:02Z</time>
      </trkpt>
      <trkpt lat="47.04372" lon="-1.17719">
        <ele>73</ele>
        <time>2012-04-30T14:34:03Z</time>
      </trkpt>
      <trkpt lat="47.04371" lon="-1.17701">
        <ele>73</ele>
        <time>2012-04-30T14:34:09Z</time>
      </trkpt>
      <trkpt lat="47.04364" lon="-1.17655">
        <ele>73</ele>
        <time>2012-04-30T14:34:10Z</time>
      </trkpt>
      <trkpt lat="47.04361" lon="-1.17645">
        <ele>73</ele>
        <time>2012-04-30T14:34:11Z</time>
      </trkpt>
      <trkpt lat="47.04356" lon="-1.17627">
        <ele>73</ele>
        <time>2012-04-30T14:34:16Z</time>
      </trkpt>
      <trkpt lat="47.04346" lon="-1.17593">
        <ele>73</ele>
        <time>2012-04-30T14:34:17Z</time>
      </trkpt>
      <trkpt lat="47.04343" lon="-1.17584">
        <ele>73</ele>
        <time>2012-04-30T14:34:18Z</time>
      </trkpt>
      <trkpt lat="47.04338" lon="-1.17568">
        <ele>73</ele>
        <time>2012-04-30T14:34:24Z</time>
      </trkpt>
      <trkpt lat="47.04327" lon="-1.17534">
        <ele>73</ele>
        <time>2012-04-30T14:34:24Z</time>
      </trkpt>
      <trkpt lat="47.04325" lon="-1.17526">
        <ele>73</ele>
        <time>2012-04-30T14:34:25Z</time>
      </trkpt>
      <trkpt lat="47.0431" lon="-1.17477">
        <ele>73</ele>
        <time>2012-04-30T14:34:31Z</time>
      </trkpt>
      <trkpt lat="47.04308" lon="-1.17469">
        <ele>73</ele>
        <time>2012-04-30T14:34:32Z</time>
      </trkpt>
      <trkpt lat="47.04306" lon="-1.17462">
        <ele>73</ele>
        <time>2012-04-30T14:34:33Z</time>
      </trkpt>
      <trkpt lat="47.04302" lon="-1.17446">
        <ele>73</ele>
        <time>2012-04-30T14:34:38Z</time>
      </trkpt>
      <trkpt lat="47.04296" lon="-1.17413">
        <ele>73</ele>
        <time>2012-04-30T14:34:39Z</time>
      </trkpt>
      <trkpt lat="47.04295" lon="-1.17404">
        <ele>73</ele>
        <time>2012-04-30T14:34:40Z</time>
      </trkpt>
      <trkpt lat="47.04292" lon="-1.17388">
        <ele>73</ele>
        <time>2012-04-30T14:34:46Z</time>
      </trkpt>
      <trkpt lat="47.04286" lon="-1.17354">
        <ele>74</ele>
        <time>2012-04-30T14:34:46Z</time>
      </trkpt>
      <trkpt lat="47.04285" lon="-1.17346">
        <ele>74</ele>
        <time>2012-04-30T14:34:47Z</time>
      </trkpt>
      <trkpt lat="47.04282" lon="-1.1733">
        <ele>74</ele>
        <time>2012-04-30T14:34:53Z</time>
      </trkpt>
      <trkpt lat="47.04273" lon="-1.17292">
        <ele>74</ele>
        <time>2012-04-30T14:34:54Z</time>
      </trkpt>
      <trkpt lat="47.0427" lon="-1.17284">
        <ele>74</ele>
        <time>2012-04-30T14:34:55Z</time>
      </trkpt>
      <trkpt lat="47.04265" lon="-1.1727">
        <ele>74</ele>
        <time>2012-04-30T14:35:00Z</time>
      </trkpt>
      <trkpt lat="47.04256" lon="-1.1724">
        <ele>74</ele>
        <time>2012-04-30T14:35:01Z</time>
      </trkpt>
      <trkpt lat="47.04255" lon="-1.17233">
        <ele>74</ele>
        <time>2012-04-30T14:35:02Z</time>
      </trkpt>
      <trkpt lat="47.04251" lon="-1.17218">
        <ele>75</ele>
        <time>2012-04-30T14:35:08Z</time>
      </trkpt>
      <trkpt lat="47.04248" lon="-1.17186">
        <ele>76</ele>
        <time>2012-04-30T14:35:08Z</time>
      </trkpt>
      <trkpt lat="47.04248" lon="-1.17178">
        <ele>76</ele>
        <time>2012-04-30T14:35:09Z</time>
      </trkpt>
      <trkpt lat="47.04248" lon="-1.17169">
        <ele>76</ele>
        <time>2012-04-30T14:35:10Z</time>
      </trkpt>
      <trkpt lat="47.04248" lon="-1.17151">
        <ele>77</ele>
        <time>2012-04-30T14:35:15Z</time>
      </trkpt>
      <trkpt lat="47.04249" lon="-1.17118">
        <ele>77</ele>
        <time>2012-04-30T14:35:16Z</time>
      </trkpt>
      <trkpt lat="47.0425" lon="-1.17109">
        <ele>77</ele>
        <time>2012-04-30T14:35:17Z</time>
      </trkpt>
      <trkpt lat="47.04252" lon="-1.17091">
        <ele>77</ele>
        <time>2012-04-30T14:35:23Z</time>
      </trkpt>
      <trkpt lat="47.0426" lon="-1.17057">
        <ele>77</ele>
        <time>2012-04-30T14:35:23Z</time>
      </trkpt>
      <trkpt lat="47.04262" lon="-1.17049">
        <ele>77</ele>
        <time>2012-04-30T14:35:24Z</time>
      </trkpt>
      <trkpt lat="47.04267" lon="-1.17032">
        <ele>77</ele>
        <time>2012-04-30T14:35:30Z</time>
      </trkpt>
      <trkpt lat="47.04279" lon="-1.1699">
        <ele>77</ele>
        <time>2012-04-30T14:35:31Z</time>
      </trkpt>
      <trkpt lat="47.04282" lon="-1.16981">
        <ele>77</ele>
        <time>2012-04-30T14:35:32Z</time>
      </trkpt>
      <trkpt lat="47.04287" lon="-1.16964">
        <ele>77</ele>
        <time>2012-04-30T14:35:37Z</time>
      </trkpt>
      <trkpt lat="47.04292" lon="-1.16928">
        <ele>77</ele>
        <time>2012-04-30T14:35:38Z</time>
      </trkpt>
      <trkpt lat="47.04293" lon="-1.16918">
        <ele>77</ele>
        <time>2012-04-30T14:35:39Z</time>
      </trkpt>
      <trkpt lat="47.04293" lon="-1.16908">
        <ele>78</ele>
        <time>2012-04-30T14:35:40Z</time>
      </trkpt>
      <trkpt lat="47.04295" lon="-1.16848">
        <ele>78</ele>
        <time>2012-04-30T14:35:46Z</time>
      </trkpt>
      <trkpt lat="47.04295" lon="-1.16838">
        <ele>79</ele>
        <time>2012-04-30T14:35:47Z</time>
      </trkpt>
      <trkpt lat="47.04295" lon="-1.16817">
        <ele>79</ele>
        <time>2012-04-30T14:35:53Z</time>
      </trkpt>
      <trkpt lat="47.04298" lon="-1.16766">
        <ele>79</ele>
        <time>2012-04-30T14:35:54Z</time>
      </trkpt>
      <trkpt lat="47.043" lon="-1.16755">
        <ele>79</ele>
        <time>2012-04-30T14:35:55Z</time>
      </trkpt>
      <trkpt lat="47.04301" lon="-1.16734">
        <ele>79</ele>
        <time>2012-04-30T14:36:00Z</time>
      </trkpt>
      <trkpt lat="47.04306" lon="-1.16693">
        <ele>79</ele>
        <time>2012-04-30T14:36:01Z</time>
      </trkpt>
      <trkpt lat="47.04307" lon="-1.16683">
        <ele>79</ele>
        <time>2012-04-30T14:36:02Z</time>
      </trkpt>
      <trkpt lat="47.04309" lon="-1.16662">
        <ele>79</ele>
        <time>2012-04-30T14:36:08Z</time>
      </trkpt>
      <trkpt lat="47.04314" lon="-1.16622">
        <ele>79</ele>
        <time>2012-04-30T14:36:08Z</time>
      </trkpt>
      <trkpt lat="47.04315" lon="-1.16612">
        <ele>79</ele>
        <time>2012-04-30T14:36:09Z</time>
      </trkpt>
      <trkpt lat="47.04317" lon="-1.16592">
        <ele>80</ele>
        <time>2012-04-30T14:36:15Z</time>
      </trkpt>
      <trkpt lat="47.04323" lon="-1.16543">
        <ele>80</ele>
        <time>2012-04-30T14:36:16Z</time>
      </trkpt>
      <trkpt lat="47.04324" lon="-1.16533">
        <ele>80</ele>
        <time>2012-04-30T14:36:17Z</time>
      </trkpt>
      <trkpt lat="47.04326" lon="-1.16514">
        <ele>81</ele>
        <time>2012-04-30T14:36:22Z</time>
      </trkpt>
      <trkpt lat="47.04331" lon="-1.16477">
        <ele>81</ele>
        <time>2012-04-30T14:36:23Z</time>
      </trkpt>
      <trkpt lat="47.04333" lon="-1.16468">
        <ele>81</ele>
        <time>2012-04-30T14:36:24Z</time>
      </trkpt>
      <trkpt lat="47.04335" lon="-1.1645">
        <ele>81</ele>
        <time>2012-04-30T14:36:30Z</time>
      </trkpt>
      <trkpt lat="47.04342" lon="-1.16416">
        <ele>81</ele>
        <time>2012-04-30T14:36:30Z</time>
      </trkpt>
      <trkpt lat="47.04343" lon="-1.16408">
        <ele>81</ele>
        <time>2012-04-30T14:36:31Z</time>
      </trkpt>
      <trkpt lat="47.04347" lon="-1.16393">
        <ele>81</ele>
        <time>2012-04-30T14:36:37Z</time>
      </trkpt>
      <trkpt lat="47.04358" lon="-1.16356">
        <ele>81</ele>
        <time>2012-04-30T14:36:38Z</time>
      </trkpt>
      <trkpt lat="47.04361" lon="-1.16348">
        <ele>82</ele>
        <time>2012-04-30T14:36:39Z</time>
      </trkpt>
      <trkpt lat="47.04365" lon="-1.16332">
        <ele>82</ele>
        <time>2012-04-30T14:36:44Z</time>
      </trkpt>
      <trkpt lat="47.04375" lon="-1.16299">
        <ele>82</ele>
        <time>2012-04-30T14:36:45Z</time>
      </trkpt>
      <trkpt lat="47.04377" lon="-1.16291">
        <ele>82</ele>
        <time>2012-04-30T14:36:46Z</time>
      </trkpt>
      <trkpt lat="47.04392" lon="-1.16242">
        <ele>82</ele>
        <time>2012-04-30T14:36:52Z</time>
      </trkpt>
      <trkpt lat="47.04395" lon="-1.16233">
        <ele>82</ele>
        <time>2012-04-30T14:36:53Z</time>
      </trkpt>
      <trkpt lat="47.04399" lon="-1.16216">
        <ele>83</ele>
        <time>2012-04-30T14:36:59Z</time>
      </trkpt>
      <trkpt lat="47.04412" lon="-1.16175">
        <ele>83</ele>
        <time>2012-04-30T14:37:00Z</time>
      </trkpt>
      <trkpt lat="47.04415" lon="-1.16167">
        <ele>84</ele>
        <time>2012-04-30T14:37:01Z</time>
      </trkpt>
      <trkpt lat="47.04422" lon="-1.16152">
        <ele>84</ele>
        <time>2012-04-30T14:37:06Z</time>
      </trkpt>
      <trkpt lat="47.04438" lon="-1.16122">
        <ele>84</ele>
        <time>2012-04-30T14:37:07Z</time>
      </trkpt>
      <trkpt lat="47.04443" lon="-1.16115">
        <ele>84</ele>
        <time>2012-04-30T14:37:08Z</time>
      </trkpt>
      <trkpt lat="47.04448" lon="-1.16109">
        <ele>85</ele>
        <time>2012-04-30T14:37:10Z</time>
      </trkpt>
      <trkpt lat="47.04464" lon="-1.16094">
        <ele>85</ele>
        <time>2012-04-30T14:37:15Z</time>
      </trkpt>
      <trkpt lat="47.04489" lon="-1.16076">
        <ele>85</ele>
        <time>2012-04-30T14:37:16Z</time>
      </trkpt>
      <trkpt lat="47.04496" lon="-1.16072">
        <ele>85</ele>
        <time>2012-04-30T14:37:17Z</time>
      </trkpt>
      <trkpt lat="47.0451" lon="-1.16065">
        <ele>85</ele>
        <time>2012-04-30T14:37:23Z</time>
      </trkpt>
      <trkpt lat="47.0454" lon="-1.1604">
        <ele>85</ele>
        <time>2012-04-30T14:37:24Z</time>
      </trkpt>
      <trkpt lat="47.04546" lon="-1.16034">
        <ele>86</ele>
        <time>2012-04-30T14:37:25Z</time>
      </trkpt>
      <trkpt lat="47.04551" lon="-1.16026">
        <ele>86</ele>
        <time>2012-04-30T14:37:26Z</time>
      </trkpt>
      <trkpt lat="47.0456" lon="-1.1601">
        <ele>86</ele>
        <time>2012-04-30T14:37:31Z</time>
      </trkpt>
      <trkpt lat="47.04573" lon="-1.15974">
        <ele>86</ele>
        <time>2012-04-30T14:37:32Z</time>
      </trkpt>
      <trkpt lat="47.04575" lon="-1.15964">
        <ele>86</ele>
        <time>2012-04-30T14:37:33Z</time>
      </trkpt>
      <trkpt lat="47.04577" lon="-1.15954">
        <ele>86</ele>
        <time>2012-04-30T14:37:34Z</time>
      </trkpt>
      <trkpt lat="47.0458" lon="-1.15934">
        <ele>86</ele>
        <time>2012-04-30T14:37:40Z</time>
      </trkpt>
      <trkpt lat="47.04583" lon="-1.15894">
        <ele>86</ele>
        <time>2012-04-30T14:37:40Z</time>
      </trkpt>
      <trkpt lat="47.04584" lon="-1.15884">
        <ele>86</ele>
        <time>2012-04-30T14:37:41Z</time>
      </trkpt>
      <trkpt lat="47.04586" lon="-1.15864">
        <ele>86</ele>
        <time>2012-04-30T14:37:47Z</time>
      </trkpt>
      <trkpt lat="47.04591" lon="-1.15816">
        <ele>86</ele>
        <time>2012-04-30T14:37:48Z</time>
      </trkpt>
      <trkpt lat="47.04593" lon="-1.15806">
        <ele>86</ele>
        <time>2012-04-30T14:37:49Z</time>
      </trkpt>
      <trkpt lat="47.04594" lon="-1.15787">
        <ele>86</ele>
        <time>2012-04-30T14:37:54Z</time>
      </trkpt>
      <trkpt lat="47.04598" lon="-1.15748">
        <ele>86</ele>
        <time>2012-04-30T14:37:55Z</time>
      </trkpt>
      <trkpt lat="47.04599" lon="-1.15739">
        <ele>86</ele>
        <time>2012-04-30T14:37:56Z</time>
      </trkpt>
      <trkpt lat="47.04604" lon="-1.1568">
        <ele>86</ele>
        <time>2012-04-30T14:38:02Z</time>
      </trkpt>
      <trkpt lat="47.04605" lon="-1.1567">
        <ele>86</ele>
        <time>2012-04-30T14:38:03Z</time>
      </trkpt>
      <trkpt lat="47.04607" lon="-1.15652">
        <ele>86</ele>
        <time>2012-04-30T14:38:09Z</time>
      </trkpt>
      <trkpt lat="47.04613" lon="-1.15604">
        <ele>86</ele>
        <time>2012-04-30T14:38:10Z</time>
      </trkpt>
      <trkpt lat="47.04614" lon="-1.15594">
        <ele>86</ele>
        <time>2012-04-30T14:38:11Z</time>
      </trkpt>
      <trkpt lat="47.04616" lon="-1.15575">
        <ele>86</ele>
        <time>2012-04-30T14:38:17Z</time>
      </trkpt>
      <trkpt lat="47.0462" lon="-1.15537">
        <ele>86</ele>
        <time>2012-04-30T14:38:17Z</time>
      </trkpt>
      <trkpt lat="47.0462" lon="-1.15528">
        <ele>86</ele>
        <time>2012-04-30T14:38:18Z</time>
      </trkpt>
      <trkpt lat="47.04627" lon="-1.15472">
        <ele>86</ele>
        <time>2012-04-30T14:38:24Z</time>
      </trkpt>
      <trkpt lat="47.04628" lon="-1.15462">
        <ele>86</ele>
        <time>2012-04-30T14:38:25Z</time>
      </trkpt>
      <trkpt lat="47.04629" lon="-1.15453">
        <ele>86</ele>
        <time>2012-04-30T14:38:26Z</time>
      </trkpt>
      <trkpt lat="47.04631" lon="-1.15435">
        <ele>86</ele>
        <time>2012-04-30T14:38:31Z</time>
      </trkpt>
      <trkpt lat="47.04635" lon="-1.15398">
        <ele>86</ele>
        <time>2012-04-30T14:38:32Z</time>
      </trkpt>
      <trkpt lat="47.04636" lon="-1.15388">
        <ele>86</ele>
        <time>2012-04-30T14:38:33Z</time>
      </trkpt>
      <trkpt lat="47.04642" lon="-1.15332">
        <ele>86</ele>
        <time>2012-04-30T14:38:39Z</time>
      </trkpt>
      <trkpt lat="47.04642" lon="-1.15324">
        <ele>86</ele>
        <time>2012-04-30T14:38:40Z</time>
      </trkpt>
      <trkpt lat="47.04644" lon="-1.15307">
        <ele>86</ele>
        <time>2012-04-30T14:38:46Z</time>
      </trkpt>
      <trkpt lat="47.04656" lon="-1.15276">
        <ele>86</ele>
        <time>2012-04-30T14:38:47Z</time>
      </trkpt>
      <trkpt lat="47.04658" lon="-1.1527">
        <ele>86</ele>
        <time>2012-04-30T14:38:49Z</time>
      </trkpt>
      <trkpt lat="47.04659" lon="-1.15262">
        <ele>86</ele>
        <time>2012-04-30T14:38:49Z</time>
      </trkpt>
      <trkpt lat="47.04661" lon="-1.15246">
        <ele>86</ele>
        <time>2012-04-30T14:38:55Z</time>
      </trkpt>
      <trkpt lat="47.04666" lon="-1.15201">
        <ele>86</ele>
        <time>2012-04-30T14:38:56Z</time>
      </trkpt>
      <trkpt lat="47.04672" lon="-1.15146">
        <ele>86</ele>
        <time>2012-04-30T14:39:02Z</time>
      </trkpt>
      <trkpt lat="47.04673" lon="-1.15137">
        <ele>86</ele>
        <time>2012-04-30T14:39:03Z</time>
      </trkpt>
      <trkpt lat="47.04675" lon="-1.15118">
        <ele>87</ele>
        <time>2012-04-30T14:39:09Z</time>
      </trkpt>
      <trkpt lat="47.04681" lon="-1.15071">
        <ele>88</ele>
        <time>2012-04-30T14:39:10Z</time>
      </trkpt>
      <trkpt lat="47.04682" lon="-1.15062">
        <ele>89</ele>
        <time>2012-04-30T14:39:11Z</time>
      </trkpt>
      <trkpt lat="47.04687" lon="-1.15043">
        <ele>90</ele>
        <time>2012-04-30T14:39:17Z</time>
      </trkpt>
      <trkpt lat="47.04697" lon="-1.15006">
        <ele>90</ele>
        <time>2012-04-30T14:39:17Z</time>
      </trkpt>
      <trkpt lat="47.047" lon="-1.14996">
        <ele>91</ele>
        <time>2012-04-30T14:39:18Z</time>
      </trkpt>
      <trkpt lat="47.04714" lon="-1.14939">
        <ele>91</ele>
        <time>2012-04-30T14:39:24Z</time>
      </trkpt>
      <trkpt lat="47.04716" lon="-1.14928">
        <ele>91</ele>
        <time>2012-04-30T14:39:25Z</time>
      </trkpt>
      <trkpt lat="47.04718" lon="-1.14919">
        <ele>91</ele>
        <time>2012-04-30T14:39:26Z</time>
      </trkpt>
      <trkpt lat="47.04721" lon="-1.14899">
        <ele>91</ele>
        <time>2012-04-30T14:39:31Z</time>
      </trkpt>
      <trkpt lat="47.04725" lon="-1.1486">
        <ele>91</ele>
        <time>2012-04-30T14:39:32Z</time>
      </trkpt>
      <trkpt lat="47.04726" lon="-1.1485">
        <ele>91</ele>
        <time>2012-04-30T14:39:33Z</time>
      </trkpt>
      <trkpt lat="47.04727" lon="-1.14792">
        <ele>91</ele>
        <time>2012-04-30T14:39:39Z</time>
      </trkpt>
      <trkpt lat="47.04727" lon="-1.14783">
        <ele>91</ele>
        <time>2012-04-30T14:39:40Z</time>
      </trkpt>
      <trkpt lat="47.04727" lon="-1.14773">
        <ele>91</ele>
        <time>2012-04-30T14:39:41Z</time>
      </trkpt>
      <trkpt lat="47.04726" lon="-1.14754">
        <ele>91</ele>
        <time>2012-04-30T14:39:46Z</time>
      </trkpt>
      <trkpt lat="47.04727" lon="-1.1472">
        <ele>91</ele>
        <time>2012-04-30T14:39:47Z</time>
      </trkpt>
      <trkpt lat="47.04727" lon="-1.14713">
        <ele>91</ele>
        <time>2012-04-30T14:39:48Z</time>
      </trkpt>
      <trkpt lat="47.04729" lon="-1.14687">
        <ele>91</ele>
        <time>2012-04-30T14:39:54Z</time>
      </trkpt>
      <trkpt lat="47.04729" lon="-1.14682">
        <ele>91</ele>
        <time>2012-04-30T14:39:55Z</time>
      </trkpt>
      <trkpt lat="47.04729" lon="-1.14676">
        <ele>91</ele>
        <time>2012-04-30T14:39:56Z</time>
      </trkpt>
      <trkpt lat="47.04726" lon="-1.14662">
        <ele>91</ele>
        <time>2012-04-30T14:40:01Z</time>
      </trkpt>
      <trkpt lat="47.04716" lon="-1.1463">
        <ele>91</ele>
        <time>2012-04-30T14:40:02Z</time>
      </trkpt>
      <trkpt lat="47.04714" lon="-1.14621">
        <ele>91</ele>
        <time>2012-04-30T14:40:03Z</time>
      </trkpt>
      <trkpt lat="47.04711" lon="-1.14611">
        <ele>91</ele>
        <time>2012-04-30T14:40:04Z</time>
      </trkpt>
      <trkpt lat="47.04705" lon="-1.14592">
        <ele>90</ele>
        <time>2012-04-30T14:40:10Z</time>
      </trkpt>
      <trkpt lat="47.04692" lon="-1.14552">
        <ele>89</ele>
        <time>2012-04-30T14:40:10Z</time>
      </trkpt>
      <trkpt lat="47.04689" lon="-1.14541">
        <ele>89</ele>
        <time>2012-04-30T14:40:11Z</time>
      </trkpt>
      <trkpt lat="47.04683" lon="-1.14521">
        <ele>88</ele>
        <time>2012-04-30T14:40:17Z</time>
      </trkpt>
      <trkpt lat="47.04666" lon="-1.14468">
        <ele>87</ele>
        <time>2012-04-30T14:40:18Z</time>
      </trkpt>
      <trkpt lat="47.04663" lon="-1.14457">
        <ele>87</ele>
        <time>2012-04-30T14:40:19Z</time>
      </trkpt>
      <trkpt lat="47.04656" lon="-1.14436">
        <ele>87</ele>
        <time>2012-04-30T14:40:24Z</time>
      </trkpt>
      <trkpt lat="47.04642" lon="-1.14391">
        <ele>86</ele>
        <time>2012-04-30T14:40:25Z</time>
      </trkpt>
      <trkpt lat="47.04639" lon="-1.1438">
        <ele>86</ele>
        <time>2012-04-30T14:40:26Z</time>
      </trkpt>
      <trkpt lat="47.04617" lon="-1.14315">
        <ele>85</ele>
        <time>2012-04-30T14:40:32Z</time>
      </trkpt>
      <trkpt lat="47.04613" lon="-1.14304">
        <ele>85</ele>
        <time>2012-04-30T14:40:33Z</time>
      </trkpt>
      <trkpt lat="47.0461" lon="-1.14294">
        <ele>85</ele>
        <time>2012-04-30T14:40:34Z</time>
      </trkpt>
      <trkpt lat="47.04604" lon="-1.14273">
        <ele>85</ele>
        <time>2012-04-30T14:40:39Z</time>
      </trkpt>
      <trkpt lat="47.04593" lon="-1.14236">
        <ele>85</ele>
        <time>2012-04-30T14:40:40Z</time>
      </trkpt>
      <trkpt lat="47.0459" lon="-1.14228">
        <ele>85</ele>
        <time>2012-04-30T14:40:41Z</time>
      </trkpt>
      <trkpt lat="47.04568" lon="-1.142">
        <ele>85</ele>
        <time>2012-04-30T14:40:47Z</time>
      </trkpt>
      <trkpt lat="47.04563" lon="-1.14204">
        <ele>85</ele>
        <time>2012-04-30T14:40:48Z</time>
      </trkpt>
      <trkpt lat="47.04558" lon="-1.14207">
        <ele>85</ele>
        <time>2012-04-30T14:40:49Z</time>
      </trkpt>
      <trkpt lat="47.04553" lon="-1.14211">
        <ele>85</ele>
        <time>2012-04-30T14:40:50Z</time>
      </trkpt>
      <trkpt lat="47.04542" lon="-1.1422">
        <ele>85</ele>
        <time>2012-04-30T14:40:56Z</time>
      </trkpt>
      <trkpt lat="47.04518" lon="-1.14237">
        <ele>85</ele>
        <time>2012-04-30T14:40:56Z</time>
      </trkpt>
      <trkpt lat="47.04512" lon="-1.14241">
        <ele>85</ele>
        <time>2012-04-30T14:40:57Z</time>
      </trkpt>
      <trkpt lat="47.04499" lon="-1.1425">
        <ele>85</ele>
        <time>2012-04-30T14:41:03Z</time>
      </trkpt>
      <trkpt lat="47.04464" lon="-1.14274">
        <ele>85</ele>
        <time>2012-04-30T14:41:04Z</time>
      </trkpt>
      <trkpt lat="47.04457" lon="-1.14279">
        <ele>85</ele>
        <time>2012-04-30T14:41:05Z</time>
      </trkpt>
      <trkpt lat="47.04443" lon="-1.14288">
        <ele>85</ele>
        <time>2012-04-30T14:41:10Z</time>
      </trkpt>
      <trkpt lat="47.04412" lon="-1.14308">
        <ele>85</ele>
        <time>2012-04-30T14:41:11Z</time>
      </trkpt>
      <trkpt lat="47.04405" lon="-1.14313">
        <ele>85</ele>
        <time>2012-04-30T14:41:12Z</time>
      </trkpt>
      <trkpt lat="47.04364" lon="-1.14302">
        <ele>84</ele>
        <time>2012-04-30T14:41:18Z</time>
      </trkpt>
      <trkpt lat="47.04361" lon="-1.14292">
        <ele>84</ele>
        <time>2012-04-30T14:41:19Z</time>
      </trkpt>
      <trkpt lat="47.04356" lon="-1.14284">
        <ele>83</ele>
        <time>2012-04-30T14:41:20Z</time>
      </trkpt>
      <trkpt lat="47.04318" lon="-1.14251">
        <ele>82</ele>
        <time>2012-04-30T14:41:26Z</time>
      </trkpt>
      <trkpt lat="47.04311" lon="-1.14249">
        <ele>82</ele>
        <time>2012-04-30T14:41:27Z</time>
      </trkpt>
      <trkpt lat="47.04305" lon="-1.14247">
        <ele>81</ele>
        <time>2012-04-30T14:41:28Z</time>
      </trkpt>
      <trkpt lat="47.04265" lon="-1.14239">
        <ele>80</ele>
        <time>2012-04-30T14:41:34Z</time>
      </trkpt>
      <trkpt lat="47.04258" lon="-1.14238">
        <ele>79</ele>
        <time>2012-04-30T14:41:35Z</time>
      </trkpt>
      <trkpt lat="47.04245" lon="-1.14236">
        <ele>79</ele>
        <time>2012-04-30T14:41:41Z</time>
      </trkpt>
      <trkpt lat="47.04212" lon="-1.14229">
        <ele>79</ele>
        <time>2012-04-30T14:41:42Z</time>
      </trkpt>
      <trkpt lat="47.04205" lon="-1.14227">
        <ele>79</ele>
        <time>2012-04-30T14:41:43Z</time>
      </trkpt>
      <trkpt lat="47.04191" lon="-1.14224">
        <ele>79</ele>
        <time>2012-04-30T14:41:49Z</time>
      </trkpt>
      <trkpt lat="47.04163" lon="-1.14215">
        <ele>79</ele>
        <time>2012-04-30T14:41:49Z</time>
      </trkpt>
      <trkpt lat="47.04156" lon="-1.14213">
        <ele>79</ele>
        <time>2012-04-30T14:41:50Z</time>
      </trkpt>
      <trkpt lat="47.04142" lon="-1.14208">
        <ele>79</ele>
        <time>2012-04-30T14:41:56Z</time>
      </trkpt>
      <trkpt lat="47.04108" lon="-1.14197">
        <ele>79</ele>
        <time>2012-04-30T14:41:57Z</time>
      </trkpt>
      <trkpt lat="47.04102" lon="-1.14195">
        <ele>79</ele>
        <time>2012-04-30T14:41:58Z</time>
      </trkpt>
      <trkpt lat="47.0409" lon="-1.1419">
        <ele>79</ele>
        <time>2012-04-30T14:42:03Z</time>
      </trkpt>
      <trkpt lat="47.04065" lon="-1.14182">
        <ele>79</ele>
        <time>2012-04-30T14:42:04Z</time>
      </trkpt>
      <trkpt lat="47.04058" lon="-1.1418">
        <ele>79</ele>
        <time>2012-04-30T14:42:05Z</time>
      </trkpt>
      <trkpt lat="47.0402" lon="-1.14166">
        <ele>79</ele>
        <time>2012-04-30T14:42:11Z</time>
      </trkpt>
      <trkpt lat="47.04013" lon="-1.14164">
        <ele>79</ele>
        <time>2012-04-30T14:42:12Z</time>
      </trkpt>
      <trkpt lat="47.04006" lon="-1.14161">
        <ele>79</ele>
        <time>2012-04-30T14:42:13Z</time>
      </trkpt>
      <trkpt lat="47.03992" lon="-1.14156">
        <ele>79</ele>
        <time>2012-04-30T14:42:18Z</time>
      </trkpt>
      <trkpt lat="47.03965" lon="-1.14147">
        <ele>79</ele>
        <time>2012-04-30T14:42:19Z</time>
      </trkpt>
      <trkpt lat="47.03959" lon="-1.14145">
        <ele>79</ele>
        <time>2012-04-30T14:42:20Z</time>
      </trkpt>
      <trkpt lat="47.0392" lon="-1.14131">
        <ele>79</ele>
        <time>2012-04-30T14:42:26Z</time>
      </trkpt>
      <trkpt lat="47.03914" lon="-1.14129">
        <ele>79</ele>
        <time>2012-04-30T14:42:27Z</time>
      </trkpt>
      <trkpt lat="47.03908" lon="-1.14127">
        <ele>79</ele>
        <time>2012-04-30T14:42:28Z</time>
      </trkpt>
      <trkpt lat="47.03895" lon="-1.14122">
        <ele>79</ele>
        <time>2012-04-30T14:42:33Z</time>
      </trkpt>
      <trkpt lat="47.03868" lon="-1.14115">
        <ele>79</ele>
        <time>2012-04-30T14:42:34Z</time>
      </trkpt>
      <trkpt lat="47.03862" lon="-1.14114">
        <ele>79</ele>
        <time>2012-04-30T14:42:35Z</time>
      </trkpt>
      <trkpt lat="47.03823" lon="-1.14109">
        <ele>79</ele>
        <time>2012-04-30T14:42:41Z</time>
      </trkpt>
      <trkpt lat="47.03817" lon="-1.14108">
        <ele>79</ele>
        <time>2012-04-30T14:42:42Z</time>
      </trkpt>
      <trkpt lat="47.03811" lon="-1.14108">
        <ele>79</ele>
        <time>2012-04-30T14:42:43Z</time>
      </trkpt>
      <trkpt lat="47.03798" lon="-1.14107">
        <ele>79</ele>
        <time>2012-04-30T14:42:48Z</time>
      </trkpt>
      <trkpt lat="47.03771" lon="-1.14104">
        <ele>79</ele>
        <time>2012-04-30T14:42:49Z</time>
      </trkpt>
      <trkpt lat="47.03764" lon="-1.14104">
        <ele>80</ele>
        <time>2012-04-30T14:42:50Z</time>
      </trkpt>
      <trkpt lat="47.03725" lon="-1.141">
        <ele>80</ele>
        <time>2012-04-30T14:42:56Z</time>
      </trkpt>
      <trkpt lat="47.03718" lon="-1.141">
        <ele>80</ele>
        <time>2012-04-30T14:42:57Z</time>
      </trkpt>
      <trkpt lat="47.03712" lon="-1.14099">
        <ele>80</ele>
        <time>2012-04-30T14:42:58Z</time>
      </trkpt>
      <trkpt lat="47.03699" lon="-1.14098">
        <ele>80</ele>
        <time>2012-04-30T14:43:03Z</time>
      </trkpt>
      <trkpt lat="47.03674" lon="-1.14095">
        <ele>80</ele>
        <time>2012-04-30T14:43:04Z</time>
      </trkpt>
      <trkpt lat="47.03667" lon="-1.14094">
        <ele>80</ele>
        <time>2012-04-30T14:43:05Z</time>
      </trkpt>
      <trkpt lat="47.03629" lon="-1.14091">
        <ele>80</ele>
        <time>2012-04-30T14:43:11Z</time>
      </trkpt>
      <trkpt lat="47.03622" lon="-1.1409">
        <ele>81</ele>
        <time>2012-04-30T14:43:12Z</time>
      </trkpt>
      <trkpt lat="47.03615" lon="-1.14089">
        <ele>81</ele>
        <time>2012-04-30T14:43:13Z</time>
      </trkpt>
      <trkpt lat="47.03603" lon="-1.14088">
        <ele>81</ele>
        <time>2012-04-30T14:43:18Z</time>
      </trkpt>
      <trkpt lat="47.03577" lon="-1.14086">
        <ele>81</ele>
        <time>2012-04-30T14:43:19Z</time>
      </trkpt>
      <trkpt lat="47.0357" lon="-1.14086">
        <ele>81</ele>
        <time>2012-04-30T14:43:20Z</time>
      </trkpt>
      <trkpt lat="47.03534" lon="-1.14096">
        <ele>81</ele>
        <time>2012-04-30T14:43:26Z</time>
      </trkpt>
      <trkpt lat="47.03522" lon="-1.14102">
        <ele>81</ele>
        <time>2012-04-30T14:43:28Z</time>
      </trkpt>
      <trkpt lat="47.03517" lon="-1.14107">
        <ele>82</ele>
        <time>2012-04-30T14:43:29Z</time>
      </trkpt>
      <trkpt lat="47.03506" lon="-1.14115">
        <ele>82</ele>
        <time>2012-04-30T14:43:34Z</time>
      </trkpt>
      <trkpt lat="47.03488" lon="-1.14135">
        <ele>83</ele>
        <time>2012-04-30T14:43:35Z</time>
      </trkpt>
      <trkpt lat="47.03484" lon="-1.14141">
        <ele>84</ele>
        <time>2012-04-30T14:43:36Z</time>
      </trkpt>
      <trkpt lat="47.03479" lon="-1.14146">
        <ele>84</ele>
        <time>2012-04-30T14:43:37Z</time>
      </trkpt>
      <trkpt lat="47.03468" lon="-1.14158">
        <ele>85</ele>
        <time>2012-04-30T14:43:42Z</time>
      </trkpt>
      <trkpt lat="47.03446" lon="-1.14182">
        <ele>85</ele>
        <time>2012-04-30T14:43:43Z</time>
      </trkpt>
      <trkpt lat="47.0344" lon="-1.14188">
        <ele>85</ele>
        <time>2012-04-30T14:43:44Z</time>
      </trkpt>
      <trkpt lat="47.03426" lon="-1.14202">
        <ele>85</ele>
        <time>2012-04-30T14:43:50Z</time>
      </trkpt>
      <trkpt lat="47.03388" lon="-1.14239">
        <ele>85</ele>
        <time>2012-04-30T14:43:51Z</time>
      </trkpt>
      <trkpt lat="47.03379" lon="-1.14246">
        <ele>85</ele>
        <time>2012-04-30T14:43:52Z</time>
      </trkpt>
      <trkpt lat="47.03363" lon="-1.1426">
        <ele>84</ele>
        <time>2012-04-30T14:43:58Z</time>
      </trkpt>
      <trkpt lat="47.03328" lon="-1.14285">
        <ele>83</ele>
        <time>2012-04-30T14:43:58Z</time>
      </trkpt>
      <trkpt lat="47.03319" lon="-1.14292">
        <ele>82</ele>
        <time>2012-04-30T14:43:59Z</time>
      </trkpt>
      <trkpt lat="47.03301" lon="-1.14306">
        <ele>81</ele>
        <time>2012-04-30T14:44:05Z</time>
      </trkpt>
      <trkpt lat="47.03261" lon="-1.14345">
        <ele>79</ele>
        <time>2012-04-30T14:44:06Z</time>
      </trkpt>
      <trkpt lat="47.03254" lon="-1.14353">
        <ele>77</ele>
        <time>2012-04-30T14:44:07Z</time>
      </trkpt>
      <trkpt lat="47.03239" lon="-1.1437">
        <ele>75</ele>
        <time>2012-04-30T14:44:12Z</time>
      </trkpt>
      <trkpt lat="47.03213" lon="-1.14411">
        <ele>73</ele>
        <time>2012-04-30T14:44:13Z</time>
      </trkpt>
      <trkpt lat="47.03206" lon="-1.14422">
        <ele>71</ele>
        <time>2012-04-30T14:44:14Z</time>
      </trkpt>
      <trkpt lat="47.03193" lon="-1.14442">
        <ele>69</ele>
        <time>2012-04-30T14:44:20Z</time>
      </trkpt>
      <trkpt lat="47.03154" lon="-1.14479">
        <ele>67</ele>
        <time>2012-04-30T14:44:21Z</time>
      </trkpt>
      <trkpt lat="47.03146" lon="-1.14486">
        <ele>65</ele>
        <time>2012-04-30T14:44:22Z</time>
      </trkpt>
      <trkpt lat="47.03133" lon="-1.14504">
        <ele>63</ele>
        <time>2012-04-30T14:44:28Z</time>
      </trkpt>
      <trkpt lat="47.03109" lon="-1.14544">
        <ele>62</ele>
        <time>2012-04-30T14:44:28Z</time>
      </trkpt>
      <trkpt lat="47.03102" lon="-1.14554">
        <ele>61</ele>
        <time>2012-04-30T14:44:29Z</time>
      </trkpt>
      <trkpt lat="47.03086" lon="-1.1457">
        <ele>60</ele>
        <time>2012-04-30T14:44:35Z</time>
      </trkpt>
      <trkpt lat="47.03059" lon="-1.14615">
        <ele>58</ele>
        <time>2012-04-30T14:44:36Z</time>
      </trkpt>
      <trkpt lat="47.03054" lon="-1.14627">
        <ele>57</ele>
        <time>2012-04-30T14:44:37Z</time>
      </trkpt>
      <trkpt lat="47.03049" lon="-1.14639">
        <ele>55</ele>
        <time>2012-04-30T14:44:38Z</time>
      </trkpt>
      <trkpt lat="47.03041" lon="-1.14663">
        <ele>53</ele>
        <time>2012-04-30T14:44:44Z</time>
      </trkpt>
      <trkpt lat="47.0302" lon="-1.14703">
        <ele>52</ele>
        <time>2012-04-30T14:44:44Z</time>
      </trkpt>
      <trkpt lat="47.03016" lon="-1.14711">
        <ele>50</ele>
        <time>2012-04-30T14:44:45Z</time>
      </trkpt>
      <trkpt lat="47.03007" lon="-1.14726">
        <ele>49</ele>
        <time>2012-04-30T14:44:51Z</time>
      </trkpt>
      <trkpt lat="47.02976" lon="-1.14728">
        <ele>47</ele>
        <time>2012-04-30T14:44:52Z</time>
      </trkpt>
      <trkpt lat="47.02969" lon="-1.14727">
        <ele>45</ele>
        <time>2012-04-30T14:44:53Z</time>
      </trkpt>
      <trkpt lat="47.02961" lon="-1.14726">
        <ele>44</ele>
        <time>2012-04-30T14:44:54Z</time>
      </trkpt>
      <trkpt lat="47.02949" lon="-1.14726">
        <ele>43</ele>
        <time>2012-04-30T14:45:00Z</time>
      </trkpt>
      <trkpt lat="47.02937" lon="-1.14726">
        <ele>42</ele>
        <time>2012-04-30T14:45:00Z</time>
      </trkpt>
      <trkpt lat="47.02935" lon="-1.14724">
        <ele>41</ele>
        <time>2012-04-30T14:45:01Z</time>
      </trkpt>
      <trkpt lat="47.02933" lon="-1.14722">
        <ele>40</ele>
        <time>2012-04-30T14:45:02Z</time>
      </trkpt>
      <trkpt lat="47.02931" lon="-1.14718">
        <ele>39</ele>
        <time>2012-04-30T14:45:03Z</time>
      </trkpt>
      <trkpt lat="47.02925" lon="-1.14708">
        <ele>38</ele>
        <time>2012-04-30T14:45:09Z</time>
      </trkpt>
      <trkpt lat="47.02911" lon="-1.14688">
        <ele>38</ele>
        <time>2012-04-30T14:45:09Z</time>
      </trkpt>
      <trkpt lat="47.02907" lon="-1.14683">
        <ele>38</ele>
        <time>2012-04-30T14:45:10Z</time>
      </trkpt>
      <trkpt lat="47.02898" lon="-1.14673">
        <ele>38</ele>
        <time>2012-04-30T14:45:16Z</time>
      </trkpt>
      <trkpt lat="47.02875" lon="-1.1465">
        <ele>38</ele>
        <time>2012-04-30T14:45:17Z</time>
      </trkpt>
      <trkpt lat="47.02871" lon="-1.14646">
        <ele>38</ele>
        <time>2012-04-30T14:45:18Z</time>
      </trkpt>
      <trkpt lat="47.02862" lon="-1.14635">
        <ele>38</ele>
        <time>2012-04-30T14:45:24Z</time>
      </trkpt>
      <trkpt lat="47.02845" lon="-1.14611">
        <ele>38</ele>
        <time>2012-04-30T14:45:24Z</time>
      </trkpt>
      <trkpt lat="47.0284" lon="-1.14605">
        <ele>39</ele>
        <time>2012-04-30T14:45:25Z</time>
      </trkpt>
      <trkpt lat="47.02831" lon="-1.14593">
        <ele>39</ele>
        <time>2012-04-30T14:45:31Z</time>
      </trkpt>
      <trkpt lat="47.02809" lon="-1.1456">
        <ele>40</ele>
        <time>2012-04-30T14:45:32Z</time>
      </trkpt>
      <trkpt lat="47.02804" lon="-1.14553">
        <ele>40</ele>
        <time>2012-04-30T14:45:33Z</time>
      </trkpt>
      <trkpt lat="47.02795" lon="-1.14539">
        <ele>40</ele>
        <time>2012-04-30T14:45:38Z</time>
      </trkpt>
      <trkpt lat="47.02776" lon="-1.14513">
        <ele>41</ele>
        <time>2012-04-30T14:45:39Z</time>
      </trkpt>
      <trkpt lat="47.02772" lon="-1.14506">
        <ele>41</ele>
        <time>2012-04-30T14:45:40Z</time>
      </trkpt>
      <trkpt lat="47.02764" lon="-1.14494">
        <ele>41</ele>
        <time>2012-04-30T14:45:46Z</time>
      </trkpt>
      <trkpt lat="47.02746" lon="-1.1446">
        <ele>42</ele>
        <time>2012-04-30T14:45:47Z</time>
      </trkpt>
      <trkpt lat="47.02743" lon="-1.14453">
        <ele>42</ele>
        <time>2012-04-30T14:45:48Z</time>
      </trkpt>
      <trkpt lat="47.02738" lon="-1.14438">
        <ele>42</ele>
        <time>2012-04-30T14:45:53Z</time>
      </trkpt>
      <trkpt lat="47.02729" lon="-1.14408">
        <ele>43</ele>
        <time>2012-04-30T14:45:54Z</time>
      </trkpt>
      <trkpt lat="47.02728" lon="-1.144">
        <ele>43</ele>
        <time>2012-04-30T14:45:55Z</time>
      </trkpt>
      <trkpt lat="47.02726" lon="-1.14385">
        <ele>43</ele>
        <time>2012-04-30T14:46:01Z</time>
      </trkpt>
      <trkpt lat="47.02724" lon="-1.14347">
        <ele>43</ele>
        <time>2012-04-30T14:46:02Z</time>
      </trkpt>
      <trkpt lat="47.02724" lon="-1.14339">
        <ele>43</ele>
        <time>2012-04-30T14:46:03Z</time>
      </trkpt>
      <trkpt lat="47.02725" lon="-1.14323">
        <ele>43</ele>
        <time>2012-04-30T14:46:08Z</time>
      </trkpt>
      <trkpt lat="47.02726" lon="-1.14291">
        <ele>44</ele>
        <time>2012-04-30T14:46:09Z</time>
      </trkpt>
      <trkpt lat="47.02726" lon="-1.14283">
        <ele>44</ele>
        <time>2012-04-30T14:46:10Z</time>
      </trkpt>
      <trkpt lat="47.02726" lon="-1.14267">
        <ele>45</ele>
        <time>2012-04-30T14:46:16Z</time>
      </trkpt>
      <trkpt lat="47.02722" lon="-1.14227">
        <ele>45</ele>
        <time>2012-04-30T14:46:17Z</time>
      </trkpt>
      <trkpt lat="47.02721" lon="-1.14219">
        <ele>45</ele>
        <time>2012-04-30T14:46:18Z</time>
      </trkpt>
      <trkpt lat="47.02719" lon="-1.14211">
        <ele>46</ele>
        <time>2012-04-30T14:46:19Z</time>
      </trkpt>
      <trkpt lat="47.02716" lon="-1.14195">
        <ele>46</ele>
        <time>2012-04-30T14:46:25Z</time>
      </trkpt>
      <trkpt lat="47.02708" lon="-1.14164">
        <ele>46</ele>
        <time>2012-04-30T14:46:25Z</time>
      </trkpt>
      <trkpt lat="47.02707" lon="-1.14156">
        <ele>46</ele>
        <time>2012-04-30T14:46:26Z</time>
      </trkpt>
      <trkpt lat="47.02703" lon="-1.1414">
        <ele>46</ele>
        <time>2012-04-30T14:46:32Z</time>
      </trkpt>
      <trkpt lat="47.02694" lon="-1.14099">
        <ele>46</ele>
        <time>2012-04-30T14:46:33Z</time>
      </trkpt>
      <trkpt lat="47.02692" lon="-1.14091">
        <ele>47</ele>
        <time>2012-04-30T14:46:34Z</time>
      </trkpt>
      <trkpt lat="47.02689" lon="-1.14075">
        <ele>47</ele>
        <time>2012-04-30T14:46:40Z</time>
      </trkpt>
      <trkpt lat="47.02681" lon="-1.14043">
        <ele>47</ele>
        <time>2012-04-30T14:46:40Z</time>
      </trkpt>
      <trkpt lat="47.0268" lon="-1.14035">
        <ele>47</ele>
        <time>2012-04-30T14:46:41Z</time>
      </trkpt>
      <trkpt lat="47.02677" lon="-1.14018">
        <ele>48</ele>
        <time>2012-04-30T14:46:47Z</time>
      </trkpt>
      <trkpt lat="47.02673" lon="-1.13977">
        <ele>48</ele>
        <time>2012-04-30T14:46:48Z</time>
      </trkpt>
      <trkpt lat="47.02673" lon="-1.13969">
        <ele>49</ele>
        <time>2012-04-30T14:46:49Z</time>
      </trkpt>
      <trkpt lat="47.02673" lon="-1.13961">
        <ele>49</ele>
        <time>2012-04-30T14:46:50Z</time>
      </trkpt>
      <trkpt lat="47.02674" lon="-1.13945">
        <ele>49</ele>
        <time>2012-04-30T14:46:55Z</time>
      </trkpt>
      <trkpt lat="47.0268" lon="-1.13915">
        <ele>50</ele>
        <time>2012-04-30T14:46:56Z</time>
      </trkpt>
      <trkpt lat="47.02682" lon="-1.13908">
        <ele>50</ele>
        <time>2012-04-30T14:46:57Z</time>
      </trkpt>
      <trkpt lat="47.02685" lon="-1.13901">
        <ele>51</ele>
        <time>2012-04-30T14:46:58Z</time>
      </trkpt>
      <trkpt lat="47.0269" lon="-1.1389">
        <ele>51</ele>
        <time>2012-04-30T14:47:03Z</time>
      </trkpt>
      <trkpt lat="47.02702" lon="-1.13872">
        <ele>52</ele>
        <time>2012-04-30T14:47:04Z</time>
      </trkpt>
      <trkpt lat="47.02706" lon="-1.13868">
        <ele>53</ele>
        <time>2012-04-30T14:47:05Z</time>
      </trkpt>
      <trkpt lat="47.0271" lon="-1.13864">
        <ele>54</ele>
        <time>2012-04-30T14:47:06Z</time>
      </trkpt>
      <trkpt lat="47.02717" lon="-1.13858">
        <ele>54</ele>
        <time>2012-04-30T14:47:12Z</time>
      </trkpt>
      <trkpt lat="47.02732" lon="-1.13848">
        <ele>55</ele>
        <time>2012-04-30T14:47:12Z</time>
      </trkpt>
      <trkpt lat="47.02737" lon="-1.13846">
        <ele>56</ele>
        <time>2012-04-30T14:47:13Z</time>
      </trkpt>
      <trkpt lat="47.02745" lon="-1.13842">
        <ele>56</ele>
        <time>2012-04-30T14:47:19Z</time>
      </trkpt>
      <trkpt lat="47.02765" lon="-1.13839">
        <ele>57</ele>
        <time>2012-04-30T14:47:20Z</time>
      </trkpt>
      <trkpt lat="47.02769" lon="-1.13839">
        <ele>58</ele>
        <time>2012-04-30T14:47:21Z</time>
      </trkpt>
      <trkpt lat="47.02773" lon="-1.13839">
        <ele>59</ele>
        <time>2012-04-30T14:47:22Z</time>
      </trkpt>
      <trkpt lat="47.0278" lon="-1.13839">
        <ele>60</ele>
        <time>2012-04-30T14:47:27Z</time>
      </trkpt>
      <trkpt lat="47.02796" lon="-1.13837">
        <ele>61</ele>
        <time>2012-04-30T14:47:28Z</time>
      </trkpt>
      <trkpt lat="47.028" lon="-1.13836">
        <ele>62</ele>
        <time>2012-04-30T14:47:29Z</time>
      </trkpt>
      <trkpt lat="47.02807" lon="-1.13833">
        <ele>63</ele>
        <time>2012-04-30T14:47:35Z</time>
      </trkpt>
      <trkpt lat="47.02824" lon="-1.13818">
        <ele>64</ele>
        <time>2012-04-30T14:47:36Z</time>
      </trkpt>
      <trkpt lat="47.02827" lon="-1.13814">
        <ele>65</ele>
        <time>2012-04-30T14:47:37Z</time>
      </trkpt>
      <trkpt lat="47.02829" lon="-1.13809">
        <ele>66</ele>
        <time>2012-04-30T14:47:38Z</time>
      </trkpt>
      <trkpt lat="47.02834" lon="-1.13798">
        <ele>67</ele>
        <time>2012-04-30T14:47:43Z</time>
      </trkpt>
      <trkpt lat="47.02839" lon="-1.13777">
        <ele>68</ele>
        <time>2012-04-30T14:47:44Z</time>
      </trkpt>
      <trkpt lat="47.02839" lon="-1.13772">
        <ele>68</ele>
        <time>2012-04-30T14:47:45Z</time>
      </trkpt>
      <trkpt lat="47.0284" lon="-1.13767">
        <ele>68</ele>
        <time>2012-04-30T14:47:46Z</time>
      </trkpt>
      <trkpt lat="47.02841" lon="-1.13756">
        <ele>68</ele>
        <time>2012-04-30T14:47:51Z</time>
      </trkpt>
      <trkpt lat="47.02843" lon="-1.13736">
        <ele>69</ele>
        <time>2012-04-30T14:47:52Z</time>
      </trkpt>
      <trkpt lat="47.02843" lon="-1.13731">
        <ele>70</ele>
        <time>2012-04-30T14:47:53Z</time>
      </trkpt>
      <trkpt lat="47.02844" lon="-1.13721">
        <ele>70</ele>
        <time>2012-04-30T14:47:59Z</time>
      </trkpt>
      <trkpt lat="47.02845" lon="-1.13694">
        <ele>71</ele>
        <time>2012-04-30T14:48:00Z</time>
      </trkpt>
      <trkpt lat="47.02845" lon="-1.13689">
        <ele>72</ele>
        <time>2012-04-30T14:48:01Z</time>
      </trkpt>
      <trkpt lat="47.02846" lon="-1.13678">
        <ele>73</ele>
        <time>2012-04-30T14:48:06Z</time>
      </trkpt>
      <trkpt lat="47.02848" lon="-1.13657">
        <ele>74</ele>
        <time>2012-04-30T14:48:07Z</time>
      </trkpt>
      <trkpt lat="47.02849" lon="-1.13652">
        <ele>75</ele>
        <time>2012-04-30T14:48:08Z</time>
      </trkpt>
      <trkpt lat="47.0285" lon="-1.13643">
        <ele>76</ele>
        <time>2012-04-30T14:48:14Z</time>
      </trkpt>
      <trkpt lat="47.02853" lon="-1.13619">
        <ele>77</ele>
        <time>2012-04-30T14:48:15Z</time>
      </trkpt>
      <trkpt lat="47.02854" lon="-1.13614">
        <ele>78</ele>
        <time>2012-04-30T14:48:16Z</time>
      </trkpt>
      <trkpt lat="47.02856" lon="-1.13605">
        <ele>79</ele>
        <time>2012-04-30T14:48:21Z</time>
      </trkpt>
      <trkpt lat="47.02859" lon="-1.13584">
        <ele>80</ele>
        <time>2012-04-30T14:48:22Z</time>
      </trkpt>
      <trkpt lat="47.0286" lon="-1.13579">
        <ele>80</ele>
        <time>2012-04-30T14:48:23Z</time>
      </trkpt>
      <trkpt lat="47.02866" lon="-1.13547">
        <ele>80</ele>
        <time>2012-04-30T14:48:29Z</time>
      </trkpt>
      <trkpt lat="47.02868" lon="-1.13542">
        <ele>81</ele>
        <time>2012-04-30T14:48:30Z</time>
      </trkpt>
      <trkpt lat="47.02868" lon="-1.13537">
        <ele>81</ele>
        <time>2012-04-30T14:48:31Z</time>
      </trkpt>
      <trkpt lat="47.0287" lon="-1.13525">
        <ele>81</ele>
        <time>2012-04-30T14:48:36Z</time>
      </trkpt>
      <trkpt lat="47.02874" lon="-1.13502">
        <ele>82</ele>
        <time>2012-04-30T14:48:37Z</time>
      </trkpt>
      <trkpt lat="47.02876" lon="-1.13496">
        <ele>82</ele>
        <time>2012-04-30T14:48:38Z</time>
      </trkpt>
      <trkpt lat="47.02879" lon="-1.13484">
        <ele>82</ele>
        <time>2012-04-30T14:48:44Z</time>
      </trkpt>
      <trkpt lat="47.02886" lon="-1.13451">
        <ele>83</ele>
        <time>2012-04-30T14:48:45Z</time>
      </trkpt>
      <trkpt lat="47.02888" lon="-1.13444">
        <ele>83</ele>
        <time>2012-04-30T14:48:46Z</time>
      </trkpt>
      <trkpt lat="47.02891" lon="-1.13431">
        <ele>83</ele>
        <time>2012-04-30T14:48:51Z</time>
      </trkpt>
      <trkpt lat="47.02898" lon="-1.13403">
        <ele>83</ele>
        <time>2012-04-30T14:48:52Z</time>
      </trkpt>
      <trkpt lat="47.029" lon="-1.13396">
        <ele>83</ele>
        <time>2012-04-30T14:48:53Z</time>
      </trkpt>
      <trkpt lat="47.02903" lon="-1.13382">
        <ele>83</ele>
        <time>2012-04-30T14:48:59Z</time>
      </trkpt>
      <trkpt lat="47.02914" lon="-1.13347">
        <ele>83</ele>
        <time>2012-04-30T14:49:00Z</time>
      </trkpt>
      <trkpt lat="47.02916" lon="-1.13339">
        <ele>83</ele>
        <time>2012-04-30T14:49:01Z</time>
      </trkpt>
      <trkpt lat="47.02921" lon="-1.13325">
        <ele>83</ele>
        <time>2012-04-30T14:49:06Z</time>
      </trkpt>
      <trkpt lat="47.02931" lon="-1.13297">
        <ele>84</ele>
        <time>2012-04-30T14:49:07Z</time>
      </trkpt>
      <trkpt lat="47.02934" lon="-1.1329">
        <ele>84</ele>
        <time>2012-04-30T14:49:08Z</time>
      </trkpt>
      <trkpt lat="47.0295" lon="-1.13246">
        <ele>84</ele>
        <time>2012-04-30T14:49:14Z</time>
      </trkpt>
      <trkpt lat="47.02953" lon="-1.13238">
        <ele>84</ele>
        <time>2012-04-30T14:49:15Z</time>
      </trkpt>
      <trkpt lat="47.02955" lon="-1.13231">
        <ele>84</ele>
        <time>2012-04-30T14:49:16Z</time>
      </trkpt>
      <trkpt lat="47.02961" lon="-1.13215">
        <ele>84</ele>
        <time>2012-04-30T14:49:21Z</time>
      </trkpt>
      <trkpt lat="47.02972" lon="-1.13185">
        <ele>84</ele>
        <time>2012-04-30T14:49:22Z</time>
      </trkpt>
      <trkpt lat="47.02975" lon="-1.13177">
        <ele>84</ele>
        <time>2012-04-30T14:49:23Z</time>
      </trkpt>
      <trkpt lat="47.02981" lon="-1.13162">
        <ele>84</ele>
        <time>2012-04-30T14:49:29Z</time>
      </trkpt>
      <trkpt lat="47.02996" lon="-1.13124">
        <ele>84</ele>
        <time>2012-04-30T14:49:30Z</time>
      </trkpt>
      <trkpt lat="47.02998" lon="-1.13116">
        <ele>84</ele>
        <time>2012-04-30T14:49:31Z</time>
      </trkpt>
      <trkpt lat="47.03004" lon="-1.13101">
        <ele>84</ele>
        <time>2012-04-30T14:49:36Z</time>
      </trkpt>
      <trkpt lat="47.03016" lon="-1.1307">
        <ele>84</ele>
        <time>2012-04-30T14:49:37Z</time>
      </trkpt>
      <trkpt lat="47.03019" lon="-1.13063">
        <ele>84</ele>
        <time>2012-04-30T14:49:38Z</time>
      </trkpt>
      <trkpt lat="47.03025" lon="-1.13048">
        <ele>84</ele>
        <time>2012-04-30T14:49:44Z</time>
      </trkpt>
      <trkpt lat="47.03039" lon="-1.13011">
        <ele>84</ele>
        <time>2012-04-30T14:49:45Z</time>
      </trkpt>
      <trkpt lat="47.03041" lon="-1.13003">
        <ele>84</ele>
        <time>2012-04-30T14:49:46Z</time>
      </trkpt>
      <trkpt lat="47.03047" lon="-1.12988">
        <ele>84</ele>
        <time>2012-04-30T14:49:51Z</time>
      </trkpt>
      <trkpt lat="47.03058" lon="-1.1296">
        <ele>84</ele>
        <time>2012-04-30T14:49:52Z</time>
      </trkpt>
      <trkpt lat="47.03061" lon="-1.12954">
        <ele>84</ele>
        <time>2012-04-30T14:49:53Z</time>
      </trkpt>
      <trkpt lat="47.03067" lon="-1.12941">
        <ele>84</ele>
        <time>2012-04-30T14:49:59Z</time>
      </trkpt>
      <trkpt lat="47.03085" lon="-1.12912">
        <ele>85</ele>
        <time>2012-04-30T14:50:00Z</time>
      </trkpt>
      <trkpt lat="47.03088" lon="-1.12907">
        <ele>85</ele>
        <time>2012-04-30T14:50:01Z</time>
      </trkpt>
      <trkpt lat="47.03096" lon="-1.12897">
        <ele>86</ele>
        <time>2012-04-30T14:50:06Z</time>
      </trkpt>
      <trkpt lat="47.03112" lon="-1.12874">
        <ele>86</ele>
        <time>2012-04-30T14:50:07Z</time>
      </trkpt>
      <trkpt lat="47.03116" lon="-1.12867">
        <ele>87</ele>
        <time>2012-04-30T14:50:08Z</time>
      </trkpt>
      <trkpt lat="47.03122" lon="-1.12855">
        <ele>88</ele>
        <time>2012-04-30T14:50:14Z</time>
      </trkpt>
      <trkpt lat="47.03134" lon="-1.12819">
        <ele>88</ele>
        <time>2012-04-30T14:50:15Z</time>
      </trkpt>
      <trkpt lat="47.03135" lon="-1.12812">
        <ele>88</ele>
        <time>2012-04-30T14:50:16Z</time>
      </trkpt>
      <trkpt lat="47.03136" lon="-1.12804">
        <ele>89</ele>
        <time>2012-04-30T14:50:17Z</time>
      </trkpt>
      <trkpt lat="47.03139" lon="-1.12788">
        <ele>89</ele>
        <time>2012-04-30T14:50:23Z</time>
      </trkpt>
      <trkpt lat="47.03145" lon="-1.12756">
        <ele>89</ele>
        <time>2012-04-30T14:50:23Z</time>
      </trkpt>
      <trkpt lat="47.03146" lon="-1.12748">
        <ele>89</ele>
        <time>2012-04-30T14:50:24Z</time>
      </trkpt>
      <trkpt lat="47.0315" lon="-1.12733">
        <ele>89</ele>
        <time>2012-04-30T14:50:30Z</time>
      </trkpt>
      <trkpt lat="47.03159" lon="-1.12694">
        <ele>89</ele>
        <time>2012-04-30T14:50:31Z</time>
      </trkpt>
      <trkpt lat="47.03161" lon="-1.12686">
        <ele>89</ele>
        <time>2012-04-30T14:50:32Z</time>
      </trkpt>
      <trkpt lat="47.03165" lon="-1.12671">
        <ele>89</ele>
        <time>2012-04-30T14:50:38Z</time>
      </trkpt>
      <trkpt lat="47.03172" lon="-1.12639">
        <ele>89</ele>
        <time>2012-04-30T14:50:38Z</time>
      </trkpt>
      <trkpt lat="47.03174" lon="-1.12632">
        <ele>89</ele>
        <time>2012-04-30T14:50:39Z</time>
      </trkpt>
      <trkpt lat="47.03178" lon="-1.12616">
        <ele>89</ele>
        <time>2012-04-30T14:50:45Z</time>
      </trkpt>
      <trkpt lat="47.03188" lon="-1.12576">
        <ele>90</ele>
        <time>2012-04-30T14:50:46Z</time>
      </trkpt>
      <trkpt lat="47.0319" lon="-1.12568">
        <ele>90</ele>
        <time>2012-04-30T14:50:47Z</time>
      </trkpt>
      <trkpt lat="47.03194" lon="-1.12553">
        <ele>90</ele>
        <time>2012-04-30T14:50:52Z</time>
      </trkpt>
      <trkpt lat="47.03202" lon="-1.12523">
        <ele>90</ele>
        <time>2012-04-30T14:50:53Z</time>
      </trkpt>
      <trkpt lat="47.03204" lon="-1.12516">
        <ele>91</ele>
        <time>2012-04-30T14:50:54Z</time>
      </trkpt>
      <trkpt lat="47.03207" lon="-1.12501">
        <ele>91</ele>
        <time>2012-04-30T14:51:00Z</time>
      </trkpt>
      <trkpt lat="47.03217" lon="-1.1246">
        <ele>91</ele>
        <time>2012-04-30T14:51:01Z</time>
      </trkpt>
      <trkpt lat="47.03218" lon="-1.12452">
        <ele>91</ele>
        <time>2012-04-30T14:51:02Z</time>
      </trkpt>
      <trkpt lat="47.0322" lon="-1.12436">
        <ele>91</ele>
        <time>2012-04-30T14:51:07Z</time>
      </trkpt>
      <trkpt lat="47.0322" lon="-1.12404">
        <ele>91</ele>
        <time>2012-04-30T14:51:08Z</time>
      </trkpt>
      <trkpt lat="47.03222" lon="-1.12396">
        <ele>91</ele>
        <time>2012-04-30T14:51:09Z</time>
      </trkpt>
      <trkpt lat="47.03226" lon="-1.12391">
        <ele>91</ele>
        <time>2012-04-30T14:51:10Z</time>
      </trkpt>
      <trkpt lat="47.03261" lon="-1.12372">
        <ele>91</ele>
        <time>2012-04-30T14:51:17Z</time>
      </trkpt>
      <trkpt lat="47.03265" lon="-1.12368">
        <ele>91</ele>
        <time>2012-04-30T14:51:18Z</time>
      </trkpt>
      <trkpt lat="47.03295" lon="-1.12346">
        <ele>91</ele>
        <time>2012-04-30T14:51:24Z</time>
      </trkpt>
      <trkpt lat="47.03301" lon="-1.12342">
        <ele>91</ele>
        <time>2012-04-30T14:51:25Z</time>
      </trkpt>
      <trkpt lat="47.0331" lon="-1.12335">
        <ele>91</ele>
        <time>2012-04-30T14:51:31Z</time>
      </trkpt>
      <trkpt lat="47.03331" lon="-1.12318">
        <ele>91</ele>
        <time>2012-04-30T14:51:32Z</time>
      </trkpt>
      <trkpt lat="47.03336" lon="-1.12314">
        <ele>91</ele>
        <time>2012-04-30T14:51:33Z</time>
      </trkpt>
      <trkpt lat="47.03367" lon="-1.12293">
        <ele>91</ele>
        <time>2012-04-30T14:51:39Z</time>
      </trkpt>
      <trkpt lat="47.03372" lon="-1.12289">
        <ele>92</ele>
        <time>2012-04-30T14:51:40Z</time>
      </trkpt>
      <trkpt lat="47.03382" lon="-1.12281">
        <ele>93</ele>
        <time>2012-04-30T14:51:46Z</time>
      </trkpt>
      <trkpt lat="47.03408" lon="-1.12261">
        <ele>94</ele>
        <time>2012-04-30T14:51:47Z</time>
      </trkpt>
      <trkpt lat="47.03413" lon="-1.12258">
        <ele>94</ele>
        <time>2012-04-30T14:51:48Z</time>
      </trkpt>
      <trkpt lat="47.03423" lon="-1.1225">
        <ele>95</ele>
        <time>2012-04-30T14:51:54Z</time>
      </trkpt>
      <trkpt lat="47.03442" lon="-1.12236">
        <ele>95</ele>
        <time>2012-04-30T14:51:54Z</time>
      </trkpt>
      <trkpt lat="47.03447" lon="-1.12232">
        <ele>95</ele>
        <time>2012-04-30T14:51:55Z</time>
      </trkpt>
      <trkpt lat="47.03457" lon="-1.12224">
        <ele>96</ele>
        <time>2012-04-30T14:52:01Z</time>
      </trkpt>
      <trkpt lat="47.03481" lon="-1.12207">
        <ele>97</ele>
        <time>2012-04-30T14:52:02Z</time>
      </trkpt>
      <trkpt lat="47.03486" lon="-1.12204">
        <ele>98</ele>
        <time>2012-04-30T14:52:03Z</time>
      </trkpt>
      <trkpt lat="47.03495" lon="-1.12198">
        <ele>99</ele>
        <time>2012-04-30T14:52:09Z</time>
      </trkpt>
      <trkpt lat="47.03513" lon="-1.12185">
        <ele>100</ele>
        <time>2012-04-30T14:52:09Z</time>
      </trkpt>
      <trkpt lat="47.03518" lon="-1.12182">
        <ele>101</ele>
        <time>2012-04-30T14:52:10Z</time>
      </trkpt>
      <trkpt lat="47.03526" lon="-1.12176">
        <ele>102</ele>
        <time>2012-04-30T14:52:16Z</time>
      </trkpt>
      <trkpt lat="47.03545" lon="-1.12156">
        <ele>103</ele>
        <time>2012-04-30T14:52:17Z</time>
      </trkpt>
      <trkpt lat="47.03548" lon="-1.12151">
        <ele>104</ele>
        <time>2012-04-30T14:52:18Z</time>
      </trkpt>
      <trkpt lat="47.03552" lon="-1.12146">
        <ele>104</ele>
        <time>2012-04-30T14:52:19Z</time>
      </trkpt>
      <trkpt lat="47.03579" lon="-1.12108">
        <ele>104</ele>
        <time>2012-04-30T14:52:25Z</time>
      </trkpt>
      <trkpt lat="47.03584" lon="-1.12101">
        <ele>104</ele>
        <time>2012-04-30T14:52:26Z</time>
      </trkpt>
      <trkpt lat="47.03593" lon="-1.12087">
        <ele>104</ele>
        <time>2012-04-30T14:52:32Z</time>
      </trkpt>
      <trkpt lat="47.0361" lon="-1.12055">
        <ele>104</ele>
        <time>2012-04-30T14:52:33Z</time>
      </trkpt>
      <trkpt lat="47.03613" lon="-1.12048">
        <ele>104</ele>
        <time>2012-04-30T14:52:34Z</time>
      </trkpt>
      <trkpt lat="47.03615" lon="-1.12041">
        <ele>104</ele>
        <time>2012-04-30T14:52:35Z</time>
      </trkpt>
      <trkpt lat="47.03622" lon="-1.11995">
        <ele>104</ele>
        <time>2012-04-30T14:52:41Z</time>
      </trkpt>
      <trkpt lat="47.03622" lon="-1.11987">
        <ele>104</ele>
        <time>2012-04-30T14:52:42Z</time>
      </trkpt>
      <trkpt lat="47.03623" lon="-1.11978">
        <ele>104</ele>
        <time>2012-04-30T14:52:43Z</time>
      </trkpt>
      <trkpt lat="47.03626" lon="-1.11964">
        <ele>104</ele>
        <time>2012-04-30T14:52:49Z</time>
      </trkpt>
      <trkpt lat="47.0364" lon="-1.11938">
        <ele>104</ele>
        <time>2012-04-30T14:52:49Z</time>
      </trkpt>
      <trkpt lat="47.03644" lon="-1.11931">
        <ele>104</ele>
        <time>2012-04-30T14:52:50Z</time>
      </trkpt>
      <trkpt lat="47.03648" lon="-1.11924">
        <ele>104</ele>
        <time>2012-04-30T14:52:51Z</time>
      </trkpt>
      <trkpt lat="47.03655" lon="-1.11911">
        <ele>104</ele>
        <time>2012-04-30T14:52:57Z</time>
      </trkpt>
      <trkpt lat="47.03676" lon="-1.11881">
        <ele>104</ele>
        <time>2012-04-30T14:52:58Z</time>
      </trkpt>
      <trkpt lat="47.0368" lon="-1.11875">
        <ele>104</ele>
        <time>2012-04-30T14:52:59Z</time>
      </trkpt>
      <trkpt lat="47.03686" lon="-1.11863">
        <ele>104</ele>
        <time>2012-04-30T14:53:05Z</time>
      </trkpt>
      <trkpt lat="47.03693" lon="-1.11849">
        <ele>104</ele>
        <time>2012-04-30T14:53:05Z</time>
      </trkpt>
      <trkpt lat="47.03694" lon="-1.11847">
        <ele>104</ele>
        <time>2012-04-30T14:53:06Z</time>
      </trkpt>
      <trkpt lat="47.03696" lon="-1.11844">
        <ele>104</ele>
        <time>2012-04-30T14:53:12Z</time>
      </trkpt>
      <trkpt lat="47.03699" lon="-1.11835">
        <ele>104</ele>
        <time>2012-04-30T14:53:13Z</time>
      </trkpt>
      <trkpt lat="47.037" lon="-1.11832">
        <ele>104</ele>
        <time>2012-04-30T14:53:14Z</time>
      </trkpt>
      <trkpt lat="47.03705" lon="-1.11821">
        <ele>104</ele>
        <time>2012-04-30T14:53:20Z</time>
      </trkpt>
      <trkpt lat="47.03718" lon="-1.118">
        <ele>103</ele>
        <time>2012-04-30T14:53:20Z</time>
      </trkpt>
      <trkpt lat="47.03722" lon="-1.11796">
        <ele>103</ele>
        <time>2012-04-30T14:53:21Z</time>
      </trkpt>
      <trkpt lat="47.03726" lon="-1.11792">
        <ele>103</ele>
        <time>2012-04-30T14:53:22Z</time>
      </trkpt>
      <trkpt lat="47.03733" lon="-1.11784">
        <ele>102</ele>
        <time>2012-04-30T14:53:28Z</time>
      </trkpt>
      <trkpt lat="47.03751" lon="-1.1177">
        <ele>102</ele>
        <time>2012-04-30T14:53:28Z</time>
      </trkpt>
      <trkpt lat="47.03755" lon="-1.11765">
        <ele>102</ele>
        <time>2012-04-30T14:53:29Z</time>
      </trkpt>
      <trkpt lat="47.03762" lon="-1.11756">
        <ele>102</ele>
        <time>2012-04-30T14:53:35Z</time>
      </trkpt>
      <trkpt lat="47.03757" lon="-1.1173">
        <ele>102</ele>
        <time>2012-04-30T14:53:36Z</time>
      </trkpt>
      <trkpt lat="47.03753" lon="-1.11725">
        <ele>102</ele>
        <time>2012-04-30T14:53:37Z</time>
      </trkpt>
      <trkpt lat="47.03749" lon="-1.11719">
        <ele>102</ele>
        <time>2012-04-30T14:53:38Z</time>
      </trkpt>
      <trkpt lat="47.03742" lon="-1.11709">
        <ele>102</ele>
        <time>2012-04-30T14:53:44Z</time>
      </trkpt>
      <trkpt lat="47.03727" lon="-1.11688">
        <ele>102</ele>
        <time>2012-04-30T14:53:44Z</time>
      </trkpt>
      <trkpt lat="47.03723" lon="-1.11682">
        <ele>102</ele>
        <time>2012-04-30T14:53:45Z</time>
      </trkpt>
      <trkpt lat="47.03716" lon="-1.1167">
        <ele>102</ele>
        <time>2012-04-30T14:53:51Z</time>
      </trkpt>
      <trkpt lat="47.03701" lon="-1.11643">
        <ele>102</ele>
        <time>2012-04-30T14:53:52Z</time>
      </trkpt>
      <trkpt lat="47.03698" lon="-1.11638">
        <ele>102</ele>
        <time>2012-04-30T14:53:53Z</time>
      </trkpt>
      <trkpt lat="47.03694" lon="-1.11629">
        <ele>102</ele>
        <time>2012-04-30T14:53:59Z</time>
      </trkpt>
      <trkpt lat="47.03704" lon="-1.11607">
        <ele>102</ele>
        <time>2012-04-30T14:53:59Z</time>
      </trkpt>
      <trkpt lat="47.03708" lon="-1.11602">
        <ele>102</ele>
        <time>2012-04-30T14:54:00Z</time>
      </trkpt>
      <trkpt lat="47.03711" lon="-1.11597">
        <ele>102</ele>
        <time>2012-04-30T14:54:01Z</time>
      </trkpt>
      <trkpt lat="47.03717" lon="-1.11585">
        <ele>102</ele>
        <time>2012-04-30T14:54:07Z</time>
      </trkpt>
      <trkpt lat="47.03725" lon="-1.11562">
        <ele>102</ele>
        <time>2012-04-30T14:54:07Z</time>
      </trkpt>
      <trkpt lat="47.03728" lon="-1.11557">
        <ele>102</ele>
        <time>2012-04-30T14:54:08Z</time>
      </trkpt>
      <trkpt lat="47.03732" lon="-1.11547">
        <ele>102</ele>
        <time>2012-04-30T14:54:14Z</time>
      </trkpt>
      <trkpt lat="47.03741" lon="-1.11528">
        <ele>102</ele>
        <time>2012-04-30T14:54:15Z</time>
      </trkpt>
      <trkpt lat="47.03743" lon="-1.11525">
        <ele>102</ele>
        <time>2012-04-30T14:54:16Z</time>
      </trkpt>
      <trkpt lat="47.03745" lon="-1.11521">
        <ele>102</ele>
        <time>2012-04-30T14:54:22Z</time>
      </trkpt>
      <trkpt lat="47.03744" lon="-1.11502">
        <ele>102</ele>
        <time>2012-04-30T14:54:22Z</time>
      </trkpt>
      <trkpt lat="47.03743" lon="-1.11496">
        <ele>102</ele>
        <time>2012-04-30T14:54:23Z</time>
      </trkpt>
      <trkpt lat="47.03741" lon="-1.1149">
        <ele>102</ele>
        <time>2012-04-30T14:54:25Z</time>
      </trkpt>
      <trkpt lat="47.03739" lon="-1.11483">
        <ele>102</ele>
        <time>2012-04-30T14:54:25Z</time>
      </trkpt>
      <trkpt lat="47.03734" lon="-1.11468">
        <ele>102</ele>
        <time>2012-04-30T14:54:31Z</time>
      </trkpt>
      <trkpt lat="47.03726" lon="-1.11437">
        <ele>102</ele>
        <time>2012-04-30T14:54:31Z</time>
      </trkpt>
      <trkpt lat="47.03723" lon="-1.11429">
        <ele>102</ele>
        <time>2012-04-30T14:54:32Z</time>
      </trkpt>
      <trkpt lat="47.03719" lon="-1.11413">
        <ele>102</ele>
        <time>2012-04-30T14:54:38Z</time>
      </trkpt>
      <trkpt lat="47.03707" lon="-1.11373">
        <ele>102</ele>
        <time>2012-04-30T14:54:39Z</time>
      </trkpt>
      <trkpt lat="47.03705" lon="-1.11365">
        <ele>102</ele>
        <time>2012-04-30T14:54:40Z</time>
      </trkpt>
      <trkpt lat="47.03701" lon="-1.11349">
        <ele>102</ele>
        <time>2012-04-30T14:54:46Z</time>
      </trkpt>
      <trkpt lat="47.03691" lon="-1.11317">
        <ele>102</ele>
        <time>2012-04-30T14:54:46Z</time>
      </trkpt>
      <trkpt lat="47.03689" lon="-1.11309">
        <ele>103</ele>
        <time>2012-04-30T14:54:47Z</time>
      </trkpt>
      <trkpt lat="47.03685" lon="-1.11294">
        <ele>103</ele>
        <time>2012-04-30T14:54:53Z</time>
      </trkpt>
      <trkpt lat="47.03673" lon="-1.11253">
        <ele>104</ele>
        <time>2012-04-30T14:54:54Z</time>
      </trkpt>
      <trkpt lat="47.0367" lon="-1.11244">
        <ele>104</ele>
        <time>2012-04-30T14:54:55Z</time>
      </trkpt>
      <trkpt lat="47.03666" lon="-1.11228">
        <ele>105</ele>
        <time>2012-04-30T14:55:01Z</time>
      </trkpt>
      <trkpt lat="47.03656" lon="-1.11194">
        <ele>105</ele>
        <time>2012-04-30T14:55:01Z</time>
      </trkpt>
      <trkpt lat="47.03653" lon="-1.11186">
        <ele>105</ele>
        <time>2012-04-30T14:55:02Z</time>
      </trkpt>
      <trkpt lat="47.03647" lon="-1.11168">
        <ele>105</ele>
        <time>2012-04-30T14:55:08Z</time>
      </trkpt>
      <trkpt lat="47.03635" lon="-1.11121">
        <ele>105</ele>
        <time>2012-04-30T14:55:09Z</time>
      </trkpt>
      <trkpt lat="47.03632" lon="-1.11111">
        <ele>105</ele>
        <time>2012-04-30T14:55:10Z</time>
      </trkpt>
      <trkpt lat="47.03628" lon="-1.11092">
        <ele>105</ele>
        <time>2012-04-30T14:55:16Z</time>
      </trkpt>
      <trkpt lat="47.03618" lon="-1.11056">
        <ele>105</ele>
        <time>2012-04-30T14:55:16Z</time>
      </trkpt>
      <trkpt lat="47.03616" lon="-1.11046">
        <ele>105</ele>
        <time>2012-04-30T14:55:17Z</time>
      </trkpt>
      <trkpt lat="47.0361" lon="-1.11029">
        <ele>105</ele>
        <time>2012-04-30T14:55:23Z</time>
      </trkpt>
      <trkpt lat="47.03596" lon="-1.10982">
        <ele>105</ele>
        <time>2012-04-30T14:55:24Z</time>
      </trkpt>
      <trkpt lat="47.03594" lon="-1.10972">
        <ele>105</ele>
        <time>2012-04-30T14:55:25Z</time>
      </trkpt>
      <trkpt lat="47.03588" lon="-1.10952">
        <ele>105</ele>
        <time>2012-04-30T14:55:31Z</time>
      </trkpt>
      <trkpt lat="47.03577" lon="-1.10917">
        <ele>105</ele>
        <time>2012-04-30T14:55:31Z</time>
      </trkpt>
      <trkpt lat="47.03574" lon="-1.10908">
        <ele>105</ele>
        <time>2012-04-30T14:55:32Z</time>
      </trkpt>
      <trkpt lat="47.0357" lon="-1.10891">
        <ele>105</ele>
        <time>2012-04-30T14:55:38Z</time>
      </trkpt>
      <trkpt lat="47.03558" lon="-1.1085">
        <ele>105</ele>
        <time>2012-04-30T14:55:39Z</time>
      </trkpt>
      <trkpt lat="47.03556" lon="-1.10842">
        <ele>105</ele>
        <time>2012-04-30T14:55:40Z</time>
      </trkpt>
      <trkpt lat="47.03551" lon="-1.10826">
        <ele>105</ele>
        <time>2012-04-30T14:55:46Z</time>
      </trkpt>
      <trkpt lat="47.03541" lon="-1.10794">
        <ele>105</ele>
        <time>2012-04-30T14:55:46Z</time>
      </trkpt>
      <trkpt lat="47.03539" lon="-1.10786">
        <ele>105</ele>
        <time>2012-04-30T14:55:47Z</time>
      </trkpt>
      <trkpt lat="47.03534" lon="-1.10771">
        <ele>105</ele>
        <time>2012-04-30T14:55:53Z</time>
      </trkpt>
      <trkpt lat="47.03524" lon="-1.10732">
        <ele>105</ele>
        <time>2012-04-30T14:55:54Z</time>
      </trkpt>
      <trkpt lat="47.03521" lon="-1.10724">
        <ele>105</ele>
        <time>2012-04-30T14:55:55Z</time>
      </trkpt>
      <trkpt lat="47.03517" lon="-1.10708">
        <ele>105</ele>
        <time>2012-04-30T14:56:01Z</time>
      </trkpt>
      <trkpt lat="47.03508" lon="-1.10677">
        <ele>105</ele>
        <time>2012-04-30T14:56:01Z</time>
      </trkpt>
      <trkpt lat="47.03506" lon="-1.10669">
        <ele>105</ele>
        <time>2012-04-30T14:56:02Z</time>
      </trkpt>
      <trkpt lat="47.03501" lon="-1.10654">
        <ele>105</ele>
        <time>2012-04-30T14:56:08Z</time>
      </trkpt>
      <trkpt lat="47.03491" lon="-1.10615">
        <ele>105</ele>
        <time>2012-04-30T14:56:09Z</time>
      </trkpt>
      <trkpt lat="47.03489" lon="-1.10607">
        <ele>105</ele>
        <time>2012-04-30T14:56:10Z</time>
      </trkpt>
      <trkpt lat="47.03484" lon="-1.10592">
        <ele>105</ele>
        <time>2012-04-30T14:56:16Z</time>
      </trkpt>
      <trkpt lat="47.03475" lon="-1.10561">
        <ele>105</ele>
        <time>2012-04-30T14:56:16Z</time>
      </trkpt>
      <trkpt lat="47.03473" lon="-1.10553">
        <ele>105</ele>
        <time>2012-04-30T14:56:17Z</time>
      </trkpt>
      <trkpt lat="47.03469" lon="-1.10538">
        <ele>105</ele>
        <time>2012-04-30T14:56:23Z</time>
      </trkpt>
      <trkpt lat="47.03458" lon="-1.10498">
        <ele>106</ele>
        <time>2012-04-30T14:56:24Z</time>
      </trkpt>
      <trkpt lat="47.03456" lon="-1.10489">
        <ele>106</ele>
        <time>2012-04-30T14:56:25Z</time>
      </trkpt>
      <trkpt lat="47.03451" lon="-1.10472">
        <ele>106</ele>
        <time>2012-04-30T14:56:31Z</time>
      </trkpt>
      <trkpt lat="47.03441" lon="-1.10437">
        <ele>106</ele>
        <time>2012-04-30T14:56:31Z</time>
      </trkpt>
      <trkpt lat="47.03438" lon="-1.10429">
        <ele>106</ele>
        <time>2012-04-30T14:56:32Z</time>
      </trkpt>
      <trkpt lat="47.03432" lon="-1.10412">
        <ele>106</ele>
        <time>2012-04-30T14:56:38Z</time>
      </trkpt>
      <trkpt lat="47.03419" lon="-1.10366">
        <ele>106</ele>
        <time>2012-04-30T14:56:39Z</time>
      </trkpt>
      <trkpt lat="47.03416" lon="-1.10357">
        <ele>106</ele>
        <time>2012-04-30T14:56:40Z</time>
      </trkpt>
      <trkpt lat="47.03401" lon="-1.10299">
        <ele>106</ele>
        <time>2012-04-30T14:56:46Z</time>
      </trkpt>
      <trkpt lat="47.03399" lon="-1.1029">
        <ele>106</ele>
        <time>2012-04-30T14:56:47Z</time>
      </trkpt>
      <trkpt lat="47.03394" lon="-1.10273">
        <ele>106</ele>
        <time>2012-04-30T14:56:53Z</time>
      </trkpt>
      <trkpt lat="47.03382" lon="-1.10228">
        <ele>105</ele>
        <time>2012-04-30T14:56:54Z</time>
      </trkpt>
      <trkpt lat="47.03379" lon="-1.10219">
        <ele>105</ele>
        <time>2012-04-30T14:56:55Z</time>
      </trkpt>
      <trkpt lat="47.03363" lon="-1.10156">
        <ele>104</ele>
        <time>2012-04-30T14:57:01Z</time>
      </trkpt>
      <trkpt lat="47.0336" lon="-1.10145">
        <ele>103</ele>
        <time>2012-04-30T14:57:02Z</time>
      </trkpt>
      <trkpt lat="47.03355" lon="-1.10123">
        <ele>102</ele>
        <time>2012-04-30T14:57:08Z</time>
      </trkpt>
      <trkpt lat="47.03343" lon="-1.10069">
        <ele>102</ele>
        <time>2012-04-30T14:57:09Z</time>
      </trkpt>
      <trkpt lat="47.03341" lon="-1.10057">
        <ele>101</ele>
        <time>2012-04-30T14:57:10Z</time>
      </trkpt>
      <trkpt lat="47.03333" lon="-1.09987">
        <ele>101</ele>
        <time>2012-04-30T14:57:16Z</time>
      </trkpt>
      <trkpt lat="47.03332" lon="-1.09975">
        <ele>100</ele>
        <time>2012-04-30T14:57:17Z</time>
      </trkpt>
      <trkpt lat="47.0333" lon="-1.09952">
        <ele>100</ele>
        <time>2012-04-30T14:57:23Z</time>
      </trkpt>
      <trkpt lat="47.03325" lon="-1.09901">
        <ele>100</ele>
        <time>2012-04-30T14:57:24Z</time>
      </trkpt>
      <trkpt lat="47.03324" lon="-1.09891">
        <ele>100</ele>
        <time>2012-04-30T14:57:25Z</time>
      </trkpt>
      <trkpt lat="47.03316" lon="-1.0984">
        <ele>100</ele>
        <time>2012-04-30T14:57:31Z</time>
      </trkpt>
      <trkpt lat="47.03315" lon="-1.09832">
        <ele>100</ele>
        <time>2012-04-30T14:57:32Z</time>
      </trkpt>
      <trkpt lat="47.03314" lon="-1.09823">
        <ele>100</ele>
        <time>2012-04-30T14:57:33Z</time>
      </trkpt>
      <trkpt lat="47.03311" lon="-1.09807">
        <ele>100</ele>
        <time>2012-04-30T14:57:39Z</time>
      </trkpt>
      <trkpt lat="47.03305" lon="-1.09773">
        <ele>100</ele>
        <time>2012-04-30T14:57:39Z</time>
      </trkpt>
      <trkpt lat="47.03303" lon="-1.09765">
        <ele>101</ele>
        <time>2012-04-30T14:57:40Z</time>
      </trkpt>
      <trkpt lat="47.033" lon="-1.09749">
        <ele>101</ele>
        <time>2012-04-30T14:57:46Z</time>
      </trkpt>
      <trkpt lat="47.03292" lon="-1.09709">
        <ele>102</ele>
        <time>2012-04-30T14:57:47Z</time>
      </trkpt>
      <trkpt lat="47.03291" lon="-1.09701">
        <ele>103</ele>
        <time>2012-04-30T14:57:48Z</time>
      </trkpt>
      <trkpt lat="47.03288" lon="-1.09685">
        <ele>103</ele>
        <time>2012-04-30T14:57:54Z</time>
      </trkpt>
      <trkpt lat="47.03282" lon="-1.09652">
        <ele>104</ele>
        <time>2012-04-30T14:57:54Z</time>
      </trkpt>
      <trkpt lat="47.0328" lon="-1.09644">
        <ele>105</ele>
        <time>2012-04-30T14:57:55Z</time>
      </trkpt>
      <trkpt lat="47.03277" lon="-1.09628">
        <ele>105</ele>
        <time>2012-04-30T14:58:01Z</time>
      </trkpt>
      <trkpt lat="47.03269" lon="-1.09586">
        <ele>106</ele>
        <time>2012-04-30T14:58:02Z</time>
      </trkpt>
      <trkpt lat="47.03267" lon="-1.09578">
        <ele>107</ele>
        <time>2012-04-30T14:58:03Z</time>
      </trkpt>
      <trkpt lat="47.03264" lon="-1.09561">
        <ele>107</ele>
        <time>2012-04-30T14:58:09Z</time>
      </trkpt>
      <trkpt lat="47.03258" lon="-1.09528">
        <ele>107</ele>
        <time>2012-04-30T14:58:09Z</time>
      </trkpt>
      <trkpt lat="47.03256" lon="-1.0952">
        <ele>108</ele>
        <time>2012-04-30T14:58:10Z</time>
      </trkpt>
      <trkpt lat="47.03253" lon="-1.09503">
        <ele>108</ele>
        <time>2012-04-30T14:58:16Z</time>
      </trkpt>
      <trkpt lat="47.03244" lon="-1.09459">
        <ele>108</ele>
        <time>2012-04-30T14:58:17Z</time>
      </trkpt>
      <trkpt lat="47.03242" lon="-1.0945">
        <ele>108</ele>
        <time>2012-04-30T14:58:18Z</time>
      </trkpt>
      <trkpt lat="47.0323" lon="-1.09396">
        <ele>108</ele>
        <time>2012-04-30T14:58:24Z</time>
      </trkpt>
      <trkpt lat="47.03228" lon="-1.09387">
        <ele>108</ele>
        <time>2012-04-30T14:58:25Z</time>
      </trkpt>
      <trkpt lat="47.03225" lon="-1.09368">
        <ele>108</ele>
        <time>2012-04-30T14:58:31Z</time>
      </trkpt>
      <trkpt lat="47.03215" lon="-1.0932">
        <ele>109</ele>
        <time>2012-04-30T14:58:32Z</time>
      </trkpt>
      <trkpt lat="47.03214" lon="-1.09311">
        <ele>109</ele>
        <time>2012-04-30T14:58:33Z</time>
      </trkpt>
      <trkpt lat="47.03203" lon="-1.09265">
        <ele>109</ele>
        <time>2012-04-30T14:58:39Z</time>
      </trkpt>
      <trkpt lat="47.03202" lon="-1.09259">
        <ele>109</ele>
        <time>2012-04-30T14:58:40Z</time>
      </trkpt>
      <trkpt lat="47.03197" lon="-1.09249">
        <ele>109</ele>
        <time>2012-04-30T14:58:46Z</time>
      </trkpt>
      <trkpt lat="47.03181" lon="-1.09219">
        <ele>109</ele>
        <time>2012-04-30T14:58:47Z</time>
      </trkpt>
      <trkpt lat="47.03181" lon="-1.09211">
        <ele>109</ele>
        <time>2012-04-30T14:58:48Z</time>
      </trkpt>
      <trkpt lat="47.03181" lon="-1.09203">
        <ele>109</ele>
        <time>2012-04-30T14:58:49Z</time>
      </trkpt>
      <trkpt lat="47.03182" lon="-1.09194">
        <ele>109</ele>
        <time>2012-04-30T14:58:50Z</time>
      </trkpt>
      <trkpt lat="47.03174" lon="-1.09139">
        <ele>109</ele>
        <time>2012-04-30T14:58:56Z</time>
      </trkpt>
      <trkpt lat="47.03172" lon="-1.0913">
        <ele>109</ele>
        <time>2012-04-30T14:58:57Z</time>
      </trkpt>
      <trkpt lat="47.0317" lon="-1.0912">
        <ele>109</ele>
        <time>2012-04-30T14:58:58Z</time>
      </trkpt>
      <trkpt lat="47.03157" lon="-1.09063">
        <ele>109</ele>
        <time>2012-04-30T14:59:04Z</time>
      </trkpt>
      <trkpt lat="47.03155" lon="-1.09054">
        <ele>109</ele>
        <time>2012-04-30T14:59:05Z</time>
      </trkpt>
      <trkpt lat="47.0315" lon="-1.09035">
        <ele>109</ele>
        <time>2012-04-30T14:59:11Z</time>
      </trkpt>
      <trkpt lat="47.03139" lon="-1.08986">
        <ele>109</ele>
        <time>2012-04-30T14:59:12Z</time>
      </trkpt>
      <trkpt lat="47.03137" lon="-1.08976">
        <ele>109</ele>
        <time>2012-04-30T14:59:13Z</time>
      </trkpt>
      <trkpt lat="47.03123" lon="-1.08916">
        <ele>109</ele>
        <time>2012-04-30T14:59:19Z</time>
      </trkpt>
      <trkpt lat="47.0312" lon="-1.08905">
        <ele>109</ele>
        <time>2012-04-30T14:59:20Z</time>
      </trkpt>
      <trkpt lat="47.03118" lon="-1.08894">
        <ele>109</ele>
        <time>2012-04-30T14:59:21Z</time>
      </trkpt>
      <trkpt lat="47.03112" lon="-1.0887">
        <ele>109</ele>
        <time>2012-04-30T14:59:27Z</time>
      </trkpt>
      <trkpt lat="47.03101" lon="-1.08819">
        <ele>108</ele>
        <time>2012-04-30T14:59:27Z</time>
      </trkpt>
      <trkpt lat="47.03098" lon="-1.08805">
        <ele>107</ele>
        <time>2012-04-30T14:59:28Z</time>
      </trkpt>
      <trkpt lat="47.03091" lon="-1.08778">
        <ele>106</ele>
        <time>2012-04-30T14:59:34Z</time>
      </trkpt>
      <trkpt lat="47.03075" lon="-1.08706">
        <ele>105</ele>
        <time>2012-04-30T14:59:35Z</time>
      </trkpt>
      <trkpt lat="47.03071" lon="-1.08692">
        <ele>104</ele>
        <time>2012-04-30T14:59:36Z</time>
      </trkpt>
      <trkpt lat="47.03064" lon="-1.08662">
        <ele>103</ele>
        <time>2012-04-30T14:59:42Z</time>
      </trkpt>
      <trkpt lat="47.0305" lon="-1.08602">
        <ele>102</ele>
        <time>2012-04-30T14:59:42Z</time>
      </trkpt>
      <trkpt lat="47.03047" lon="-1.08587">
        <ele>101</ele>
        <time>2012-04-30T14:59:43Z</time>
      </trkpt>
      <trkpt lat="47.0304" lon="-1.08556">
        <ele>100</ele>
        <time>2012-04-30T14:59:49Z</time>
      </trkpt>
      <trkpt lat="47.03022" lon="-1.08484">
        <ele>99</ele>
        <time>2012-04-30T14:59:50Z</time>
      </trkpt>
      <trkpt lat="47.03019" lon="-1.08473">
        <ele>98</ele>
        <time>2012-04-30T14:59:51Z</time>
      </trkpt>
      <trkpt lat="47.03013" lon="-1.08449">
        <ele>97</ele>
        <time>2012-04-30T14:59:57Z</time>
      </trkpt>
      <trkpt lat="47.03003" lon="-1.08406">
        <ele>96</ele>
        <time>2012-04-30T14:59:57Z</time>
      </trkpt>
      <trkpt lat="47.03" lon="-1.08396">
        <ele>96</ele>
        <time>2012-04-30T14:59:58Z</time>
      </trkpt>
      <trkpt lat="47.02995" lon="-1.08376">
        <ele>96</ele>
        <time>2012-04-30T15:00:04Z</time>
      </trkpt>
      <trkpt lat="47.02984" lon="-1.08327">
        <ele>96</ele>
        <time>2012-04-30T15:00:05Z</time>
      </trkpt>
      <trkpt lat="47.02982" lon="-1.08318">
        <ele>96</ele>
        <time>2012-04-30T15:00:06Z</time>
      </trkpt>
      <trkpt lat="47.02969" lon="-1.08262">
        <ele>96</ele>
        <time>2012-04-30T15:00:12Z</time>
      </trkpt>
      <trkpt lat="47.02967" lon="-1.08251">
        <ele>96</ele>
        <time>2012-04-30T15:00:13Z</time>
      </trkpt>
      <trkpt lat="47.02962" lon="-1.0823">
        <ele>96</ele>
        <time>2012-04-30T15:00:19Z</time>
      </trkpt>
      <trkpt lat="47.0295" lon="-1.08176">
        <ele>96</ele>
        <time>2012-04-30T15:00:20Z</time>
      </trkpt>
      <trkpt lat="47.02948" lon="-1.08165">
        <ele>96</ele>
        <time>2012-04-30T15:00:21Z</time>
      </trkpt>
      <trkpt lat="47.02932" lon="-1.08097">
        <ele>96</ele>
        <time>2012-04-30T15:00:27Z</time>
      </trkpt>
      <trkpt lat="47.02929" lon="-1.08086">
        <ele>96</ele>
        <time>2012-04-30T15:00:28Z</time>
      </trkpt>
      <trkpt lat="47.02924" lon="-1.08065">
        <ele>96</ele>
        <time>2012-04-30T15:00:34Z</time>
      </trkpt>
      <trkpt lat="47.02914" lon="-1.08021">
        <ele>96</ele>
        <time>2012-04-30T15:00:35Z</time>
      </trkpt>
      <trkpt lat="47.02911" lon="-1.08013">
        <ele>96</ele>
        <time>2012-04-30T15:00:36Z</time>
      </trkpt>
      <trkpt lat="47.029" lon="-1.07965">
        <ele>96</ele>
        <time>2012-04-30T15:00:42Z</time>
      </trkpt>
      <trkpt lat="47.02898" lon="-1.07957">
        <ele>96</ele>
        <time>2012-04-30T15:00:43Z</time>
      </trkpt>
      <trkpt lat="47.02895" lon="-1.07942">
        <ele>96</ele>
        <time>2012-04-30T15:00:49Z</time>
      </trkpt>
      <trkpt lat="47.02886" lon="-1.07906">
        <ele>96</ele>
        <time>2012-04-30T15:00:50Z</time>
      </trkpt>
      <trkpt lat="47.02885" lon="-1.07899">
        <ele>97</ele>
        <time>2012-04-30T15:00:51Z</time>
      </trkpt>
      <trkpt lat="47.02874" lon="-1.07857">
        <ele>98</ele>
        <time>2012-04-30T15:00:57Z</time>
      </trkpt>
      <trkpt lat="47.02873" lon="-1.0785">
        <ele>99</ele>
        <time>2012-04-30T15:00:58Z</time>
      </trkpt>
      <trkpt lat="47.0287" lon="-1.07836">
        <ele>100</ele>
        <time>2012-04-30T15:01:04Z</time>
      </trkpt>
      <trkpt lat="47.02861" lon="-1.07799">
        <ele>101</ele>
        <time>2012-04-30T15:01:05Z</time>
      </trkpt>
      <trkpt lat="47.0286" lon="-1.07792">
        <ele>102</ele>
        <time>2012-04-30T15:01:06Z</time>
      </trkpt>
      <trkpt lat="47.02848" lon="-1.07744">
        <ele>103</ele>
        <time>2012-04-30T15:01:12Z</time>
      </trkpt>
      <trkpt lat="47.02847" lon="-1.07735">
        <ele>103</ele>
        <time>2012-04-30T15:01:13Z</time>
      </trkpt>
      <trkpt lat="47.02845" lon="-1.07727">
        <ele>104</ele>
        <time>2012-04-30T15:01:14Z</time>
      </trkpt>
      <trkpt lat="47.02841" lon="-1.0771">
        <ele>104</ele>
        <time>2012-04-30T15:01:20Z</time>
      </trkpt>
      <trkpt lat="47.02833" lon="-1.07675">
        <ele>104</ele>
        <time>2012-04-30T15:01:20Z</time>
      </trkpt>
      <trkpt lat="47.02831" lon="-1.07666">
        <ele>104</ele>
        <time>2012-04-30T15:01:21Z</time>
      </trkpt>
      <trkpt lat="47.02827" lon="-1.07649">
        <ele>104</ele>
        <time>2012-04-30T15:01:27Z</time>
      </trkpt>
      <trkpt lat="47.02817" lon="-1.07604">
        <ele>104</ele>
        <time>2012-04-30T15:01:28Z</time>
      </trkpt>
      <trkpt lat="47.02815" lon="-1.07595">
        <ele>104</ele>
        <time>2012-04-30T15:01:29Z</time>
      </trkpt>
      <trkpt lat="47.02811" lon="-1.07575">
        <ele>104</ele>
        <time>2012-04-30T15:01:35Z</time>
      </trkpt>
      <trkpt lat="47.02803" lon="-1.07535">
        <ele>104</ele>
        <time>2012-04-30T15:01:35Z</time>
      </trkpt>
      <trkpt lat="47.028" lon="-1.07525">
        <ele>104</ele>
        <time>2012-04-30T15:01:36Z</time>
      </trkpt>
      <trkpt lat="47.02795" lon="-1.07504">
        <ele>104</ele>
        <time>2012-04-30T15:01:42Z</time>
      </trkpt>
      <trkpt lat="47.02783" lon="-1.07448">
        <ele>104</ele>
        <time>2012-04-30T15:01:43Z</time>
      </trkpt>
      <trkpt lat="47.02781" lon="-1.07436">
        <ele>104</ele>
        <time>2012-04-30T15:01:44Z</time>
      </trkpt>
      <trkpt lat="47.02775" lon="-1.07412">
        <ele>103</ele>
        <time>2012-04-30T15:01:50Z</time>
      </trkpt>
      <trkpt lat="47.02764" lon="-1.07363">
        <ele>102</ele>
        <time>2012-04-30T15:01:50Z</time>
      </trkpt>
      <trkpt lat="47.0276" lon="-1.0735">
        <ele>101</ele>
        <time>2012-04-30T15:01:51Z</time>
      </trkpt>
      <trkpt lat="47.02754" lon="-1.07325">
        <ele>100</ele>
        <time>2012-04-30T15:01:57Z</time>
      </trkpt>
      <trkpt lat="47.02739" lon="-1.0726">
        <ele>99</ele>
        <time>2012-04-30T15:01:58Z</time>
      </trkpt>
      <trkpt lat="47.02736" lon="-1.07246">
        <ele>98</ele>
        <time>2012-04-30T15:01:59Z</time>
      </trkpt>
      <trkpt lat="47.0273" lon="-1.07219">
        <ele>97</ele>
        <time>2012-04-30T15:02:05Z</time>
      </trkpt>
      <trkpt lat="47.02717" lon="-1.07162">
        <ele>96</ele>
        <time>2012-04-30T15:02:05Z</time>
      </trkpt>
      <trkpt lat="47.02713" lon="-1.07148">
        <ele>95</ele>
        <time>2012-04-30T15:02:06Z</time>
      </trkpt>
      <trkpt lat="47.02706" lon="-1.07119">
        <ele>94</ele>
        <time>2012-04-30T15:02:12Z</time>
      </trkpt>
      <trkpt lat="47.02689" lon="-1.07045">
        <ele>93</ele>
        <time>2012-04-30T15:02:13Z</time>
      </trkpt>
      <trkpt lat="47.02686" lon="-1.0703">
        <ele>92</ele>
        <time>2012-04-30T15:02:14Z</time>
      </trkpt>
      <trkpt lat="47.02666" lon="-1.06943">
        <ele>91</ele>
        <time>2012-04-30T15:02:20Z</time>
      </trkpt>
      <trkpt lat="47.02663" lon="-1.0693">
        <ele>90</ele>
        <time>2012-04-30T15:02:21Z</time>
      </trkpt>
      <trkpt lat="47.02656" lon="-1.06904">
        <ele>89</ele>
        <time>2012-04-30T15:02:27Z</time>
      </trkpt>
      <trkpt lat="47.02642" lon="-1.06843">
        <ele>88</ele>
        <time>2012-04-30T15:02:28Z</time>
      </trkpt>
      <trkpt lat="47.02639" lon="-1.06832">
        <ele>87</ele>
        <time>2012-04-30T15:02:29Z</time>
      </trkpt>
      <trkpt lat="47.02624" lon="-1.06771">
        <ele>86</ele>
        <time>2012-04-30T15:02:35Z</time>
      </trkpt>
      <trkpt lat="47.02622" lon="-1.06762">
        <ele>86</ele>
        <time>2012-04-30T15:02:36Z</time>
      </trkpt>
      <trkpt lat="47.02618" lon="-1.06745">
        <ele>86</ele>
        <time>2012-04-30T15:02:42Z</time>
      </trkpt>
      <trkpt lat="47.02608" lon="-1.06706">
        <ele>86</ele>
        <time>2012-04-30T15:02:43Z</time>
      </trkpt>
      <trkpt lat="47.02606" lon="-1.06698">
        <ele>86</ele>
        <time>2012-04-30T15:02:44Z</time>
      </trkpt>
      <trkpt lat="47.02603" lon="-1.06682">
        <ele>86</ele>
        <time>2012-04-30T15:02:50Z</time>
      </trkpt>
      <trkpt lat="47.02594" lon="-1.06644">
        <ele>86</ele>
        <time>2012-04-30T15:02:51Z</time>
      </trkpt>
      <trkpt lat="47.02592" lon="-1.06637">
        <ele>87</ele>
        <time>2012-04-30T15:02:52Z</time>
      </trkpt>
      <trkpt lat="47.02589" lon="-1.06623">
        <ele>88</ele>
        <time>2012-04-30T15:02:58Z</time>
      </trkpt>
      <trkpt lat="47.02582" lon="-1.06595">
        <ele>89</ele>
        <time>2012-04-30T15:02:58Z</time>
      </trkpt>
      <trkpt lat="47.02581" lon="-1.06588">
        <ele>90</ele>
        <time>2012-04-30T15:02:59Z</time>
      </trkpt>
      <trkpt lat="47.02578" lon="-1.06574">
        <ele>91</ele>
        <time>2012-04-30T15:03:05Z</time>
      </trkpt>
      <trkpt lat="47.02569" lon="-1.0654">
        <ele>92</ele>
        <time>2012-04-30T15:03:06Z</time>
      </trkpt>
      <trkpt lat="47.02568" lon="-1.06533">
        <ele>93</ele>
        <time>2012-04-30T15:03:07Z</time>
      </trkpt>
      <trkpt lat="47.02558" lon="-1.06491">
        <ele>94</ele>
        <time>2012-04-30T15:03:13Z</time>
      </trkpt>
      <trkpt lat="47.02556" lon="-1.06484">
        <ele>95</ele>
        <time>2012-04-30T15:03:14Z</time>
      </trkpt>
      <trkpt lat="47.02553" lon="-1.0647">
        <ele>96</ele>
        <time>2012-04-30T15:03:20Z</time>
      </trkpt>
      <trkpt lat="47.02545" lon="-1.06434">
        <ele>96</ele>
        <time>2012-04-30T15:03:21Z</time>
      </trkpt>
      <trkpt lat="47.02543" lon="-1.06427">
        <ele>97</ele>
        <time>2012-04-30T15:03:22Z</time>
      </trkpt>
      <trkpt lat="47.02533" lon="-1.06384">
        <ele>97</ele>
        <time>2012-04-30T15:03:28Z</time>
      </trkpt>
      <trkpt lat="47.02531" lon="-1.06377">
        <ele>98</ele>
        <time>2012-04-30T15:03:29Z</time>
      </trkpt>
      <trkpt lat="47.02528" lon="-1.06362">
        <ele>98</ele>
        <time>2012-04-30T15:03:35Z</time>
      </trkpt>
      <trkpt lat="47.0252" lon="-1.06327">
        <ele>98</ele>
        <time>2012-04-30T15:03:36Z</time>
      </trkpt>
      <trkpt lat="47.02518" lon="-1.0632">
        <ele>99</ele>
        <time>2012-04-30T15:03:37Z</time>
      </trkpt>
      <trkpt lat="47.02515" lon="-1.06306">
        <ele>99</ele>
        <time>2012-04-30T15:03:43Z</time>
      </trkpt>
      <trkpt lat="47.02506" lon="-1.06271">
        <ele>100</ele>
        <time>2012-04-30T15:03:44Z</time>
      </trkpt>
      <trkpt lat="47.02504" lon="-1.06264">
        <ele>100</ele>
        <time>2012-04-30T15:03:45Z</time>
      </trkpt>
      <trkpt lat="47.02501" lon="-1.0625">
        <ele>100</ele>
        <time>2012-04-30T15:03:51Z</time>
      </trkpt>
      <trkpt lat="47.02494" lon="-1.06222">
        <ele>101</ele>
        <time>2012-04-30T15:03:51Z</time>
      </trkpt>
      <trkpt lat="47.02492" lon="-1.06215">
        <ele>102</ele>
        <time>2012-04-30T15:03:52Z</time>
      </trkpt>
      <trkpt lat="47.02488" lon="-1.06202">
        <ele>102</ele>
        <time>2012-04-30T15:03:58Z</time>
      </trkpt>
      <trkpt lat="47.0248" lon="-1.06168">
        <ele>103</ele>
        <time>2012-04-30T15:03:59Z</time>
      </trkpt>
      <trkpt lat="47.02478" lon="-1.06161">
        <ele>103</ele>
        <time>2012-04-30T15:04:00Z</time>
      </trkpt>
      <trkpt lat="47.02466" lon="-1.06126">
        <ele>104</ele>
        <time>2012-04-30T15:04:06Z</time>
      </trkpt>
      <trkpt lat="47.02462" lon="-1.06122">
        <ele>104</ele>
        <time>2012-04-30T15:04:07Z</time>
      </trkpt>
      <trkpt lat="47.02458" lon="-1.0612">
        <ele>105</ele>
        <time>2012-04-30T15:04:08Z</time>
      </trkpt>
      <trkpt lat="47.02454" lon="-1.06118">
        <ele>105</ele>
        <time>2012-04-30T15:04:09Z</time>
      </trkpt>
      <trkpt lat="47.02422" lon="-1.06116">
        <ele>106</ele>
        <time>2012-04-30T15:04:16Z</time>
      </trkpt>
      <trkpt lat="47.02417" lon="-1.06117">
        <ele>106</ele>
        <time>2012-04-30T15:04:17Z</time>
      </trkpt>
      <trkpt lat="47.02412" lon="-1.06117">
        <ele>107</ele>
        <time>2012-04-30T15:04:18Z</time>
      </trkpt>
      <trkpt lat="47.02402" lon="-1.06118">
        <ele>107</ele>
        <time>2012-04-30T15:04:24Z</time>
      </trkpt>
      <trkpt lat="47.02375" lon="-1.0612">
        <ele>108</ele>
        <time>2012-04-30T15:04:25Z</time>
      </trkpt>
      <trkpt lat="47.02369" lon="-1.06121">
        <ele>108</ele>
        <time>2012-04-30T15:04:26Z</time>
      </trkpt>
      <trkpt lat="47.02331" lon="-1.06123">
        <ele>108</ele>
        <time>2012-04-30T15:04:32Z</time>
      </trkpt>
      <trkpt lat="47.02325" lon="-1.06124">
        <ele>108</ele>
        <time>2012-04-30T15:04:33Z</time>
      </trkpt>
      <trkpt lat="47.02313" lon="-1.06125">
        <ele>108</ele>
        <time>2012-04-30T15:04:39Z</time>
      </trkpt>
      <trkpt lat="47.02282" lon="-1.06127">
        <ele>108</ele>
        <time>2012-04-30T15:04:40Z</time>
      </trkpt>
      <trkpt lat="47.02276" lon="-1.06127">
        <ele>108</ele>
        <time>2012-04-30T15:04:41Z</time>
      </trkpt>
      <trkpt lat="47.02241" lon="-1.0613">
        <ele>108</ele>
        <time>2012-04-30T15:04:47Z</time>
      </trkpt>
      <trkpt lat="47.02236" lon="-1.06131">
        <ele>108</ele>
        <time>2012-04-30T15:04:48Z</time>
      </trkpt>
      <trkpt lat="47.0223" lon="-1.06131">
        <ele>108</ele>
        <time>2012-04-30T15:04:49Z</time>
      </trkpt>
      <trkpt lat="47.02219" lon="-1.06132">
        <ele>108</ele>
        <time>2012-04-30T15:04:55Z</time>
      </trkpt>
      <trkpt lat="47.02196" lon="-1.06134">
        <ele>108</ele>
        <time>2012-04-30T15:04:55Z</time>
      </trkpt>
      <trkpt lat="47.0219" lon="-1.06134">
        <ele>108</ele>
        <time>2012-04-30T15:04:56Z</time>
      </trkpt>
      <trkpt lat="47.0218" lon="-1.06135">
        <ele>108</ele>
        <time>2012-04-30T15:05:02Z</time>
      </trkpt>
      <trkpt lat="47.02158" lon="-1.06134">
        <ele>108</ele>
        <time>2012-04-30T15:05:03Z</time>
      </trkpt>
      <trkpt lat="47.02156" lon="-1.06135">
        <ele>108</ele>
        <time>2012-04-30T15:05:04Z</time>
      </trkpt>
      <trkpt lat="47.02143" lon="-1.06136">
        <ele>108</ele>
        <time>2012-04-30T15:05:10Z</time>
      </trkpt>
      <trkpt lat="47.02139" lon="-1.06136">
        <ele>108</ele>
        <time>2012-04-30T15:05:11Z</time>
      </trkpt>
      <trkpt lat="47.02129" lon="-1.06135">
        <ele>108</ele>
        <time>2012-04-30T15:05:17Z</time>
      </trkpt>
      <trkpt lat="47.02104" lon="-1.06136">
        <ele>108</ele>
        <time>2012-04-30T15:05:18Z</time>
      </trkpt>
      <trkpt lat="47.02099" lon="-1.06136">
        <ele>108</ele>
        <time>2012-04-30T15:05:19Z</time>
      </trkpt>
      <trkpt lat="47.02091" lon="-1.06133">
        <ele>108</ele>
        <time>2012-04-30T15:05:25Z</time>
      </trkpt>
      <trkpt lat="47.02085" lon="-1.06099">
        <ele>108</ele>
        <time>2012-04-30T15:05:26Z</time>
      </trkpt>
      <trkpt lat="47.02085" lon="-1.06092">
        <ele>108</ele>
        <time>2012-04-30T15:05:27Z</time>
      </trkpt>
      <trkpt lat="47.02086" lon="-1.06084">
        <ele>108</ele>
        <time>2012-04-30T15:05:28Z</time>
      </trkpt>
      <trkpt lat="47.02089" lon="-1.06068">
        <ele>108</ele>
        <time>2012-04-30T15:05:34Z</time>
      </trkpt>
      <trkpt lat="47.02096" lon="-1.06031">
        <ele>108</ele>
        <time>2012-04-30T15:05:35Z</time>
      </trkpt>
      <trkpt lat="47.02096" lon="-1.06023">
        <ele>108</ele>
        <time>2012-04-30T15:05:36Z</time>
      </trkpt>
      <trkpt lat="47.02095" lon="-1.06008">
        <ele>108</ele>
        <time>2012-04-30T15:05:42Z</time>
      </trkpt>
      <trkpt lat="47.02094" lon="-1.05982">
        <ele>108</ele>
        <time>2012-04-30T15:05:42Z</time>
      </trkpt>
      <trkpt lat="47.02096" lon="-1.05976">
        <ele>108</ele>
        <time>2012-04-30T15:05:43Z</time>
      </trkpt>
      <trkpt lat="47.02099" lon="-1.05971">
        <ele>108</ele>
        <time>2012-04-30T15:05:44Z</time>
      </trkpt>
      <trkpt lat="47.02103" lon="-1.05967">
        <ele>108</ele>
        <time>2012-04-30T15:05:45Z</time>
      </trkpt>
      <trkpt lat="47.02112" lon="-1.05959">
        <ele>108</ele>
        <time>2012-04-30T15:05:52Z</time>
      </trkpt>
      <trkpt lat="47.02126" lon="-1.05917">
        <ele>109</ele>
        <time>2012-04-30T15:05:53Z</time>
      </trkpt>
      <trkpt lat="47.02126" lon="-1.0591">
        <ele>110</ele>
        <time>2012-04-30T15:05:54Z</time>
      </trkpt>
      <trkpt lat="47.02127" lon="-1.05903">
        <ele>110</ele>
        <time>2012-04-30T15:05:55Z</time>
      </trkpt>
      <trkpt lat="47.02126" lon="-1.05888">
        <ele>111</ele>
        <time>2012-04-30T15:06:01Z</time>
      </trkpt>
      <trkpt lat="47.02125" lon="-1.05888">
        <ele>112</ele>
        <time>2012-04-30T15:06:02Z</time>
      </trkpt>
      <trkpt lat="47.02124" lon="-1.05888">
        <ele>112</ele>
        <time>2012-04-30T15:06:03Z</time>
      </trkpt>
      <trkpt lat="47.02123" lon="-1.0589">
        <ele>112</ele>
        <time>2012-04-30T15:06:09Z</time>
      </trkpt>
      <trkpt lat="47.02123" lon="-1.0589">
        <ele>112</ele>
        <time>2012-04-30T15:06:10Z</time>
      </trkpt>
    </trkseg>
  </trk>
</gpx>